<?xml version="1.0" encoding="UTF-8" standalone="no" ?>
<gpx xmlns="http://www.topografix.com/GPX/1/1" xmlns:xsi="http://www.w3.org/2001/XMLSchema-instance" xsi:schemaLocation="http://www.topografix.com/GPX/1/1 http://www.topografix.com/GPX/1/1/gpx.xsd" version="1.1" creator="VisuGPX - https://www.visugpx.com">
  <metadata>
    <name>ER 2026-07-04 Morzine</name>
    <desc><![CDATA[Départ de Morzine, L'Erigné
Points de passage : Chardonnière, Col de Coux, Chalets de Fréterolle, Lac des Mines d'Or]]></desc>
  </metadata>
  <trk>
    <name><![CDATA[Morzine Randonnée]]></name>
    <extensions>
      <line xmlns="http://www.topografix.com/GPX/gpx_style/0/2">
        <color>0000FF</color>
        <width>4</width>
      </line>
    </extensions>
    <trkseg>
      <trkpt lat="46.14963" lon="6.7525">
        <ele>1178</ele>
        <time>2026-07-04T08:03:35.000Z</time>
      </trkpt>
      <trkpt lat="46.14963" lon="6.7525">
        <ele>1178</ele>
        <time>2026-07-04T08:03:36.000Z</time>
      </trkpt>
      <trkpt lat="46.14961" lon="6.75253">
        <ele>1178</ele>
        <time>2026-07-04T08:03:40.000Z</time>
      </trkpt>
      <trkpt lat="46.14961" lon="6.75255">
        <ele>1178.1999511719</ele>
        <time>2026-07-04T08:03:44.000Z</time>
      </trkpt>
      <trkpt lat="46.14963" lon="6.75252">
        <ele>1178.1999511719</ele>
        <time>2026-07-04T08:03:55.000Z</time>
      </trkpt>
      <trkpt lat="46.14964" lon="6.75251">
        <ele>1178.1999511719</ele>
        <time>2026-07-04T08:03:58.000Z</time>
      </trkpt>
      <trkpt lat="46.14964" lon="6.75251">
        <ele>1178.1999511719</ele>
        <time>2026-07-04T08:04:00.000Z</time>
      </trkpt>
      <trkpt lat="46.14963" lon="6.75255">
        <ele>1178</ele>
        <time>2026-07-04T08:04:09.000Z</time>
      </trkpt>
      <trkpt lat="46.14962" lon="6.75255">
        <ele>1178</ele>
        <time>2026-07-04T08:04:12.000Z</time>
      </trkpt>
      <trkpt lat="46.14962" lon="6.75254">
        <ele>1178.1999511719</ele>
        <time>2026-07-04T08:04:14.000Z</time>
      </trkpt>
      <trkpt lat="46.14961" lon="6.7525">
        <ele>1178.1999511719</ele>
        <time>2026-07-04T08:04:26.000Z</time>
      </trkpt>
      <trkpt lat="46.14962" lon="6.75251">
        <ele>1178.1999511719</ele>
        <time>2026-07-04T08:04:40.000Z</time>
      </trkpt>
      <trkpt lat="46.14962" lon="6.75251">
        <ele>1178.1999511719</ele>
        <time>2026-07-04T08:04:41.000Z</time>
      </trkpt>
      <trkpt lat="46.14963" lon="6.75252">
        <ele>1178.4000244141</ele>
        <time>2026-07-04T08:04:58.000Z</time>
      </trkpt>
      <trkpt lat="46.14963" lon="6.75252">
        <ele>1178.4000244141</ele>
        <time>2026-07-04T08:05:00.000Z</time>
      </trkpt>
      <trkpt lat="46.14962" lon="6.75252">
        <ele>1178.4000244141</ele>
        <time>2026-07-04T08:05:02.000Z</time>
      </trkpt>
      <trkpt lat="46.14963" lon="6.75252">
        <ele>1178.4000244141</ele>
        <time>2026-07-04T08:05:04.000Z</time>
      </trkpt>
      <trkpt lat="46.14962" lon="6.75252">
        <ele>1178.5999755859</ele>
        <time>2026-07-04T08:05:13.000Z</time>
      </trkpt>
      <trkpt lat="46.14962" lon="6.75252">
        <ele>1178.8000488281</ele>
        <time>2026-07-04T08:05:14.000Z</time>
      </trkpt>
      <trkpt lat="46.14962" lon="6.75253">
        <ele>1178.8000488281</ele>
        <time>2026-07-04T08:05:16.000Z</time>
      </trkpt>
      <trkpt lat="46.14962" lon="6.75254">
        <ele>1178.5999755859</ele>
        <time>2026-07-04T08:05:22.000Z</time>
      </trkpt>
      <trkpt lat="46.14962" lon="6.75254">
        <ele>1178.5999755859</ele>
        <time>2026-07-04T08:05:32.000Z</time>
      </trkpt>
      <trkpt lat="46.14963" lon="6.75256">
        <ele>1178.5999755859</ele>
        <time>2026-07-04T08:05:37.000Z</time>
      </trkpt>
      <trkpt lat="46.14962" lon="6.75254">
        <ele>1178.8000488281</ele>
        <time>2026-07-04T08:05:42.000Z</time>
      </trkpt>
      <trkpt lat="46.14961" lon="6.75254">
        <ele>1178.8000488281</ele>
        <time>2026-07-04T08:05:43.000Z</time>
      </trkpt>
      <trkpt lat="46.14962" lon="6.75254">
        <ele>1178.4000244141</ele>
        <time>2026-07-04T08:05:50.000Z</time>
      </trkpt>
      <trkpt lat="46.14962" lon="6.75254">
        <ele>1178.5999755859</ele>
        <time>2026-07-04T08:05:54.000Z</time>
      </trkpt>
      <trkpt lat="46.14961" lon="6.75252">
        <ele>1178.4000244141</ele>
        <time>2026-07-04T08:05:58.000Z</time>
      </trkpt>
      <trkpt lat="46.14962" lon="6.75253">
        <ele>1178.4000244141</ele>
        <time>2026-07-04T08:06:05.000Z</time>
      </trkpt>
      <trkpt lat="46.14961" lon="6.75253">
        <ele>1178.4000244141</ele>
        <time>2026-07-04T08:06:07.000Z</time>
      </trkpt>
      <trkpt lat="46.14962" lon="6.75254">
        <ele>1178.4000244141</ele>
        <time>2026-07-04T08:06:09.000Z</time>
      </trkpt>
      <trkpt lat="46.14962" lon="6.75254">
        <ele>1178.1999511719</ele>
        <time>2026-07-04T08:06:20.000Z</time>
      </trkpt>
      <trkpt lat="46.14963" lon="6.75256">
        <ele>1178.4000244141</ele>
        <time>2026-07-04T08:06:24.000Z</time>
      </trkpt>
      <trkpt lat="46.14963" lon="6.75256">
        <ele>1178.4000244141</ele>
        <time>2026-07-04T08:06:28.000Z</time>
      </trkpt>
      <trkpt lat="46.14963" lon="6.75255">
        <ele>1178.4000244141</ele>
        <time>2026-07-04T08:06:29.000Z</time>
      </trkpt>
      <trkpt lat="46.14962" lon="6.75255">
        <ele>1178.4000244141</ele>
        <time>2026-07-04T08:06:31.000Z</time>
      </trkpt>
      <trkpt lat="46.14962" lon="6.75255">
        <ele>1178.5999755859</ele>
        <time>2026-07-04T08:06:33.000Z</time>
      </trkpt>
      <trkpt lat="46.14961" lon="6.75255">
        <ele>1178.4000244141</ele>
        <time>2026-07-04T08:06:41.000Z</time>
      </trkpt>
      <trkpt lat="46.14962" lon="6.75255">
        <ele>1178.4000244141</ele>
        <time>2026-07-04T08:06:44.000Z</time>
      </trkpt>
      <trkpt lat="46.14961" lon="6.75255">
        <ele>1178.4000244141</ele>
        <time>2026-07-04T08:06:52.000Z</time>
      </trkpt>
      <trkpt lat="46.1496" lon="6.75255">
        <ele>1178.4000244141</ele>
        <time>2026-07-04T08:06:58.000Z</time>
      </trkpt>
      <trkpt lat="46.14959" lon="6.75259">
        <ele>1178.5999755859</ele>
        <time>2026-07-04T08:07:08.000Z</time>
      </trkpt>
      <trkpt lat="46.1496" lon="6.75265">
        <ele>1179</ele>
        <time>2026-07-04T08:07:16.000Z</time>
      </trkpt>
      <trkpt lat="46.14961" lon="6.75266">
        <ele>1179</ele>
        <time>2026-07-04T08:07:17.000Z</time>
      </trkpt>
      <trkpt lat="46.14961" lon="6.75266">
        <ele>1179</ele>
        <time>2026-07-04T08:07:18.000Z</time>
      </trkpt>
      <trkpt lat="46.1496" lon="6.75269">
        <ele>1179.1999511719</ele>
        <time>2026-07-04T08:07:23.000Z</time>
      </trkpt>
      <trkpt lat="46.1496" lon="6.75269">
        <ele>1179.1999511719</ele>
        <time>2026-07-04T08:07:25.000Z</time>
      </trkpt>
      <trkpt lat="46.1496" lon="6.7527">
        <ele>1179.4000244141</ele>
        <time>2026-07-04T08:07:33.000Z</time>
      </trkpt>
      <trkpt lat="46.1496" lon="6.7527">
        <ele>1179.4000244141</ele>
        <time>2026-07-04T08:07:35.000Z</time>
      </trkpt>
      <trkpt lat="46.1496" lon="6.75271">
        <ele>1179.4000244141</ele>
        <time>2026-07-04T08:07:46.000Z</time>
      </trkpt>
      <trkpt lat="46.14959" lon="6.75274">
        <ele>1179.4000244141</ele>
        <time>2026-07-04T08:08:00.000Z</time>
      </trkpt>
      <trkpt lat="46.14959" lon="6.75274">
        <ele>1179.4000244141</ele>
        <time>2026-07-04T08:08:03.000Z</time>
      </trkpt>
      <trkpt lat="46.14959" lon="6.75274">
        <ele>1179.4000244141</ele>
        <time>2026-07-04T08:08:19.000Z</time>
      </trkpt>
      <trkpt lat="46.14959" lon="6.75274">
        <ele>1179.1999511719</ele>
        <time>2026-07-04T08:08:31.000Z</time>
      </trkpt>
      <trkpt lat="46.14959" lon="6.75274">
        <ele>1179.1999511719</ele>
        <time>2026-07-04T08:08:34.000Z</time>
      </trkpt>
      <trkpt lat="46.14959" lon="6.75274">
        <ele>1179.1999511719</ele>
        <time>2026-07-04T08:08:42.000Z</time>
      </trkpt>
      <trkpt lat="46.14959" lon="6.75274">
        <ele>1179.1999511719</ele>
        <time>2026-07-04T08:08:58.000Z</time>
      </trkpt>
      <trkpt lat="46.1496" lon="6.75273">
        <ele>1179.4000244141</ele>
        <time>2026-07-04T08:09:07.000Z</time>
      </trkpt>
      <trkpt lat="46.1496" lon="6.75273">
        <ele>1179.4000244141</ele>
        <time>2026-07-04T08:09:13.000Z</time>
      </trkpt>
      <trkpt lat="46.14961" lon="6.75275">
        <ele>1179.5999755859</ele>
        <time>2026-07-04T08:09:27.000Z</time>
      </trkpt>
      <trkpt lat="46.1496" lon="6.7528">
        <ele>1179.8000488281</ele>
        <time>2026-07-04T08:09:36.000Z</time>
      </trkpt>
      <trkpt lat="46.14959" lon="6.75281">
        <ele>1179.8000488281</ele>
        <time>2026-07-04T08:09:41.000Z</time>
      </trkpt>
      <trkpt lat="46.14959" lon="6.7528">
        <ele>1179.8000488281</ele>
        <time>2026-07-04T08:09:46.000Z</time>
      </trkpt>
      <trkpt lat="46.14959" lon="6.7528">
        <ele>1179.8000488281</ele>
        <time>2026-07-04T08:09:47.000Z</time>
      </trkpt>
      <trkpt lat="46.14959" lon="6.75283">
        <ele>1180</ele>
        <time>2026-07-04T08:09:53.000Z</time>
      </trkpt>
      <trkpt lat="46.14958" lon="6.75284">
        <ele>1180</ele>
        <time>2026-07-04T08:09:57.000Z</time>
      </trkpt>
      <trkpt lat="46.14959" lon="6.75285">
        <ele>1180.1999511719</ele>
        <time>2026-07-04T08:10:06.000Z</time>
      </trkpt>
      <trkpt lat="46.1496" lon="6.75285">
        <ele>1180.1999511719</ele>
        <time>2026-07-04T08:10:09.000Z</time>
      </trkpt>
      <trkpt lat="46.14959" lon="6.75284">
        <ele>1180.4000244141</ele>
        <time>2026-07-04T08:10:14.000Z</time>
      </trkpt>
      <trkpt lat="46.14958" lon="6.75285">
        <ele>1180.8000488281</ele>
        <time>2026-07-04T08:10:20.000Z</time>
      </trkpt>
      <trkpt lat="46.14957" lon="6.75285">
        <ele>1180.8000488281</ele>
        <time>2026-07-04T08:10:30.000Z</time>
      </trkpt>
      <trkpt lat="46.14956" lon="6.75284">
        <ele>1181</ele>
        <time>2026-07-04T08:10:42.000Z</time>
      </trkpt>
      <trkpt lat="46.14957" lon="6.75284">
        <ele>1181</ele>
        <time>2026-07-04T08:10:56.000Z</time>
      </trkpt>
      <trkpt lat="46.14958" lon="6.75284">
        <ele>1180.8000488281</ele>
        <time>2026-07-04T08:11:06.000Z</time>
      </trkpt>
      <trkpt lat="46.14959" lon="6.75282">
        <ele>1180.8000488281</ele>
        <time>2026-07-04T08:11:19.000Z</time>
      </trkpt>
      <trkpt lat="46.14961" lon="6.75283">
        <ele>1181.4000244141</ele>
        <time>2026-07-04T08:11:32.000Z</time>
      </trkpt>
      <trkpt lat="46.14961" lon="6.75284">
        <ele>1181.4000244141</ele>
        <time>2026-07-04T08:11:43.000Z</time>
      </trkpt>
      <trkpt lat="46.1496" lon="6.75284">
        <ele>1181.4000244141</ele>
        <time>2026-07-04T08:11:46.000Z</time>
      </trkpt>
      <trkpt lat="46.1496" lon="6.75282">
        <ele>1181.4000244141</ele>
        <time>2026-07-04T08:11:53.000Z</time>
      </trkpt>
      <trkpt lat="46.14961" lon="6.75282">
        <ele>1181.5999755859</ele>
        <time>2026-07-04T08:12:05.000Z</time>
      </trkpt>
      <trkpt lat="46.14962" lon="6.75282">
        <ele>1181.4000244141</ele>
        <time>2026-07-04T08:12:17.000Z</time>
      </trkpt>
      <trkpt lat="46.14961" lon="6.75283">
        <ele>1181.4000244141</ele>
        <time>2026-07-04T08:12:22.000Z</time>
      </trkpt>
      <trkpt lat="46.14958" lon="6.75284">
        <ele>1181.5999755859</ele>
        <time>2026-07-04T08:12:29.000Z</time>
      </trkpt>
      <trkpt lat="46.14959" lon="6.75285">
        <ele>1181.5999755859</ele>
        <time>2026-07-04T08:12:34.000Z</time>
      </trkpt>
      <trkpt lat="46.14959" lon="6.75285">
        <ele>1181.5999755859</ele>
        <time>2026-07-04T08:12:39.000Z</time>
      </trkpt>
      <trkpt lat="46.14958" lon="6.75286">
        <ele>1181.5999755859</ele>
        <time>2026-07-04T08:12:50.000Z</time>
      </trkpt>
      <trkpt lat="46.14959" lon="6.75286">
        <ele>1181.5999755859</ele>
        <time>2026-07-04T08:12:57.000Z</time>
      </trkpt>
      <trkpt lat="46.14959" lon="6.75286">
        <ele>1181.5999755859</ele>
        <time>2026-07-04T08:12:58.000Z</time>
      </trkpt>
      <trkpt lat="46.14959" lon="6.75286">
        <ele>1181.5999755859</ele>
        <time>2026-07-04T08:13:05.000Z</time>
      </trkpt>
      <trkpt lat="46.14958" lon="6.75285">
        <ele>1181.5999755859</ele>
        <time>2026-07-04T08:13:13.000Z</time>
      </trkpt>
      <trkpt lat="46.1496" lon="6.75286">
        <ele>1181.5999755859</ele>
        <time>2026-07-04T08:13:21.000Z</time>
      </trkpt>
      <trkpt lat="46.14963" lon="6.75279">
        <ele>1181.5999755859</ele>
        <time>2026-07-04T08:13:28.000Z</time>
      </trkpt>
      <trkpt lat="46.14962" lon="6.75277">
        <ele>1181.1999511719</ele>
        <time>2026-07-04T08:13:37.000Z</time>
      </trkpt>
      <trkpt lat="46.14961" lon="6.75277">
        <ele>1181.1999511719</ele>
        <time>2026-07-04T08:13:47.000Z</time>
      </trkpt>
      <trkpt lat="46.14962" lon="6.75278">
        <ele>1181.5999755859</ele>
        <time>2026-07-04T08:13:54.000Z</time>
      </trkpt>
      <trkpt lat="46.14964" lon="6.75279">
        <ele>1181.4000244141</ele>
        <time>2026-07-04T08:14:06.000Z</time>
      </trkpt>
      <trkpt lat="46.14963" lon="6.75279">
        <ele>1181.4000244141</ele>
        <time>2026-07-04T08:14:11.000Z</time>
      </trkpt>
      <trkpt lat="46.14962" lon="6.75278">
        <ele>1181.4000244141</ele>
        <time>2026-07-04T08:14:19.000Z</time>
      </trkpt>
      <trkpt lat="46.14963" lon="6.75278">
        <ele>1181.4000244141</ele>
        <time>2026-07-04T08:14:32.000Z</time>
      </trkpt>
      <trkpt lat="46.1496" lon="6.75275">
        <ele>1181</ele>
        <time>2026-07-04T08:14:40.000Z</time>
      </trkpt>
      <trkpt lat="46.1496" lon="6.75274">
        <ele>1180.8000488281</ele>
        <time>2026-07-04T08:14:48.000Z</time>
      </trkpt>
      <trkpt lat="46.14959" lon="6.75274">
        <ele>1180.8000488281</ele>
        <time>2026-07-04T08:14:59.000Z</time>
      </trkpt>
      <trkpt lat="46.14959" lon="6.75274">
        <ele>1180.8000488281</ele>
        <time>2026-07-04T08:15:03.000Z</time>
      </trkpt>
      <trkpt lat="46.14959" lon="6.75274">
        <ele>1180.8000488281</ele>
        <time>2026-07-04T08:15:09.000Z</time>
      </trkpt>
      <trkpt lat="46.14959" lon="6.75274">
        <ele>1180.8000488281</ele>
        <time>2026-07-04T08:15:26.000Z</time>
      </trkpt>
      <trkpt lat="46.14959" lon="6.75274">
        <ele>1180.8000488281</ele>
        <time>2026-07-04T08:15:31.000Z</time>
      </trkpt>
      <trkpt lat="46.1496" lon="6.75273">
        <ele>1180.8000488281</ele>
        <time>2026-07-04T08:15:41.000Z</time>
      </trkpt>
      <trkpt lat="46.14962" lon="6.75283">
        <ele>1181</ele>
        <time>2026-07-04T08:15:47.000Z</time>
      </trkpt>
      <trkpt lat="46.1496" lon="6.75295">
        <ele>1181.5999755859</ele>
        <time>2026-07-04T08:15:56.000Z</time>
      </trkpt>
      <trkpt lat="46.14959" lon="6.75306">
        <ele>1182.1999511719</ele>
        <time>2026-07-04T08:16:05.000Z</time>
      </trkpt>
      <trkpt lat="46.14958" lon="6.75313">
        <ele>1182.4000244141</ele>
        <time>2026-07-04T08:16:11.000Z</time>
      </trkpt>
      <trkpt lat="46.14957" lon="6.75319">
        <ele>1182.8000488281</ele>
        <time>2026-07-04T08:16:15.000Z</time>
      </trkpt>
      <trkpt lat="46.14955" lon="6.75326">
        <ele>1183.1999511719</ele>
        <time>2026-07-04T08:16:22.000Z</time>
      </trkpt>
      <trkpt lat="46.14955" lon="6.75327">
        <ele>1183.1999511719</ele>
        <time>2026-07-04T08:16:23.000Z</time>
      </trkpt>
      <trkpt lat="46.14955" lon="6.75332">
        <ele>1183.5999755859</ele>
        <time>2026-07-04T08:16:26.000Z</time>
      </trkpt>
      <trkpt lat="46.14955" lon="6.75339">
        <ele>1183.8000488281</ele>
        <time>2026-07-04T08:16:31.000Z</time>
      </trkpt>
      <trkpt lat="46.14954" lon="6.75351">
        <ele>1184.5999755859</ele>
        <time>2026-07-04T08:16:39.000Z</time>
      </trkpt>
      <trkpt lat="46.14954" lon="6.75353">
        <ele>1184.5999755859</ele>
        <time>2026-07-04T08:16:41.000Z</time>
      </trkpt>
      <trkpt lat="46.14951" lon="6.75371">
        <ele>1185.5999755859</ele>
        <time>2026-07-04T08:16:53.000Z</time>
      </trkpt>
      <trkpt lat="46.14948" lon="6.75384">
        <ele>1186.1999511719</ele>
        <time>2026-07-04T08:17:02.000Z</time>
      </trkpt>
      <trkpt lat="46.14947" lon="6.75391">
        <ele>1186.5999755859</ele>
        <time>2026-07-04T08:17:06.000Z</time>
      </trkpt>
      <trkpt lat="46.14946" lon="6.75398">
        <ele>1187.1999511719</ele>
        <time>2026-07-04T08:17:11.000Z</time>
      </trkpt>
      <trkpt lat="46.14944" lon="6.75404">
        <ele>1187.5999755859</ele>
        <time>2026-07-04T08:17:16.000Z</time>
      </trkpt>
      <trkpt lat="46.14942" lon="6.75408">
        <ele>1187.8000488281</ele>
        <time>2026-07-04T08:17:19.000Z</time>
      </trkpt>
      <trkpt lat="46.14942" lon="6.7541">
        <ele>1187.8000488281</ele>
        <time>2026-07-04T08:17:21.000Z</time>
      </trkpt>
      <trkpt lat="46.14939" lon="6.75419">
        <ele>1188.4000244141</ele>
        <time>2026-07-04T08:17:28.000Z</time>
      </trkpt>
      <trkpt lat="46.14939" lon="6.75424">
        <ele>1188.8000488281</ele>
        <time>2026-07-04T08:17:31.000Z</time>
      </trkpt>
      <trkpt lat="46.14939" lon="6.75431">
        <ele>1189.1999511719</ele>
        <time>2026-07-04T08:17:37.000Z</time>
      </trkpt>
      <trkpt lat="46.14939" lon="6.75443">
        <ele>1189.8000488281</ele>
        <time>2026-07-04T08:17:45.000Z</time>
      </trkpt>
      <trkpt lat="46.14939" lon="6.75449">
        <ele>1190.1999511719</ele>
        <time>2026-07-04T08:17:49.000Z</time>
      </trkpt>
      <trkpt lat="46.14938" lon="6.75459">
        <ele>1190.8000488281</ele>
        <time>2026-07-04T08:17:57.000Z</time>
      </trkpt>
      <trkpt lat="46.14938" lon="6.75462">
        <ele>1191</ele>
        <time>2026-07-04T08:17:59.000Z</time>
      </trkpt>
      <trkpt lat="46.14939" lon="6.75475">
        <ele>1192</ele>
        <time>2026-07-04T08:18:08.000Z</time>
      </trkpt>
      <trkpt lat="46.14939" lon="6.75476">
        <ele>1192</ele>
        <time>2026-07-04T08:18:09.000Z</time>
      </trkpt>
      <trkpt lat="46.14939" lon="6.7549">
        <ele>1192.8000488281</ele>
        <time>2026-07-04T08:18:19.000Z</time>
      </trkpt>
      <trkpt lat="46.14939" lon="6.75493">
        <ele>1193</ele>
        <time>2026-07-04T08:18:22.000Z</time>
      </trkpt>
      <trkpt lat="46.1494" lon="6.75501">
        <ele>1193.5999755859</ele>
        <time>2026-07-04T08:18:27.000Z</time>
      </trkpt>
      <trkpt lat="46.14941" lon="6.7551">
        <ele>1194.1999511719</ele>
        <time>2026-07-04T08:18:33.000Z</time>
      </trkpt>
      <trkpt lat="46.14942" lon="6.75518">
        <ele>1194.5999755859</ele>
        <time>2026-07-04T08:18:39.000Z</time>
      </trkpt>
      <trkpt lat="46.14943" lon="6.75525">
        <ele>1195.1999511719</ele>
        <time>2026-07-04T08:18:44.000Z</time>
      </trkpt>
      <trkpt lat="46.14943" lon="6.75531">
        <ele>1195.5999755859</ele>
        <time>2026-07-04T08:18:48.000Z</time>
      </trkpt>
      <trkpt lat="46.14944" lon="6.75541">
        <ele>1196.1999511719</ele>
        <time>2026-07-04T08:18:56.000Z</time>
      </trkpt>
      <trkpt lat="46.14944" lon="6.75553">
        <ele>1197</ele>
        <time>2026-07-04T08:19:03.000Z</time>
      </trkpt>
      <trkpt lat="46.14943" lon="6.75556">
        <ele>1197.4000244141</ele>
        <time>2026-07-04T08:19:05.000Z</time>
      </trkpt>
      <trkpt lat="46.14943" lon="6.75565">
        <ele>1198</ele>
        <time>2026-07-04T08:19:10.000Z</time>
      </trkpt>
      <trkpt lat="46.14944" lon="6.75572">
        <ele>1198.4000244141</ele>
        <time>2026-07-04T08:19:14.000Z</time>
      </trkpt>
      <trkpt lat="46.14944" lon="6.75582">
        <ele>1199</ele>
        <time>2026-07-04T08:19:20.000Z</time>
      </trkpt>
      <trkpt lat="46.14945" lon="6.75589">
        <ele>1199.4000244141</ele>
        <time>2026-07-04T08:19:24.000Z</time>
      </trkpt>
      <trkpt lat="46.14946" lon="6.75599">
        <ele>1200.1999511719</ele>
        <time>2026-07-04T08:19:30.000Z</time>
      </trkpt>
      <trkpt lat="46.14946" lon="6.75602">
        <ele>1200.5999755859</ele>
        <time>2026-07-04T08:19:32.000Z</time>
      </trkpt>
      <trkpt lat="46.14946" lon="6.75606">
        <ele>1201</ele>
        <time>2026-07-04T08:19:34.000Z</time>
      </trkpt>
      <trkpt lat="46.14947" lon="6.75613">
        <ele>1201.4000244141</ele>
        <time>2026-07-04T08:19:38.000Z</time>
      </trkpt>
      <trkpt lat="46.14947" lon="6.75615">
        <ele>1201.5999755859</ele>
        <time>2026-07-04T08:19:39.000Z</time>
      </trkpt>
      <trkpt lat="46.14947" lon="6.75618">
        <ele>1201.8000488281</ele>
        <time>2026-07-04T08:19:41.000Z</time>
      </trkpt>
      <trkpt lat="46.14946" lon="6.75629">
        <ele>1202.8000488281</ele>
        <time>2026-07-04T08:19:48.000Z</time>
      </trkpt>
      <trkpt lat="46.14946" lon="6.75631">
        <ele>1203</ele>
        <time>2026-07-04T08:19:50.000Z</time>
      </trkpt>
      <trkpt lat="46.14947" lon="6.75641">
        <ele>1203.8000488281</ele>
        <time>2026-07-04T08:19:57.000Z</time>
      </trkpt>
      <trkpt lat="46.14947" lon="6.75648">
        <ele>1204.4000244141</ele>
        <time>2026-07-04T08:20:02.000Z</time>
      </trkpt>
      <trkpt lat="46.14947" lon="6.75654">
        <ele>1205</ele>
        <time>2026-07-04T08:20:07.000Z</time>
      </trkpt>
      <trkpt lat="46.14947" lon="6.75658">
        <ele>1205.4000244141</ele>
        <time>2026-07-04T08:20:10.000Z</time>
      </trkpt>
      <trkpt lat="46.14948" lon="6.75667">
        <ele>1206</ele>
        <time>2026-07-04T08:20:16.000Z</time>
      </trkpt>
      <trkpt lat="46.14949" lon="6.75671">
        <ele>1206.4000244141</ele>
        <time>2026-07-04T08:20:19.000Z</time>
      </trkpt>
      <trkpt lat="46.14949" lon="6.75679">
        <ele>1207.1999511719</ele>
        <time>2026-07-04T08:20:26.000Z</time>
      </trkpt>
      <trkpt lat="46.14949" lon="6.75681">
        <ele>1207.4000244141</ele>
        <time>2026-07-04T08:20:28.000Z</time>
      </trkpt>
      <trkpt lat="46.14949" lon="6.7569">
        <ele>1208</ele>
        <time>2026-07-04T08:20:34.000Z</time>
      </trkpt>
      <trkpt lat="46.1495" lon="6.75693">
        <ele>1208.1999511719</ele>
        <time>2026-07-04T08:20:37.000Z</time>
      </trkpt>
      <trkpt lat="46.14949" lon="6.75699">
        <ele>1208.8000488281</ele>
        <time>2026-07-04T08:20:41.000Z</time>
      </trkpt>
      <trkpt lat="46.14949" lon="6.757">
        <ele>1209</ele>
        <time>2026-07-04T08:20:42.000Z</time>
      </trkpt>
      <trkpt lat="46.14948" lon="6.75701">
        <ele>1209.1999511719</ele>
        <time>2026-07-04T08:20:43.000Z</time>
      </trkpt>
      <trkpt lat="46.14948" lon="6.7571">
        <ele>1210.1999511719</ele>
        <time>2026-07-04T08:20:50.000Z</time>
      </trkpt>
      <trkpt lat="46.14949" lon="6.75712">
        <ele>1210.4000244141</ele>
        <time>2026-07-04T08:20:51.000Z</time>
      </trkpt>
      <trkpt lat="46.1495" lon="6.75722">
        <ele>1211.4000244141</ele>
        <time>2026-07-04T08:20:58.000Z</time>
      </trkpt>
      <trkpt lat="46.14949" lon="6.75732">
        <ele>1212.4000244141</ele>
        <time>2026-07-04T08:21:06.000Z</time>
      </trkpt>
      <trkpt lat="46.14949" lon="6.75743">
        <ele>1213.4000244141</ele>
        <time>2026-07-04T08:21:14.000Z</time>
      </trkpt>
      <trkpt lat="46.14951" lon="6.75753">
        <ele>1214.4000244141</ele>
        <time>2026-07-04T08:21:22.000Z</time>
      </trkpt>
      <trkpt lat="46.14951" lon="6.75754">
        <ele>1214.4000244141</ele>
        <time>2026-07-04T08:21:23.000Z</time>
      </trkpt>
      <trkpt lat="46.14951" lon="6.75761">
        <ele>1215.1999511719</ele>
        <time>2026-07-04T08:21:28.000Z</time>
      </trkpt>
      <trkpt lat="46.14951" lon="6.75764">
        <ele>1215.5999755859</ele>
        <time>2026-07-04T08:21:30.000Z</time>
      </trkpt>
      <trkpt lat="46.14951" lon="6.75773">
        <ele>1216.5999755859</ele>
        <time>2026-07-04T08:21:37.000Z</time>
      </trkpt>
      <trkpt lat="46.1495" lon="6.75784">
        <ele>1217.5999755859</ele>
        <time>2026-07-04T08:21:45.000Z</time>
      </trkpt>
      <trkpt lat="46.1495" lon="6.75787">
        <ele>1218</ele>
        <time>2026-07-04T08:21:47.000Z</time>
      </trkpt>
      <trkpt lat="46.1495" lon="6.75792">
        <ele>1218.5999755859</ele>
        <time>2026-07-04T08:21:52.000Z</time>
      </trkpt>
      <trkpt lat="46.14951" lon="6.75795">
        <ele>1218.8000488281</ele>
        <time>2026-07-04T08:21:54.000Z</time>
      </trkpt>
      <trkpt lat="46.14952" lon="6.758">
        <ele>1219.1999511719</ele>
        <time>2026-07-04T08:21:57.000Z</time>
      </trkpt>
      <trkpt lat="46.14953" lon="6.75809">
        <ele>1220</ele>
        <time>2026-07-04T08:22:02.000Z</time>
      </trkpt>
      <trkpt lat="46.14954" lon="6.75815">
        <ele>1220.5999755859</ele>
        <time>2026-07-04T08:22:06.000Z</time>
      </trkpt>
      <trkpt lat="46.14955" lon="6.75819">
        <ele>1221</ele>
        <time>2026-07-04T08:22:08.000Z</time>
      </trkpt>
      <trkpt lat="46.14954" lon="6.75828">
        <ele>1221.8000488281</ele>
        <time>2026-07-04T08:22:13.000Z</time>
      </trkpt>
      <trkpt lat="46.14954" lon="6.75831">
        <ele>1222</ele>
        <time>2026-07-04T08:22:15.000Z</time>
      </trkpt>
      <trkpt lat="46.14954" lon="6.75839">
        <ele>1223.1999511719</ele>
        <time>2026-07-04T08:22:21.000Z</time>
      </trkpt>
      <trkpt lat="46.14954" lon="6.7584">
        <ele>1223.1999511719</ele>
        <time>2026-07-04T08:22:22.000Z</time>
      </trkpt>
      <trkpt lat="46.14952" lon="6.75845">
        <ele>1223.8000488281</ele>
        <time>2026-07-04T08:22:26.000Z</time>
      </trkpt>
      <trkpt lat="46.14951" lon="6.7585">
        <ele>1224.1999511719</ele>
        <time>2026-07-04T08:22:29.000Z</time>
      </trkpt>
      <trkpt lat="46.14951" lon="6.75851">
        <ele>1224.4000244141</ele>
        <time>2026-07-04T08:22:30.000Z</time>
      </trkpt>
      <trkpt lat="46.1495" lon="6.75856">
        <ele>1225.1999511719</ele>
        <time>2026-07-04T08:22:35.000Z</time>
      </trkpt>
      <trkpt lat="46.14949" lon="6.75857">
        <ele>1225.4000244141</ele>
        <time>2026-07-04T08:22:37.000Z</time>
      </trkpt>
      <trkpt lat="46.14949" lon="6.75858">
        <ele>1225.5999755859</ele>
        <time>2026-07-04T08:22:38.000Z</time>
      </trkpt>
      <trkpt lat="46.14949" lon="6.75858">
        <ele>1225.5999755859</ele>
        <time>2026-07-04T08:22:39.000Z</time>
      </trkpt>
      <trkpt lat="46.14946" lon="6.75865">
        <ele>1226.1999511719</ele>
        <time>2026-07-04T08:22:46.000Z</time>
      </trkpt>
      <trkpt lat="46.14943" lon="6.75869">
        <ele>1226.8000488281</ele>
        <time>2026-07-04T08:22:49.000Z</time>
      </trkpt>
      <trkpt lat="46.14941" lon="6.75875">
        <ele>1227.4000244141</ele>
        <time>2026-07-04T08:22:53.000Z</time>
      </trkpt>
      <trkpt lat="46.14939" lon="6.75878">
        <ele>1227.8000488281</ele>
        <time>2026-07-04T08:22:55.000Z</time>
      </trkpt>
      <trkpt lat="46.14939" lon="6.7588">
        <ele>1228</ele>
        <time>2026-07-04T08:22:56.000Z</time>
      </trkpt>
      <trkpt lat="46.14938" lon="6.75883">
        <ele>1228.1999511719</ele>
        <time>2026-07-04T08:22:58.000Z</time>
      </trkpt>
      <trkpt lat="46.14937" lon="6.75886">
        <ele>1228.5999755859</ele>
        <time>2026-07-04T08:23:00.000Z</time>
      </trkpt>
      <trkpt lat="46.14937" lon="6.75887">
        <ele>1228.5999755859</ele>
        <time>2026-07-04T08:23:01.000Z</time>
      </trkpt>
      <trkpt lat="46.14937" lon="6.75888">
        <ele>1228.8000488281</ele>
        <time>2026-07-04T08:23:02.000Z</time>
      </trkpt>
      <trkpt lat="46.14934" lon="6.75895">
        <ele>1229.5999755859</ele>
        <time>2026-07-04T08:23:07.000Z</time>
      </trkpt>
      <trkpt lat="46.14929" lon="6.75906">
        <ele>1230.8000488281</ele>
        <time>2026-07-04T08:23:15.000Z</time>
      </trkpt>
      <trkpt lat="46.14928" lon="6.75908">
        <ele>1230.8000488281</ele>
        <time>2026-07-04T08:23:16.000Z</time>
      </trkpt>
      <trkpt lat="46.14923" lon="6.75914">
        <ele>1231.8000488281</ele>
        <time>2026-07-04T08:23:22.000Z</time>
      </trkpt>
      <trkpt lat="46.14921" lon="6.75916">
        <ele>1232</ele>
        <time>2026-07-04T08:23:24.000Z</time>
      </trkpt>
      <trkpt lat="46.14917" lon="6.75922">
        <ele>1233</ele>
        <time>2026-07-04T08:23:30.000Z</time>
      </trkpt>
      <trkpt lat="46.14915" lon="6.75923">
        <ele>1233.4000244141</ele>
        <time>2026-07-04T08:23:32.000Z</time>
      </trkpt>
      <trkpt lat="46.14912" lon="6.75925">
        <ele>1234</ele>
        <time>2026-07-04T08:23:36.000Z</time>
      </trkpt>
      <trkpt lat="46.14908" lon="6.75926">
        <ele>1234.4000244141</ele>
        <time>2026-07-04T08:23:39.000Z</time>
      </trkpt>
      <trkpt lat="46.14903" lon="6.75923">
        <ele>1235.1999511719</ele>
        <time>2026-07-04T08:23:44.000Z</time>
      </trkpt>
      <trkpt lat="46.14901" lon="6.7592">
        <ele>1236</ele>
        <time>2026-07-04T08:23:48.000Z</time>
      </trkpt>
      <trkpt lat="46.149" lon="6.75919">
        <ele>1236.4000244141</ele>
        <time>2026-07-04T08:23:50.000Z</time>
      </trkpt>
      <trkpt lat="46.14893" lon="6.75914">
        <ele>1237.4000244141</ele>
        <time>2026-07-04T08:23:57.000Z</time>
      </trkpt>
      <trkpt lat="46.1489" lon="6.75912">
        <ele>1237.5999755859</ele>
        <time>2026-07-04T08:23:59.000Z</time>
      </trkpt>
      <trkpt lat="46.14884" lon="6.75911">
        <ele>1238.5999755859</ele>
        <time>2026-07-04T08:24:04.000Z</time>
      </trkpt>
      <trkpt lat="46.1488" lon="6.75911">
        <ele>1239.1999511719</ele>
        <time>2026-07-04T08:24:09.000Z</time>
      </trkpt>
      <trkpt lat="46.14877" lon="6.75911">
        <ele>1239.5999755859</ele>
        <time>2026-07-04T08:24:11.000Z</time>
      </trkpt>
      <trkpt lat="46.1487" lon="6.75912">
        <ele>1240.5999755859</ele>
        <time>2026-07-04T08:24:18.000Z</time>
      </trkpt>
      <trkpt lat="46.14863" lon="6.75916">
        <ele>1241.8000488281</ele>
        <time>2026-07-04T08:24:26.000Z</time>
      </trkpt>
      <trkpt lat="46.14863" lon="6.75919">
        <ele>1242</ele>
        <time>2026-07-04T08:24:31.000Z</time>
      </trkpt>
      <trkpt lat="46.1486" lon="6.75921">
        <ele>1242.4000244141</ele>
        <time>2026-07-04T08:24:35.000Z</time>
      </trkpt>
      <trkpt lat="46.14857" lon="6.75921">
        <ele>1242.8000488281</ele>
        <time>2026-07-04T08:24:38.000Z</time>
      </trkpt>
      <trkpt lat="46.14855" lon="6.75922">
        <ele>1243.1999511719</ele>
        <time>2026-07-04T08:24:42.000Z</time>
      </trkpt>
      <trkpt lat="46.14847" lon="6.7593">
        <ele>1243.8000488281</ele>
        <time>2026-07-04T08:24:52.000Z</time>
      </trkpt>
      <trkpt lat="46.14846" lon="6.75931">
        <ele>1244</ele>
        <time>2026-07-04T08:24:53.000Z</time>
      </trkpt>
      <trkpt lat="46.14841" lon="6.75935">
        <ele>1244.4000244141</ele>
        <time>2026-07-04T08:24:58.000Z</time>
      </trkpt>
      <trkpt lat="46.14839" lon="6.75936">
        <ele>1244.5999755859</ele>
        <time>2026-07-04T08:25:00.000Z</time>
      </trkpt>
      <trkpt lat="46.14837" lon="6.75938">
        <ele>1245</ele>
        <time>2026-07-04T08:25:04.000Z</time>
      </trkpt>
      <trkpt lat="46.14838" lon="6.75939">
        <ele>1245</ele>
        <time>2026-07-04T08:25:07.000Z</time>
      </trkpt>
      <trkpt lat="46.14838" lon="6.75938">
        <ele>1244.8000488281</ele>
        <time>2026-07-04T08:25:14.000Z</time>
      </trkpt>
      <trkpt lat="46.14837" lon="6.75938">
        <ele>1244.8000488281</ele>
        <time>2026-07-04T08:25:15.000Z</time>
      </trkpt>
      <trkpt lat="46.14831" lon="6.7594">
        <ele>1245</ele>
        <time>2026-07-04T08:25:21.000Z</time>
      </trkpt>
      <trkpt lat="46.14828" lon="6.75943">
        <ele>1245.1999511719</ele>
        <time>2026-07-04T08:25:24.000Z</time>
      </trkpt>
      <trkpt lat="46.1482" lon="6.75946">
        <ele>1245.4000244141</ele>
        <time>2026-07-04T08:25:33.000Z</time>
      </trkpt>
      <trkpt lat="46.14819" lon="6.75944">
        <ele>1245.4000244141</ele>
        <time>2026-07-04T08:25:40.000Z</time>
      </trkpt>
      <trkpt lat="46.14819" lon="6.75938">
        <ele>1245.4000244141</ele>
        <time>2026-07-04T08:25:47.000Z</time>
      </trkpt>
      <trkpt lat="46.14819" lon="6.75937">
        <ele>1246.1999511719</ele>
        <time>2026-07-04T08:25:50.000Z</time>
      </trkpt>
      <trkpt lat="46.14819" lon="6.75938">
        <ele>1246.4000244141</ele>
        <time>2026-07-04T08:25:54.000Z</time>
      </trkpt>
      <trkpt lat="46.14819" lon="6.75938">
        <ele>1246.1999511719</ele>
        <time>2026-07-04T08:25:57.000Z</time>
      </trkpt>
      <trkpt lat="46.14817" lon="6.75939">
        <ele>1246.4000244141</ele>
        <time>2026-07-04T08:26:13.000Z</time>
      </trkpt>
      <trkpt lat="46.1482" lon="6.75941">
        <ele>1246.8000488281</ele>
        <time>2026-07-04T08:26:23.000Z</time>
      </trkpt>
      <trkpt lat="46.14822" lon="6.75942">
        <ele>1246.4000244141</ele>
        <time>2026-07-04T08:26:27.000Z</time>
      </trkpt>
      <trkpt lat="46.14822" lon="6.75943">
        <ele>1246.1999511719</ele>
        <time>2026-07-04T08:26:28.000Z</time>
      </trkpt>
      <trkpt lat="46.14821" lon="6.75943">
        <ele>1246.1999511719</ele>
        <time>2026-07-04T08:26:29.000Z</time>
      </trkpt>
      <trkpt lat="46.14821" lon="6.75943">
        <ele>1246</ele>
        <time>2026-07-04T08:26:31.000Z</time>
      </trkpt>
      <trkpt lat="46.14822" lon="6.75945">
        <ele>1246</ele>
        <time>2026-07-04T08:26:32.000Z</time>
      </trkpt>
      <trkpt lat="46.14823" lon="6.75945">
        <ele>1245.8000488281</ele>
        <time>2026-07-04T08:26:39.000Z</time>
      </trkpt>
      <trkpt lat="46.14824" lon="6.75946">
        <ele>1245.8000488281</ele>
        <time>2026-07-04T08:26:51.000Z</time>
      </trkpt>
      <trkpt lat="46.14824" lon="6.75947">
        <ele>1245.8000488281</ele>
        <time>2026-07-04T08:26:55.000Z</time>
      </trkpt>
      <trkpt lat="46.14823" lon="6.75948">
        <ele>1245.8000488281</ele>
        <time>2026-07-04T08:27:00.000Z</time>
      </trkpt>
      <trkpt lat="46.14822" lon="6.75947">
        <ele>1245.8000488281</ele>
        <time>2026-07-04T08:27:09.000Z</time>
      </trkpt>
      <trkpt lat="46.14822" lon="6.75947">
        <ele>1245.8000488281</ele>
        <time>2026-07-04T08:27:10.000Z</time>
      </trkpt>
      <trkpt lat="46.14822" lon="6.75947">
        <ele>1245.8000488281</ele>
        <time>2026-07-04T08:27:11.000Z</time>
      </trkpt>
      <trkpt lat="46.14822" lon="6.75948">
        <ele>1245.8000488281</ele>
        <time>2026-07-04T08:27:12.000Z</time>
      </trkpt>
      <trkpt lat="46.14822" lon="6.75949">
        <ele>1245.5999755859</ele>
        <time>2026-07-04T08:27:15.000Z</time>
      </trkpt>
      <trkpt lat="46.1482" lon="6.7595">
        <ele>1245.8000488281</ele>
        <time>2026-07-04T08:27:20.000Z</time>
      </trkpt>
      <trkpt lat="46.1482" lon="6.7595">
        <ele>1245.8000488281</ele>
        <time>2026-07-04T08:27:21.000Z</time>
      </trkpt>
      <trkpt lat="46.14824" lon="6.7595">
        <ele>1245.5999755859</ele>
        <time>2026-07-04T08:27:31.000Z</time>
      </trkpt>
      <trkpt lat="46.1483" lon="6.75946">
        <ele>1245.5999755859</ele>
        <time>2026-07-04T08:27:41.000Z</time>
      </trkpt>
      <trkpt lat="46.14824" lon="6.75943">
        <ele>1245.5999755859</ele>
        <time>2026-07-04T08:27:52.000Z</time>
      </trkpt>
      <trkpt lat="46.1482" lon="6.75944">
        <ele>1245.4000244141</ele>
        <time>2026-07-04T08:28:02.000Z</time>
      </trkpt>
      <trkpt lat="46.14821" lon="6.75945">
        <ele>1245.4000244141</ele>
        <time>2026-07-04T08:28:14.000Z</time>
      </trkpt>
      <trkpt lat="46.14821" lon="6.75945">
        <ele>1245.4000244141</ele>
        <time>2026-07-04T08:28:15.000Z</time>
      </trkpt>
      <trkpt lat="46.14826" lon="6.75945">
        <ele>1245.8000488281</ele>
        <time>2026-07-04T08:28:29.000Z</time>
      </trkpt>
      <trkpt lat="46.14834" lon="6.75945">
        <ele>1245.8000488281</ele>
        <time>2026-07-04T08:28:36.000Z</time>
      </trkpt>
      <trkpt lat="46.14835" lon="6.75945">
        <ele>1245.8000488281</ele>
        <time>2026-07-04T08:28:38.000Z</time>
      </trkpt>
      <trkpt lat="46.14833" lon="6.75946">
        <ele>1245.8000488281</ele>
        <time>2026-07-04T08:28:46.000Z</time>
      </trkpt>
      <trkpt lat="46.14826" lon="6.75945">
        <ele>1245.8000488281</ele>
        <time>2026-07-04T08:28:55.000Z</time>
      </trkpt>
      <trkpt lat="46.14822" lon="6.75945">
        <ele>1245.5999755859</ele>
        <time>2026-07-04T08:29:07.000Z</time>
      </trkpt>
      <trkpt lat="46.14821" lon="6.75946">
        <ele>1245.5999755859</ele>
        <time>2026-07-04T08:29:17.000Z</time>
      </trkpt>
      <trkpt lat="46.14821" lon="6.75946">
        <ele>1245.5999755859</ele>
        <time>2026-07-04T08:29:18.000Z</time>
      </trkpt>
      <trkpt lat="46.14822" lon="6.75946">
        <ele>1245.5999755859</ele>
        <time>2026-07-04T08:29:19.000Z</time>
      </trkpt>
      <trkpt lat="46.14822" lon="6.75946">
        <ele>1245.8000488281</ele>
        <time>2026-07-04T08:29:27.000Z</time>
      </trkpt>
      <trkpt lat="46.14821" lon="6.75946">
        <ele>1245.8000488281</ele>
        <time>2026-07-04T08:29:29.000Z</time>
      </trkpt>
      <trkpt lat="46.14819" lon="6.75946">
        <ele>1245.5999755859</ele>
        <time>2026-07-04T08:29:37.000Z</time>
      </trkpt>
      <trkpt lat="46.14821" lon="6.75948">
        <ele>1245.5999755859</ele>
        <time>2026-07-04T08:29:48.000Z</time>
      </trkpt>
      <trkpt lat="46.14823" lon="6.75948">
        <ele>1245.5999755859</ele>
        <time>2026-07-04T08:29:56.000Z</time>
      </trkpt>
      <trkpt lat="46.14821" lon="6.75946">
        <ele>1245.1999511719</ele>
        <time>2026-07-04T08:30:07.000Z</time>
      </trkpt>
      <trkpt lat="46.1482" lon="6.75946">
        <ele>1245.1999511719</ele>
        <time>2026-07-04T08:30:30.000Z</time>
      </trkpt>
      <trkpt lat="46.14821" lon="6.75947">
        <ele>1245.1999511719</ele>
        <time>2026-07-04T08:30:32.000Z</time>
      </trkpt>
      <trkpt lat="46.1482" lon="6.75948">
        <ele>1245.1999511719</ele>
        <time>2026-07-04T08:30:44.000Z</time>
      </trkpt>
      <trkpt lat="46.14817" lon="6.75946">
        <ele>1245</ele>
        <time>2026-07-04T08:30:54.000Z</time>
      </trkpt>
      <trkpt lat="46.14813" lon="6.75941">
        <ele>1244.8000488281</ele>
        <time>2026-07-04T08:31:01.000Z</time>
      </trkpt>
      <trkpt lat="46.14811" lon="6.75932">
        <ele>1244.1999511719</ele>
        <time>2026-07-04T08:31:09.000Z</time>
      </trkpt>
      <trkpt lat="46.1481" lon="6.7593">
        <ele>1244.1999511719</ele>
        <time>2026-07-04T08:31:10.000Z</time>
      </trkpt>
      <trkpt lat="46.14805" lon="6.75921">
        <ele>1243.8000488281</ele>
        <time>2026-07-04T08:31:18.000Z</time>
      </trkpt>
      <trkpt lat="46.14805" lon="6.75919">
        <ele>1243.8000488281</ele>
        <time>2026-07-04T08:31:19.000Z</time>
      </trkpt>
      <trkpt lat="46.14804" lon="6.7591">
        <ele>1245.1999511719</ele>
        <time>2026-07-04T08:31:27.000Z</time>
      </trkpt>
      <trkpt lat="46.14805" lon="6.75908">
        <ele>1245.4000244141</ele>
        <time>2026-07-04T08:31:28.000Z</time>
      </trkpt>
      <trkpt lat="46.14804" lon="6.75904">
        <ele>1245.8000488281</ele>
        <time>2026-07-04T08:31:32.000Z</time>
      </trkpt>
      <trkpt lat="46.14802" lon="6.75903">
        <ele>1246</ele>
        <time>2026-07-04T08:31:34.000Z</time>
      </trkpt>
      <trkpt lat="46.14801" lon="6.75903">
        <ele>1246.1999511719</ele>
        <time>2026-07-04T08:31:36.000Z</time>
      </trkpt>
      <trkpt lat="46.148" lon="6.75903">
        <ele>1246.4000244141</ele>
        <time>2026-07-04T08:31:37.000Z</time>
      </trkpt>
      <trkpt lat="46.14798" lon="6.75903">
        <ele>1247</ele>
        <time>2026-07-04T08:31:40.000Z</time>
      </trkpt>
      <trkpt lat="46.14796" lon="6.75904">
        <ele>1247.5999755859</ele>
        <time>2026-07-04T08:31:43.000Z</time>
      </trkpt>
      <trkpt lat="46.14796" lon="6.75904">
        <ele>1247.8000488281</ele>
        <time>2026-07-04T08:31:44.000Z</time>
      </trkpt>
      <trkpt lat="46.14794" lon="6.75905">
        <ele>1248</ele>
        <time>2026-07-04T08:31:46.000Z</time>
      </trkpt>
      <trkpt lat="46.14792" lon="6.75906">
        <ele>1248.5999755859</ele>
        <time>2026-07-04T08:31:49.000Z</time>
      </trkpt>
      <trkpt lat="46.14792" lon="6.75907">
        <ele>1248.8000488281</ele>
        <time>2026-07-04T08:31:50.000Z</time>
      </trkpt>
      <trkpt lat="46.1479" lon="6.75907">
        <ele>1249</ele>
        <time>2026-07-04T08:31:52.000Z</time>
      </trkpt>
      <trkpt lat="46.1479" lon="6.75908">
        <ele>1249.1999511719</ele>
        <time>2026-07-04T08:31:54.000Z</time>
      </trkpt>
      <trkpt lat="46.14789" lon="6.75909">
        <ele>1249.4000244141</ele>
        <time>2026-07-04T08:31:55.000Z</time>
      </trkpt>
      <trkpt lat="46.14789" lon="6.75911">
        <ele>1249.8000488281</ele>
        <time>2026-07-04T08:31:58.000Z</time>
      </trkpt>
      <trkpt lat="46.14786" lon="6.75913">
        <ele>1250.5999755859</ele>
        <time>2026-07-04T08:32:04.000Z</time>
      </trkpt>
      <trkpt lat="46.14786" lon="6.75913">
        <ele>1250.8000488281</ele>
        <time>2026-07-04T08:32:05.000Z</time>
      </trkpt>
      <trkpt lat="46.14781" lon="6.75916">
        <ele>1252</ele>
        <time>2026-07-04T08:32:12.000Z</time>
      </trkpt>
      <trkpt lat="46.14779" lon="6.75919">
        <ele>1253</ele>
        <time>2026-07-04T08:32:18.000Z</time>
      </trkpt>
      <trkpt lat="46.14779" lon="6.7592">
        <ele>1253.1999511719</ele>
        <time>2026-07-04T08:32:19.000Z</time>
      </trkpt>
      <trkpt lat="46.14778" lon="6.7592">
        <ele>1253.4000244141</ele>
        <time>2026-07-04T08:32:20.000Z</time>
      </trkpt>
      <trkpt lat="46.14777" lon="6.75922">
        <ele>1253.5999755859</ele>
        <time>2026-07-04T08:32:22.000Z</time>
      </trkpt>
      <trkpt lat="46.14776" lon="6.75924">
        <ele>1254</ele>
        <time>2026-07-04T08:32:25.000Z</time>
      </trkpt>
      <trkpt lat="46.14776" lon="6.75924">
        <ele>1254.1999511719</ele>
        <time>2026-07-04T08:32:26.000Z</time>
      </trkpt>
      <trkpt lat="46.14772" lon="6.75927">
        <ele>1255.1999511719</ele>
        <time>2026-07-04T08:32:32.000Z</time>
      </trkpt>
      <trkpt lat="46.14771" lon="6.75928">
        <ele>1255.4000244141</ele>
        <time>2026-07-04T08:32:33.000Z</time>
      </trkpt>
      <trkpt lat="46.14769" lon="6.75931">
        <ele>1256.1999511719</ele>
        <time>2026-07-04T08:32:38.000Z</time>
      </trkpt>
      <trkpt lat="46.1477" lon="6.75931">
        <ele>1256.4000244141</ele>
        <time>2026-07-04T08:32:39.000Z</time>
      </trkpt>
      <trkpt lat="46.14766" lon="6.75935">
        <ele>1257.1999511719</ele>
        <time>2026-07-04T08:32:45.000Z</time>
      </trkpt>
      <trkpt lat="46.14763" lon="6.75939">
        <ele>1258.4000244141</ele>
        <time>2026-07-04T08:32:50.000Z</time>
      </trkpt>
      <trkpt lat="46.14762" lon="6.75941">
        <ele>1259</ele>
        <time>2026-07-04T08:32:53.000Z</time>
      </trkpt>
      <trkpt lat="46.1476" lon="6.75944">
        <ele>1259.4000244141</ele>
        <time>2026-07-04T08:32:56.000Z</time>
      </trkpt>
      <trkpt lat="46.14758" lon="6.75949">
        <ele>1260.4000244141</ele>
        <time>2026-07-04T08:33:02.000Z</time>
      </trkpt>
      <trkpt lat="46.14757" lon="6.75949">
        <ele>1260.5999755859</ele>
        <time>2026-07-04T08:33:03.000Z</time>
      </trkpt>
      <trkpt lat="46.14751" lon="6.7595">
        <ele>1261.5999755859</ele>
        <time>2026-07-04T08:33:09.000Z</time>
      </trkpt>
      <trkpt lat="46.1475" lon="6.7595">
        <ele>1261.5999755859</ele>
        <time>2026-07-04T08:33:10.000Z</time>
      </trkpt>
      <trkpt lat="46.1475" lon="6.75951">
        <ele>1261.8000488281</ele>
        <time>2026-07-04T08:33:11.000Z</time>
      </trkpt>
      <trkpt lat="46.14745" lon="6.7596">
        <ele>1261.8000488281</ele>
        <time>2026-07-04T08:33:19.000Z</time>
      </trkpt>
      <trkpt lat="46.1474" lon="6.75971">
        <ele>1262.4000244141</ele>
        <time>2026-07-04T08:33:28.000Z</time>
      </trkpt>
      <trkpt lat="46.14735" lon="6.75977">
        <ele>1262.8000488281</ele>
        <time>2026-07-04T08:33:34.000Z</time>
      </trkpt>
      <trkpt lat="46.14734" lon="6.75979">
        <ele>1262.8000488281</ele>
        <time>2026-07-04T08:33:36.000Z</time>
      </trkpt>
      <trkpt lat="46.1473" lon="6.75987">
        <ele>1263.1999511719</ele>
        <time>2026-07-04T08:33:42.000Z</time>
      </trkpt>
      <trkpt lat="46.14729" lon="6.75988">
        <ele>1263.4000244141</ele>
        <time>2026-07-04T08:33:43.000Z</time>
      </trkpt>
      <trkpt lat="46.14728" lon="6.7599">
        <ele>1263.4000244141</ele>
        <time>2026-07-04T08:33:45.000Z</time>
      </trkpt>
      <trkpt lat="46.14727" lon="6.75991">
        <ele>1263.4000244141</ele>
        <time>2026-07-04T08:33:46.000Z</time>
      </trkpt>
      <trkpt lat="46.14725" lon="6.75996">
        <ele>1263.8000488281</ele>
        <time>2026-07-04T08:33:50.000Z</time>
      </trkpt>
      <trkpt lat="46.14722" lon="6.76002">
        <ele>1264.1999511719</ele>
        <time>2026-07-04T08:33:55.000Z</time>
      </trkpt>
      <trkpt lat="46.14718" lon="6.76008">
        <ele>1264.8000488281</ele>
        <time>2026-07-04T08:34:01.000Z</time>
      </trkpt>
      <trkpt lat="46.14718" lon="6.76009">
        <ele>1265</ele>
        <time>2026-07-04T08:34:02.000Z</time>
      </trkpt>
      <trkpt lat="46.14715" lon="6.76017">
        <ele>1265.5999755859</ele>
        <time>2026-07-04T08:34:10.000Z</time>
      </trkpt>
      <trkpt lat="46.14714" lon="6.76018">
        <ele>1265.8000488281</ele>
        <time>2026-07-04T08:34:12.000Z</time>
      </trkpt>
      <trkpt lat="46.1471" lon="6.76025">
        <ele>1267</ele>
        <time>2026-07-04T08:34:19.000Z</time>
      </trkpt>
      <trkpt lat="46.14706" lon="6.7603">
        <ele>1268</ele>
        <time>2026-07-04T08:34:26.000Z</time>
      </trkpt>
      <trkpt lat="46.14703" lon="6.76032">
        <ele>1268.8000488281</ele>
        <time>2026-07-04T08:34:30.000Z</time>
      </trkpt>
      <trkpt lat="46.14702" lon="6.76033">
        <ele>1269</ele>
        <time>2026-07-04T08:34:31.000Z</time>
      </trkpt>
      <trkpt lat="46.14701" lon="6.76033">
        <ele>1269.1999511719</ele>
        <time>2026-07-04T08:34:32.000Z</time>
      </trkpt>
      <trkpt lat="46.14699" lon="6.76033">
        <ele>1269.4000244141</ele>
        <time>2026-07-04T08:34:35.000Z</time>
      </trkpt>
      <trkpt lat="46.14695" lon="6.76033">
        <ele>1270</ele>
        <time>2026-07-04T08:34:39.000Z</time>
      </trkpt>
      <trkpt lat="46.14694" lon="6.76033">
        <ele>1270.1999511719</ele>
        <time>2026-07-04T08:34:40.000Z</time>
      </trkpt>
      <trkpt lat="46.1469" lon="6.76033">
        <ele>1271.1999511719</ele>
        <time>2026-07-04T08:34:45.000Z</time>
      </trkpt>
      <trkpt lat="46.14687" lon="6.76032">
        <ele>1271.5999755859</ele>
        <time>2026-07-04T08:34:49.000Z</time>
      </trkpt>
      <trkpt lat="46.14685" lon="6.76032">
        <ele>1272.1999511719</ele>
        <time>2026-07-04T08:34:52.000Z</time>
      </trkpt>
      <trkpt lat="46.14682" lon="6.76032">
        <ele>1273.1999511719</ele>
        <time>2026-07-04T08:34:57.000Z</time>
      </trkpt>
      <trkpt lat="46.14682" lon="6.76033">
        <ele>1273.4000244141</ele>
        <time>2026-07-04T08:34:58.000Z</time>
      </trkpt>
      <trkpt lat="46.1468" lon="6.76034">
        <ele>1273.8000488281</ele>
        <time>2026-07-04T08:35:00.000Z</time>
      </trkpt>
      <trkpt lat="46.14675" lon="6.76035">
        <ele>1274.4000244141</ele>
        <time>2026-07-04T08:35:04.000Z</time>
      </trkpt>
      <trkpt lat="46.14673" lon="6.76035">
        <ele>1275</ele>
        <time>2026-07-04T08:35:07.000Z</time>
      </trkpt>
      <trkpt lat="46.14666" lon="6.76035">
        <ele>1275.5999755859</ele>
        <time>2026-07-04T08:35:14.000Z</time>
      </trkpt>
      <trkpt lat="46.14665" lon="6.76036">
        <ele>1275.5999755859</ele>
        <time>2026-07-04T08:35:16.000Z</time>
      </trkpt>
      <trkpt lat="46.14659" lon="6.76034">
        <ele>1276</ele>
        <time>2026-07-04T08:35:22.000Z</time>
      </trkpt>
      <trkpt lat="46.14657" lon="6.76032">
        <ele>1276.1999511719</ele>
        <time>2026-07-04T08:35:26.000Z</time>
      </trkpt>
      <trkpt lat="46.14656" lon="6.7603">
        <ele>1276.1999511719</ele>
        <time>2026-07-04T08:35:34.000Z</time>
      </trkpt>
      <trkpt lat="46.14653" lon="6.76022">
        <ele>1276.1999511719</ele>
        <time>2026-07-04T08:35:44.000Z</time>
      </trkpt>
      <trkpt lat="46.14652" lon="6.76017">
        <ele>1276.4000244141</ele>
        <time>2026-07-04T08:35:54.000Z</time>
      </trkpt>
      <trkpt lat="46.14652" lon="6.76017">
        <ele>1276.4000244141</ele>
        <time>2026-07-04T08:35:56.000Z</time>
      </trkpt>
      <trkpt lat="46.14652" lon="6.76015">
        <ele>1276.4000244141</ele>
        <time>2026-07-04T08:36:00.000Z</time>
      </trkpt>
      <trkpt lat="46.14652" lon="6.76015">
        <ele>1276.4000244141</ele>
        <time>2026-07-04T08:36:03.000Z</time>
      </trkpt>
      <trkpt lat="46.14652" lon="6.76015">
        <ele>1276.4000244141</ele>
        <time>2026-07-04T08:36:07.000Z</time>
      </trkpt>
      <trkpt lat="46.14658" lon="6.76021">
        <ele>1276.5999755859</ele>
        <time>2026-07-04T08:36:17.000Z</time>
      </trkpt>
      <trkpt lat="46.14661" lon="6.76027">
        <ele>1276.5999755859</ele>
        <time>2026-07-04T08:36:23.000Z</time>
      </trkpt>
      <trkpt lat="46.14661" lon="6.76031">
        <ele>1276.1999511719</ele>
        <time>2026-07-04T08:36:30.000Z</time>
      </trkpt>
      <trkpt lat="46.14661" lon="6.7603">
        <ele>1276.4000244141</ele>
        <time>2026-07-04T08:36:31.000Z</time>
      </trkpt>
      <trkpt lat="46.14662" lon="6.76032">
        <ele>1276.5999755859</ele>
        <time>2026-07-04T08:36:42.000Z</time>
      </trkpt>
      <trkpt lat="46.14662" lon="6.76032">
        <ele>1276.5999755859</ele>
        <time>2026-07-04T08:36:44.000Z</time>
      </trkpt>
      <trkpt lat="46.14658" lon="6.76032">
        <ele>1276.5999755859</ele>
        <time>2026-07-04T08:36:52.000Z</time>
      </trkpt>
      <trkpt lat="46.14657" lon="6.76033">
        <ele>1276.5999755859</ele>
        <time>2026-07-04T08:36:53.000Z</time>
      </trkpt>
      <trkpt lat="46.14656" lon="6.76031">
        <ele>1276.5999755859</ele>
        <time>2026-07-04T08:36:54.000Z</time>
      </trkpt>
      <trkpt lat="46.14657" lon="6.76032">
        <ele>1276.5999755859</ele>
        <time>2026-07-04T08:36:58.000Z</time>
      </trkpt>
      <trkpt lat="46.14657" lon="6.76032">
        <ele>1276.5999755859</ele>
        <time>2026-07-04T08:37:01.000Z</time>
      </trkpt>
      <trkpt lat="46.14654" lon="6.76029">
        <ele>1276.5999755859</ele>
        <time>2026-07-04T08:37:08.000Z</time>
      </trkpt>
      <trkpt lat="46.14644" lon="6.76019">
        <ele>1276.8000488281</ele>
        <time>2026-07-04T08:37:18.000Z</time>
      </trkpt>
      <trkpt lat="46.14633" lon="6.76016">
        <ele>1277.1999511719</ele>
        <time>2026-07-04T08:37:28.000Z</time>
      </trkpt>
      <trkpt lat="46.14625" lon="6.76024">
        <ele>1277.4000244141</ele>
        <time>2026-07-04T08:37:37.000Z</time>
      </trkpt>
      <trkpt lat="46.14621" lon="6.76033">
        <ele>1277.5999755859</ele>
        <time>2026-07-04T08:37:42.000Z</time>
      </trkpt>
      <trkpt lat="46.14619" lon="6.76039">
        <ele>1277.8000488281</ele>
        <time>2026-07-04T08:37:46.000Z</time>
      </trkpt>
      <trkpt lat="46.14617" lon="6.76043">
        <ele>1278.1999511719</ele>
        <time>2026-07-04T08:37:50.000Z</time>
      </trkpt>
      <trkpt lat="46.14612" lon="6.76052">
        <ele>1278.1999511719</ele>
        <time>2026-07-04T08:37:56.000Z</time>
      </trkpt>
      <trkpt lat="46.14604" lon="6.76063">
        <ele>1278.5999755859</ele>
        <time>2026-07-04T08:38:05.000Z</time>
      </trkpt>
      <trkpt lat="46.14603" lon="6.76065">
        <ele>1278.5999755859</ele>
        <time>2026-07-04T08:38:06.000Z</time>
      </trkpt>
      <trkpt lat="46.14593" lon="6.76075">
        <ele>1279</ele>
        <time>2026-07-04T08:38:17.000Z</time>
      </trkpt>
      <trkpt lat="46.14585" lon="6.76082">
        <ele>1279.1999511719</ele>
        <time>2026-07-04T08:38:25.000Z</time>
      </trkpt>
      <trkpt lat="46.14578" lon="6.76089">
        <ele>1279.5999755859</ele>
        <time>2026-07-04T08:38:33.000Z</time>
      </trkpt>
      <trkpt lat="46.14577" lon="6.7609">
        <ele>1279.8000488281</ele>
        <time>2026-07-04T08:38:35.000Z</time>
      </trkpt>
      <trkpt lat="46.14567" lon="6.76101">
        <ele>1280.1999511719</ele>
        <time>2026-07-04T08:38:46.000Z</time>
      </trkpt>
      <trkpt lat="46.14558" lon="6.76118">
        <ele>1280</ele>
        <time>2026-07-04T08:38:57.000Z</time>
      </trkpt>
      <trkpt lat="46.14552" lon="6.76129">
        <ele>1280</ele>
        <time>2026-07-04T08:39:06.000Z</time>
      </trkpt>
      <trkpt lat="46.14551" lon="6.7613">
        <ele>1280</ele>
        <time>2026-07-04T08:39:07.000Z</time>
      </trkpt>
      <trkpt lat="46.14549" lon="6.76134">
        <ele>1280</ele>
        <time>2026-07-04T08:39:10.000Z</time>
      </trkpt>
      <trkpt lat="46.14546" lon="6.76144">
        <ele>1280.1999511719</ele>
        <time>2026-07-04T08:39:16.000Z</time>
      </trkpt>
      <trkpt lat="46.14543" lon="6.76157">
        <ele>1280.1999511719</ele>
        <time>2026-07-04T08:39:25.000Z</time>
      </trkpt>
      <trkpt lat="46.14542" lon="6.76174">
        <ele>1280.1999511719</ele>
        <time>2026-07-04T08:39:36.000Z</time>
      </trkpt>
      <trkpt lat="46.14543" lon="6.7618">
        <ele>1280.1999511719</ele>
        <time>2026-07-04T08:39:40.000Z</time>
      </trkpt>
      <trkpt lat="46.14543" lon="6.76188">
        <ele>1280.1999511719</ele>
        <time>2026-07-04T08:39:44.000Z</time>
      </trkpt>
      <trkpt lat="46.14541" lon="6.76207">
        <ele>1279.8000488281</ele>
        <time>2026-07-04T08:39:55.000Z</time>
      </trkpt>
      <trkpt lat="46.14541" lon="6.76217">
        <ele>1279.8000488281</ele>
        <time>2026-07-04T08:40:00.000Z</time>
      </trkpt>
      <trkpt lat="46.14541" lon="6.76224">
        <ele>1280</ele>
        <time>2026-07-04T08:40:03.000Z</time>
      </trkpt>
      <trkpt lat="46.14541" lon="6.76229">
        <ele>1280</ele>
        <time>2026-07-04T08:40:06.000Z</time>
      </trkpt>
      <trkpt lat="46.14539" lon="6.76239">
        <ele>1280</ele>
        <time>2026-07-04T08:40:12.000Z</time>
      </trkpt>
      <trkpt lat="46.14539" lon="6.76241">
        <ele>1280</ele>
        <time>2026-07-04T08:40:14.000Z</time>
      </trkpt>
      <trkpt lat="46.14539" lon="6.76257">
        <ele>1280</ele>
        <time>2026-07-04T08:40:24.000Z</time>
      </trkpt>
      <trkpt lat="46.14543" lon="6.76271">
        <ele>1280.1999511719</ele>
        <time>2026-07-04T08:40:32.000Z</time>
      </trkpt>
      <trkpt lat="46.14546" lon="6.76287">
        <ele>1280.1999511719</ele>
        <time>2026-07-04T08:40:42.000Z</time>
      </trkpt>
      <trkpt lat="46.14551" lon="6.76303">
        <ele>1280</ele>
        <time>2026-07-04T08:40:52.000Z</time>
      </trkpt>
      <trkpt lat="46.14552" lon="6.76306">
        <ele>1280</ele>
        <time>2026-07-04T08:40:54.000Z</time>
      </trkpt>
      <trkpt lat="46.14553" lon="6.76309">
        <ele>1280</ele>
        <time>2026-07-04T08:40:56.000Z</time>
      </trkpt>
      <trkpt lat="46.14556" lon="6.76318">
        <ele>1280</ele>
        <time>2026-07-04T08:41:03.000Z</time>
      </trkpt>
      <trkpt lat="46.14558" lon="6.76332">
        <ele>1280.1999511719</ele>
        <time>2026-07-04T08:41:12.000Z</time>
      </trkpt>
      <trkpt lat="46.14561" lon="6.76351">
        <ele>1280.4000244141</ele>
        <time>2026-07-04T08:41:20.000Z</time>
      </trkpt>
      <trkpt lat="46.14554" lon="6.76363">
        <ele>1280.5999755859</ele>
        <time>2026-07-04T08:41:29.000Z</time>
      </trkpt>
      <trkpt lat="46.14552" lon="6.76366">
        <ele>1280.5999755859</ele>
        <time>2026-07-04T08:41:32.000Z</time>
      </trkpt>
      <trkpt lat="46.14549" lon="6.76373">
        <ele>1280.8000488281</ele>
        <time>2026-07-04T08:41:38.000Z</time>
      </trkpt>
      <trkpt lat="46.14543" lon="6.76384">
        <ele>1281.1999511719</ele>
        <time>2026-07-04T08:41:46.000Z</time>
      </trkpt>
      <trkpt lat="46.14539" lon="6.76394">
        <ele>1281.1999511719</ele>
        <time>2026-07-04T08:41:54.000Z</time>
      </trkpt>
      <trkpt lat="46.14535" lon="6.76408">
        <ele>1281.4000244141</ele>
        <time>2026-07-04T08:42:03.000Z</time>
      </trkpt>
      <trkpt lat="46.1453" lon="6.76416">
        <ele>1281.5999755859</ele>
        <time>2026-07-04T08:42:09.000Z</time>
      </trkpt>
      <trkpt lat="46.14528" lon="6.76419">
        <ele>1281.8000488281</ele>
        <time>2026-07-04T08:42:11.000Z</time>
      </trkpt>
      <trkpt lat="46.14518" lon="6.76424">
        <ele>1282</ele>
        <time>2026-07-04T08:42:21.000Z</time>
      </trkpt>
      <trkpt lat="46.14507" lon="6.76425">
        <ele>1282.8000488281</ele>
        <time>2026-07-04T08:42:30.000Z</time>
      </trkpt>
      <trkpt lat="46.14505" lon="6.76425">
        <ele>1283</ele>
        <time>2026-07-04T08:42:31.000Z</time>
      </trkpt>
      <trkpt lat="46.14497" lon="6.76426">
        <ele>1283.8000488281</ele>
        <time>2026-07-04T08:42:40.000Z</time>
      </trkpt>
      <trkpt lat="46.14493" lon="6.76427">
        <ele>1283.8000488281</ele>
        <time>2026-07-04T08:42:43.000Z</time>
      </trkpt>
      <trkpt lat="46.14487" lon="6.7643">
        <ele>1284.4000244141</ele>
        <time>2026-07-04T08:42:48.000Z</time>
      </trkpt>
      <trkpt lat="46.14481" lon="6.76433">
        <ele>1285</ele>
        <time>2026-07-04T08:42:53.000Z</time>
      </trkpt>
      <trkpt lat="46.14479" lon="6.76437">
        <ele>1285.4000244141</ele>
        <time>2026-07-04T08:42:57.000Z</time>
      </trkpt>
      <trkpt lat="46.14477" lon="6.76443">
        <ele>1286</ele>
        <time>2026-07-04T08:43:01.000Z</time>
      </trkpt>
      <trkpt lat="46.14475" lon="6.76452">
        <ele>1286.5999755859</ele>
        <time>2026-07-04T08:43:06.000Z</time>
      </trkpt>
      <trkpt lat="46.14475" lon="6.7646">
        <ele>1287.1999511719</ele>
        <time>2026-07-04T08:43:10.000Z</time>
      </trkpt>
      <trkpt lat="46.14475" lon="6.76465">
        <ele>1287.4000244141</ele>
        <time>2026-07-04T08:43:13.000Z</time>
      </trkpt>
      <trkpt lat="46.14473" lon="6.76476">
        <ele>1288.1999511719</ele>
        <time>2026-07-04T08:43:21.000Z</time>
      </trkpt>
      <trkpt lat="46.14473" lon="6.7649">
        <ele>1289.1999511719</ele>
        <time>2026-07-04T08:43:30.000Z</time>
      </trkpt>
      <trkpt lat="46.14474" lon="6.76492">
        <ele>1289.1999511719</ele>
        <time>2026-07-04T08:43:31.000Z</time>
      </trkpt>
      <trkpt lat="46.14475" lon="6.76503">
        <ele>1289.8000488281</ele>
        <time>2026-07-04T08:43:38.000Z</time>
      </trkpt>
      <trkpt lat="46.14475" lon="6.76505">
        <ele>1290</ele>
        <time>2026-07-04T08:43:39.000Z</time>
      </trkpt>
      <trkpt lat="46.14474" lon="6.76507">
        <ele>1290.1999511719</ele>
        <time>2026-07-04T08:43:41.000Z</time>
      </trkpt>
      <trkpt lat="46.14474" lon="6.76509">
        <ele>1290.1999511719</ele>
        <time>2026-07-04T08:43:42.000Z</time>
      </trkpt>
      <trkpt lat="46.14474" lon="6.76518">
        <ele>1290.5999755859</ele>
        <time>2026-07-04T08:43:47.000Z</time>
      </trkpt>
      <trkpt lat="46.14474" lon="6.76528">
        <ele>1291.1999511719</ele>
        <time>2026-07-04T08:43:53.000Z</time>
      </trkpt>
      <trkpt lat="46.14473" lon="6.76532">
        <ele>1291.5999755859</ele>
        <time>2026-07-04T08:43:56.000Z</time>
      </trkpt>
      <trkpt lat="46.14467" lon="6.7654">
        <ele>1292.4000244141</ele>
        <time>2026-07-04T08:44:02.000Z</time>
      </trkpt>
      <trkpt lat="46.14466" lon="6.76542">
        <ele>1292.5999755859</ele>
        <time>2026-07-04T08:44:04.000Z</time>
      </trkpt>
      <trkpt lat="46.14463" lon="6.76549">
        <ele>1293.4000244141</ele>
        <time>2026-07-04T08:44:11.000Z</time>
      </trkpt>
      <trkpt lat="46.14461" lon="6.76553">
        <ele>1293.5999755859</ele>
        <time>2026-07-04T08:44:14.000Z</time>
      </trkpt>
      <trkpt lat="46.14461" lon="6.76556">
        <ele>1293.8000488281</ele>
        <time>2026-07-04T08:44:16.000Z</time>
      </trkpt>
      <trkpt lat="46.1446" lon="6.76557">
        <ele>1294</ele>
        <time>2026-07-04T08:44:17.000Z</time>
      </trkpt>
      <trkpt lat="46.1446" lon="6.76558">
        <ele>1294.1999511719</ele>
        <time>2026-07-04T08:44:18.000Z</time>
      </trkpt>
      <trkpt lat="46.14459" lon="6.76559">
        <ele>1294.1999511719</ele>
        <time>2026-07-04T08:44:19.000Z</time>
      </trkpt>
      <trkpt lat="46.14459" lon="6.7656">
        <ele>1294.4000244141</ele>
        <time>2026-07-04T08:44:20.000Z</time>
      </trkpt>
      <trkpt lat="46.14458" lon="6.76562">
        <ele>1294.4000244141</ele>
        <time>2026-07-04T08:44:21.000Z</time>
      </trkpt>
      <trkpt lat="46.14456" lon="6.76566">
        <ele>1295</ele>
        <time>2026-07-04T08:44:25.000Z</time>
      </trkpt>
      <trkpt lat="46.14453" lon="6.76572">
        <ele>1295.4000244141</ele>
        <time>2026-07-04T08:44:30.000Z</time>
      </trkpt>
      <trkpt lat="46.14451" lon="6.76575">
        <ele>1295.8000488281</ele>
        <time>2026-07-04T08:44:33.000Z</time>
      </trkpt>
      <trkpt lat="46.1445" lon="6.76579">
        <ele>1296.1999511719</ele>
        <time>2026-07-04T08:44:36.000Z</time>
      </trkpt>
      <trkpt lat="46.14448" lon="6.76582">
        <ele>1296.4000244141</ele>
        <time>2026-07-04T08:44:39.000Z</time>
      </trkpt>
      <trkpt lat="46.14448" lon="6.76583">
        <ele>1296.5999755859</ele>
        <time>2026-07-04T08:44:40.000Z</time>
      </trkpt>
      <trkpt lat="46.14445" lon="6.76591">
        <ele>1297.4000244141</ele>
        <time>2026-07-04T08:44:46.000Z</time>
      </trkpt>
      <trkpt lat="46.14444" lon="6.76594">
        <ele>1297.5999755859</ele>
        <time>2026-07-04T08:44:48.000Z</time>
      </trkpt>
      <trkpt lat="46.14443" lon="6.766">
        <ele>1298.1999511719</ele>
        <time>2026-07-04T08:44:53.000Z</time>
      </trkpt>
      <trkpt lat="46.1444" lon="6.76604">
        <ele>1298.5999755859</ele>
        <time>2026-07-04T08:44:57.000Z</time>
      </trkpt>
      <trkpt lat="46.14437" lon="6.76609">
        <ele>1299.1999511719</ele>
        <time>2026-07-04T08:45:02.000Z</time>
      </trkpt>
      <trkpt lat="46.14435" lon="6.76613">
        <ele>1299.5999755859</ele>
        <time>2026-07-04T08:45:06.000Z</time>
      </trkpt>
      <trkpt lat="46.14434" lon="6.76619">
        <ele>1300.1999511719</ele>
        <time>2026-07-04T08:45:10.000Z</time>
      </trkpt>
      <trkpt lat="46.14432" lon="6.76625">
        <ele>1300.8000488281</ele>
        <time>2026-07-04T08:45:15.000Z</time>
      </trkpt>
      <trkpt lat="46.1443" lon="6.76627">
        <ele>1301</ele>
        <time>2026-07-04T08:45:17.000Z</time>
      </trkpt>
      <trkpt lat="46.14427" lon="6.76634">
        <ele>1301.8000488281</ele>
        <time>2026-07-04T08:45:25.000Z</time>
      </trkpt>
      <trkpt lat="46.14426" lon="6.76636">
        <ele>1302</ele>
        <time>2026-07-04T08:45:27.000Z</time>
      </trkpt>
      <trkpt lat="46.14423" lon="6.76642">
        <ele>1302.8000488281</ele>
        <time>2026-07-04T08:45:33.000Z</time>
      </trkpt>
      <trkpt lat="46.1442" lon="6.76645">
        <ele>1303.4000244141</ele>
        <time>2026-07-04T08:45:36.000Z</time>
      </trkpt>
      <trkpt lat="46.14418" lon="6.7665">
        <ele>1304</ele>
        <time>2026-07-04T08:45:40.000Z</time>
      </trkpt>
      <trkpt lat="46.14415" lon="6.76656">
        <ele>1304.4000244141</ele>
        <time>2026-07-04T08:45:45.000Z</time>
      </trkpt>
      <trkpt lat="46.14412" lon="6.76665">
        <ele>1305</ele>
        <time>2026-07-04T08:45:52.000Z</time>
      </trkpt>
      <trkpt lat="46.14408" lon="6.76674">
        <ele>1305.8000488281</ele>
        <time>2026-07-04T08:46:00.000Z</time>
      </trkpt>
      <trkpt lat="46.14407" lon="6.76676">
        <ele>1306</ele>
        <time>2026-07-04T08:46:02.000Z</time>
      </trkpt>
      <trkpt lat="46.14405" lon="6.7668">
        <ele>1306.5999755859</ele>
        <time>2026-07-04T08:46:09.000Z</time>
      </trkpt>
      <trkpt lat="46.14401" lon="6.76685">
        <ele>1306.8000488281</ele>
        <time>2026-07-04T08:46:17.000Z</time>
      </trkpt>
      <trkpt lat="46.14399" lon="6.76687">
        <ele>1307</ele>
        <time>2026-07-04T08:46:19.000Z</time>
      </trkpt>
      <trkpt lat="46.14396" lon="6.76695">
        <ele>1307.5999755859</ele>
        <time>2026-07-04T08:46:25.000Z</time>
      </trkpt>
      <trkpt lat="46.14396" lon="6.76705">
        <ele>1308.1999511719</ele>
        <time>2026-07-04T08:46:31.000Z</time>
      </trkpt>
      <trkpt lat="46.14396" lon="6.76706">
        <ele>1308.1999511719</ele>
        <time>2026-07-04T08:46:32.000Z</time>
      </trkpt>
      <trkpt lat="46.14395" lon="6.76718">
        <ele>1308.5999755859</ele>
        <time>2026-07-04T08:46:39.000Z</time>
      </trkpt>
      <trkpt lat="46.14391" lon="6.76729">
        <ele>1309</ele>
        <time>2026-07-04T08:46:47.000Z</time>
      </trkpt>
      <trkpt lat="46.14391" lon="6.76731">
        <ele>1309.1999511719</ele>
        <time>2026-07-04T08:46:48.000Z</time>
      </trkpt>
      <trkpt lat="46.1439" lon="6.76735">
        <ele>1309.4000244141</ele>
        <time>2026-07-04T08:46:51.000Z</time>
      </trkpt>
      <trkpt lat="46.14389" lon="6.76741">
        <ele>1309.5999755859</ele>
        <time>2026-07-04T08:46:55.000Z</time>
      </trkpt>
      <trkpt lat="46.14383" lon="6.76749">
        <ele>1310.1999511719</ele>
        <time>2026-07-04T08:47:02.000Z</time>
      </trkpt>
      <trkpt lat="46.14382" lon="6.7675">
        <ele>1310.1999511719</ele>
        <time>2026-07-04T08:47:03.000Z</time>
      </trkpt>
      <trkpt lat="46.14373" lon="6.76756">
        <ele>1310.5999755859</ele>
        <time>2026-07-04T08:47:12.000Z</time>
      </trkpt>
      <trkpt lat="46.14367" lon="6.76759">
        <ele>1311</ele>
        <time>2026-07-04T08:47:17.000Z</time>
      </trkpt>
      <trkpt lat="46.14363" lon="6.76762">
        <ele>1311.1999511719</ele>
        <time>2026-07-04T08:47:20.000Z</time>
      </trkpt>
      <trkpt lat="46.1436" lon="6.76765">
        <ele>1311.1999511719</ele>
        <time>2026-07-04T08:47:23.000Z</time>
      </trkpt>
      <trkpt lat="46.14354" lon="6.76767">
        <ele>1311.5999755859</ele>
        <time>2026-07-04T08:47:29.000Z</time>
      </trkpt>
      <trkpt lat="46.14343" lon="6.76769">
        <ele>1312.1999511719</ele>
        <time>2026-07-04T08:47:40.000Z</time>
      </trkpt>
      <trkpt lat="46.14333" lon="6.76771">
        <ele>1312.8000488281</ele>
        <time>2026-07-04T08:47:49.000Z</time>
      </trkpt>
      <trkpt lat="46.14325" lon="6.76776">
        <ele>1313.1999511719</ele>
        <time>2026-07-04T08:47:57.000Z</time>
      </trkpt>
      <trkpt lat="46.14321" lon="6.76779">
        <ele>1313.5999755859</ele>
        <time>2026-07-04T08:48:05.000Z</time>
      </trkpt>
      <trkpt lat="46.14324" lon="6.76777">
        <ele>1313.8000488281</ele>
        <time>2026-07-04T08:48:09.000Z</time>
      </trkpt>
      <trkpt lat="46.14324" lon="6.76777">
        <ele>1313.8000488281</ele>
        <time>2026-07-04T08:48:11.000Z</time>
      </trkpt>
      <trkpt lat="46.14324" lon="6.76776">
        <ele>1313.8000488281</ele>
        <time>2026-07-04T08:48:14.000Z</time>
      </trkpt>
      <trkpt lat="46.14322" lon="6.76779">
        <ele>1314</ele>
        <time>2026-07-04T08:48:25.000Z</time>
      </trkpt>
      <trkpt lat="46.14322" lon="6.76779">
        <ele>1313.8000488281</ele>
        <time>2026-07-04T08:48:29.000Z</time>
      </trkpt>
      <trkpt lat="46.14322" lon="6.76776">
        <ele>1314</ele>
        <time>2026-07-04T08:48:35.000Z</time>
      </trkpt>
      <trkpt lat="46.14321" lon="6.76779">
        <ele>1314</ele>
        <time>2026-07-04T08:48:45.000Z</time>
      </trkpt>
      <trkpt lat="46.14321" lon="6.76778">
        <ele>1314.4000244141</ele>
        <time>2026-07-04T08:48:52.000Z</time>
      </trkpt>
      <trkpt lat="46.14321" lon="6.76777">
        <ele>1314.4000244141</ele>
        <time>2026-07-04T08:48:53.000Z</time>
      </trkpt>
      <trkpt lat="46.1432" lon="6.7678">
        <ele>1314.4000244141</ele>
        <time>2026-07-04T08:49:02.000Z</time>
      </trkpt>
      <trkpt lat="46.14322" lon="6.76779">
        <ele>1314.4000244141</ele>
        <time>2026-07-04T08:49:11.000Z</time>
      </trkpt>
      <trkpt lat="46.14322" lon="6.76779">
        <ele>1314.5999755859</ele>
        <time>2026-07-04T08:49:20.000Z</time>
      </trkpt>
      <trkpt lat="46.14322" lon="6.76778">
        <ele>1314.4000244141</ele>
        <time>2026-07-04T08:49:29.000Z</time>
      </trkpt>
      <trkpt lat="46.14324" lon="6.76776">
        <ele>1314.5999755859</ele>
        <time>2026-07-04T08:49:36.000Z</time>
      </trkpt>
      <trkpt lat="46.14325" lon="6.76776">
        <ele>1314.5999755859</ele>
        <time>2026-07-04T08:49:38.000Z</time>
      </trkpt>
      <trkpt lat="46.14325" lon="6.76776">
        <ele>1314.5999755859</ele>
        <time>2026-07-04T08:49:39.000Z</time>
      </trkpt>
      <trkpt lat="46.14328" lon="6.76776">
        <ele>1314.5999755859</ele>
        <time>2026-07-04T08:49:49.000Z</time>
      </trkpt>
      <trkpt lat="46.14328" lon="6.76776">
        <ele>1314.8000488281</ele>
        <time>2026-07-04T08:49:58.000Z</time>
      </trkpt>
      <trkpt lat="46.14331" lon="6.76773">
        <ele>1314.8000488281</ele>
        <time>2026-07-04T08:50:07.000Z</time>
      </trkpt>
      <trkpt lat="46.14328" lon="6.76775">
        <ele>1314.8000488281</ele>
        <time>2026-07-04T08:50:16.000Z</time>
      </trkpt>
      <trkpt lat="46.14327" lon="6.76774">
        <ele>1314.8000488281</ele>
        <time>2026-07-04T08:50:19.000Z</time>
      </trkpt>
      <trkpt lat="46.14327" lon="6.76772">
        <ele>1314.8000488281</ele>
        <time>2026-07-04T08:50:26.000Z</time>
      </trkpt>
      <trkpt lat="46.1433" lon="6.76773">
        <ele>1314.8000488281</ele>
        <time>2026-07-04T08:50:35.000Z</time>
      </trkpt>
      <trkpt lat="46.14331" lon="6.76775">
        <ele>1314.8000488281</ele>
        <time>2026-07-04T08:50:45.000Z</time>
      </trkpt>
      <trkpt lat="46.14323" lon="6.76776">
        <ele>1314.5999755859</ele>
        <time>2026-07-04T08:50:58.000Z</time>
      </trkpt>
      <trkpt lat="46.14322" lon="6.76776">
        <ele>1314.5999755859</ele>
        <time>2026-07-04T08:51:07.000Z</time>
      </trkpt>
      <trkpt lat="46.14322" lon="6.76778">
        <ele>1314.5999755859</ele>
        <time>2026-07-04T08:51:19.000Z</time>
      </trkpt>
      <trkpt lat="46.14319" lon="6.76779">
        <ele>1314.5999755859</ele>
        <time>2026-07-04T08:51:31.000Z</time>
      </trkpt>
      <trkpt lat="46.14325" lon="6.76774">
        <ele>1314.8000488281</ele>
        <time>2026-07-04T08:51:40.000Z</time>
      </trkpt>
      <trkpt lat="46.14321" lon="6.76776">
        <ele>1315</ele>
        <time>2026-07-04T08:51:49.000Z</time>
      </trkpt>
      <trkpt lat="46.14325" lon="6.76777">
        <ele>1315</ele>
        <time>2026-07-04T08:51:57.000Z</time>
      </trkpt>
      <trkpt lat="46.14326" lon="6.76777">
        <ele>1315</ele>
        <time>2026-07-04T08:51:59.000Z</time>
      </trkpt>
      <trkpt lat="46.14329" lon="6.76776">
        <ele>1315</ele>
        <time>2026-07-04T08:52:09.000Z</time>
      </trkpt>
      <trkpt lat="46.14321" lon="6.76775">
        <ele>1315</ele>
        <time>2026-07-04T08:52:20.000Z</time>
      </trkpt>
      <trkpt lat="46.14319" lon="6.76775">
        <ele>1315.1999511719</ele>
        <time>2026-07-04T08:52:29.000Z</time>
      </trkpt>
      <trkpt lat="46.14317" lon="6.7677">
        <ele>1315</ele>
        <time>2026-07-04T08:52:39.000Z</time>
      </trkpt>
      <trkpt lat="46.14322" lon="6.76773">
        <ele>1315</ele>
        <time>2026-07-04T08:52:48.000Z</time>
      </trkpt>
      <trkpt lat="46.14325" lon="6.76771">
        <ele>1315</ele>
        <time>2026-07-04T08:52:58.000Z</time>
      </trkpt>
      <trkpt lat="46.14321" lon="6.76771">
        <ele>1315.4000244141</ele>
        <time>2026-07-04T08:53:07.000Z</time>
      </trkpt>
      <trkpt lat="46.14321" lon="6.76771">
        <ele>1315.4000244141</ele>
        <time>2026-07-04T08:53:08.000Z</time>
      </trkpt>
      <trkpt lat="46.14324" lon="6.76769">
        <ele>1315.4000244141</ele>
        <time>2026-07-04T08:53:17.000Z</time>
      </trkpt>
      <trkpt lat="46.14317" lon="6.76764">
        <ele>1315.5999755859</ele>
        <time>2026-07-04T08:53:25.000Z</time>
      </trkpt>
      <trkpt lat="46.14315" lon="6.76762">
        <ele>1315.5999755859</ele>
        <time>2026-07-04T08:53:35.000Z</time>
      </trkpt>
      <trkpt lat="46.14315" lon="6.7677">
        <ele>1315.5999755859</ele>
        <time>2026-07-04T08:53:45.000Z</time>
      </trkpt>
      <trkpt lat="46.14314" lon="6.76772">
        <ele>1315.5999755859</ele>
        <time>2026-07-04T08:53:52.000Z</time>
      </trkpt>
      <trkpt lat="46.1431" lon="6.76762">
        <ele>1315.8000488281</ele>
        <time>2026-07-04T08:54:02.000Z</time>
      </trkpt>
      <trkpt lat="46.14311" lon="6.76761">
        <ele>1315.8000488281</ele>
        <time>2026-07-04T08:54:04.000Z</time>
      </trkpt>
      <trkpt lat="46.14314" lon="6.76763">
        <ele>1315.8000488281</ele>
        <time>2026-07-04T08:54:15.000Z</time>
      </trkpt>
      <trkpt lat="46.14317" lon="6.7677">
        <ele>1315.8000488281</ele>
        <time>2026-07-04T08:54:24.000Z</time>
      </trkpt>
      <trkpt lat="46.14322" lon="6.76773">
        <ele>1315.8000488281</ele>
        <time>2026-07-04T08:54:31.000Z</time>
      </trkpt>
      <trkpt lat="46.14321" lon="6.76773">
        <ele>1315.8000488281</ele>
        <time>2026-07-04T08:54:36.000Z</time>
      </trkpt>
      <trkpt lat="46.1432" lon="6.76773">
        <ele>1315.8000488281</ele>
        <time>2026-07-04T08:54:40.000Z</time>
      </trkpt>
      <trkpt lat="46.14321" lon="6.76773">
        <ele>1315.8000488281</ele>
        <time>2026-07-04T08:54:41.000Z</time>
      </trkpt>
      <trkpt lat="46.14325" lon="6.76772">
        <ele>1315.8000488281</ele>
        <time>2026-07-04T08:54:50.000Z</time>
      </trkpt>
      <trkpt lat="46.14329" lon="6.76775">
        <ele>1315.5999755859</ele>
        <time>2026-07-04T08:55:01.000Z</time>
      </trkpt>
      <trkpt lat="46.14328" lon="6.76774">
        <ele>1315.5999755859</ele>
        <time>2026-07-04T08:55:12.000Z</time>
      </trkpt>
      <trkpt lat="46.14319" lon="6.76767">
        <ele>1316</ele>
        <time>2026-07-04T08:55:23.000Z</time>
      </trkpt>
      <trkpt lat="46.14316" lon="6.76766">
        <ele>1315.8000488281</ele>
        <time>2026-07-04T08:55:32.000Z</time>
      </trkpt>
      <trkpt lat="46.14315" lon="6.76768">
        <ele>1315.8000488281</ele>
        <time>2026-07-04T08:55:42.000Z</time>
      </trkpt>
      <trkpt lat="46.14317" lon="6.76768">
        <ele>1315.8000488281</ele>
        <time>2026-07-04T08:55:47.000Z</time>
      </trkpt>
      <trkpt lat="46.14319" lon="6.7677">
        <ele>1315.8000488281</ele>
        <time>2026-07-04T08:55:54.000Z</time>
      </trkpt>
      <trkpt lat="46.14325" lon="6.7677">
        <ele>1315.8000488281</ele>
        <time>2026-07-04T08:56:06.000Z</time>
      </trkpt>
      <trkpt lat="46.14325" lon="6.76769">
        <ele>1315.8000488281</ele>
        <time>2026-07-04T08:56:14.000Z</time>
      </trkpt>
      <trkpt lat="46.14324" lon="6.76771">
        <ele>1316</ele>
        <time>2026-07-04T08:56:23.000Z</time>
      </trkpt>
      <trkpt lat="46.14323" lon="6.76772">
        <ele>1316.1999511719</ele>
        <time>2026-07-04T08:56:35.000Z</time>
      </trkpt>
      <trkpt lat="46.14323" lon="6.76772">
        <ele>1316.1999511719</ele>
        <time>2026-07-04T08:56:48.000Z</time>
      </trkpt>
      <trkpt lat="46.14319" lon="6.76779">
        <ele>1316.1999511719</ele>
        <time>2026-07-04T08:56:59.000Z</time>
      </trkpt>
      <trkpt lat="46.14324" lon="6.76775">
        <ele>1316</ele>
        <time>2026-07-04T08:57:07.000Z</time>
      </trkpt>
      <trkpt lat="46.14325" lon="6.76775">
        <ele>1316</ele>
        <time>2026-07-04T08:57:08.000Z</time>
      </trkpt>
      <trkpt lat="46.14328" lon="6.76773">
        <ele>1316</ele>
        <time>2026-07-04T08:57:19.000Z</time>
      </trkpt>
      <trkpt lat="46.14321" lon="6.76771">
        <ele>1316.4000244141</ele>
        <time>2026-07-04T08:57:29.000Z</time>
      </trkpt>
      <trkpt lat="46.14316" lon="6.76775">
        <ele>1316.1999511719</ele>
        <time>2026-07-04T08:57:37.000Z</time>
      </trkpt>
      <trkpt lat="46.14312" lon="6.76782">
        <ele>1316.4000244141</ele>
        <time>2026-07-04T08:57:41.000Z</time>
      </trkpt>
      <trkpt lat="46.1431" lon="6.76784">
        <ele>1316.8000488281</ele>
        <time>2026-07-04T08:57:44.000Z</time>
      </trkpt>
      <trkpt lat="46.14309" lon="6.76795">
        <ele>1317.1999511719</ele>
        <time>2026-07-04T08:57:51.000Z</time>
      </trkpt>
      <trkpt lat="46.14309" lon="6.76804">
        <ele>1317</ele>
        <time>2026-07-04T08:57:57.000Z</time>
      </trkpt>
      <trkpt lat="46.14308" lon="6.76808">
        <ele>1316.8000488281</ele>
        <time>2026-07-04T08:58:01.000Z</time>
      </trkpt>
      <trkpt lat="46.14306" lon="6.76809">
        <ele>1316.5999755859</ele>
        <time>2026-07-04T08:58:03.000Z</time>
      </trkpt>
      <trkpt lat="46.14305" lon="6.76808">
        <ele>1317</ele>
        <time>2026-07-04T08:58:08.000Z</time>
      </trkpt>
      <trkpt lat="46.14306" lon="6.76805">
        <ele>1316.8000488281</ele>
        <time>2026-07-04T08:58:15.000Z</time>
      </trkpt>
      <trkpt lat="46.14306" lon="6.76805">
        <ele>1316.8000488281</ele>
        <time>2026-07-04T08:58:16.000Z</time>
      </trkpt>
      <trkpt lat="46.14306" lon="6.76804">
        <ele>1316.8000488281</ele>
        <time>2026-07-04T08:58:25.000Z</time>
      </trkpt>
      <trkpt lat="46.14305" lon="6.76808">
        <ele>1316.8000488281</ele>
        <time>2026-07-04T08:58:40.000Z</time>
      </trkpt>
      <trkpt lat="46.14306" lon="6.76809">
        <ele>1317</ele>
        <time>2026-07-04T08:58:43.000Z</time>
      </trkpt>
      <trkpt lat="46.14306" lon="6.7681">
        <ele>1316.5999755859</ele>
        <time>2026-07-04T08:58:52.000Z</time>
      </trkpt>
      <trkpt lat="46.14306" lon="6.76809">
        <ele>1316.5999755859</ele>
        <time>2026-07-04T08:59:04.000Z</time>
      </trkpt>
      <trkpt lat="46.14305" lon="6.76809">
        <ele>1317</ele>
        <time>2026-07-04T08:59:09.000Z</time>
      </trkpt>
      <trkpt lat="46.14303" lon="6.7681">
        <ele>1316.8000488281</ele>
        <time>2026-07-04T08:59:12.000Z</time>
      </trkpt>
      <trkpt lat="46.14294" lon="6.76812">
        <ele>1316.4000244141</ele>
        <time>2026-07-04T08:59:19.000Z</time>
      </trkpt>
      <trkpt lat="46.14292" lon="6.76813">
        <ele>1316.4000244141</ele>
        <time>2026-07-04T08:59:20.000Z</time>
      </trkpt>
      <trkpt lat="46.14284" lon="6.76818">
        <ele>1316.4000244141</ele>
        <time>2026-07-04T08:59:28.000Z</time>
      </trkpt>
      <trkpt lat="46.14279" lon="6.76822">
        <ele>1316.5999755859</ele>
        <time>2026-07-04T08:59:33.000Z</time>
      </trkpt>
      <trkpt lat="46.14274" lon="6.76824">
        <ele>1316.8000488281</ele>
        <time>2026-07-04T08:59:36.000Z</time>
      </trkpt>
      <trkpt lat="46.14266" lon="6.76835">
        <ele>1317.1999511719</ele>
        <time>2026-07-04T08:59:45.000Z</time>
      </trkpt>
      <trkpt lat="46.14263" lon="6.7684">
        <ele>1317.4000244141</ele>
        <time>2026-07-04T08:59:48.000Z</time>
      </trkpt>
      <trkpt lat="46.14262" lon="6.76846">
        <ele>1317.8000488281</ele>
        <time>2026-07-04T08:59:52.000Z</time>
      </trkpt>
      <trkpt lat="46.14259" lon="6.76857">
        <ele>1318.1999511719</ele>
        <time>2026-07-04T09:00:00.000Z</time>
      </trkpt>
      <trkpt lat="46.14259" lon="6.7686">
        <ele>1318.4000244141</ele>
        <time>2026-07-04T09:00:01.000Z</time>
      </trkpt>
      <trkpt lat="46.14255" lon="6.76872">
        <ele>1319.1999511719</ele>
        <time>2026-07-04T09:00:09.000Z</time>
      </trkpt>
      <trkpt lat="46.14254" lon="6.76875">
        <ele>1319.4000244141</ele>
        <time>2026-07-04T09:00:11.000Z</time>
      </trkpt>
      <trkpt lat="46.14252" lon="6.76882">
        <ele>1320.1999511719</ele>
        <time>2026-07-04T09:00:17.000Z</time>
      </trkpt>
      <trkpt lat="46.14249" lon="6.76891">
        <ele>1320.4000244141</ele>
        <time>2026-07-04T09:00:22.000Z</time>
      </trkpt>
      <trkpt lat="46.14249" lon="6.76893">
        <ele>1320.5999755859</ele>
        <time>2026-07-04T09:00:24.000Z</time>
      </trkpt>
      <trkpt lat="46.14249" lon="6.76896">
        <ele>1320.5999755859</ele>
        <time>2026-07-04T09:00:26.000Z</time>
      </trkpt>
      <trkpt lat="46.14247" lon="6.76905">
        <ele>1321</ele>
        <time>2026-07-04T09:00:32.000Z</time>
      </trkpt>
      <trkpt lat="46.14246" lon="6.76909">
        <ele>1321.1999511719</ele>
        <time>2026-07-04T09:00:34.000Z</time>
      </trkpt>
      <trkpt lat="46.14244" lon="6.76917">
        <ele>1321.5999755859</ele>
        <time>2026-07-04T09:00:40.000Z</time>
      </trkpt>
      <trkpt lat="46.14244" lon="6.76921">
        <ele>1321.8000488281</ele>
        <time>2026-07-04T09:00:43.000Z</time>
      </trkpt>
      <trkpt lat="46.14241" lon="6.76929">
        <ele>1322.5999755859</ele>
        <time>2026-07-04T09:00:49.000Z</time>
      </trkpt>
      <trkpt lat="46.14239" lon="6.76935">
        <ele>1322.8000488281</ele>
        <time>2026-07-04T09:00:53.000Z</time>
      </trkpt>
      <trkpt lat="46.14235" lon="6.76945">
        <ele>1323.5999755859</ele>
        <time>2026-07-04T09:01:00.000Z</time>
      </trkpt>
      <trkpt lat="46.14233" lon="6.7695">
        <ele>1324</ele>
        <time>2026-07-04T09:01:03.000Z</time>
      </trkpt>
      <trkpt lat="46.14231" lon="6.76962">
        <ele>1324.8000488281</ele>
        <time>2026-07-04T09:01:10.000Z</time>
      </trkpt>
      <trkpt lat="46.14231" lon="6.76963">
        <ele>1325</ele>
        <time>2026-07-04T09:01:11.000Z</time>
      </trkpt>
      <trkpt lat="46.14227" lon="6.76973">
        <ele>1325.8000488281</ele>
        <time>2026-07-04T09:01:19.000Z</time>
      </trkpt>
      <trkpt lat="46.14227" lon="6.76973">
        <ele>1325.8000488281</ele>
        <time>2026-07-04T09:01:20.000Z</time>
      </trkpt>
      <trkpt lat="46.14225" lon="6.7698">
        <ele>1326</ele>
        <time>2026-07-04T09:01:26.000Z</time>
      </trkpt>
      <trkpt lat="46.14224" lon="6.76981">
        <ele>1326.1999511719</ele>
        <time>2026-07-04T09:01:27.000Z</time>
      </trkpt>
      <trkpt lat="46.14224" lon="6.76986">
        <ele>1326.8000488281</ele>
        <time>2026-07-04T09:01:31.000Z</time>
      </trkpt>
      <trkpt lat="46.14222" lon="6.76993">
        <ele>1327.5999755859</ele>
        <time>2026-07-04T09:01:36.000Z</time>
      </trkpt>
      <trkpt lat="46.14223" lon="6.76995">
        <ele>1327.8000488281</ele>
        <time>2026-07-04T09:01:37.000Z</time>
      </trkpt>
      <trkpt lat="46.14221" lon="6.77011">
        <ele>1328.8000488281</ele>
        <time>2026-07-04T09:01:47.000Z</time>
      </trkpt>
      <trkpt lat="46.14218" lon="6.77025">
        <ele>1329.8000488281</ele>
        <time>2026-07-04T09:01:57.000Z</time>
      </trkpt>
      <trkpt lat="46.14218" lon="6.77027">
        <ele>1330</ele>
        <time>2026-07-04T09:01:58.000Z</time>
      </trkpt>
      <trkpt lat="46.14219" lon="6.77037">
        <ele>1330.8000488281</ele>
        <time>2026-07-04T09:02:06.000Z</time>
      </trkpt>
      <trkpt lat="46.1422" lon="6.77038">
        <ele>1330.8000488281</ele>
        <time>2026-07-04T09:02:08.000Z</time>
      </trkpt>
      <trkpt lat="46.14219" lon="6.7703">
        <ele>1330.5999755859</ele>
        <time>2026-07-04T09:02:15.000Z</time>
      </trkpt>
      <trkpt lat="46.14219" lon="6.77029">
        <ele>1330.5999755859</ele>
        <time>2026-07-04T09:02:17.000Z</time>
      </trkpt>
      <trkpt lat="46.14219" lon="6.7703">
        <ele>1330.5999755859</ele>
        <time>2026-07-04T09:02:18.000Z</time>
      </trkpt>
      <trkpt lat="46.14219" lon="6.77031">
        <ele>1330.8000488281</ele>
        <time>2026-07-04T09:02:19.000Z</time>
      </trkpt>
      <trkpt lat="46.14219" lon="6.77032">
        <ele>1331</ele>
        <time>2026-07-04T09:02:20.000Z</time>
      </trkpt>
      <trkpt lat="46.14219" lon="6.77041">
        <ele>1331.4000244141</ele>
        <time>2026-07-04T09:02:25.000Z</time>
      </trkpt>
      <trkpt lat="46.14219" lon="6.77047">
        <ele>1331.4000244141</ele>
        <time>2026-07-04T09:02:30.000Z</time>
      </trkpt>
      <trkpt lat="46.14221" lon="6.77055">
        <ele>1331.5999755859</ele>
        <time>2026-07-04T09:02:36.000Z</time>
      </trkpt>
      <trkpt lat="46.14221" lon="6.77063">
        <ele>1332</ele>
        <time>2026-07-04T09:02:42.000Z</time>
      </trkpt>
      <trkpt lat="46.1422" lon="6.77067">
        <ele>1332.4000244141</ele>
        <time>2026-07-04T09:02:46.000Z</time>
      </trkpt>
      <trkpt lat="46.14216" lon="6.77074">
        <ele>1332.8000488281</ele>
        <time>2026-07-04T09:02:52.000Z</time>
      </trkpt>
      <trkpt lat="46.14214" lon="6.77076">
        <ele>1333</ele>
        <time>2026-07-04T09:02:54.000Z</time>
      </trkpt>
      <trkpt lat="46.14212" lon="6.77078">
        <ele>1333</ele>
        <time>2026-07-04T09:02:56.000Z</time>
      </trkpt>
      <trkpt lat="46.14209" lon="6.77082">
        <ele>1333.1999511719</ele>
        <time>2026-07-04T09:03:01.000Z</time>
      </trkpt>
      <trkpt lat="46.14207" lon="6.77098">
        <ele>1333.5999755859</ele>
        <time>2026-07-04T09:03:08.000Z</time>
      </trkpt>
      <trkpt lat="46.14203" lon="6.77114">
        <ele>1333.8000488281</ele>
        <time>2026-07-04T09:03:19.000Z</time>
      </trkpt>
      <trkpt lat="46.14205" lon="6.77123">
        <ele>1334.1999511719</ele>
        <time>2026-07-04T09:03:26.000Z</time>
      </trkpt>
      <trkpt lat="46.14206" lon="6.77129">
        <ele>1334.4000244141</ele>
        <time>2026-07-04T09:03:29.000Z</time>
      </trkpt>
      <trkpt lat="46.14207" lon="6.77134">
        <ele>1334.8000488281</ele>
        <time>2026-07-04T09:03:33.000Z</time>
      </trkpt>
      <trkpt lat="46.14209" lon="6.77141">
        <ele>1335.1999511719</ele>
        <time>2026-07-04T09:03:37.000Z</time>
      </trkpt>
      <trkpt lat="46.14209" lon="6.77143">
        <ele>1335.4000244141</ele>
        <time>2026-07-04T09:03:38.000Z</time>
      </trkpt>
      <trkpt lat="46.1421" lon="6.7716">
        <ele>1336.4000244141</ele>
        <time>2026-07-04T09:03:48.000Z</time>
      </trkpt>
      <trkpt lat="46.14204" lon="6.77174">
        <ele>1336.8000488281</ele>
        <time>2026-07-04T09:03:57.000Z</time>
      </trkpt>
      <trkpt lat="46.14201" lon="6.77184">
        <ele>1337.1999511719</ele>
        <time>2026-07-04T09:04:05.000Z</time>
      </trkpt>
      <trkpt lat="46.14201" lon="6.77187">
        <ele>1337.4000244141</ele>
        <time>2026-07-04T09:04:06.000Z</time>
      </trkpt>
      <trkpt lat="46.142" lon="6.77196">
        <ele>1338</ele>
        <time>2026-07-04T09:04:13.000Z</time>
      </trkpt>
      <trkpt lat="46.14199" lon="6.77204">
        <ele>1338.4000244141</ele>
        <time>2026-07-04T09:04:17.000Z</time>
      </trkpt>
      <trkpt lat="46.142" lon="6.77212">
        <ele>1338.8000488281</ele>
        <time>2026-07-04T09:04:21.000Z</time>
      </trkpt>
      <trkpt lat="46.14202" lon="6.77218">
        <ele>1339.4000244141</ele>
        <time>2026-07-04T09:04:26.000Z</time>
      </trkpt>
      <trkpt lat="46.14204" lon="6.77221">
        <ele>1339.8000488281</ele>
        <time>2026-07-04T09:04:28.000Z</time>
      </trkpt>
      <trkpt lat="46.14207" lon="6.77234">
        <ele>1340</ele>
        <time>2026-07-04T09:04:35.000Z</time>
      </trkpt>
      <trkpt lat="46.14207" lon="6.77248">
        <ele>1340.4000244141</ele>
        <time>2026-07-04T09:04:44.000Z</time>
      </trkpt>
      <trkpt lat="46.14207" lon="6.77252">
        <ele>1340.4000244141</ele>
        <time>2026-07-04T09:04:46.000Z</time>
      </trkpt>
      <trkpt lat="46.14208" lon="6.77261">
        <ele>1340.5999755859</ele>
        <time>2026-07-04T09:04:51.000Z</time>
      </trkpt>
      <trkpt lat="46.14206" lon="6.77272">
        <ele>1340.4000244141</ele>
        <time>2026-07-04T09:04:58.000Z</time>
      </trkpt>
      <trkpt lat="46.14205" lon="6.77273">
        <ele>1340.1999511719</ele>
        <time>2026-07-04T09:04:59.000Z</time>
      </trkpt>
      <trkpt lat="46.14202" lon="6.77278">
        <ele>1340.1999511719</ele>
        <time>2026-07-04T09:05:03.000Z</time>
      </trkpt>
      <trkpt lat="46.14198" lon="6.77282">
        <ele>1340.1999511719</ele>
        <time>2026-07-04T09:05:08.000Z</time>
      </trkpt>
      <trkpt lat="46.14198" lon="6.77284">
        <ele>1340.4000244141</ele>
        <time>2026-07-04T09:05:12.000Z</time>
      </trkpt>
      <trkpt lat="46.14198" lon="6.77282">
        <ele>1340.4000244141</ele>
        <time>2026-07-04T09:05:15.000Z</time>
      </trkpt>
      <trkpt lat="46.14198" lon="6.77281">
        <ele>1340.1999511719</ele>
        <time>2026-07-04T09:05:19.000Z</time>
      </trkpt>
      <trkpt lat="46.14197" lon="6.77283">
        <ele>1340.1999511719</ele>
        <time>2026-07-04T09:05:22.000Z</time>
      </trkpt>
      <trkpt lat="46.14201" lon="6.77282">
        <ele>1340.1999511719</ele>
        <time>2026-07-04T09:05:26.000Z</time>
      </trkpt>
      <trkpt lat="46.14209" lon="6.77287">
        <ele>1340</ele>
        <time>2026-07-04T09:05:32.000Z</time>
      </trkpt>
      <trkpt lat="46.1421" lon="6.77288">
        <ele>1340.1999511719</ele>
        <time>2026-07-04T09:05:33.000Z</time>
      </trkpt>
      <trkpt lat="46.14212" lon="6.7729">
        <ele>1340.1999511719</ele>
        <time>2026-07-04T09:05:38.000Z</time>
      </trkpt>
      <trkpt lat="46.14212" lon="6.7729">
        <ele>1340.1999511719</ele>
        <time>2026-07-04T09:05:42.000Z</time>
      </trkpt>
      <trkpt lat="46.14211" lon="6.77288">
        <ele>1340</ele>
        <time>2026-07-04T09:05:50.000Z</time>
      </trkpt>
      <trkpt lat="46.14209" lon="6.77288">
        <ele>1340</ele>
        <time>2026-07-04T09:05:53.000Z</time>
      </trkpt>
      <trkpt lat="46.14213" lon="6.7729">
        <ele>1339.8000488281</ele>
        <time>2026-07-04T09:06:05.000Z</time>
      </trkpt>
      <trkpt lat="46.14212" lon="6.77289">
        <ele>1339.8000488281</ele>
        <time>2026-07-04T09:06:14.000Z</time>
      </trkpt>
      <trkpt lat="46.14209" lon="6.77292">
        <ele>1339.8000488281</ele>
        <time>2026-07-04T09:06:22.000Z</time>
      </trkpt>
      <trkpt lat="46.14208" lon="6.77292">
        <ele>1340</ele>
        <time>2026-07-04T09:06:27.000Z</time>
      </trkpt>
      <trkpt lat="46.14206" lon="6.77294">
        <ele>1339.5999755859</ele>
        <time>2026-07-04T09:06:34.000Z</time>
      </trkpt>
      <trkpt lat="46.14206" lon="6.77294">
        <ele>1339.4000244141</ele>
        <time>2026-07-04T09:06:35.000Z</time>
      </trkpt>
      <trkpt lat="46.14208" lon="6.77291">
        <ele>1339.5999755859</ele>
        <time>2026-07-04T09:06:43.000Z</time>
      </trkpt>
      <trkpt lat="46.14208" lon="6.77292">
        <ele>1339.4000244141</ele>
        <time>2026-07-04T09:06:48.000Z</time>
      </trkpt>
      <trkpt lat="46.14208" lon="6.77292">
        <ele>1339.1999511719</ele>
        <time>2026-07-04T09:06:54.000Z</time>
      </trkpt>
      <trkpt lat="46.14208" lon="6.77292">
        <ele>1339.1999511719</ele>
        <time>2026-07-04T09:07:03.000Z</time>
      </trkpt>
      <trkpt lat="46.14205" lon="6.77292">
        <ele>1339.5999755859</ele>
        <time>2026-07-04T09:07:10.000Z</time>
      </trkpt>
      <trkpt lat="46.142" lon="6.77288">
        <ele>1339.4000244141</ele>
        <time>2026-07-04T09:07:16.000Z</time>
      </trkpt>
      <trkpt lat="46.142" lon="6.77287">
        <ele>1339.5999755859</ele>
        <time>2026-07-04T09:07:22.000Z</time>
      </trkpt>
      <trkpt lat="46.142" lon="6.77288">
        <ele>1339.5999755859</ele>
        <time>2026-07-04T09:07:31.000Z</time>
      </trkpt>
      <trkpt lat="46.142" lon="6.77288">
        <ele>1339.5999755859</ele>
        <time>2026-07-04T09:07:32.000Z</time>
      </trkpt>
      <trkpt lat="46.14197" lon="6.77288">
        <ele>1339.5999755859</ele>
        <time>2026-07-04T09:07:38.000Z</time>
      </trkpt>
      <trkpt lat="46.14189" lon="6.77289">
        <ele>1339.4000244141</ele>
        <time>2026-07-04T09:07:45.000Z</time>
      </trkpt>
      <trkpt lat="46.14182" lon="6.77286">
        <ele>1340.4000244141</ele>
        <time>2026-07-04T09:07:52.000Z</time>
      </trkpt>
      <trkpt lat="46.14179" lon="6.77284">
        <ele>1340.5999755859</ele>
        <time>2026-07-04T09:07:55.000Z</time>
      </trkpt>
      <trkpt lat="46.1417" lon="6.77278">
        <ele>1341.1999511719</ele>
        <time>2026-07-04T09:08:04.000Z</time>
      </trkpt>
      <trkpt lat="46.14166" lon="6.77278">
        <ele>1341.5999755859</ele>
        <time>2026-07-04T09:08:07.000Z</time>
      </trkpt>
      <trkpt lat="46.14162" lon="6.7728">
        <ele>1341.8000488281</ele>
        <time>2026-07-04T09:08:10.000Z</time>
      </trkpt>
      <trkpt lat="46.1416" lon="6.7728">
        <ele>1342</ele>
        <time>2026-07-04T09:08:12.000Z</time>
      </trkpt>
      <trkpt lat="46.14155" lon="6.77282">
        <ele>1342.5999755859</ele>
        <time>2026-07-04T09:08:16.000Z</time>
      </trkpt>
      <trkpt lat="46.14151" lon="6.77284">
        <ele>1342.8000488281</ele>
        <time>2026-07-04T09:08:21.000Z</time>
      </trkpt>
      <trkpt lat="46.1415" lon="6.77284">
        <ele>1343</ele>
        <time>2026-07-04T09:08:22.000Z</time>
      </trkpt>
      <trkpt lat="46.14147" lon="6.77286">
        <ele>1343.5999755859</ele>
        <time>2026-07-04T09:08:27.000Z</time>
      </trkpt>
      <trkpt lat="46.14143" lon="6.77288">
        <ele>1344.1999511719</ele>
        <time>2026-07-04T09:08:32.000Z</time>
      </trkpt>
      <trkpt lat="46.1414" lon="6.7729">
        <ele>1344.5999755859</ele>
        <time>2026-07-04T09:08:36.000Z</time>
      </trkpt>
      <trkpt lat="46.14136" lon="6.77291">
        <ele>1345</ele>
        <time>2026-07-04T09:08:40.000Z</time>
      </trkpt>
      <trkpt lat="46.14132" lon="6.77292">
        <ele>1345.5999755859</ele>
        <time>2026-07-04T09:08:45.000Z</time>
      </trkpt>
      <trkpt lat="46.14129" lon="6.77293">
        <ele>1346.1999511719</ele>
        <time>2026-07-04T09:08:49.000Z</time>
      </trkpt>
      <trkpt lat="46.14124" lon="6.77296">
        <ele>1346.5999755859</ele>
        <time>2026-07-04T09:08:53.000Z</time>
      </trkpt>
      <trkpt lat="46.14118" lon="6.773">
        <ele>1347.5999755859</ele>
        <time>2026-07-04T09:09:00.000Z</time>
      </trkpt>
      <trkpt lat="46.14117" lon="6.773">
        <ele>1347.8000488281</ele>
        <time>2026-07-04T09:09:01.000Z</time>
      </trkpt>
      <trkpt lat="46.14108" lon="6.77302">
        <ele>1347.8000488281</ele>
        <time>2026-07-04T09:09:08.000Z</time>
      </trkpt>
      <trkpt lat="46.14097" lon="6.77306">
        <ele>1348.8000488281</ele>
        <time>2026-07-04T09:09:18.000Z</time>
      </trkpt>
      <trkpt lat="46.14091" lon="6.77312">
        <ele>1349.1999511719</ele>
        <time>2026-07-04T09:09:25.000Z</time>
      </trkpt>
      <trkpt lat="46.14087" lon="6.77318">
        <ele>1349.8000488281</ele>
        <time>2026-07-04T09:09:29.000Z</time>
      </trkpt>
      <trkpt lat="46.14084" lon="6.77325">
        <ele>1350.4000244141</ele>
        <time>2026-07-04T09:09:33.000Z</time>
      </trkpt>
      <trkpt lat="46.14082" lon="6.77329">
        <ele>1351</ele>
        <time>2026-07-04T09:09:37.000Z</time>
      </trkpt>
      <trkpt lat="46.1408" lon="6.77333">
        <ele>1351.5999755859</ele>
        <time>2026-07-04T09:09:41.000Z</time>
      </trkpt>
      <trkpt lat="46.14078" lon="6.77337">
        <ele>1352</ele>
        <time>2026-07-04T09:09:47.000Z</time>
      </trkpt>
      <trkpt lat="46.14076" lon="6.77341">
        <ele>1352</ele>
        <time>2026-07-04T09:09:50.000Z</time>
      </trkpt>
      <trkpt lat="46.14071" lon="6.77353">
        <ele>1352.1999511719</ele>
        <time>2026-07-04T09:09:59.000Z</time>
      </trkpt>
      <trkpt lat="46.14067" lon="6.7736">
        <ele>1352.1999511719</ele>
        <time>2026-07-04T09:10:06.000Z</time>
      </trkpt>
      <trkpt lat="46.14067" lon="6.77369">
        <ele>1352.4000244141</ele>
        <time>2026-07-04T09:10:13.000Z</time>
      </trkpt>
      <trkpt lat="46.14068" lon="6.77375">
        <ele>1353</ele>
        <time>2026-07-04T09:10:18.000Z</time>
      </trkpt>
      <trkpt lat="46.14066" lon="6.77377">
        <ele>1353.4000244141</ele>
        <time>2026-07-04T09:10:20.000Z</time>
      </trkpt>
      <trkpt lat="46.14066" lon="6.77379">
        <ele>1353.4000244141</ele>
        <time>2026-07-04T09:10:21.000Z</time>
      </trkpt>
      <trkpt lat="46.14063" lon="6.77386">
        <ele>1354</ele>
        <time>2026-07-04T09:10:26.000Z</time>
      </trkpt>
      <trkpt lat="46.14063" lon="6.77391">
        <ele>1354.4000244141</ele>
        <time>2026-07-04T09:10:30.000Z</time>
      </trkpt>
      <trkpt lat="46.1406" lon="6.77399">
        <ele>1355</ele>
        <time>2026-07-04T09:10:35.000Z</time>
      </trkpt>
      <trkpt lat="46.1406" lon="6.77401">
        <ele>1355.1999511719</ele>
        <time>2026-07-04T09:10:36.000Z</time>
      </trkpt>
      <trkpt lat="46.14057" lon="6.77415">
        <ele>1355.8000488281</ele>
        <time>2026-07-04T09:10:45.000Z</time>
      </trkpt>
      <trkpt lat="46.14055" lon="6.77419">
        <ele>1356.1999511719</ele>
        <time>2026-07-04T09:10:48.000Z</time>
      </trkpt>
      <trkpt lat="46.14053" lon="6.77425">
        <ele>1357.1999511719</ele>
        <time>2026-07-04T09:10:54.000Z</time>
      </trkpt>
      <trkpt lat="46.14052" lon="6.77427">
        <ele>1357.4000244141</ele>
        <time>2026-07-04T09:10:55.000Z</time>
      </trkpt>
      <trkpt lat="46.14052" lon="6.77432">
        <ele>1358.1999511719</ele>
        <time>2026-07-04T09:10:59.000Z</time>
      </trkpt>
      <trkpt lat="46.14052" lon="6.77436">
        <ele>1359.4000244141</ele>
        <time>2026-07-04T09:11:03.000Z</time>
      </trkpt>
      <trkpt lat="46.14051" lon="6.77441">
        <ele>1360.1999511719</ele>
        <time>2026-07-04T09:11:08.000Z</time>
      </trkpt>
      <trkpt lat="46.14051" lon="6.77441">
        <ele>1360.4000244141</ele>
        <time>2026-07-04T09:11:09.000Z</time>
      </trkpt>
      <trkpt lat="46.14051" lon="6.77441">
        <ele>1360.5999755859</ele>
        <time>2026-07-04T09:11:10.000Z</time>
      </trkpt>
      <trkpt lat="46.14051" lon="6.77447">
        <ele>1361.4000244141</ele>
        <time>2026-07-04T09:11:18.000Z</time>
      </trkpt>
      <trkpt lat="46.14051" lon="6.77448">
        <ele>1361.5999755859</ele>
        <time>2026-07-04T09:11:19.000Z</time>
      </trkpt>
      <trkpt lat="46.14051" lon="6.77453">
        <ele>1362.5999755859</ele>
        <time>2026-07-04T09:11:25.000Z</time>
      </trkpt>
      <trkpt lat="46.14051" lon="6.77455">
        <ele>1362.8000488281</ele>
        <time>2026-07-04T09:11:27.000Z</time>
      </trkpt>
      <trkpt lat="46.14051" lon="6.77459">
        <ele>1363.5999755859</ele>
        <time>2026-07-04T09:11:32.000Z</time>
      </trkpt>
      <trkpt lat="46.14052" lon="6.77464">
        <ele>1364.5999755859</ele>
        <time>2026-07-04T09:11:38.000Z</time>
      </trkpt>
      <trkpt lat="46.14052" lon="6.77464">
        <ele>1364.8000488281</ele>
        <time>2026-07-04T09:11:39.000Z</time>
      </trkpt>
      <trkpt lat="46.14052" lon="6.7747">
        <ele>1365.5999755859</ele>
        <time>2026-07-04T09:11:46.000Z</time>
      </trkpt>
      <trkpt lat="46.14052" lon="6.77471">
        <ele>1365.8000488281</ele>
        <time>2026-07-04T09:11:47.000Z</time>
      </trkpt>
      <trkpt lat="46.14052" lon="6.77475">
        <ele>1366.5999755859</ele>
        <time>2026-07-04T09:11:52.000Z</time>
      </trkpt>
      <trkpt lat="46.14052" lon="6.77476">
        <ele>1366.8000488281</ele>
        <time>2026-07-04T09:11:53.000Z</time>
      </trkpt>
      <trkpt lat="46.14054" lon="6.7748">
        <ele>1367.5999755859</ele>
        <time>2026-07-04T09:11:59.000Z</time>
      </trkpt>
      <trkpt lat="46.14054" lon="6.77481">
        <ele>1368</ele>
        <time>2026-07-04T09:12:01.000Z</time>
      </trkpt>
      <trkpt lat="46.14055" lon="6.77487">
        <ele>1369</ele>
        <time>2026-07-04T09:12:07.000Z</time>
      </trkpt>
      <trkpt lat="46.14056" lon="6.77489">
        <ele>1369.1999511719</ele>
        <time>2026-07-04T09:12:09.000Z</time>
      </trkpt>
      <trkpt lat="46.14057" lon="6.77495">
        <ele>1370</ele>
        <time>2026-07-04T09:12:15.000Z</time>
      </trkpt>
      <trkpt lat="46.14057" lon="6.77496">
        <ele>1370.4000244141</ele>
        <time>2026-07-04T09:12:17.000Z</time>
      </trkpt>
      <trkpt lat="46.14058" lon="6.775">
        <ele>1371.1999511719</ele>
        <time>2026-07-04T09:12:21.000Z</time>
      </trkpt>
      <trkpt lat="46.14059" lon="6.77504">
        <ele>1371.8000488281</ele>
        <time>2026-07-04T09:12:25.000Z</time>
      </trkpt>
      <trkpt lat="46.14059" lon="6.77509">
        <ele>1372.4000244141</ele>
        <time>2026-07-04T09:12:28.000Z</time>
      </trkpt>
      <trkpt lat="46.1406" lon="6.77513">
        <ele>1373</ele>
        <time>2026-07-04T09:12:32.000Z</time>
      </trkpt>
      <trkpt lat="46.1406" lon="6.77516">
        <ele>1373.4000244141</ele>
        <time>2026-07-04T09:12:35.000Z</time>
      </trkpt>
      <trkpt lat="46.14061" lon="6.77522">
        <ele>1374.5999755859</ele>
        <time>2026-07-04T09:12:42.000Z</time>
      </trkpt>
      <trkpt lat="46.14061" lon="6.77523">
        <ele>1374.8000488281</ele>
        <time>2026-07-04T09:12:43.000Z</time>
      </trkpt>
      <trkpt lat="46.1406" lon="6.77525">
        <ele>1375.5999755859</ele>
        <time>2026-07-04T09:12:47.000Z</time>
      </trkpt>
      <trkpt lat="46.1406" lon="6.7753">
        <ele>1376</ele>
        <time>2026-07-04T09:12:51.000Z</time>
      </trkpt>
      <trkpt lat="46.14061" lon="6.77531">
        <ele>1376.1999511719</ele>
        <time>2026-07-04T09:12:53.000Z</time>
      </trkpt>
      <trkpt lat="46.14061" lon="6.77534">
        <ele>1376.8000488281</ele>
        <time>2026-07-04T09:12:56.000Z</time>
      </trkpt>
      <trkpt lat="46.14061" lon="6.77541">
        <ele>1377.8000488281</ele>
        <time>2026-07-04T09:13:02.000Z</time>
      </trkpt>
      <trkpt lat="46.14061" lon="6.77542">
        <ele>1378</ele>
        <time>2026-07-04T09:13:03.000Z</time>
      </trkpt>
      <trkpt lat="46.14059" lon="6.77549">
        <ele>1379</ele>
        <time>2026-07-04T09:13:11.000Z</time>
      </trkpt>
      <trkpt lat="46.14054" lon="6.77552">
        <ele>1380.1999511719</ele>
        <time>2026-07-04T09:13:17.000Z</time>
      </trkpt>
      <trkpt lat="46.14053" lon="6.77553">
        <ele>1380.4000244141</ele>
        <time>2026-07-04T09:13:18.000Z</time>
      </trkpt>
      <trkpt lat="46.14052" lon="6.77554">
        <ele>1381</ele>
        <time>2026-07-04T09:13:21.000Z</time>
      </trkpt>
      <trkpt lat="46.14052" lon="6.77555">
        <ele>1381.1999511719</ele>
        <time>2026-07-04T09:13:22.000Z</time>
      </trkpt>
      <trkpt lat="46.14047" lon="6.77557">
        <ele>1382.4000244141</ele>
        <time>2026-07-04T09:13:28.000Z</time>
      </trkpt>
      <trkpt lat="46.14045" lon="6.77559">
        <ele>1382.8000488281</ele>
        <time>2026-07-04T09:13:31.000Z</time>
      </trkpt>
      <trkpt lat="46.14043" lon="6.77561">
        <ele>1383.4000244141</ele>
        <time>2026-07-04T09:13:34.000Z</time>
      </trkpt>
      <trkpt lat="46.1404" lon="6.77563">
        <ele>1384.4000244141</ele>
        <time>2026-07-04T09:13:39.000Z</time>
      </trkpt>
      <trkpt lat="46.14039" lon="6.77563">
        <ele>1384.5999755859</ele>
        <time>2026-07-04T09:13:40.000Z</time>
      </trkpt>
      <trkpt lat="46.14035" lon="6.77564">
        <ele>1385.8000488281</ele>
        <time>2026-07-04T09:13:46.000Z</time>
      </trkpt>
      <trkpt lat="46.14033" lon="6.77566">
        <ele>1386.4000244141</ele>
        <time>2026-07-04T09:13:49.000Z</time>
      </trkpt>
      <trkpt lat="46.14032" lon="6.77567">
        <ele>1387</ele>
        <time>2026-07-04T09:13:51.000Z</time>
      </trkpt>
      <trkpt lat="46.14029" lon="6.77571">
        <ele>1388</ele>
        <time>2026-07-04T09:13:55.000Z</time>
      </trkpt>
      <trkpt lat="46.14028" lon="6.77574">
        <ele>1388.5999755859</ele>
        <time>2026-07-04T09:13:58.000Z</time>
      </trkpt>
      <trkpt lat="46.14028" lon="6.77575">
        <ele>1389</ele>
        <time>2026-07-04T09:14:00.000Z</time>
      </trkpt>
      <trkpt lat="46.14028" lon="6.77578">
        <ele>1390</ele>
        <time>2026-07-04T09:14:06.000Z</time>
      </trkpt>
      <trkpt lat="46.14027" lon="6.77585">
        <ele>1391.1999511719</ele>
        <time>2026-07-04T09:14:13.000Z</time>
      </trkpt>
      <trkpt lat="46.14027" lon="6.77587">
        <ele>1391.4000244141</ele>
        <time>2026-07-04T09:14:14.000Z</time>
      </trkpt>
      <trkpt lat="46.14027" lon="6.7759">
        <ele>1392.1999511719</ele>
        <time>2026-07-04T09:14:18.000Z</time>
      </trkpt>
      <trkpt lat="46.14027" lon="6.77592">
        <ele>1392.5999755859</ele>
        <time>2026-07-04T09:14:20.000Z</time>
      </trkpt>
      <trkpt lat="46.14028" lon="6.77593">
        <ele>1393.1999511719</ele>
        <time>2026-07-04T09:14:22.000Z</time>
      </trkpt>
      <trkpt lat="46.14028" lon="6.77594">
        <ele>1393.4000244141</ele>
        <time>2026-07-04T09:14:23.000Z</time>
      </trkpt>
      <trkpt lat="46.1403" lon="6.77601">
        <ele>1394.4000244141</ele>
        <time>2026-07-04T09:14:29.000Z</time>
      </trkpt>
      <trkpt lat="46.14031" lon="6.77602">
        <ele>1394.5999755859</ele>
        <time>2026-07-04T09:14:30.000Z</time>
      </trkpt>
      <trkpt lat="46.14032" lon="6.77609">
        <ele>1395.5999755859</ele>
        <time>2026-07-04T09:14:35.000Z</time>
      </trkpt>
      <trkpt lat="46.14032" lon="6.77616">
        <ele>1396.4000244141</ele>
        <time>2026-07-04T09:14:39.000Z</time>
      </trkpt>
      <trkpt lat="46.14033" lon="6.77618">
        <ele>1396.8000488281</ele>
        <time>2026-07-04T09:14:41.000Z</time>
      </trkpt>
      <trkpt lat="46.14032" lon="6.77622">
        <ele>1397.5999755859</ele>
        <time>2026-07-04T09:14:47.000Z</time>
      </trkpt>
      <trkpt lat="46.14031" lon="6.77624">
        <ele>1397.5999755859</ele>
        <time>2026-07-04T09:14:48.000Z</time>
      </trkpt>
      <trkpt lat="46.14029" lon="6.77626">
        <ele>1398</ele>
        <time>2026-07-04T09:14:51.000Z</time>
      </trkpt>
      <trkpt lat="46.14028" lon="6.77627">
        <ele>1398.4000244141</ele>
        <time>2026-07-04T09:14:54.000Z</time>
      </trkpt>
      <trkpt lat="46.14028" lon="6.77626">
        <ele>1398.4000244141</ele>
        <time>2026-07-04T09:14:55.000Z</time>
      </trkpt>
      <trkpt lat="46.14028" lon="6.77626">
        <ele>1398.5999755859</ele>
        <time>2026-07-04T09:15:02.000Z</time>
      </trkpt>
      <trkpt lat="46.14028" lon="6.77626">
        <ele>1398.5999755859</ele>
        <time>2026-07-04T09:15:04.000Z</time>
      </trkpt>
      <trkpt lat="46.14024" lon="6.77627">
        <ele>1398.5999755859</ele>
        <time>2026-07-04T09:15:13.000Z</time>
      </trkpt>
      <trkpt lat="46.14028" lon="6.7763">
        <ele>1399</ele>
        <time>2026-07-04T09:15:21.000Z</time>
      </trkpt>
      <trkpt lat="46.14029" lon="6.77634">
        <ele>1399.4000244141</ele>
        <time>2026-07-04T09:15:24.000Z</time>
      </trkpt>
      <trkpt lat="46.1403" lon="6.77641">
        <ele>1400</ele>
        <time>2026-07-04T09:15:29.000Z</time>
      </trkpt>
      <trkpt lat="46.14031" lon="6.77644">
        <ele>1400.5999755859</ele>
        <time>2026-07-04T09:15:33.000Z</time>
      </trkpt>
      <trkpt lat="46.14031" lon="6.77644">
        <ele>1400.8000488281</ele>
        <time>2026-07-04T09:15:34.000Z</time>
      </trkpt>
      <trkpt lat="46.14031" lon="6.77646">
        <ele>1401</ele>
        <time>2026-07-04T09:15:37.000Z</time>
      </trkpt>
      <trkpt lat="46.14029" lon="6.77656">
        <ele>1401.4000244141</ele>
        <time>2026-07-04T09:15:44.000Z</time>
      </trkpt>
      <trkpt lat="46.14026" lon="6.77663">
        <ele>1401.8000488281</ele>
        <time>2026-07-04T09:15:52.000Z</time>
      </trkpt>
      <trkpt lat="46.14024" lon="6.77665">
        <ele>1402</ele>
        <time>2026-07-04T09:15:55.000Z</time>
      </trkpt>
      <trkpt lat="46.14024" lon="6.77666">
        <ele>1402</ele>
        <time>2026-07-04T09:15:56.000Z</time>
      </trkpt>
      <trkpt lat="46.14023" lon="6.77669">
        <ele>1402.8000488281</ele>
        <time>2026-07-04T09:16:00.000Z</time>
      </trkpt>
      <trkpt lat="46.14022" lon="6.7767">
        <ele>1403</ele>
        <time>2026-07-04T09:16:02.000Z</time>
      </trkpt>
      <trkpt lat="46.14022" lon="6.7767">
        <ele>1403.1999511719</ele>
        <time>2026-07-04T09:16:03.000Z</time>
      </trkpt>
      <trkpt lat="46.14019" lon="6.77677">
        <ele>1404.1999511719</ele>
        <time>2026-07-04T09:16:11.000Z</time>
      </trkpt>
      <trkpt lat="46.14019" lon="6.77679">
        <ele>1404.5999755859</ele>
        <time>2026-07-04T09:16:13.000Z</time>
      </trkpt>
      <trkpt lat="46.14018" lon="6.77681">
        <ele>1405.1999511719</ele>
        <time>2026-07-04T09:16:16.000Z</time>
      </trkpt>
      <trkpt lat="46.14017" lon="6.77684">
        <ele>1406.1999511719</ele>
        <time>2026-07-04T09:16:21.000Z</time>
      </trkpt>
      <trkpt lat="46.14015" lon="6.77686">
        <ele>1406.8000488281</ele>
        <time>2026-07-04T09:16:24.000Z</time>
      </trkpt>
      <trkpt lat="46.14014" lon="6.77688">
        <ele>1407.4000244141</ele>
        <time>2026-07-04T09:16:27.000Z</time>
      </trkpt>
      <trkpt lat="46.14012" lon="6.77692">
        <ele>1408.5999755859</ele>
        <time>2026-07-04T09:16:32.000Z</time>
      </trkpt>
      <trkpt lat="46.14011" lon="6.77692">
        <ele>1408.8000488281</ele>
        <time>2026-07-04T09:16:33.000Z</time>
      </trkpt>
      <trkpt lat="46.1401" lon="6.77695">
        <ele>1409.5999755859</ele>
        <time>2026-07-04T09:16:37.000Z</time>
      </trkpt>
      <trkpt lat="46.14008" lon="6.77697">
        <ele>1410.4000244141</ele>
        <time>2026-07-04T09:16:41.000Z</time>
      </trkpt>
      <trkpt lat="46.14007" lon="6.77698">
        <ele>1410.5999755859</ele>
        <time>2026-07-04T09:16:42.000Z</time>
      </trkpt>
      <trkpt lat="46.14005" lon="6.77701">
        <ele>1411.5999755859</ele>
        <time>2026-07-04T09:16:47.000Z</time>
      </trkpt>
      <trkpt lat="46.14004" lon="6.77702">
        <ele>1411.8000488281</ele>
        <time>2026-07-04T09:16:48.000Z</time>
      </trkpt>
      <trkpt lat="46.14001" lon="6.77705">
        <ele>1412.8000488281</ele>
        <time>2026-07-04T09:16:54.000Z</time>
      </trkpt>
      <trkpt lat="46.13998" lon="6.77707">
        <ele>1414</ele>
        <time>2026-07-04T09:17:00.000Z</time>
      </trkpt>
      <trkpt lat="46.13996" lon="6.77709">
        <ele>1414.5999755859</ele>
        <time>2026-07-04T09:17:03.000Z</time>
      </trkpt>
      <trkpt lat="46.13994" lon="6.7771">
        <ele>1415</ele>
        <time>2026-07-04T09:17:05.000Z</time>
      </trkpt>
      <trkpt lat="46.13991" lon="6.77712">
        <ele>1416.1999511719</ele>
        <time>2026-07-04T09:17:11.000Z</time>
      </trkpt>
      <trkpt lat="46.13989" lon="6.77712">
        <ele>1416.5999755859</ele>
        <time>2026-07-04T09:17:13.000Z</time>
      </trkpt>
      <trkpt lat="46.13986" lon="6.77712">
        <ele>1417.1999511719</ele>
        <time>2026-07-04T09:17:17.000Z</time>
      </trkpt>
      <trkpt lat="46.13984" lon="6.77712">
        <ele>1418</ele>
        <time>2026-07-04T09:17:23.000Z</time>
      </trkpt>
      <trkpt lat="46.13982" lon="6.77713">
        <ele>1418.4000244141</ele>
        <time>2026-07-04T09:17:31.000Z</time>
      </trkpt>
      <trkpt lat="46.1398" lon="6.77713">
        <ele>1418.5999755859</ele>
        <time>2026-07-04T09:17:33.000Z</time>
      </trkpt>
      <trkpt lat="46.13977" lon="6.77713">
        <ele>1419.4000244141</ele>
        <time>2026-07-04T09:17:36.000Z</time>
      </trkpt>
      <trkpt lat="46.13974" lon="6.77713">
        <ele>1420.4000244141</ele>
        <time>2026-07-04T09:17:43.000Z</time>
      </trkpt>
      <trkpt lat="46.13972" lon="6.77711">
        <ele>1420.8000488281</ele>
        <time>2026-07-04T09:17:53.000Z</time>
      </trkpt>
      <trkpt lat="46.13968" lon="6.77709">
        <ele>1421.5999755859</ele>
        <time>2026-07-04T09:17:57.000Z</time>
      </trkpt>
      <trkpt lat="46.13966" lon="6.77709">
        <ele>1422</ele>
        <time>2026-07-04T09:18:01.000Z</time>
      </trkpt>
      <trkpt lat="46.13964" lon="6.77709">
        <ele>1422.5999755859</ele>
        <time>2026-07-04T09:18:04.000Z</time>
      </trkpt>
      <trkpt lat="46.13966" lon="6.77708">
        <ele>1423.4000244141</ele>
        <time>2026-07-04T09:18:08.000Z</time>
      </trkpt>
      <trkpt lat="46.13962" lon="6.7771">
        <ele>1423.8000488281</ele>
        <time>2026-07-04T09:18:14.000Z</time>
      </trkpt>
      <trkpt lat="46.1396" lon="6.77711">
        <ele>1424.1999511719</ele>
        <time>2026-07-04T09:18:16.000Z</time>
      </trkpt>
      <trkpt lat="46.13958" lon="6.77714">
        <ele>1424.8000488281</ele>
        <time>2026-07-04T09:18:19.000Z</time>
      </trkpt>
      <trkpt lat="46.13955" lon="6.77718">
        <ele>1426</ele>
        <time>2026-07-04T09:18:24.000Z</time>
      </trkpt>
      <trkpt lat="46.13951" lon="6.77724">
        <ele>1427.4000244141</ele>
        <time>2026-07-04T09:18:29.000Z</time>
      </trkpt>
      <trkpt lat="46.13948" lon="6.77727">
        <ele>1428.4000244141</ele>
        <time>2026-07-04T09:18:33.000Z</time>
      </trkpt>
      <trkpt lat="46.13948" lon="6.77728">
        <ele>1428.5999755859</ele>
        <time>2026-07-04T09:18:34.000Z</time>
      </trkpt>
      <trkpt lat="46.13944" lon="6.77731">
        <ele>1429.5999755859</ele>
        <time>2026-07-04T09:18:41.000Z</time>
      </trkpt>
      <trkpt lat="46.13943" lon="6.77731">
        <ele>1429.8000488281</ele>
        <time>2026-07-04T09:18:42.000Z</time>
      </trkpt>
      <trkpt lat="46.13941" lon="6.77728">
        <ele>1430.4000244141</ele>
        <time>2026-07-04T09:18:49.000Z</time>
      </trkpt>
      <trkpt lat="46.13942" lon="6.77726">
        <ele>1430.1999511719</ele>
        <time>2026-07-04T09:18:59.000Z</time>
      </trkpt>
      <trkpt lat="46.13946" lon="6.77719">
        <ele>1429.1999511719</ele>
        <time>2026-07-04T09:19:07.000Z</time>
      </trkpt>
      <trkpt lat="46.13945" lon="6.77721">
        <ele>1429.1999511719</ele>
        <time>2026-07-04T09:19:11.000Z</time>
      </trkpt>
      <trkpt lat="46.13945" lon="6.77722">
        <ele>1429.4000244141</ele>
        <time>2026-07-04T09:19:16.000Z</time>
      </trkpt>
      <trkpt lat="46.13945" lon="6.77721">
        <ele>1429.4000244141</ele>
        <time>2026-07-04T09:19:19.000Z</time>
      </trkpt>
      <trkpt lat="46.13944" lon="6.77722">
        <ele>1429.4000244141</ele>
        <time>2026-07-04T09:19:23.000Z</time>
      </trkpt>
      <trkpt lat="46.13944" lon="6.77722">
        <ele>1429.4000244141</ele>
        <time>2026-07-04T09:19:26.000Z</time>
      </trkpt>
      <trkpt lat="46.13945" lon="6.77722">
        <ele>1429.5999755859</ele>
        <time>2026-07-04T09:19:33.000Z</time>
      </trkpt>
      <trkpt lat="46.13945" lon="6.77724">
        <ele>1429.8000488281</ele>
        <time>2026-07-04T09:19:35.000Z</time>
      </trkpt>
      <trkpt lat="46.13947" lon="6.77729">
        <ele>1429.5999755859</ele>
        <time>2026-07-04T09:19:45.000Z</time>
      </trkpt>
      <trkpt lat="46.13947" lon="6.77728">
        <ele>1429.5999755859</ele>
        <time>2026-07-04T09:19:48.000Z</time>
      </trkpt>
      <trkpt lat="46.13946" lon="6.77729">
        <ele>1429.8000488281</ele>
        <time>2026-07-04T09:19:50.000Z</time>
      </trkpt>
      <trkpt lat="46.13945" lon="6.77729">
        <ele>1430</ele>
        <time>2026-07-04T09:19:53.000Z</time>
      </trkpt>
      <trkpt lat="46.13943" lon="6.77733">
        <ele>1430.8000488281</ele>
        <time>2026-07-04T09:20:00.000Z</time>
      </trkpt>
      <trkpt lat="46.13943" lon="6.77733">
        <ele>1430.8000488281</ele>
        <time>2026-07-04T09:20:01.000Z</time>
      </trkpt>
      <trkpt lat="46.13941" lon="6.77731">
        <ele>1431.1999511719</ele>
        <time>2026-07-04T09:20:10.000Z</time>
      </trkpt>
      <trkpt lat="46.13941" lon="6.77731">
        <ele>1431.1999511719</ele>
        <time>2026-07-04T09:20:11.000Z</time>
      </trkpt>
      <trkpt lat="46.13941" lon="6.77732">
        <ele>1430.8000488281</ele>
        <time>2026-07-04T09:20:20.000Z</time>
      </trkpt>
      <trkpt lat="46.13939" lon="6.77732">
        <ele>1430.8000488281</ele>
        <time>2026-07-04T09:20:34.000Z</time>
      </trkpt>
      <trkpt lat="46.13939" lon="6.77732">
        <ele>1431</ele>
        <time>2026-07-04T09:20:42.000Z</time>
      </trkpt>
      <trkpt lat="46.13941" lon="6.7773">
        <ele>1431</ele>
        <time>2026-07-04T09:20:52.000Z</time>
      </trkpt>
      <trkpt lat="46.13942" lon="6.77729">
        <ele>1431.4000244141</ele>
        <time>2026-07-04T09:20:57.000Z</time>
      </trkpt>
      <trkpt lat="46.13942" lon="6.77729">
        <ele>1431.4000244141</ele>
        <time>2026-07-04T09:20:59.000Z</time>
      </trkpt>
      <trkpt lat="46.13941" lon="6.7773">
        <ele>1431.4000244141</ele>
        <time>2026-07-04T09:21:01.000Z</time>
      </trkpt>
      <trkpt lat="46.13941" lon="6.7773">
        <ele>1431.1999511719</ele>
        <time>2026-07-04T09:21:03.000Z</time>
      </trkpt>
      <trkpt lat="46.1394" lon="6.7773">
        <ele>1431</ele>
        <time>2026-07-04T09:21:11.000Z</time>
      </trkpt>
      <trkpt lat="46.1394" lon="6.77729">
        <ele>1431.1999511719</ele>
        <time>2026-07-04T09:21:14.000Z</time>
      </trkpt>
      <trkpt lat="46.1394" lon="6.77729">
        <ele>1431.1999511719</ele>
        <time>2026-07-04T09:21:15.000Z</time>
      </trkpt>
      <trkpt lat="46.13939" lon="6.77729">
        <ele>1431.1999511719</ele>
        <time>2026-07-04T09:21:16.000Z</time>
      </trkpt>
      <trkpt lat="46.13939" lon="6.7773">
        <ele>1431.1999511719</ele>
        <time>2026-07-04T09:21:18.000Z</time>
      </trkpt>
      <trkpt lat="46.1394" lon="6.77731">
        <ele>1431</ele>
        <time>2026-07-04T09:21:21.000Z</time>
      </trkpt>
      <trkpt lat="46.13941" lon="6.77732">
        <ele>1430.8000488281</ele>
        <time>2026-07-04T09:21:32.000Z</time>
      </trkpt>
      <trkpt lat="46.13941" lon="6.77732">
        <ele>1430.8000488281</ele>
        <time>2026-07-04T09:21:33.000Z</time>
      </trkpt>
      <trkpt lat="46.1394" lon="6.77731">
        <ele>1431</ele>
        <time>2026-07-04T09:21:41.000Z</time>
      </trkpt>
      <trkpt lat="46.13939" lon="6.77732">
        <ele>1430.8000488281</ele>
        <time>2026-07-04T09:21:52.000Z</time>
      </trkpt>
      <trkpt lat="46.13942" lon="6.77733">
        <ele>1430.8000488281</ele>
        <time>2026-07-04T09:21:59.000Z</time>
      </trkpt>
      <trkpt lat="46.13942" lon="6.77734">
        <ele>1431</ele>
        <time>2026-07-04T09:22:01.000Z</time>
      </trkpt>
      <trkpt lat="46.13941" lon="6.77736">
        <ele>1431.8000488281</ele>
        <time>2026-07-04T09:22:07.000Z</time>
      </trkpt>
      <trkpt lat="46.13941" lon="6.77736">
        <ele>1431.8000488281</ele>
        <time>2026-07-04T09:22:10.000Z</time>
      </trkpt>
      <trkpt lat="46.1394" lon="6.77736">
        <ele>1431.8000488281</ele>
        <time>2026-07-04T09:22:12.000Z</time>
      </trkpt>
      <trkpt lat="46.13941" lon="6.77735">
        <ele>1432</ele>
        <time>2026-07-04T09:22:20.000Z</time>
      </trkpt>
      <trkpt lat="46.13941" lon="6.7774">
        <ele>1432</ele>
        <time>2026-07-04T09:22:31.000Z</time>
      </trkpt>
      <trkpt lat="46.13943" lon="6.77738">
        <ele>1432</ele>
        <time>2026-07-04T09:22:41.000Z</time>
      </trkpt>
      <trkpt lat="46.1394" lon="6.77737">
        <ele>1431.5999755859</ele>
        <time>2026-07-04T09:22:50.000Z</time>
      </trkpt>
      <trkpt lat="46.1394" lon="6.77736">
        <ele>1431.8000488281</ele>
        <time>2026-07-04T09:22:59.000Z</time>
      </trkpt>
      <trkpt lat="46.1394" lon="6.77737">
        <ele>1431.8000488281</ele>
        <time>2026-07-04T09:23:08.000Z</time>
      </trkpt>
      <trkpt lat="46.1394" lon="6.77737">
        <ele>1431.8000488281</ele>
        <time>2026-07-04T09:23:10.000Z</time>
      </trkpt>
      <trkpt lat="46.1394" lon="6.77735">
        <ele>1431.8000488281</ele>
        <time>2026-07-04T09:23:22.000Z</time>
      </trkpt>
      <trkpt lat="46.13939" lon="6.77735">
        <ele>1431.8000488281</ele>
        <time>2026-07-04T09:23:33.000Z</time>
      </trkpt>
      <trkpt lat="46.13938" lon="6.77733">
        <ele>1431.8000488281</ele>
        <time>2026-07-04T09:23:47.000Z</time>
      </trkpt>
      <trkpt lat="46.13939" lon="6.7774">
        <ele>1432</ele>
        <time>2026-07-04T09:23:56.000Z</time>
      </trkpt>
      <trkpt lat="46.1394" lon="6.77744">
        <ele>1432.8000488281</ele>
        <time>2026-07-04T09:24:01.000Z</time>
      </trkpt>
      <trkpt lat="46.1394" lon="6.77748">
        <ele>1433.1999511719</ele>
        <time>2026-07-04T09:24:05.000Z</time>
      </trkpt>
      <trkpt lat="46.1394" lon="6.77752">
        <ele>1433.5999755859</ele>
        <time>2026-07-04T09:24:09.000Z</time>
      </trkpt>
      <trkpt lat="46.1394" lon="6.77754">
        <ele>1433.8000488281</ele>
        <time>2026-07-04T09:24:11.000Z</time>
      </trkpt>
      <trkpt lat="46.1394" lon="6.77756">
        <ele>1434</ele>
        <time>2026-07-04T09:24:13.000Z</time>
      </trkpt>
      <trkpt lat="46.1394" lon="6.77763">
        <ele>1434.4000244141</ele>
        <time>2026-07-04T09:24:19.000Z</time>
      </trkpt>
      <trkpt lat="46.1394" lon="6.77764">
        <ele>1434.4000244141</ele>
        <time>2026-07-04T09:24:20.000Z</time>
      </trkpt>
      <trkpt lat="46.1394" lon="6.77766">
        <ele>1434.5999755859</ele>
        <time>2026-07-04T09:24:22.000Z</time>
      </trkpt>
      <trkpt lat="46.1394" lon="6.7777">
        <ele>1434.8000488281</ele>
        <time>2026-07-04T09:24:25.000Z</time>
      </trkpt>
      <trkpt lat="46.1394" lon="6.77771">
        <ele>1435</ele>
        <time>2026-07-04T09:24:26.000Z</time>
      </trkpt>
      <trkpt lat="46.1394" lon="6.77774">
        <ele>1435</ele>
        <time>2026-07-04T09:24:28.000Z</time>
      </trkpt>
      <trkpt lat="46.13941" lon="6.77786">
        <ele>1435.5999755859</ele>
        <time>2026-07-04T09:24:37.000Z</time>
      </trkpt>
      <trkpt lat="46.13943" lon="6.77795">
        <ele>1436</ele>
        <time>2026-07-04T09:24:45.000Z</time>
      </trkpt>
      <trkpt lat="46.13943" lon="6.77797">
        <ele>1436</ele>
        <time>2026-07-04T09:24:47.000Z</time>
      </trkpt>
      <trkpt lat="46.13943" lon="6.77804">
        <ele>1436.4000244141</ele>
        <time>2026-07-04T09:24:52.000Z</time>
      </trkpt>
      <trkpt lat="46.13942" lon="6.77805">
        <ele>1436.5999755859</ele>
        <time>2026-07-04T09:24:55.000Z</time>
      </trkpt>
      <trkpt lat="46.13943" lon="6.77811">
        <ele>1437</ele>
        <time>2026-07-04T09:25:01.000Z</time>
      </trkpt>
      <trkpt lat="46.13943" lon="6.77813">
        <ele>1437.1999511719</ele>
        <time>2026-07-04T09:25:02.000Z</time>
      </trkpt>
      <trkpt lat="46.13942" lon="6.77821">
        <ele>1437.5999755859</ele>
        <time>2026-07-04T09:25:10.000Z</time>
      </trkpt>
      <trkpt lat="46.13942" lon="6.7782">
        <ele>1438</ele>
        <time>2026-07-04T09:25:14.000Z</time>
      </trkpt>
      <trkpt lat="46.13942" lon="6.77819">
        <ele>1437.8000488281</ele>
        <time>2026-07-04T09:25:17.000Z</time>
      </trkpt>
      <trkpt lat="46.13942" lon="6.77819">
        <ele>1437.8000488281</ele>
        <time>2026-07-04T09:25:18.000Z</time>
      </trkpt>
      <trkpt lat="46.13942" lon="6.77819">
        <ele>1437.5999755859</ele>
        <time>2026-07-04T09:25:19.000Z</time>
      </trkpt>
      <trkpt lat="46.13942" lon="6.77819">
        <ele>1437.5999755859</ele>
        <time>2026-07-04T09:25:20.000Z</time>
      </trkpt>
      <trkpt lat="46.13942" lon="6.77819">
        <ele>1437.8000488281</ele>
        <time>2026-07-04T09:25:23.000Z</time>
      </trkpt>
      <trkpt lat="46.13942" lon="6.77819">
        <ele>1438</ele>
        <time>2026-07-04T09:25:24.000Z</time>
      </trkpt>
      <trkpt lat="46.13942" lon="6.77821">
        <ele>1438</ele>
        <time>2026-07-04T09:25:26.000Z</time>
      </trkpt>
      <trkpt lat="46.13942" lon="6.77819">
        <ele>1437.8000488281</ele>
        <time>2026-07-04T09:25:30.000Z</time>
      </trkpt>
      <trkpt lat="46.13942" lon="6.77819">
        <ele>1437.8000488281</ele>
        <time>2026-07-04T09:25:31.000Z</time>
      </trkpt>
      <trkpt lat="46.13942" lon="6.77821">
        <ele>1437.8000488281</ele>
        <time>2026-07-04T09:25:33.000Z</time>
      </trkpt>
      <trkpt lat="46.13942" lon="6.77822">
        <ele>1437.8000488281</ele>
        <time>2026-07-04T09:25:44.000Z</time>
      </trkpt>
      <trkpt lat="46.13942" lon="6.77822">
        <ele>1437.8000488281</ele>
        <time>2026-07-04T09:25:49.000Z</time>
      </trkpt>
      <trkpt lat="46.13942" lon="6.77822">
        <ele>1437.8000488281</ele>
        <time>2026-07-04T09:25:54.000Z</time>
      </trkpt>
      <trkpt lat="46.13942" lon="6.77822">
        <ele>1437.5999755859</ele>
        <time>2026-07-04T09:26:03.000Z</time>
      </trkpt>
      <trkpt lat="46.13943" lon="6.77823">
        <ele>1438</ele>
        <time>2026-07-04T09:26:12.000Z</time>
      </trkpt>
      <trkpt lat="46.13944" lon="6.77823">
        <ele>1437.5999755859</ele>
        <time>2026-07-04T09:26:23.000Z</time>
      </trkpt>
      <trkpt lat="46.13944" lon="6.77822">
        <ele>1437.5999755859</ele>
        <time>2026-07-04T09:26:30.000Z</time>
      </trkpt>
      <trkpt lat="46.13944" lon="6.77822">
        <ele>1437.4000244141</ele>
        <time>2026-07-04T09:26:34.000Z</time>
      </trkpt>
      <trkpt lat="46.13945" lon="6.77824">
        <ele>1437.1999511719</ele>
        <time>2026-07-04T09:26:53.000Z</time>
      </trkpt>
      <trkpt lat="46.13943" lon="6.77821">
        <ele>1437.5999755859</ele>
        <time>2026-07-04T09:27:06.000Z</time>
      </trkpt>
      <trkpt lat="46.13943" lon="6.77821">
        <ele>1437.1999511719</ele>
        <time>2026-07-04T09:27:15.000Z</time>
      </trkpt>
      <trkpt lat="46.13944" lon="6.77821">
        <ele>1437.4000244141</ele>
        <time>2026-07-04T09:27:26.000Z</time>
      </trkpt>
      <trkpt lat="46.13943" lon="6.77821">
        <ele>1437.1999511719</ele>
        <time>2026-07-04T09:27:36.000Z</time>
      </trkpt>
      <trkpt lat="46.13944" lon="6.77822">
        <ele>1437.1999511719</ele>
        <time>2026-07-04T09:27:48.000Z</time>
      </trkpt>
      <trkpt lat="46.13943" lon="6.77824">
        <ele>1437</ele>
        <time>2026-07-04T09:27:55.000Z</time>
      </trkpt>
      <trkpt lat="46.13942" lon="6.77824">
        <ele>1437</ele>
        <time>2026-07-04T09:27:58.000Z</time>
      </trkpt>
      <trkpt lat="46.13944" lon="6.77827">
        <ele>1437</ele>
        <time>2026-07-04T09:28:08.000Z</time>
      </trkpt>
      <trkpt lat="46.13944" lon="6.77836">
        <ele>1437.5999755859</ele>
        <time>2026-07-04T09:28:17.000Z</time>
      </trkpt>
      <trkpt lat="46.13944" lon="6.7784">
        <ele>1438</ele>
        <time>2026-07-04T09:28:23.000Z</time>
      </trkpt>
      <trkpt lat="46.13944" lon="6.77846">
        <ele>1438.4000244141</ele>
        <time>2026-07-04T09:28:26.000Z</time>
      </trkpt>
      <trkpt lat="46.13944" lon="6.77854">
        <ele>1439</ele>
        <time>2026-07-04T09:28:33.000Z</time>
      </trkpt>
      <trkpt lat="46.13944" lon="6.77858">
        <ele>1439.4000244141</ele>
        <time>2026-07-04T09:28:36.000Z</time>
      </trkpt>
      <trkpt lat="46.13942" lon="6.77868">
        <ele>1439.8000488281</ele>
        <time>2026-07-04T09:28:44.000Z</time>
      </trkpt>
      <trkpt lat="46.13942" lon="6.7787">
        <ele>1439.8000488281</ele>
        <time>2026-07-04T09:28:47.000Z</time>
      </trkpt>
      <trkpt lat="46.13944" lon="6.77874">
        <ele>1440.1999511719</ele>
        <time>2026-07-04T09:28:50.000Z</time>
      </trkpt>
      <trkpt lat="46.13946" lon="6.77878">
        <ele>1440.5999755859</ele>
        <time>2026-07-04T09:28:57.000Z</time>
      </trkpt>
      <trkpt lat="46.13946" lon="6.77878">
        <ele>1440.5999755859</ele>
        <time>2026-07-04T09:29:01.000Z</time>
      </trkpt>
      <trkpt lat="46.13945" lon="6.77877">
        <ele>1440.5999755859</ele>
        <time>2026-07-04T09:29:04.000Z</time>
      </trkpt>
      <trkpt lat="46.13946" lon="6.77878">
        <ele>1440.8000488281</ele>
        <time>2026-07-04T09:29:06.000Z</time>
      </trkpt>
      <trkpt lat="46.13947" lon="6.7788">
        <ele>1441.1999511719</ele>
        <time>2026-07-04T09:29:09.000Z</time>
      </trkpt>
      <trkpt lat="46.1395" lon="6.77885">
        <ele>1441.5999755859</ele>
        <time>2026-07-04T09:29:14.000Z</time>
      </trkpt>
      <trkpt lat="46.13952" lon="6.77889">
        <ele>1442.1999511719</ele>
        <time>2026-07-04T09:29:18.000Z</time>
      </trkpt>
      <trkpt lat="46.13953" lon="6.77893">
        <ele>1443</ele>
        <time>2026-07-04T09:29:23.000Z</time>
      </trkpt>
      <trkpt lat="46.13954" lon="6.77895">
        <ele>1443.1999511719</ele>
        <time>2026-07-04T09:29:24.000Z</time>
      </trkpt>
      <trkpt lat="46.13954" lon="6.77896">
        <ele>1443.4000244141</ele>
        <time>2026-07-04T09:29:25.000Z</time>
      </trkpt>
      <trkpt lat="46.13956" lon="6.77903">
        <ele>1444.1999511719</ele>
        <time>2026-07-04T09:29:30.000Z</time>
      </trkpt>
      <trkpt lat="46.13957" lon="6.77905">
        <ele>1444.5999755859</ele>
        <time>2026-07-04T09:29:32.000Z</time>
      </trkpt>
      <trkpt lat="46.13958" lon="6.77906">
        <ele>1444.8000488281</ele>
        <time>2026-07-04T09:29:34.000Z</time>
      </trkpt>
      <trkpt lat="46.13961" lon="6.77912">
        <ele>1445.5999755859</ele>
        <time>2026-07-04T09:29:40.000Z</time>
      </trkpt>
      <trkpt lat="46.13963" lon="6.77916">
        <ele>1446.1999511719</ele>
        <time>2026-07-04T09:29:44.000Z</time>
      </trkpt>
      <trkpt lat="46.13964" lon="6.77919">
        <ele>1446.5999755859</ele>
        <time>2026-07-04T09:29:47.000Z</time>
      </trkpt>
      <trkpt lat="46.13965" lon="6.77925">
        <ele>1447.1999511719</ele>
        <time>2026-07-04T09:29:51.000Z</time>
      </trkpt>
      <trkpt lat="46.13967" lon="6.77929">
        <ele>1447.8000488281</ele>
        <time>2026-07-04T09:29:55.000Z</time>
      </trkpt>
      <trkpt lat="46.13968" lon="6.77931">
        <ele>1448.1999511719</ele>
        <time>2026-07-04T09:29:57.000Z</time>
      </trkpt>
      <trkpt lat="46.13971" lon="6.77938">
        <ele>1448.8000488281</ele>
        <time>2026-07-04T09:30:02.000Z</time>
      </trkpt>
      <trkpt lat="46.13974" lon="6.77944">
        <ele>1449.5999755859</ele>
        <time>2026-07-04T09:30:07.000Z</time>
      </trkpt>
      <trkpt lat="46.13975" lon="6.77947">
        <ele>1450</ele>
        <time>2026-07-04T09:30:10.000Z</time>
      </trkpt>
      <trkpt lat="46.13977" lon="6.77953">
        <ele>1450.8000488281</ele>
        <time>2026-07-04T09:30:15.000Z</time>
      </trkpt>
      <trkpt lat="46.13979" lon="6.77956">
        <ele>1451</ele>
        <time>2026-07-04T09:30:17.000Z</time>
      </trkpt>
      <trkpt lat="46.13981" lon="6.77962">
        <ele>1451.5999755859</ele>
        <time>2026-07-04T09:30:23.000Z</time>
      </trkpt>
      <trkpt lat="46.13982" lon="6.77965">
        <ele>1452</ele>
        <time>2026-07-04T09:30:26.000Z</time>
      </trkpt>
      <trkpt lat="46.13983" lon="6.7797">
        <ele>1453.1999511719</ele>
        <time>2026-07-04T09:30:31.000Z</time>
      </trkpt>
      <trkpt lat="46.13985" lon="6.77978">
        <ele>1454.4000244141</ele>
        <time>2026-07-04T09:30:38.000Z</time>
      </trkpt>
      <trkpt lat="46.13985" lon="6.77979">
        <ele>1454.5999755859</ele>
        <time>2026-07-04T09:30:39.000Z</time>
      </trkpt>
      <trkpt lat="46.13986" lon="6.77985">
        <ele>1455.4000244141</ele>
        <time>2026-07-04T09:30:44.000Z</time>
      </trkpt>
      <trkpt lat="46.13987" lon="6.77988">
        <ele>1456</ele>
        <time>2026-07-04T09:30:47.000Z</time>
      </trkpt>
      <trkpt lat="46.13988" lon="6.77992">
        <ele>1456.5999755859</ele>
        <time>2026-07-04T09:30:50.000Z</time>
      </trkpt>
      <trkpt lat="46.13989" lon="6.77994">
        <ele>1456.8000488281</ele>
        <time>2026-07-04T09:30:52.000Z</time>
      </trkpt>
      <trkpt lat="46.1399" lon="6.77997">
        <ele>1457.1999511719</ele>
        <time>2026-07-04T09:30:55.000Z</time>
      </trkpt>
      <trkpt lat="46.13991" lon="6.77999">
        <ele>1457.5999755859</ele>
        <time>2026-07-04T09:30:57.000Z</time>
      </trkpt>
      <trkpt lat="46.13992" lon="6.78002">
        <ele>1458.4000244141</ele>
        <time>2026-07-04T09:31:03.000Z</time>
      </trkpt>
      <trkpt lat="46.13994" lon="6.78008">
        <ele>1458.8000488281</ele>
        <time>2026-07-04T09:31:11.000Z</time>
      </trkpt>
      <trkpt lat="46.13995" lon="6.78014">
        <ele>1459.8000488281</ele>
        <time>2026-07-04T09:31:18.000Z</time>
      </trkpt>
      <trkpt lat="46.13996" lon="6.78022">
        <ele>1461</ele>
        <time>2026-07-04T09:31:25.000Z</time>
      </trkpt>
      <trkpt lat="46.13996" lon="6.78023">
        <ele>1461.1999511719</ele>
        <time>2026-07-04T09:31:26.000Z</time>
      </trkpt>
      <trkpt lat="46.13997" lon="6.78026">
        <ele>1461.5999755859</ele>
        <time>2026-07-04T09:31:29.000Z</time>
      </trkpt>
      <trkpt lat="46.13998" lon="6.78029">
        <ele>1462</ele>
        <time>2026-07-04T09:31:32.000Z</time>
      </trkpt>
      <trkpt lat="46.13999" lon="6.78031">
        <ele>1462.5999755859</ele>
        <time>2026-07-04T09:31:35.000Z</time>
      </trkpt>
      <trkpt lat="46.13999" lon="6.78033">
        <ele>1463</ele>
        <time>2026-07-04T09:31:37.000Z</time>
      </trkpt>
      <trkpt lat="46.14" lon="6.78033">
        <ele>1463</ele>
        <time>2026-07-04T09:31:38.000Z</time>
      </trkpt>
      <trkpt lat="46.14001" lon="6.78036">
        <ele>1463.8000488281</ele>
        <time>2026-07-04T09:31:43.000Z</time>
      </trkpt>
      <trkpt lat="46.14002" lon="6.78038">
        <ele>1464.1999511719</ele>
        <time>2026-07-04T09:31:45.000Z</time>
      </trkpt>
      <trkpt lat="46.14004" lon="6.78043">
        <ele>1465</ele>
        <time>2026-07-04T09:31:51.000Z</time>
      </trkpt>
      <trkpt lat="46.14005" lon="6.78045">
        <ele>1465.1999511719</ele>
        <time>2026-07-04T09:31:52.000Z</time>
      </trkpt>
      <trkpt lat="46.14008" lon="6.7805">
        <ele>1466.4000244141</ele>
        <time>2026-07-04T09:31:59.000Z</time>
      </trkpt>
      <trkpt lat="46.14012" lon="6.78058">
        <ele>1467.1999511719</ele>
        <time>2026-07-04T09:32:07.000Z</time>
      </trkpt>
      <trkpt lat="46.14013" lon="6.78058">
        <ele>1467.4000244141</ele>
        <time>2026-07-04T09:32:08.000Z</time>
      </trkpt>
      <trkpt lat="46.14019" lon="6.78062">
        <ele>1468.1999511719</ele>
        <time>2026-07-04T09:32:15.000Z</time>
      </trkpt>
      <trkpt lat="46.1402" lon="6.78062">
        <ele>1468.4000244141</ele>
        <time>2026-07-04T09:32:17.000Z</time>
      </trkpt>
      <trkpt lat="46.14025" lon="6.78065">
        <ele>1469.1999511719</ele>
        <time>2026-07-04T09:32:23.000Z</time>
      </trkpt>
      <trkpt lat="46.14027" lon="6.78066">
        <ele>1469.5999755859</ele>
        <time>2026-07-04T09:32:27.000Z</time>
      </trkpt>
      <trkpt lat="46.14029" lon="6.78065">
        <ele>1469.8000488281</ele>
        <time>2026-07-04T09:32:30.000Z</time>
      </trkpt>
      <trkpt lat="46.14035" lon="6.78069">
        <ele>1470.5999755859</ele>
        <time>2026-07-04T09:32:36.000Z</time>
      </trkpt>
      <trkpt lat="46.14037" lon="6.78071">
        <ele>1471.1999511719</ele>
        <time>2026-07-04T09:32:39.000Z</time>
      </trkpt>
      <trkpt lat="46.14041" lon="6.78076">
        <ele>1471.8000488281</ele>
        <time>2026-07-04T09:32:44.000Z</time>
      </trkpt>
      <trkpt lat="46.14043" lon="6.78076">
        <ele>1472.1999511719</ele>
        <time>2026-07-04T09:32:47.000Z</time>
      </trkpt>
      <trkpt lat="46.14046" lon="6.78075">
        <ele>1473</ele>
        <time>2026-07-04T09:32:51.000Z</time>
      </trkpt>
      <trkpt lat="46.14046" lon="6.78076">
        <ele>1473.5999755859</ele>
        <time>2026-07-04T09:32:54.000Z</time>
      </trkpt>
      <trkpt lat="46.14047" lon="6.78079">
        <ele>1474</ele>
        <time>2026-07-04T09:32:59.000Z</time>
      </trkpt>
      <trkpt lat="46.14051" lon="6.78082">
        <ele>1474.8000488281</ele>
        <time>2026-07-04T09:33:04.000Z</time>
      </trkpt>
      <trkpt lat="46.14052" lon="6.78083">
        <ele>1475.1999511719</ele>
        <time>2026-07-04T09:33:06.000Z</time>
      </trkpt>
      <trkpt lat="46.14056" lon="6.78086">
        <ele>1476.4000244141</ele>
        <time>2026-07-04T09:33:10.000Z</time>
      </trkpt>
      <trkpt lat="46.14058" lon="6.78089">
        <ele>1476.8000488281</ele>
        <time>2026-07-04T09:33:12.000Z</time>
      </trkpt>
      <trkpt lat="46.1406" lon="6.78092">
        <ele>1477.4000244141</ele>
        <time>2026-07-04T09:33:16.000Z</time>
      </trkpt>
      <trkpt lat="46.14063" lon="6.78094">
        <ele>1478.4000244141</ele>
        <time>2026-07-04T09:33:20.000Z</time>
      </trkpt>
      <trkpt lat="46.14063" lon="6.78095">
        <ele>1478.4000244141</ele>
        <time>2026-07-04T09:33:21.000Z</time>
      </trkpt>
      <trkpt lat="46.14064" lon="6.78099">
        <ele>1479.1999511719</ele>
        <time>2026-07-04T09:33:25.000Z</time>
      </trkpt>
      <trkpt lat="46.14065" lon="6.781">
        <ele>1479.5999755859</ele>
        <time>2026-07-04T09:33:27.000Z</time>
      </trkpt>
      <trkpt lat="46.14067" lon="6.78103">
        <ele>1480.5999755859</ele>
        <time>2026-07-04T09:33:33.000Z</time>
      </trkpt>
      <trkpt lat="46.14067" lon="6.78104">
        <ele>1480.8000488281</ele>
        <time>2026-07-04T09:33:34.000Z</time>
      </trkpt>
      <trkpt lat="46.14068" lon="6.78104">
        <ele>1481</ele>
        <time>2026-07-04T09:33:35.000Z</time>
      </trkpt>
      <trkpt lat="46.14069" lon="6.78105">
        <ele>1481.1999511719</ele>
        <time>2026-07-04T09:33:36.000Z</time>
      </trkpt>
      <trkpt lat="46.14071" lon="6.78107">
        <ele>1481.8000488281</ele>
        <time>2026-07-04T09:33:39.000Z</time>
      </trkpt>
      <trkpt lat="46.14073" lon="6.7811">
        <ele>1482.8000488281</ele>
        <time>2026-07-04T09:33:44.000Z</time>
      </trkpt>
      <trkpt lat="46.14074" lon="6.78111">
        <ele>1483</ele>
        <time>2026-07-04T09:33:45.000Z</time>
      </trkpt>
      <trkpt lat="46.14074" lon="6.78112">
        <ele>1483.1999511719</ele>
        <time>2026-07-04T09:33:47.000Z</time>
      </trkpt>
      <trkpt lat="46.14075" lon="6.78114">
        <ele>1483.8000488281</ele>
        <time>2026-07-04T09:33:50.000Z</time>
      </trkpt>
      <trkpt lat="46.14076" lon="6.78116">
        <ele>1484.1999511719</ele>
        <time>2026-07-04T09:33:52.000Z</time>
      </trkpt>
      <trkpt lat="46.14077" lon="6.78119">
        <ele>1484.8000488281</ele>
        <time>2026-07-04T09:33:56.000Z</time>
      </trkpt>
      <trkpt lat="46.14076" lon="6.7812">
        <ele>1485.4000244141</ele>
        <time>2026-07-04T09:34:02.000Z</time>
      </trkpt>
      <trkpt lat="46.14076" lon="6.7812">
        <ele>1485.4000244141</ele>
        <time>2026-07-04T09:34:03.000Z</time>
      </trkpt>
      <trkpt lat="46.14076" lon="6.78121">
        <ele>1485.4000244141</ele>
        <time>2026-07-04T09:34:04.000Z</time>
      </trkpt>
      <trkpt lat="46.14076" lon="6.78121">
        <ele>1485.4000244141</ele>
        <time>2026-07-04T09:34:05.000Z</time>
      </trkpt>
      <trkpt lat="46.14076" lon="6.78122">
        <ele>1485.1999511719</ele>
        <time>2026-07-04T09:34:07.000Z</time>
      </trkpt>
      <trkpt lat="46.14077" lon="6.78122">
        <ele>1485.1999511719</ele>
        <time>2026-07-04T09:34:11.000Z</time>
      </trkpt>
      <trkpt lat="46.14078" lon="6.78121">
        <ele>1485.4000244141</ele>
        <time>2026-07-04T09:34:13.000Z</time>
      </trkpt>
      <trkpt lat="46.1408" lon="6.78122">
        <ele>1486</ele>
        <time>2026-07-04T09:34:18.000Z</time>
      </trkpt>
      <trkpt lat="46.14083" lon="6.78125">
        <ele>1486.8000488281</ele>
        <time>2026-07-04T09:34:23.000Z</time>
      </trkpt>
      <trkpt lat="46.14084" lon="6.78126">
        <ele>1487</ele>
        <time>2026-07-04T09:34:25.000Z</time>
      </trkpt>
      <trkpt lat="46.14086" lon="6.78131">
        <ele>1488.1999511719</ele>
        <time>2026-07-04T09:34:30.000Z</time>
      </trkpt>
      <trkpt lat="46.14088" lon="6.78133">
        <ele>1488.5999755859</ele>
        <time>2026-07-04T09:34:34.000Z</time>
      </trkpt>
      <trkpt lat="46.14087" lon="6.78135">
        <ele>1488.8000488281</ele>
        <time>2026-07-04T09:34:37.000Z</time>
      </trkpt>
      <trkpt lat="46.1409" lon="6.78134">
        <ele>1488.5999755859</ele>
        <time>2026-07-04T09:34:46.000Z</time>
      </trkpt>
      <trkpt lat="46.14089" lon="6.78134">
        <ele>1489</ele>
        <time>2026-07-04T09:34:52.000Z</time>
      </trkpt>
      <trkpt lat="46.14089" lon="6.78134">
        <ele>1489</ele>
        <time>2026-07-04T09:34:53.000Z</time>
      </trkpt>
      <trkpt lat="46.1409" lon="6.78136">
        <ele>1489</ele>
        <time>2026-07-04T09:35:01.000Z</time>
      </trkpt>
      <trkpt lat="46.1409" lon="6.78137">
        <ele>1489</ele>
        <time>2026-07-04T09:35:04.000Z</time>
      </trkpt>
      <trkpt lat="46.14089" lon="6.78137">
        <ele>1489</ele>
        <time>2026-07-04T09:35:05.000Z</time>
      </trkpt>
      <trkpt lat="46.14089" lon="6.78138">
        <ele>1489.1999511719</ele>
        <time>2026-07-04T09:35:07.000Z</time>
      </trkpt>
      <trkpt lat="46.14089" lon="6.78139">
        <ele>1489.4000244141</ele>
        <time>2026-07-04T09:35:18.000Z</time>
      </trkpt>
      <trkpt lat="46.14087" lon="6.78138">
        <ele>1489.4000244141</ele>
        <time>2026-07-04T09:35:24.000Z</time>
      </trkpt>
      <trkpt lat="46.14088" lon="6.78138">
        <ele>1489.4000244141</ele>
        <time>2026-07-04T09:35:28.000Z</time>
      </trkpt>
      <trkpt lat="46.14089" lon="6.78138">
        <ele>1489.4000244141</ele>
        <time>2026-07-04T09:35:29.000Z</time>
      </trkpt>
      <trkpt lat="46.1409" lon="6.78138">
        <ele>1489.1999511719</ele>
        <time>2026-07-04T09:35:34.000Z</time>
      </trkpt>
      <trkpt lat="46.14092" lon="6.78139">
        <ele>1489.1999511719</ele>
        <time>2026-07-04T09:35:41.000Z</time>
      </trkpt>
      <trkpt lat="46.14088" lon="6.78138">
        <ele>1489.1999511719</ele>
        <time>2026-07-04T09:35:51.000Z</time>
      </trkpt>
      <trkpt lat="46.14089" lon="6.78139">
        <ele>1489.1999511719</ele>
        <time>2026-07-04T09:36:02.000Z</time>
      </trkpt>
      <trkpt lat="46.14089" lon="6.78139">
        <ele>1488.5999755859</ele>
        <time>2026-07-04T09:36:12.000Z</time>
      </trkpt>
      <trkpt lat="46.1409" lon="6.78137">
        <ele>1488.8000488281</ele>
        <time>2026-07-04T09:36:20.000Z</time>
      </trkpt>
      <trkpt lat="46.1409" lon="6.78136">
        <ele>1489</ele>
        <time>2026-07-04T09:36:23.000Z</time>
      </trkpt>
      <trkpt lat="46.14087" lon="6.78136">
        <ele>1489.1999511719</ele>
        <time>2026-07-04T09:36:34.000Z</time>
      </trkpt>
      <trkpt lat="46.14088" lon="6.78137">
        <ele>1488.8000488281</ele>
        <time>2026-07-04T09:36:46.000Z</time>
      </trkpt>
      <trkpt lat="46.14087" lon="6.78135">
        <ele>1488.5999755859</ele>
        <time>2026-07-04T09:36:56.000Z</time>
      </trkpt>
      <trkpt lat="46.14088" lon="6.78136">
        <ele>1488.4000244141</ele>
        <time>2026-07-04T09:37:07.000Z</time>
      </trkpt>
      <trkpt lat="46.1409" lon="6.78138">
        <ele>1488.4000244141</ele>
        <time>2026-07-04T09:37:17.000Z</time>
      </trkpt>
      <trkpt lat="46.14091" lon="6.78138">
        <ele>1488.4000244141</ele>
        <time>2026-07-04T09:37:20.000Z</time>
      </trkpt>
      <trkpt lat="46.14091" lon="6.78138">
        <ele>1488.4000244141</ele>
        <time>2026-07-04T09:37:25.000Z</time>
      </trkpt>
      <trkpt lat="46.1409" lon="6.78135">
        <ele>1488.4000244141</ele>
        <time>2026-07-04T09:37:32.000Z</time>
      </trkpt>
      <trkpt lat="46.14086" lon="6.78134">
        <ele>1488.5999755859</ele>
        <time>2026-07-04T09:37:45.000Z</time>
      </trkpt>
      <trkpt lat="46.14084" lon="6.78138">
        <ele>1488.5999755859</ele>
        <time>2026-07-04T09:37:51.000Z</time>
      </trkpt>
      <trkpt lat="46.14085" lon="6.78138">
        <ele>1488.5999755859</ele>
        <time>2026-07-04T09:37:55.000Z</time>
      </trkpt>
      <trkpt lat="46.14085" lon="6.7814">
        <ele>1488.5999755859</ele>
        <time>2026-07-04T09:38:06.000Z</time>
      </trkpt>
      <trkpt lat="46.14089" lon="6.78139">
        <ele>1488.4000244141</ele>
        <time>2026-07-04T09:38:16.000Z</time>
      </trkpt>
      <trkpt lat="46.14086" lon="6.78137">
        <ele>1488.4000244141</ele>
        <time>2026-07-04T09:38:28.000Z</time>
      </trkpt>
      <trkpt lat="46.14087" lon="6.78136">
        <ele>1488.4000244141</ele>
        <time>2026-07-04T09:38:33.000Z</time>
      </trkpt>
      <trkpt lat="46.14088" lon="6.78137">
        <ele>1488.4000244141</ele>
        <time>2026-07-04T09:38:38.000Z</time>
      </trkpt>
      <trkpt lat="46.14088" lon="6.78138">
        <ele>1488.4000244141</ele>
        <time>2026-07-04T09:38:48.000Z</time>
      </trkpt>
      <trkpt lat="46.14089" lon="6.78133">
        <ele>1488.4000244141</ele>
        <time>2026-07-04T09:39:01.000Z</time>
      </trkpt>
      <trkpt lat="46.14085" lon="6.78131">
        <ele>1488.4000244141</ele>
        <time>2026-07-04T09:39:10.000Z</time>
      </trkpt>
      <trkpt lat="46.14086" lon="6.78134">
        <ele>1488.4000244141</ele>
        <time>2026-07-04T09:39:21.000Z</time>
      </trkpt>
      <trkpt lat="46.14087" lon="6.78139">
        <ele>1488.1999511719</ele>
        <time>2026-07-04T09:39:31.000Z</time>
      </trkpt>
      <trkpt lat="46.14087" lon="6.78139">
        <ele>1488.1999511719</ele>
        <time>2026-07-04T09:39:32.000Z</time>
      </trkpt>
      <trkpt lat="46.14085" lon="6.78141">
        <ele>1488.1999511719</ele>
        <time>2026-07-04T09:39:42.000Z</time>
      </trkpt>
      <trkpt lat="46.14087" lon="6.78144">
        <ele>1488.1999511719</ele>
        <time>2026-07-04T09:39:52.000Z</time>
      </trkpt>
      <trkpt lat="46.14091" lon="6.78145">
        <ele>1488.1999511719</ele>
        <time>2026-07-04T09:40:02.000Z</time>
      </trkpt>
      <trkpt lat="46.14086" lon="6.78147">
        <ele>1488.1999511719</ele>
        <time>2026-07-04T09:40:16.000Z</time>
      </trkpt>
      <trkpt lat="46.14088" lon="6.78146">
        <ele>1488.4000244141</ele>
        <time>2026-07-04T09:40:25.000Z</time>
      </trkpt>
      <trkpt lat="46.14088" lon="6.78138">
        <ele>1488.4000244141</ele>
        <time>2026-07-04T09:40:37.000Z</time>
      </trkpt>
      <trkpt lat="46.1409" lon="6.78133">
        <ele>1488.4000244141</ele>
        <time>2026-07-04T09:40:49.000Z</time>
      </trkpt>
      <trkpt lat="46.1409" lon="6.78136">
        <ele>1488.4000244141</ele>
        <time>2026-07-04T09:41:01.000Z</time>
      </trkpt>
      <trkpt lat="46.14091" lon="6.78135">
        <ele>1488.4000244141</ele>
        <time>2026-07-04T09:41:14.000Z</time>
      </trkpt>
      <trkpt lat="46.14091" lon="6.78134">
        <ele>1488.4000244141</ele>
        <time>2026-07-04T09:41:25.000Z</time>
      </trkpt>
      <trkpt lat="46.14088" lon="6.78138">
        <ele>1488.4000244141</ele>
        <time>2026-07-04T09:41:34.000Z</time>
      </trkpt>
      <trkpt lat="46.14087" lon="6.78139">
        <ele>1488.5999755859</ele>
        <time>2026-07-04T09:41:48.000Z</time>
      </trkpt>
      <trkpt lat="46.14089" lon="6.78139">
        <ele>1488.4000244141</ele>
        <time>2026-07-04T09:42:00.000Z</time>
      </trkpt>
      <trkpt lat="46.14092" lon="6.78141">
        <ele>1488.5999755859</ele>
        <time>2026-07-04T09:42:09.000Z</time>
      </trkpt>
      <trkpt lat="46.14089" lon="6.78139">
        <ele>1488.8000488281</ele>
        <time>2026-07-04T09:42:20.000Z</time>
      </trkpt>
      <trkpt lat="46.14092" lon="6.7814">
        <ele>1488.5999755859</ele>
        <time>2026-07-04T09:42:31.000Z</time>
      </trkpt>
      <trkpt lat="46.1409" lon="6.78141">
        <ele>1488.8000488281</ele>
        <time>2026-07-04T09:42:40.000Z</time>
      </trkpt>
      <trkpt lat="46.14092" lon="6.78135">
        <ele>1488.8000488281</ele>
        <time>2026-07-04T09:42:53.000Z</time>
      </trkpt>
      <trkpt lat="46.14094" lon="6.78136">
        <ele>1488.8000488281</ele>
        <time>2026-07-04T09:42:55.000Z</time>
      </trkpt>
      <trkpt lat="46.14094" lon="6.78136">
        <ele>1488.8000488281</ele>
        <time>2026-07-04T09:43:00.000Z</time>
      </trkpt>
      <trkpt lat="46.14093" lon="6.78139">
        <ele>1488.8000488281</ele>
        <time>2026-07-04T09:43:09.000Z</time>
      </trkpt>
      <trkpt lat="46.1409" lon="6.78139">
        <ele>1489</ele>
        <time>2026-07-04T09:43:20.000Z</time>
      </trkpt>
      <trkpt lat="46.14088" lon="6.78139">
        <ele>1488.5999755859</ele>
        <time>2026-07-04T09:43:33.000Z</time>
      </trkpt>
      <trkpt lat="46.14087" lon="6.78138">
        <ele>1488.5999755859</ele>
        <time>2026-07-04T09:43:44.000Z</time>
      </trkpt>
      <trkpt lat="46.14086" lon="6.78136">
        <ele>1488.5999755859</ele>
        <time>2026-07-04T09:43:56.000Z</time>
      </trkpt>
      <trkpt lat="46.14089" lon="6.78135">
        <ele>1488.5999755859</ele>
        <time>2026-07-04T09:44:08.000Z</time>
      </trkpt>
      <trkpt lat="46.14089" lon="6.78136">
        <ele>1488.8000488281</ele>
        <time>2026-07-04T09:44:17.000Z</time>
      </trkpt>
      <trkpt lat="46.14089" lon="6.78137">
        <ele>1488.8000488281</ele>
        <time>2026-07-04T09:44:29.000Z</time>
      </trkpt>
      <trkpt lat="46.14089" lon="6.78138">
        <ele>1488.8000488281</ele>
        <time>2026-07-04T09:44:31.000Z</time>
      </trkpt>
      <trkpt lat="46.1409" lon="6.78147">
        <ele>1488.5999755859</ele>
        <time>2026-07-04T09:44:38.000Z</time>
      </trkpt>
      <trkpt lat="46.14092" lon="6.78162">
        <ele>1488.4000244141</ele>
        <time>2026-07-04T09:44:47.000Z</time>
      </trkpt>
      <trkpt lat="46.14094" lon="6.78177">
        <ele>1489.1999511719</ele>
        <time>2026-07-04T09:44:56.000Z</time>
      </trkpt>
      <trkpt lat="46.14095" lon="6.78181">
        <ele>1489.5999755859</ele>
        <time>2026-07-04T09:45:00.000Z</time>
      </trkpt>
      <trkpt lat="46.14097" lon="6.78182">
        <ele>1489.8000488281</ele>
        <time>2026-07-04T09:45:02.000Z</time>
      </trkpt>
      <trkpt lat="46.14099" lon="6.78183">
        <ele>1490.1999511719</ele>
        <time>2026-07-04T09:45:06.000Z</time>
      </trkpt>
      <trkpt lat="46.14104" lon="6.78186">
        <ele>1490.5999755859</ele>
        <time>2026-07-04T09:45:10.000Z</time>
      </trkpt>
      <trkpt lat="46.14107" lon="6.78188">
        <ele>1490.4000244141</ele>
        <time>2026-07-04T09:45:15.000Z</time>
      </trkpt>
      <trkpt lat="46.1411" lon="6.7819">
        <ele>1490.1999511719</ele>
        <time>2026-07-04T09:45:19.000Z</time>
      </trkpt>
      <trkpt lat="46.14111" lon="6.7819">
        <ele>1490.4000244141</ele>
        <time>2026-07-04T09:45:22.000Z</time>
      </trkpt>
      <trkpt lat="46.14116" lon="6.78192">
        <ele>1490.8000488281</ele>
        <time>2026-07-04T09:45:29.000Z</time>
      </trkpt>
      <trkpt lat="46.14118" lon="6.78194">
        <ele>1491</ele>
        <time>2026-07-04T09:45:31.000Z</time>
      </trkpt>
      <trkpt lat="46.14123" lon="6.78196">
        <ele>1491.4000244141</ele>
        <time>2026-07-04T09:45:37.000Z</time>
      </trkpt>
      <trkpt lat="46.14126" lon="6.78197">
        <ele>1492</ele>
        <time>2026-07-04T09:45:41.000Z</time>
      </trkpt>
      <trkpt lat="46.14129" lon="6.78197">
        <ele>1492.4000244141</ele>
        <time>2026-07-04T09:45:45.000Z</time>
      </trkpt>
      <trkpt lat="46.14133" lon="6.78197">
        <ele>1492.8000488281</ele>
        <time>2026-07-04T09:45:48.000Z</time>
      </trkpt>
      <trkpt lat="46.14139" lon="6.78197">
        <ele>1493.4000244141</ele>
        <time>2026-07-04T09:45:54.000Z</time>
      </trkpt>
      <trkpt lat="46.14141" lon="6.78196">
        <ele>1493.8000488281</ele>
        <time>2026-07-04T09:45:56.000Z</time>
      </trkpt>
      <trkpt lat="46.14147" lon="6.78197">
        <ele>1494.5999755859</ele>
        <time>2026-07-04T09:46:02.000Z</time>
      </trkpt>
      <trkpt lat="46.14153" lon="6.78196">
        <ele>1495</ele>
        <time>2026-07-04T09:46:07.000Z</time>
      </trkpt>
      <trkpt lat="46.14156" lon="6.78195">
        <ele>1495.5999755859</ele>
        <time>2026-07-04T09:46:11.000Z</time>
      </trkpt>
      <trkpt lat="46.14161" lon="6.78194">
        <ele>1496.4000244141</ele>
        <time>2026-07-04T09:46:16.000Z</time>
      </trkpt>
      <trkpt lat="46.14162" lon="6.78194">
        <ele>1496.5999755859</ele>
        <time>2026-07-04T09:46:17.000Z</time>
      </trkpt>
      <trkpt lat="46.14167" lon="6.78193">
        <ele>1497.1999511719</ele>
        <time>2026-07-04T09:46:21.000Z</time>
      </trkpt>
      <trkpt lat="46.14171" lon="6.78193">
        <ele>1497.5999755859</ele>
        <time>2026-07-04T09:46:25.000Z</time>
      </trkpt>
      <trkpt lat="46.14173" lon="6.78195">
        <ele>1497.8000488281</ele>
        <time>2026-07-04T09:46:27.000Z</time>
      </trkpt>
      <trkpt lat="46.14177" lon="6.782">
        <ele>1498.4000244141</ele>
        <time>2026-07-04T09:46:34.000Z</time>
      </trkpt>
      <trkpt lat="46.14179" lon="6.78201">
        <ele>1498.5999755859</ele>
        <time>2026-07-04T09:46:39.000Z</time>
      </trkpt>
      <trkpt lat="46.1418" lon="6.78202">
        <ele>1498.5999755859</ele>
        <time>2026-07-04T09:46:40.000Z</time>
      </trkpt>
      <trkpt lat="46.14182" lon="6.78204">
        <ele>1499</ele>
        <time>2026-07-04T09:46:42.000Z</time>
      </trkpt>
      <trkpt lat="46.14187" lon="6.78213">
        <ele>1498.8000488281</ele>
        <time>2026-07-04T09:46:49.000Z</time>
      </trkpt>
      <trkpt lat="46.14193" lon="6.7822">
        <ele>1499.4000244141</ele>
        <time>2026-07-04T09:46:55.000Z</time>
      </trkpt>
      <trkpt lat="46.14196" lon="6.78223">
        <ele>1499.8000488281</ele>
        <time>2026-07-04T09:46:58.000Z</time>
      </trkpt>
      <trkpt lat="46.14199" lon="6.78228">
        <ele>1500.1999511719</ele>
        <time>2026-07-04T09:47:03.000Z</time>
      </trkpt>
      <trkpt lat="46.142" lon="6.78228">
        <ele>1500.4000244141</ele>
        <time>2026-07-04T09:47:05.000Z</time>
      </trkpt>
      <trkpt lat="46.14201" lon="6.78227">
        <ele>1500.5999755859</ele>
        <time>2026-07-04T09:47:09.000Z</time>
      </trkpt>
      <trkpt lat="46.14202" lon="6.78226">
        <ele>1500.8000488281</ele>
        <time>2026-07-04T09:47:13.000Z</time>
      </trkpt>
      <trkpt lat="46.14203" lon="6.78226">
        <ele>1500.8000488281</ele>
        <time>2026-07-04T09:47:14.000Z</time>
      </trkpt>
      <trkpt lat="46.14205" lon="6.78224">
        <ele>1501.1999511719</ele>
        <time>2026-07-04T09:47:19.000Z</time>
      </trkpt>
      <trkpt lat="46.1421" lon="6.78217">
        <ele>1501.8000488281</ele>
        <time>2026-07-04T09:47:27.000Z</time>
      </trkpt>
      <trkpt lat="46.1421" lon="6.78214">
        <ele>1501.5999755859</ele>
        <time>2026-07-04T09:47:33.000Z</time>
      </trkpt>
      <trkpt lat="46.14213" lon="6.78204">
        <ele>1501.5999755859</ele>
        <time>2026-07-04T09:47:42.000Z</time>
      </trkpt>
      <trkpt lat="46.14214" lon="6.78202">
        <ele>1502</ele>
        <time>2026-07-04T09:47:44.000Z</time>
      </trkpt>
      <trkpt lat="46.14215" lon="6.78199">
        <ele>1502.4000244141</ele>
        <time>2026-07-04T09:47:49.000Z</time>
      </trkpt>
      <trkpt lat="46.14215" lon="6.78198">
        <ele>1502.1999511719</ele>
        <time>2026-07-04T09:47:50.000Z</time>
      </trkpt>
      <trkpt lat="46.1422" lon="6.78197">
        <ele>1503</ele>
        <time>2026-07-04T09:47:56.000Z</time>
      </trkpt>
      <trkpt lat="46.1422" lon="6.78198">
        <ele>1503</ele>
        <time>2026-07-04T09:47:57.000Z</time>
      </trkpt>
      <trkpt lat="46.1422" lon="6.78199">
        <ele>1503</ele>
        <time>2026-07-04T09:48:04.000Z</time>
      </trkpt>
      <trkpt lat="46.1422" lon="6.78198">
        <ele>1502.8000488281</ele>
        <time>2026-07-04T09:48:06.000Z</time>
      </trkpt>
      <trkpt lat="46.14222" lon="6.78196">
        <ele>1503</ele>
        <time>2026-07-04T09:48:10.000Z</time>
      </trkpt>
      <trkpt lat="46.14222" lon="6.78197">
        <ele>1503.1999511719</ele>
        <time>2026-07-04T09:48:13.000Z</time>
      </trkpt>
      <trkpt lat="46.14221" lon="6.78202">
        <ele>1503.8000488281</ele>
        <time>2026-07-04T09:48:22.000Z</time>
      </trkpt>
      <trkpt lat="46.14221" lon="6.78202">
        <ele>1503.5999755859</ele>
        <time>2026-07-04T09:48:23.000Z</time>
      </trkpt>
      <trkpt lat="46.14218" lon="6.78206">
        <ele>1503.4000244141</ele>
        <time>2026-07-04T09:48:30.000Z</time>
      </trkpt>
      <trkpt lat="46.14218" lon="6.78203">
        <ele>1503.4000244141</ele>
        <time>2026-07-04T09:48:31.000Z</time>
      </trkpt>
      <trkpt lat="46.14222" lon="6.78194">
        <ele>1503</ele>
        <time>2026-07-04T09:48:35.000Z</time>
      </trkpt>
      <trkpt lat="46.14225" lon="6.78191">
        <ele>1503</ele>
        <time>2026-07-04T09:48:42.000Z</time>
      </trkpt>
      <trkpt lat="46.14224" lon="6.78191">
        <ele>1503</ele>
        <time>2026-07-04T09:48:47.000Z</time>
      </trkpt>
      <trkpt lat="46.14224" lon="6.78192">
        <ele>1502.8000488281</ele>
        <time>2026-07-04T09:48:49.000Z</time>
      </trkpt>
      <trkpt lat="46.14224" lon="6.78191">
        <ele>1502.8000488281</ele>
        <time>2026-07-04T09:48:52.000Z</time>
      </trkpt>
      <trkpt lat="46.14224" lon="6.78192">
        <ele>1502.8000488281</ele>
        <time>2026-07-04T09:48:54.000Z</time>
      </trkpt>
      <trkpt lat="46.14225" lon="6.7819">
        <ele>1503</ele>
        <time>2026-07-04T09:49:03.000Z</time>
      </trkpt>
      <trkpt lat="46.14227" lon="6.78186">
        <ele>1503.1999511719</ele>
        <time>2026-07-04T09:49:11.000Z</time>
      </trkpt>
      <trkpt lat="46.14229" lon="6.78174">
        <ele>1504</ele>
        <time>2026-07-04T09:49:19.000Z</time>
      </trkpt>
      <trkpt lat="46.14229" lon="6.78173">
        <ele>1504.1999511719</ele>
        <time>2026-07-04T09:49:20.000Z</time>
      </trkpt>
      <trkpt lat="46.1423" lon="6.78163">
        <ele>1505.1999511719</ele>
        <time>2026-07-04T09:49:28.000Z</time>
      </trkpt>
      <trkpt lat="46.14231" lon="6.78152">
        <ele>1506</ele>
        <time>2026-07-04T09:49:36.000Z</time>
      </trkpt>
      <trkpt lat="46.14232" lon="6.78149">
        <ele>1506.1999511719</ele>
        <time>2026-07-04T09:49:38.000Z</time>
      </trkpt>
      <trkpt lat="46.14235" lon="6.78139">
        <ele>1506.8000488281</ele>
        <time>2026-07-04T09:49:44.000Z</time>
      </trkpt>
      <trkpt lat="46.14237" lon="6.78132">
        <ele>1507.1999511719</ele>
        <time>2026-07-04T09:49:48.000Z</time>
      </trkpt>
      <trkpt lat="46.14239" lon="6.78125">
        <ele>1508</ele>
        <time>2026-07-04T09:49:53.000Z</time>
      </trkpt>
      <trkpt lat="46.14241" lon="6.78121">
        <ele>1508.4000244141</ele>
        <time>2026-07-04T09:49:56.000Z</time>
      </trkpt>
      <trkpt lat="46.14246" lon="6.78112">
        <ele>1509.4000244141</ele>
        <time>2026-07-04T09:50:04.000Z</time>
      </trkpt>
      <trkpt lat="46.1425" lon="6.78104">
        <ele>1510.4000244141</ele>
        <time>2026-07-04T09:50:11.000Z</time>
      </trkpt>
      <trkpt lat="46.14253" lon="6.78099">
        <ele>1510.8000488281</ele>
        <time>2026-07-04T09:50:14.000Z</time>
      </trkpt>
      <trkpt lat="46.14256" lon="6.78094">
        <ele>1511.4000244141</ele>
        <time>2026-07-04T09:50:18.000Z</time>
      </trkpt>
      <trkpt lat="46.14259" lon="6.78088">
        <ele>1512</ele>
        <time>2026-07-04T09:50:22.000Z</time>
      </trkpt>
      <trkpt lat="46.14261" lon="6.78083">
        <ele>1512.4000244141</ele>
        <time>2026-07-04T09:50:26.000Z</time>
      </trkpt>
      <trkpt lat="46.14263" lon="6.78076">
        <ele>1512.8000488281</ele>
        <time>2026-07-04T09:50:31.000Z</time>
      </trkpt>
      <trkpt lat="46.14264" lon="6.7807">
        <ele>1513.5999755859</ele>
        <time>2026-07-04T09:50:35.000Z</time>
      </trkpt>
      <trkpt lat="46.14267" lon="6.7806">
        <ele>1514.5999755859</ele>
        <time>2026-07-04T09:50:41.000Z</time>
      </trkpt>
      <trkpt lat="46.14267" lon="6.78057">
        <ele>1514.8000488281</ele>
        <time>2026-07-04T09:50:43.000Z</time>
      </trkpt>
      <trkpt lat="46.14271" lon="6.78048">
        <ele>1515.5999755859</ele>
        <time>2026-07-04T09:50:49.000Z</time>
      </trkpt>
      <trkpt lat="46.14272" lon="6.78046">
        <ele>1516.1999511719</ele>
        <time>2026-07-04T09:50:51.000Z</time>
      </trkpt>
      <trkpt lat="46.14274" lon="6.78041">
        <ele>1516.8000488281</ele>
        <time>2026-07-04T09:50:55.000Z</time>
      </trkpt>
      <trkpt lat="46.14276" lon="6.78036">
        <ele>1517.1999511719</ele>
        <time>2026-07-04T09:50:59.000Z</time>
      </trkpt>
      <trkpt lat="46.14279" lon="6.78032">
        <ele>1517.8000488281</ele>
        <time>2026-07-04T09:51:03.000Z</time>
      </trkpt>
      <trkpt lat="46.14285" lon="6.78029">
        <ele>1518.4000244141</ele>
        <time>2026-07-04T09:51:08.000Z</time>
      </trkpt>
      <trkpt lat="46.14289" lon="6.78026">
        <ele>1519</ele>
        <time>2026-07-04T09:51:12.000Z</time>
      </trkpt>
      <trkpt lat="46.14291" lon="6.78021">
        <ele>1519.8000488281</ele>
        <time>2026-07-04T09:51:16.000Z</time>
      </trkpt>
      <trkpt lat="46.14292" lon="6.78019">
        <ele>1520</ele>
        <time>2026-07-04T09:51:18.000Z</time>
      </trkpt>
      <trkpt lat="46.14295" lon="6.78011">
        <ele>1520.8000488281</ele>
        <time>2026-07-04T09:51:24.000Z</time>
      </trkpt>
      <trkpt lat="46.14297" lon="6.78007">
        <ele>1521.1999511719</ele>
        <time>2026-07-04T09:51:27.000Z</time>
      </trkpt>
      <trkpt lat="46.143" lon="6.77999">
        <ele>1521.8000488281</ele>
        <time>2026-07-04T09:51:33.000Z</time>
      </trkpt>
      <trkpt lat="46.14301" lon="6.77998">
        <ele>1522.1999511719</ele>
        <time>2026-07-04T09:51:35.000Z</time>
      </trkpt>
      <trkpt lat="46.14306" lon="6.7799">
        <ele>1523.1999511719</ele>
        <time>2026-07-04T09:51:42.000Z</time>
      </trkpt>
      <trkpt lat="46.14307" lon="6.77988">
        <ele>1523.4000244141</ele>
        <time>2026-07-04T09:51:44.000Z</time>
      </trkpt>
      <trkpt lat="46.14313" lon="6.77983">
        <ele>1524.4000244141</ele>
        <time>2026-07-04T09:51:50.000Z</time>
      </trkpt>
      <trkpt lat="46.14316" lon="6.77981">
        <ele>1524.8000488281</ele>
        <time>2026-07-04T09:51:54.000Z</time>
      </trkpt>
      <trkpt lat="46.14319" lon="6.77979">
        <ele>1525.4000244141</ele>
        <time>2026-07-04T09:51:57.000Z</time>
      </trkpt>
      <trkpt lat="46.14326" lon="6.77976">
        <ele>1526</ele>
        <time>2026-07-04T09:52:05.000Z</time>
      </trkpt>
      <trkpt lat="46.1433" lon="6.77973">
        <ele>1526.4000244141</ele>
        <time>2026-07-04T09:52:09.000Z</time>
      </trkpt>
      <trkpt lat="46.14332" lon="6.7797">
        <ele>1527</ele>
        <time>2026-07-04T09:52:13.000Z</time>
      </trkpt>
      <trkpt lat="46.14332" lon="6.77966">
        <ele>1527.8000488281</ele>
        <time>2026-07-04T09:52:17.000Z</time>
      </trkpt>
      <trkpt lat="46.14333" lon="6.77962">
        <ele>1528.8000488281</ele>
        <time>2026-07-04T09:52:21.000Z</time>
      </trkpt>
      <trkpt lat="46.14333" lon="6.77962">
        <ele>1529</ele>
        <time>2026-07-04T09:52:22.000Z</time>
      </trkpt>
      <trkpt lat="46.14335" lon="6.77958">
        <ele>1529.8000488281</ele>
        <time>2026-07-04T09:52:27.000Z</time>
      </trkpt>
      <trkpt lat="46.14337" lon="6.77953">
        <ele>1530.8000488281</ele>
        <time>2026-07-04T09:52:31.000Z</time>
      </trkpt>
      <trkpt lat="46.14337" lon="6.77951">
        <ele>1531</ele>
        <time>2026-07-04T09:52:32.000Z</time>
      </trkpt>
      <trkpt lat="46.14338" lon="6.7795">
        <ele>1531.1999511719</ele>
        <time>2026-07-04T09:52:33.000Z</time>
      </trkpt>
      <trkpt lat="46.14342" lon="6.77941">
        <ele>1532</ele>
        <time>2026-07-04T09:52:39.000Z</time>
      </trkpt>
      <trkpt lat="46.14344" lon="6.77938">
        <ele>1532.1999511719</ele>
        <time>2026-07-04T09:52:41.000Z</time>
      </trkpt>
      <trkpt lat="46.14353" lon="6.77933">
        <ele>1532.4000244141</ele>
        <time>2026-07-04T09:52:50.000Z</time>
      </trkpt>
      <trkpt lat="46.14357" lon="6.77931">
        <ele>1533.1999511719</ele>
        <time>2026-07-04T09:52:56.000Z</time>
      </trkpt>
      <trkpt lat="46.14359" lon="6.7793">
        <ele>1533.8000488281</ele>
        <time>2026-07-04T09:52:59.000Z</time>
      </trkpt>
      <trkpt lat="46.14361" lon="6.77929">
        <ele>1534.1999511719</ele>
        <time>2026-07-04T09:53:02.000Z</time>
      </trkpt>
      <trkpt lat="46.14365" lon="6.77923">
        <ele>1535</ele>
        <time>2026-07-04T09:53:08.000Z</time>
      </trkpt>
      <trkpt lat="46.14366" lon="6.77922">
        <ele>1535.1999511719</ele>
        <time>2026-07-04T09:53:09.000Z</time>
      </trkpt>
      <trkpt lat="46.14372" lon="6.77916">
        <ele>1536.1999511719</ele>
        <time>2026-07-04T09:53:16.000Z</time>
      </trkpt>
      <trkpt lat="46.14373" lon="6.77914">
        <ele>1536.1999511719</ele>
        <time>2026-07-04T09:53:18.000Z</time>
      </trkpt>
      <trkpt lat="46.14379" lon="6.77906">
        <ele>1537.4000244141</ele>
        <time>2026-07-04T09:53:26.000Z</time>
      </trkpt>
      <trkpt lat="46.1438" lon="6.77905">
        <ele>1537.8000488281</ele>
        <time>2026-07-04T09:53:28.000Z</time>
      </trkpt>
      <trkpt lat="46.14387" lon="6.779">
        <ele>1538.5999755859</ele>
        <time>2026-07-04T09:53:34.000Z</time>
      </trkpt>
      <trkpt lat="46.14391" lon="6.77896">
        <ele>1538.8000488281</ele>
        <time>2026-07-04T09:53:38.000Z</time>
      </trkpt>
      <trkpt lat="46.14397" lon="6.77884">
        <ele>1539.5999755859</ele>
        <time>2026-07-04T09:53:48.000Z</time>
      </trkpt>
      <trkpt lat="46.14399" lon="6.77879">
        <ele>1540.4000244141</ele>
        <time>2026-07-04T09:53:53.000Z</time>
      </trkpt>
      <trkpt lat="46.144" lon="6.77876">
        <ele>1540.8000488281</ele>
        <time>2026-07-04T09:53:55.000Z</time>
      </trkpt>
      <trkpt lat="46.14402" lon="6.77874">
        <ele>1541.1999511719</ele>
        <time>2026-07-04T09:53:58.000Z</time>
      </trkpt>
      <trkpt lat="46.14405" lon="6.77872">
        <ele>1541.8000488281</ele>
        <time>2026-07-04T09:54:02.000Z</time>
      </trkpt>
      <trkpt lat="46.14408" lon="6.77871">
        <ele>1542.1999511719</ele>
        <time>2026-07-04T09:54:05.000Z</time>
      </trkpt>
      <trkpt lat="46.1441" lon="6.7787">
        <ele>1542.5999755859</ele>
        <time>2026-07-04T09:54:08.000Z</time>
      </trkpt>
      <trkpt lat="46.14412" lon="6.77869">
        <ele>1542.8000488281</ele>
        <time>2026-07-04T09:54:09.000Z</time>
      </trkpt>
      <trkpt lat="46.14417" lon="6.77865">
        <ele>1543.1999511719</ele>
        <time>2026-07-04T09:54:14.000Z</time>
      </trkpt>
      <trkpt lat="46.1442" lon="6.77862">
        <ele>1543.4000244141</ele>
        <time>2026-07-04T09:54:17.000Z</time>
      </trkpt>
      <trkpt lat="46.14422" lon="6.7786">
        <ele>1543.8000488281</ele>
        <time>2026-07-04T09:54:20.000Z</time>
      </trkpt>
      <trkpt lat="46.14427" lon="6.77855">
        <ele>1544.8000488281</ele>
        <time>2026-07-04T09:54:26.000Z</time>
      </trkpt>
      <trkpt lat="46.14428" lon="6.77855">
        <ele>1545</ele>
        <time>2026-07-04T09:54:27.000Z</time>
      </trkpt>
      <trkpt lat="46.14434" lon="6.77849">
        <ele>1546</ele>
        <time>2026-07-04T09:54:34.000Z</time>
      </trkpt>
      <trkpt lat="46.14435" lon="6.77849">
        <ele>1546</ele>
        <time>2026-07-04T09:54:35.000Z</time>
      </trkpt>
      <trkpt lat="46.1444" lon="6.77844">
        <ele>1546.8000488281</ele>
        <time>2026-07-04T09:54:40.000Z</time>
      </trkpt>
      <trkpt lat="46.1444" lon="6.77843">
        <ele>1547</ele>
        <time>2026-07-04T09:54:41.000Z</time>
      </trkpt>
      <trkpt lat="46.14442" lon="6.77839">
        <ele>1547.4000244141</ele>
        <time>2026-07-04T09:54:44.000Z</time>
      </trkpt>
      <trkpt lat="46.14445" lon="6.77833">
        <ele>1548.1999511719</ele>
        <time>2026-07-04T09:54:49.000Z</time>
      </trkpt>
      <trkpt lat="46.14448" lon="6.77829">
        <ele>1548.5999755859</ele>
        <time>2026-07-04T09:54:53.000Z</time>
      </trkpt>
      <trkpt lat="46.1445" lon="6.77825">
        <ele>1549.1999511719</ele>
        <time>2026-07-04T09:54:56.000Z</time>
      </trkpt>
      <trkpt lat="46.14453" lon="6.77819">
        <ele>1549.5999755859</ele>
        <time>2026-07-04T09:55:01.000Z</time>
      </trkpt>
      <trkpt lat="46.14459" lon="6.77813">
        <ele>1550.4000244141</ele>
        <time>2026-07-04T09:55:08.000Z</time>
      </trkpt>
      <trkpt lat="46.14465" lon="6.7781">
        <ele>1551.1999511719</ele>
        <time>2026-07-04T09:55:13.000Z</time>
      </trkpt>
      <trkpt lat="46.14465" lon="6.7781">
        <ele>1551.4000244141</ele>
        <time>2026-07-04T09:55:14.000Z</time>
      </trkpt>
      <trkpt lat="46.14472" lon="6.77801">
        <ele>1552.1999511719</ele>
        <time>2026-07-04T09:55:22.000Z</time>
      </trkpt>
      <trkpt lat="46.14476" lon="6.77797">
        <ele>1552.4000244141</ele>
        <time>2026-07-04T09:55:26.000Z</time>
      </trkpt>
      <trkpt lat="46.14479" lon="6.77795">
        <ele>1552.4000244141</ele>
        <time>2026-07-04T09:55:29.000Z</time>
      </trkpt>
      <trkpt lat="46.1448" lon="6.77795">
        <ele>1552.8000488281</ele>
        <time>2026-07-04T09:55:31.000Z</time>
      </trkpt>
      <trkpt lat="46.14486" lon="6.77798">
        <ele>1553.5999755859</ele>
        <time>2026-07-04T09:55:36.000Z</time>
      </trkpt>
      <trkpt lat="46.14487" lon="6.77802">
        <ele>1554.1999511719</ele>
        <time>2026-07-04T09:55:39.000Z</time>
      </trkpt>
      <trkpt lat="46.14486" lon="6.77807">
        <ele>1554.5999755859</ele>
        <time>2026-07-04T09:55:42.000Z</time>
      </trkpt>
      <trkpt lat="46.14482" lon="6.77811">
        <ele>1555.4000244141</ele>
        <time>2026-07-04T09:55:46.000Z</time>
      </trkpt>
      <trkpt lat="46.14478" lon="6.77812">
        <ele>1555.8000488281</ele>
        <time>2026-07-04T09:55:49.000Z</time>
      </trkpt>
      <trkpt lat="46.14475" lon="6.77814">
        <ele>1556.4000244141</ele>
        <time>2026-07-04T09:55:53.000Z</time>
      </trkpt>
      <trkpt lat="46.14472" lon="6.77818">
        <ele>1557</ele>
        <time>2026-07-04T09:55:57.000Z</time>
      </trkpt>
      <trkpt lat="46.1447" lon="6.77821">
        <ele>1557.4000244141</ele>
        <time>2026-07-04T09:56:02.000Z</time>
      </trkpt>
      <trkpt lat="46.14469" lon="6.7782">
        <ele>1557.5999755859</ele>
        <time>2026-07-04T09:56:11.000Z</time>
      </trkpt>
      <trkpt lat="46.14469" lon="6.7782">
        <ele>1558</ele>
        <time>2026-07-04T09:56:15.000Z</time>
      </trkpt>
      <trkpt lat="46.14471" lon="6.7782">
        <ele>1557.8000488281</ele>
        <time>2026-07-04T09:56:23.000Z</time>
      </trkpt>
      <trkpt lat="46.14472" lon="6.77821">
        <ele>1558</ele>
        <time>2026-07-04T09:56:26.000Z</time>
      </trkpt>
      <trkpt lat="46.14473" lon="6.77823">
        <ele>1558</ele>
        <time>2026-07-04T09:56:28.000Z</time>
      </trkpt>
      <trkpt lat="46.14473" lon="6.77825">
        <ele>1557.8000488281</ele>
        <time>2026-07-04T09:56:35.000Z</time>
      </trkpt>
      <trkpt lat="46.14473" lon="6.77824">
        <ele>1557.4000244141</ele>
        <time>2026-07-04T09:56:39.000Z</time>
      </trkpt>
      <trkpt lat="46.14473" lon="6.77821">
        <ele>1557.4000244141</ele>
        <time>2026-07-04T09:56:45.000Z</time>
      </trkpt>
      <trkpt lat="46.14473" lon="6.77821">
        <ele>1557.4000244141</ele>
        <time>2026-07-04T09:56:46.000Z</time>
      </trkpt>
      <trkpt lat="46.14473" lon="6.77821">
        <ele>1557.5999755859</ele>
        <time>2026-07-04T09:56:48.000Z</time>
      </trkpt>
      <trkpt lat="46.14473" lon="6.77821">
        <ele>1557.5999755859</ele>
        <time>2026-07-04T09:56:49.000Z</time>
      </trkpt>
      <trkpt lat="46.14473" lon="6.77817">
        <ele>1557.5999755859</ele>
        <time>2026-07-04T09:56:59.000Z</time>
      </trkpt>
      <trkpt lat="46.14473" lon="6.77817">
        <ele>1557.5999755859</ele>
        <time>2026-07-04T09:57:00.000Z</time>
      </trkpt>
      <trkpt lat="46.14474" lon="6.77817">
        <ele>1558</ele>
        <time>2026-07-04T09:57:10.000Z</time>
      </trkpt>
      <trkpt lat="46.14476" lon="6.77822">
        <ele>1557.8000488281</ele>
        <time>2026-07-04T09:57:17.000Z</time>
      </trkpt>
      <trkpt lat="46.14476" lon="6.77823">
        <ele>1557.8000488281</ele>
        <time>2026-07-04T09:57:19.000Z</time>
      </trkpt>
      <trkpt lat="46.14477" lon="6.77823">
        <ele>1557.5999755859</ele>
        <time>2026-07-04T09:57:23.000Z</time>
      </trkpt>
      <trkpt lat="46.14475" lon="6.77822">
        <ele>1557.5999755859</ele>
        <time>2026-07-04T09:57:27.000Z</time>
      </trkpt>
      <trkpt lat="46.14473" lon="6.77821">
        <ele>1557.5999755859</ele>
        <time>2026-07-04T09:57:30.000Z</time>
      </trkpt>
      <trkpt lat="46.14471" lon="6.7782">
        <ele>1557.8000488281</ele>
        <time>2026-07-04T09:57:40.000Z</time>
      </trkpt>
      <trkpt lat="46.14471" lon="6.7782">
        <ele>1557.8000488281</ele>
        <time>2026-07-04T09:57:49.000Z</time>
      </trkpt>
      <trkpt lat="46.14472" lon="6.77821">
        <ele>1557.5999755859</ele>
        <time>2026-07-04T09:58:00.000Z</time>
      </trkpt>
      <trkpt lat="46.14472" lon="6.77821">
        <ele>1557.4000244141</ele>
        <time>2026-07-04T09:58:04.000Z</time>
      </trkpt>
      <trkpt lat="46.14472" lon="6.7782">
        <ele>1557.4000244141</ele>
        <time>2026-07-04T09:58:09.000Z</time>
      </trkpt>
      <trkpt lat="46.14472" lon="6.77819">
        <ele>1557.4000244141</ele>
        <time>2026-07-04T09:58:11.000Z</time>
      </trkpt>
      <trkpt lat="46.14469" lon="6.77817">
        <ele>1557.5999755859</ele>
        <time>2026-07-04T09:58:20.000Z</time>
      </trkpt>
      <trkpt lat="46.14469" lon="6.77817">
        <ele>1557.5999755859</ele>
        <time>2026-07-04T09:58:22.000Z</time>
      </trkpt>
      <trkpt lat="46.1447" lon="6.77816">
        <ele>1557.5999755859</ele>
        <time>2026-07-04T09:58:25.000Z</time>
      </trkpt>
      <trkpt lat="46.1447" lon="6.77812">
        <ele>1557.8000488281</ele>
        <time>2026-07-04T09:58:33.000Z</time>
      </trkpt>
      <trkpt lat="46.1447" lon="6.77812">
        <ele>1557.8000488281</ele>
        <time>2026-07-04T09:58:34.000Z</time>
      </trkpt>
      <trkpt lat="46.1447" lon="6.7781">
        <ele>1557.8000488281</ele>
        <time>2026-07-04T09:58:46.000Z</time>
      </trkpt>
      <trkpt lat="46.1447" lon="6.7781">
        <ele>1557.8000488281</ele>
        <time>2026-07-04T09:58:58.000Z</time>
      </trkpt>
      <trkpt lat="46.1447" lon="6.77811">
        <ele>1558</ele>
        <time>2026-07-04T09:59:11.000Z</time>
      </trkpt>
      <trkpt lat="46.14469" lon="6.77814">
        <ele>1557.8000488281</ele>
        <time>2026-07-04T09:59:17.000Z</time>
      </trkpt>
      <trkpt lat="46.1447" lon="6.77815">
        <ele>1558</ele>
        <time>2026-07-04T09:59:22.000Z</time>
      </trkpt>
      <trkpt lat="46.1447" lon="6.77816">
        <ele>1558</ele>
        <time>2026-07-04T09:59:27.000Z</time>
      </trkpt>
      <trkpt lat="46.14469" lon="6.77812">
        <ele>1558</ele>
        <time>2026-07-04T09:59:33.000Z</time>
      </trkpt>
      <trkpt lat="46.14468" lon="6.7781">
        <ele>1558.1999511719</ele>
        <time>2026-07-04T09:59:42.000Z</time>
      </trkpt>
      <trkpt lat="46.14466" lon="6.77808">
        <ele>1558.1999511719</ele>
        <time>2026-07-04T09:59:52.000Z</time>
      </trkpt>
      <trkpt lat="46.14467" lon="6.77811">
        <ele>1558.1999511719</ele>
        <time>2026-07-04T09:59:59.000Z</time>
      </trkpt>
      <trkpt lat="46.14468" lon="6.7781">
        <ele>1558</ele>
        <time>2026-07-04T10:00:02.000Z</time>
      </trkpt>
      <trkpt lat="46.14468" lon="6.77809">
        <ele>1558.1999511719</ele>
        <time>2026-07-04T10:00:06.000Z</time>
      </trkpt>
      <trkpt lat="46.14466" lon="6.77807">
        <ele>1558</ele>
        <time>2026-07-04T10:00:16.000Z</time>
      </trkpt>
      <trkpt lat="46.1447" lon="6.7781">
        <ele>1558</ele>
        <time>2026-07-04T10:00:24.000Z</time>
      </trkpt>
      <trkpt lat="46.14471" lon="6.77811">
        <ele>1558</ele>
        <time>2026-07-04T10:00:25.000Z</time>
      </trkpt>
      <trkpt lat="46.14469" lon="6.77811">
        <ele>1557.8000488281</ele>
        <time>2026-07-04T10:00:33.000Z</time>
      </trkpt>
      <trkpt lat="46.14467" lon="6.77811">
        <ele>1557.8000488281</ele>
        <time>2026-07-04T10:00:43.000Z</time>
      </trkpt>
      <trkpt lat="46.14471" lon="6.77809">
        <ele>1557.8000488281</ele>
        <time>2026-07-04T10:00:52.000Z</time>
      </trkpt>
      <trkpt lat="46.14475" lon="6.77813">
        <ele>1557.8000488281</ele>
        <time>2026-07-04T10:01:02.000Z</time>
      </trkpt>
      <trkpt lat="46.14475" lon="6.77812">
        <ele>1557.8000488281</ele>
        <time>2026-07-04T10:01:06.000Z</time>
      </trkpt>
      <trkpt lat="46.14474" lon="6.77812">
        <ele>1557.8000488281</ele>
        <time>2026-07-04T10:01:12.000Z</time>
      </trkpt>
      <trkpt lat="46.14475" lon="6.77816">
        <ele>1557.8000488281</ele>
        <time>2026-07-04T10:01:24.000Z</time>
      </trkpt>
      <trkpt lat="46.14473" lon="6.77818">
        <ele>1557.5999755859</ele>
        <time>2026-07-04T10:01:36.000Z</time>
      </trkpt>
      <trkpt lat="46.14472" lon="6.77818">
        <ele>1557.4000244141</ele>
        <time>2026-07-04T10:01:40.000Z</time>
      </trkpt>
      <trkpt lat="46.14472" lon="6.77816">
        <ele>1557.5999755859</ele>
        <time>2026-07-04T10:01:46.000Z</time>
      </trkpt>
      <trkpt lat="46.14474" lon="6.77814">
        <ele>1557.8000488281</ele>
        <time>2026-07-04T10:01:54.000Z</time>
      </trkpt>
      <trkpt lat="46.14474" lon="6.77814">
        <ele>1557.8000488281</ele>
        <time>2026-07-04T10:01:56.000Z</time>
      </trkpt>
      <trkpt lat="46.14474" lon="6.77817">
        <ele>1557.8000488281</ele>
        <time>2026-07-04T10:02:05.000Z</time>
      </trkpt>
      <trkpt lat="46.14473" lon="6.77817">
        <ele>1557.8000488281</ele>
        <time>2026-07-04T10:02:11.000Z</time>
      </trkpt>
      <trkpt lat="46.14471" lon="6.77817">
        <ele>1557.8000488281</ele>
        <time>2026-07-04T10:02:16.000Z</time>
      </trkpt>
      <trkpt lat="46.14469" lon="6.77818">
        <ele>1557.8000488281</ele>
        <time>2026-07-04T10:02:26.000Z</time>
      </trkpt>
      <trkpt lat="46.14471" lon="6.7782">
        <ele>1557.8000488281</ele>
        <time>2026-07-04T10:02:37.000Z</time>
      </trkpt>
      <trkpt lat="46.14477" lon="6.77823">
        <ele>1557.8000488281</ele>
        <time>2026-07-04T10:02:48.000Z</time>
      </trkpt>
      <trkpt lat="46.14473" lon="6.77818">
        <ele>1557.5999755859</ele>
        <time>2026-07-04T10:03:02.000Z</time>
      </trkpt>
      <trkpt lat="46.14471" lon="6.77816">
        <ele>1557.8000488281</ele>
        <time>2026-07-04T10:03:14.000Z</time>
      </trkpt>
      <trkpt lat="46.1447" lon="6.77818">
        <ele>1557.5999755859</ele>
        <time>2026-07-04T10:03:28.000Z</time>
      </trkpt>
      <trkpt lat="46.14467" lon="6.7782">
        <ele>1557.4000244141</ele>
        <time>2026-07-04T10:03:37.000Z</time>
      </trkpt>
      <trkpt lat="46.14472" lon="6.77822">
        <ele>1557.4000244141</ele>
        <time>2026-07-04T10:03:47.000Z</time>
      </trkpt>
      <trkpt lat="46.14473" lon="6.7782">
        <ele>1557.5999755859</ele>
        <time>2026-07-04T10:03:54.000Z</time>
      </trkpt>
      <trkpt lat="46.14474" lon="6.77822">
        <ele>1557.5999755859</ele>
        <time>2026-07-04T10:03:56.000Z</time>
      </trkpt>
      <trkpt lat="46.14475" lon="6.77823">
        <ele>1557.5999755859</ele>
        <time>2026-07-04T10:03:58.000Z</time>
      </trkpt>
      <trkpt lat="46.1448" lon="6.77828">
        <ele>1557.5999755859</ele>
        <time>2026-07-04T10:04:06.000Z</time>
      </trkpt>
      <trkpt lat="46.14481" lon="6.77825">
        <ele>1558</ele>
        <time>2026-07-04T10:04:15.000Z</time>
      </trkpt>
      <trkpt lat="46.14477" lon="6.77823">
        <ele>1558</ele>
        <time>2026-07-04T10:04:20.000Z</time>
      </trkpt>
      <trkpt lat="46.14476" lon="6.77823">
        <ele>1558</ele>
        <time>2026-07-04T10:04:24.000Z</time>
      </trkpt>
      <trkpt lat="46.14475" lon="6.77823">
        <ele>1558.1999511719</ele>
        <time>2026-07-04T10:04:28.000Z</time>
      </trkpt>
      <trkpt lat="46.14471" lon="6.77823">
        <ele>1558</ele>
        <time>2026-07-04T10:04:32.000Z</time>
      </trkpt>
      <trkpt lat="46.14467" lon="6.77822">
        <ele>1557.8000488281</ele>
        <time>2026-07-04T10:04:38.000Z</time>
      </trkpt>
      <trkpt lat="46.14467" lon="6.77821">
        <ele>1557.5999755859</ele>
        <time>2026-07-04T10:04:42.000Z</time>
      </trkpt>
      <trkpt lat="46.14468" lon="6.7782">
        <ele>1557.8000488281</ele>
        <time>2026-07-04T10:04:45.000Z</time>
      </trkpt>
      <trkpt lat="46.14469" lon="6.7782">
        <ele>1557.8000488281</ele>
        <time>2026-07-04T10:04:47.000Z</time>
      </trkpt>
      <trkpt lat="46.14467" lon="6.77823">
        <ele>1557.8000488281</ele>
        <time>2026-07-04T10:04:55.000Z</time>
      </trkpt>
      <trkpt lat="46.14467" lon="6.77823">
        <ele>1557.8000488281</ele>
        <time>2026-07-04T10:04:56.000Z</time>
      </trkpt>
      <trkpt lat="46.14467" lon="6.77824">
        <ele>1557.8000488281</ele>
        <time>2026-07-04T10:04:57.000Z</time>
      </trkpt>
      <trkpt lat="46.1447" lon="6.77828">
        <ele>1557.8000488281</ele>
        <time>2026-07-04T10:05:05.000Z</time>
      </trkpt>
      <trkpt lat="46.1447" lon="6.77831">
        <ele>1557.8000488281</ele>
        <time>2026-07-04T10:05:15.000Z</time>
      </trkpt>
      <trkpt lat="46.14471" lon="6.77831">
        <ele>1557.8000488281</ele>
        <time>2026-07-04T10:05:23.000Z</time>
      </trkpt>
      <trkpt lat="46.1447" lon="6.77827">
        <ele>1558</ele>
        <time>2026-07-04T10:05:32.000Z</time>
      </trkpt>
      <trkpt lat="46.14472" lon="6.77828">
        <ele>1558</ele>
        <time>2026-07-04T10:05:45.000Z</time>
      </trkpt>
      <trkpt lat="46.14474" lon="6.7783">
        <ele>1558.1999511719</ele>
        <time>2026-07-04T10:06:04.000Z</time>
      </trkpt>
      <trkpt lat="46.14471" lon="6.77828">
        <ele>1558</ele>
        <time>2026-07-04T10:06:13.000Z</time>
      </trkpt>
      <trkpt lat="46.14471" lon="6.77828">
        <ele>1558</ele>
        <time>2026-07-04T10:06:14.000Z</time>
      </trkpt>
      <trkpt lat="46.14469" lon="6.7783">
        <ele>1558</ele>
        <time>2026-07-04T10:06:27.000Z</time>
      </trkpt>
      <trkpt lat="46.14468" lon="6.77823">
        <ele>1558</ele>
        <time>2026-07-04T10:06:41.000Z</time>
      </trkpt>
      <trkpt lat="46.14468" lon="6.77826">
        <ele>1558.1999511719</ele>
        <time>2026-07-04T10:06:53.000Z</time>
      </trkpt>
      <trkpt lat="46.1447" lon="6.77828">
        <ele>1558.1999511719</ele>
        <time>2026-07-04T10:07:04.000Z</time>
      </trkpt>
      <trkpt lat="46.14468" lon="6.77824">
        <ele>1558.1999511719</ele>
        <time>2026-07-04T10:07:16.000Z</time>
      </trkpt>
      <trkpt lat="46.14467" lon="6.77824">
        <ele>1558.1999511719</ele>
        <time>2026-07-04T10:07:25.000Z</time>
      </trkpt>
      <trkpt lat="46.14466" lon="6.7783">
        <ele>1558.4000244141</ele>
        <time>2026-07-04T10:07:32.000Z</time>
      </trkpt>
      <trkpt lat="46.14465" lon="6.77836">
        <ele>1559</ele>
        <time>2026-07-04T10:07:36.000Z</time>
      </trkpt>
      <trkpt lat="46.14464" lon="6.77842">
        <ele>1559.5999755859</ele>
        <time>2026-07-04T10:07:40.000Z</time>
      </trkpt>
      <trkpt lat="46.14464" lon="6.77848">
        <ele>1560</ele>
        <time>2026-07-04T10:07:44.000Z</time>
      </trkpt>
      <trkpt lat="46.14462" lon="6.77852">
        <ele>1560.5999755859</ele>
        <time>2026-07-04T10:07:48.000Z</time>
      </trkpt>
      <trkpt lat="46.14462" lon="6.77854">
        <ele>1560.8000488281</ele>
        <time>2026-07-04T10:07:49.000Z</time>
      </trkpt>
      <trkpt lat="46.14461" lon="6.77856">
        <ele>1560.8000488281</ele>
        <time>2026-07-04T10:07:51.000Z</time>
      </trkpt>
      <trkpt lat="46.14461" lon="6.77859">
        <ele>1561</ele>
        <time>2026-07-04T10:07:53.000Z</time>
      </trkpt>
      <trkpt lat="46.14461" lon="6.77861">
        <ele>1561.1999511719</ele>
        <time>2026-07-04T10:07:54.000Z</time>
      </trkpt>
      <trkpt lat="46.1446" lon="6.77869">
        <ele>1562</ele>
        <time>2026-07-04T10:08:00.000Z</time>
      </trkpt>
      <trkpt lat="46.14458" lon="6.77875">
        <ele>1562.1999511719</ele>
        <time>2026-07-04T10:08:04.000Z</time>
      </trkpt>
      <trkpt lat="46.14457" lon="6.77879">
        <ele>1562.4000244141</ele>
        <time>2026-07-04T10:08:08.000Z</time>
      </trkpt>
      <trkpt lat="46.14454" lon="6.77883">
        <ele>1563.4000244141</ele>
        <time>2026-07-04T10:08:12.000Z</time>
      </trkpt>
      <trkpt lat="46.1445" lon="6.77889">
        <ele>1564.4000244141</ele>
        <time>2026-07-04T10:08:17.000Z</time>
      </trkpt>
      <trkpt lat="46.14446" lon="6.77898">
        <ele>1565.4000244141</ele>
        <time>2026-07-04T10:08:24.000Z</time>
      </trkpt>
      <trkpt lat="46.14441" lon="6.77905">
        <ele>1566.4000244141</ele>
        <time>2026-07-04T10:08:31.000Z</time>
      </trkpt>
      <trkpt lat="46.1444" lon="6.77906">
        <ele>1566.4000244141</ele>
        <time>2026-07-04T10:08:32.000Z</time>
      </trkpt>
      <trkpt lat="46.14437" lon="6.77915">
        <ele>1567.1999511719</ele>
        <time>2026-07-04T10:08:39.000Z</time>
      </trkpt>
      <trkpt lat="46.14437" lon="6.77922">
        <ele>1567.5999755859</ele>
        <time>2026-07-04T10:08:44.000Z</time>
      </trkpt>
      <trkpt lat="46.14437" lon="6.77925">
        <ele>1568</ele>
        <time>2026-07-04T10:08:46.000Z</time>
      </trkpt>
      <trkpt lat="46.14437" lon="6.77928">
        <ele>1568.1999511719</ele>
        <time>2026-07-04T10:08:48.000Z</time>
      </trkpt>
      <trkpt lat="46.14436" lon="6.77933">
        <ele>1568.5999755859</ele>
        <time>2026-07-04T10:08:52.000Z</time>
      </trkpt>
      <trkpt lat="46.14436" lon="6.77941">
        <ele>1568.8000488281</ele>
        <time>2026-07-04T10:08:57.000Z</time>
      </trkpt>
      <trkpt lat="46.14436" lon="6.7795">
        <ele>1569.8000488281</ele>
        <time>2026-07-04T10:09:04.000Z</time>
      </trkpt>
      <trkpt lat="46.14436" lon="6.77951">
        <ele>1570</ele>
        <time>2026-07-04T10:09:05.000Z</time>
      </trkpt>
      <trkpt lat="46.14435" lon="6.77961">
        <ele>1570.8000488281</ele>
        <time>2026-07-04T10:09:12.000Z</time>
      </trkpt>
      <trkpt lat="46.14435" lon="6.77964">
        <ele>1571</ele>
        <time>2026-07-04T10:09:14.000Z</time>
      </trkpt>
      <trkpt lat="46.14432" lon="6.77974">
        <ele>1571.8000488281</ele>
        <time>2026-07-04T10:09:21.000Z</time>
      </trkpt>
      <trkpt lat="46.14432" lon="6.77975">
        <ele>1571.8000488281</ele>
        <time>2026-07-04T10:09:22.000Z</time>
      </trkpt>
      <trkpt lat="46.14428" lon="6.77984">
        <ele>1572.8000488281</ele>
        <time>2026-07-04T10:09:29.000Z</time>
      </trkpt>
      <trkpt lat="46.14428" lon="6.77987">
        <ele>1573.1999511719</ele>
        <time>2026-07-04T10:09:31.000Z</time>
      </trkpt>
      <trkpt lat="46.14429" lon="6.7799">
        <ele>1574</ele>
        <time>2026-07-04T10:09:36.000Z</time>
      </trkpt>
      <trkpt lat="46.14431" lon="6.77991">
        <ele>1574.5999755859</ele>
        <time>2026-07-04T10:09:39.000Z</time>
      </trkpt>
      <trkpt lat="46.14432" lon="6.7799">
        <ele>1575</ele>
        <time>2026-07-04T10:09:41.000Z</time>
      </trkpt>
      <trkpt lat="46.14436" lon="6.77985">
        <ele>1576</ele>
        <time>2026-07-04T10:09:47.000Z</time>
      </trkpt>
      <trkpt lat="46.14436" lon="6.77983">
        <ele>1576</ele>
        <time>2026-07-04T10:09:48.000Z</time>
      </trkpt>
      <trkpt lat="46.1444" lon="6.77978">
        <ele>1576.8000488281</ele>
        <time>2026-07-04T10:09:53.000Z</time>
      </trkpt>
      <trkpt lat="46.14442" lon="6.77973">
        <ele>1577.1999511719</ele>
        <time>2026-07-04T10:09:57.000Z</time>
      </trkpt>
      <trkpt lat="46.14444" lon="6.7797">
        <ele>1577.8000488281</ele>
        <time>2026-07-04T10:10:00.000Z</time>
      </trkpt>
      <trkpt lat="46.14446" lon="6.77964">
        <ele>1578.1999511719</ele>
        <time>2026-07-04T10:10:05.000Z</time>
      </trkpt>
      <trkpt lat="46.14448" lon="6.77958">
        <ele>1578.5999755859</ele>
        <time>2026-07-04T10:10:09.000Z</time>
      </trkpt>
      <trkpt lat="46.14451" lon="6.77949">
        <ele>1579</ele>
        <time>2026-07-04T10:10:16.000Z</time>
      </trkpt>
      <trkpt lat="46.14452" lon="6.77945">
        <ele>1579.4000244141</ele>
        <time>2026-07-04T10:10:18.000Z</time>
      </trkpt>
      <trkpt lat="46.14457" lon="6.77942">
        <ele>1580.1999511719</ele>
        <time>2026-07-04T10:10:24.000Z</time>
      </trkpt>
      <trkpt lat="46.14458" lon="6.77942">
        <ele>1580.4000244141</ele>
        <time>2026-07-04T10:10:26.000Z</time>
      </trkpt>
      <trkpt lat="46.14459" lon="6.77945">
        <ele>1580.5999755859</ele>
        <time>2026-07-04T10:10:31.000Z</time>
      </trkpt>
      <trkpt lat="46.14459" lon="6.77945">
        <ele>1580.5999755859</ele>
        <time>2026-07-04T10:10:32.000Z</time>
      </trkpt>
      <trkpt lat="46.14459" lon="6.77945">
        <ele>1580.4000244141</ele>
        <time>2026-07-04T10:10:35.000Z</time>
      </trkpt>
      <trkpt lat="46.14461" lon="6.77942">
        <ele>1580.5999755859</ele>
        <time>2026-07-04T10:10:40.000Z</time>
      </trkpt>
      <trkpt lat="46.14461" lon="6.77941">
        <ele>1580.1999511719</ele>
        <time>2026-07-04T10:10:44.000Z</time>
      </trkpt>
      <trkpt lat="46.14458" lon="6.77943">
        <ele>1579.5999755859</ele>
        <time>2026-07-04T10:10:51.000Z</time>
      </trkpt>
      <trkpt lat="46.14458" lon="6.77943">
        <ele>1579.5999755859</ele>
        <time>2026-07-04T10:10:52.000Z</time>
      </trkpt>
      <trkpt lat="46.14458" lon="6.77943">
        <ele>1579.4000244141</ele>
        <time>2026-07-04T10:10:54.000Z</time>
      </trkpt>
      <trkpt lat="46.14458" lon="6.77942">
        <ele>1579.5999755859</ele>
        <time>2026-07-04T10:10:56.000Z</time>
      </trkpt>
      <trkpt lat="46.14459" lon="6.77943">
        <ele>1579.5999755859</ele>
        <time>2026-07-04T10:10:59.000Z</time>
      </trkpt>
      <trkpt lat="46.14459" lon="6.77943">
        <ele>1579.5999755859</ele>
        <time>2026-07-04T10:11:01.000Z</time>
      </trkpt>
      <trkpt lat="46.14461" lon="6.77943">
        <ele>1579.8000488281</ele>
        <time>2026-07-04T10:11:06.000Z</time>
      </trkpt>
      <trkpt lat="46.1446" lon="6.77942">
        <ele>1579.8000488281</ele>
        <time>2026-07-04T10:11:10.000Z</time>
      </trkpt>
      <trkpt lat="46.14461" lon="6.77943">
        <ele>1579.8000488281</ele>
        <time>2026-07-04T10:11:13.000Z</time>
      </trkpt>
      <trkpt lat="46.14457" lon="6.77943">
        <ele>1579.5999755859</ele>
        <time>2026-07-04T10:11:23.000Z</time>
      </trkpt>
      <trkpt lat="46.14457" lon="6.77943">
        <ele>1579.4000244141</ele>
        <time>2026-07-04T10:11:27.000Z</time>
      </trkpt>
      <trkpt lat="46.14456" lon="6.77943">
        <ele>1579.4000244141</ele>
        <time>2026-07-04T10:11:32.000Z</time>
      </trkpt>
      <trkpt lat="46.14456" lon="6.77943">
        <ele>1579.4000244141</ele>
        <time>2026-07-04T10:11:36.000Z</time>
      </trkpt>
      <trkpt lat="46.14461" lon="6.77937">
        <ele>1580</ele>
        <time>2026-07-04T10:11:51.000Z</time>
      </trkpt>
      <trkpt lat="46.14462" lon="6.77933">
        <ele>1580.4000244141</ele>
        <time>2026-07-04T10:11:56.000Z</time>
      </trkpt>
      <trkpt lat="46.14459" lon="6.77924">
        <ele>1580.5999755859</ele>
        <time>2026-07-04T10:12:02.000Z</time>
      </trkpt>
      <trkpt lat="46.14458" lon="6.77923">
        <ele>1580.8000488281</ele>
        <time>2026-07-04T10:12:11.000Z</time>
      </trkpt>
      <trkpt lat="46.1446" lon="6.77923">
        <ele>1580.5999755859</ele>
        <time>2026-07-04T10:12:15.000Z</time>
      </trkpt>
      <trkpt lat="46.14465" lon="6.77919">
        <ele>1581</ele>
        <time>2026-07-04T10:12:21.000Z</time>
      </trkpt>
      <trkpt lat="46.14467" lon="6.77918">
        <ele>1581.1999511719</ele>
        <time>2026-07-04T10:12:23.000Z</time>
      </trkpt>
      <trkpt lat="46.14469" lon="6.77916">
        <ele>1581.4000244141</ele>
        <time>2026-07-04T10:12:25.000Z</time>
      </trkpt>
      <trkpt lat="46.14475" lon="6.77917">
        <ele>1582.4000244141</ele>
        <time>2026-07-04T10:12:31.000Z</time>
      </trkpt>
      <trkpt lat="46.14476" lon="6.77917">
        <ele>1582.4000244141</ele>
        <time>2026-07-04T10:12:32.000Z</time>
      </trkpt>
      <trkpt lat="46.14478" lon="6.77918">
        <ele>1583</ele>
        <time>2026-07-04T10:12:37.000Z</time>
      </trkpt>
      <trkpt lat="46.14481" lon="6.77914">
        <ele>1583.1999511719</ele>
        <time>2026-07-04T10:12:41.000Z</time>
      </trkpt>
      <trkpt lat="46.14484" lon="6.7791">
        <ele>1583.5999755859</ele>
        <time>2026-07-04T10:12:44.000Z</time>
      </trkpt>
      <trkpt lat="46.14489" lon="6.77904">
        <ele>1584.4000244141</ele>
        <time>2026-07-04T10:12:50.000Z</time>
      </trkpt>
      <trkpt lat="46.14492" lon="6.77902">
        <ele>1584.5999755859</ele>
        <time>2026-07-04T10:12:52.000Z</time>
      </trkpt>
      <trkpt lat="46.14498" lon="6.77896">
        <ele>1585.8000488281</ele>
        <time>2026-07-04T10:12:58.000Z</time>
      </trkpt>
      <trkpt lat="46.14501" lon="6.77894">
        <ele>1586.1999511719</ele>
        <time>2026-07-04T10:13:00.000Z</time>
      </trkpt>
      <trkpt lat="46.14506" lon="6.77891">
        <ele>1586.8000488281</ele>
        <time>2026-07-04T10:13:04.000Z</time>
      </trkpt>
      <trkpt lat="46.14512" lon="6.7789">
        <ele>1587.5999755859</ele>
        <time>2026-07-04T10:13:10.000Z</time>
      </trkpt>
      <trkpt lat="46.14514" lon="6.7789">
        <ele>1587.8000488281</ele>
        <time>2026-07-04T10:13:13.000Z</time>
      </trkpt>
      <trkpt lat="46.14514" lon="6.77888">
        <ele>1587.8000488281</ele>
        <time>2026-07-04T10:13:19.000Z</time>
      </trkpt>
      <trkpt lat="46.14519" lon="6.77889">
        <ele>1588.1999511719</ele>
        <time>2026-07-04T10:13:24.000Z</time>
      </trkpt>
      <trkpt lat="46.14523" lon="6.77891">
        <ele>1589</ele>
        <time>2026-07-04T10:13:27.000Z</time>
      </trkpt>
      <trkpt lat="46.1453" lon="6.77894">
        <ele>1590</ele>
        <time>2026-07-04T10:13:34.000Z</time>
      </trkpt>
      <trkpt lat="46.1453" lon="6.77894">
        <ele>1590</ele>
        <time>2026-07-04T10:13:37.000Z</time>
      </trkpt>
      <trkpt lat="46.1453" lon="6.77894">
        <ele>1590</ele>
        <time>2026-07-04T10:13:41.000Z</time>
      </trkpt>
      <trkpt lat="46.14536" lon="6.77896">
        <ele>1590.4000244141</ele>
        <time>2026-07-04T10:13:47.000Z</time>
      </trkpt>
      <trkpt lat="46.14539" lon="6.77899">
        <ele>1591</ele>
        <time>2026-07-04T10:13:51.000Z</time>
      </trkpt>
      <trkpt lat="46.14547" lon="6.77902">
        <ele>1591.8000488281</ele>
        <time>2026-07-04T10:13:58.000Z</time>
      </trkpt>
      <trkpt lat="46.14549" lon="6.77904">
        <ele>1592.1999511719</ele>
        <time>2026-07-04T10:14:00.000Z</time>
      </trkpt>
      <trkpt lat="46.14555" lon="6.77909">
        <ele>1593.1999511719</ele>
        <time>2026-07-04T10:14:05.000Z</time>
      </trkpt>
      <trkpt lat="46.14559" lon="6.77914">
        <ele>1593.8000488281</ele>
        <time>2026-07-04T10:14:08.000Z</time>
      </trkpt>
      <trkpt lat="46.14564" lon="6.77921">
        <ele>1594.4000244141</ele>
        <time>2026-07-04T10:14:12.000Z</time>
      </trkpt>
      <trkpt lat="46.14567" lon="6.77925">
        <ele>1594.8000488281</ele>
        <time>2026-07-04T10:14:15.000Z</time>
      </trkpt>
      <trkpt lat="46.14568" lon="6.77927">
        <ele>1595</ele>
        <time>2026-07-04T10:14:16.000Z</time>
      </trkpt>
      <trkpt lat="46.1457" lon="6.7793">
        <ele>1595.4000244141</ele>
        <time>2026-07-04T10:14:19.000Z</time>
      </trkpt>
      <trkpt lat="46.14574" lon="6.7794">
        <ele>1596.1999511719</ele>
        <time>2026-07-04T10:14:25.000Z</time>
      </trkpt>
      <trkpt lat="46.14576" lon="6.77943">
        <ele>1596.5999755859</ele>
        <time>2026-07-04T10:14:28.000Z</time>
      </trkpt>
      <trkpt lat="46.1458" lon="6.7795">
        <ele>1597.1999511719</ele>
        <time>2026-07-04T10:14:33.000Z</time>
      </trkpt>
      <trkpt lat="46.1458" lon="6.77954">
        <ele>1597.5999755859</ele>
        <time>2026-07-04T10:14:35.000Z</time>
      </trkpt>
      <trkpt lat="46.14583" lon="6.77962">
        <ele>1598.4000244141</ele>
        <time>2026-07-04T10:14:41.000Z</time>
      </trkpt>
      <trkpt lat="46.14584" lon="6.77963">
        <ele>1598.5999755859</ele>
        <time>2026-07-04T10:14:42.000Z</time>
      </trkpt>
      <trkpt lat="46.14588" lon="6.77975">
        <ele>1599.5999755859</ele>
        <time>2026-07-04T10:14:50.000Z</time>
      </trkpt>
      <trkpt lat="46.14588" lon="6.77976">
        <ele>1599.8000488281</ele>
        <time>2026-07-04T10:14:51.000Z</time>
      </trkpt>
      <trkpt lat="46.14591" lon="6.77983">
        <ele>1600.5999755859</ele>
        <time>2026-07-04T10:14:56.000Z</time>
      </trkpt>
      <trkpt lat="46.14594" lon="6.77986">
        <ele>1601</ele>
        <time>2026-07-04T10:14:59.000Z</time>
      </trkpt>
      <trkpt lat="46.146" lon="6.77993">
        <ele>1601.5999755859</ele>
        <time>2026-07-04T10:15:08.000Z</time>
      </trkpt>
      <trkpt lat="46.14599" lon="6.77994">
        <ele>1601.8000488281</ele>
        <time>2026-07-04T10:15:09.000Z</time>
      </trkpt>
      <trkpt lat="46.14597" lon="6.77997">
        <ele>1602.1999511719</ele>
        <time>2026-07-04T10:15:14.000Z</time>
      </trkpt>
      <trkpt lat="46.14597" lon="6.77999">
        <ele>1602.1999511719</ele>
        <time>2026-07-04T10:15:15.000Z</time>
      </trkpt>
      <trkpt lat="46.14596" lon="6.78">
        <ele>1602.4000244141</ele>
        <time>2026-07-04T10:15:19.000Z</time>
      </trkpt>
      <trkpt lat="46.14593" lon="6.77998">
        <ele>1602.8000488281</ele>
        <time>2026-07-04T10:15:25.000Z</time>
      </trkpt>
      <trkpt lat="46.14591" lon="6.77997">
        <ele>1603.1999511719</ele>
        <time>2026-07-04T10:15:28.000Z</time>
      </trkpt>
      <trkpt lat="46.14587" lon="6.77996">
        <ele>1603.4000244141</ele>
        <time>2026-07-04T10:15:35.000Z</time>
      </trkpt>
      <trkpt lat="46.14586" lon="6.77995">
        <ele>1604</ele>
        <time>2026-07-04T10:15:38.000Z</time>
      </trkpt>
      <trkpt lat="46.14582" lon="6.77994">
        <ele>1604.8000488281</ele>
        <time>2026-07-04T10:15:43.000Z</time>
      </trkpt>
      <trkpt lat="46.14581" lon="6.77993">
        <ele>1605</ele>
        <time>2026-07-04T10:15:44.000Z</time>
      </trkpt>
      <trkpt lat="46.14578" lon="6.77991">
        <ele>1606</ele>
        <time>2026-07-04T10:15:49.000Z</time>
      </trkpt>
      <trkpt lat="46.14578" lon="6.77991">
        <ele>1606.1999511719</ele>
        <time>2026-07-04T10:15:50.000Z</time>
      </trkpt>
      <trkpt lat="46.14577" lon="6.7799">
        <ele>1606.8000488281</ele>
        <time>2026-07-04T10:15:53.000Z</time>
      </trkpt>
      <trkpt lat="46.14576" lon="6.77988">
        <ele>1607.4000244141</ele>
        <time>2026-07-04T10:15:56.000Z</time>
      </trkpt>
      <trkpt lat="46.14575" lon="6.77986">
        <ele>1607.8000488281</ele>
        <time>2026-07-04T10:15:59.000Z</time>
      </trkpt>
      <trkpt lat="46.14573" lon="6.77986">
        <ele>1608.4000244141</ele>
        <time>2026-07-04T10:16:02.000Z</time>
      </trkpt>
      <trkpt lat="46.14572" lon="6.77985">
        <ele>1608.8000488281</ele>
        <time>2026-07-04T10:16:03.000Z</time>
      </trkpt>
      <trkpt lat="46.14568" lon="6.77984">
        <ele>1609.5999755859</ele>
        <time>2026-07-04T10:16:08.000Z</time>
      </trkpt>
      <trkpt lat="46.14566" lon="6.77983">
        <ele>1609.8000488281</ele>
        <time>2026-07-04T10:16:11.000Z</time>
      </trkpt>
      <trkpt lat="46.14566" lon="6.77983">
        <ele>1609.8000488281</ele>
        <time>2026-07-04T10:16:12.000Z</time>
      </trkpt>
      <trkpt lat="46.14564" lon="6.77982">
        <ele>1610.5999755859</ele>
        <time>2026-07-04T10:16:16.000Z</time>
      </trkpt>
      <trkpt lat="46.14562" lon="6.77981">
        <ele>1611.1999511719</ele>
        <time>2026-07-04T10:16:20.000Z</time>
      </trkpt>
      <trkpt lat="46.14559" lon="6.77981">
        <ele>1611.8000488281</ele>
        <time>2026-07-04T10:16:25.000Z</time>
      </trkpt>
      <trkpt lat="46.14557" lon="6.7798">
        <ele>1613</ele>
        <time>2026-07-04T10:16:30.000Z</time>
      </trkpt>
      <trkpt lat="46.14553" lon="6.7798">
        <ele>1614</ele>
        <time>2026-07-04T10:16:35.000Z</time>
      </trkpt>
      <trkpt lat="46.14552" lon="6.7798">
        <ele>1614.4000244141</ele>
        <time>2026-07-04T10:16:37.000Z</time>
      </trkpt>
      <trkpt lat="46.14551" lon="6.7798">
        <ele>1614.8000488281</ele>
        <time>2026-07-04T10:16:39.000Z</time>
      </trkpt>
      <trkpt lat="46.1455" lon="6.77981">
        <ele>1615.1999511719</ele>
        <time>2026-07-04T10:16:41.000Z</time>
      </trkpt>
      <trkpt lat="46.14544" lon="6.77983">
        <ele>1616.1999511719</ele>
        <time>2026-07-04T10:16:47.000Z</time>
      </trkpt>
      <trkpt lat="46.14543" lon="6.77984">
        <ele>1616.4000244141</ele>
        <time>2026-07-04T10:16:50.000Z</time>
      </trkpt>
      <trkpt lat="46.14541" lon="6.77986">
        <ele>1616.8000488281</ele>
        <time>2026-07-04T10:16:53.000Z</time>
      </trkpt>
      <trkpt lat="46.1454" lon="6.77987">
        <ele>1617.1999511719</ele>
        <time>2026-07-04T10:16:55.000Z</time>
      </trkpt>
      <trkpt lat="46.1454" lon="6.77988">
        <ele>1617.1999511719</ele>
        <time>2026-07-04T10:16:56.000Z</time>
      </trkpt>
      <trkpt lat="46.14538" lon="6.77992">
        <ele>1618</ele>
        <time>2026-07-04T10:17:00.000Z</time>
      </trkpt>
      <trkpt lat="46.14536" lon="6.77995">
        <ele>1618.4000244141</ele>
        <time>2026-07-04T10:17:03.000Z</time>
      </trkpt>
      <trkpt lat="46.14534" lon="6.77998">
        <ele>1618.8000488281</ele>
        <time>2026-07-04T10:17:06.000Z</time>
      </trkpt>
      <trkpt lat="46.14532" lon="6.78003">
        <ele>1619.4000244141</ele>
        <time>2026-07-04T10:17:10.000Z</time>
      </trkpt>
      <trkpt lat="46.14532" lon="6.78004">
        <ele>1619.5999755859</ele>
        <time>2026-07-04T10:17:11.000Z</time>
      </trkpt>
      <trkpt lat="46.14532" lon="6.78006">
        <ele>1620</ele>
        <time>2026-07-04T10:17:18.000Z</time>
      </trkpt>
      <trkpt lat="46.14535" lon="6.78008">
        <ele>1620.5999755859</ele>
        <time>2026-07-04T10:17:24.000Z</time>
      </trkpt>
      <trkpt lat="46.14537" lon="6.78011">
        <ele>1621.4000244141</ele>
        <time>2026-07-04T10:17:27.000Z</time>
      </trkpt>
      <trkpt lat="46.14538" lon="6.78012">
        <ele>1621.8000488281</ele>
        <time>2026-07-04T10:17:29.000Z</time>
      </trkpt>
      <trkpt lat="46.14539" lon="6.78013">
        <ele>1622.4000244141</ele>
        <time>2026-07-04T10:17:32.000Z</time>
      </trkpt>
      <trkpt lat="46.1454" lon="6.78014">
        <ele>1622.5999755859</ele>
        <time>2026-07-04T10:17:33.000Z</time>
      </trkpt>
      <trkpt lat="46.1454" lon="6.78014">
        <ele>1622.8000488281</ele>
        <time>2026-07-04T10:17:34.000Z</time>
      </trkpt>
      <trkpt lat="46.14541" lon="6.78015">
        <ele>1623</ele>
        <time>2026-07-04T10:17:35.000Z</time>
      </trkpt>
      <trkpt lat="46.14543" lon="6.78016">
        <ele>1624</ele>
        <time>2026-07-04T10:17:39.000Z</time>
      </trkpt>
      <trkpt lat="46.14546" lon="6.78019">
        <ele>1624.5999755859</ele>
        <time>2026-07-04T10:17:42.000Z</time>
      </trkpt>
      <trkpt lat="46.14549" lon="6.78021">
        <ele>1625.1999511719</ele>
        <time>2026-07-04T10:17:45.000Z</time>
      </trkpt>
      <trkpt lat="46.14553" lon="6.78026">
        <ele>1626.1999511719</ele>
        <time>2026-07-04T10:17:52.000Z</time>
      </trkpt>
      <trkpt lat="46.14551" lon="6.78025">
        <ele>1626</ele>
        <time>2026-07-04T10:17:56.000Z</time>
      </trkpt>
      <trkpt lat="46.14554" lon="6.78028">
        <ele>1626.1999511719</ele>
        <time>2026-07-04T10:18:02.000Z</time>
      </trkpt>
      <trkpt lat="46.14558" lon="6.78032">
        <ele>1627.1999511719</ele>
        <time>2026-07-04T10:18:06.000Z</time>
      </trkpt>
      <trkpt lat="46.14562" lon="6.78036">
        <ele>1628.4000244141</ele>
        <time>2026-07-04T10:18:11.000Z</time>
      </trkpt>
      <trkpt lat="46.14567" lon="6.78042">
        <ele>1629.5999755859</ele>
        <time>2026-07-04T10:18:18.000Z</time>
      </trkpt>
      <trkpt lat="46.14568" lon="6.78042">
        <ele>1629.5999755859</ele>
        <time>2026-07-04T10:18:19.000Z</time>
      </trkpt>
      <trkpt lat="46.14569" lon="6.78044">
        <ele>1629.8000488281</ele>
        <time>2026-07-04T10:18:21.000Z</time>
      </trkpt>
      <trkpt lat="46.1457" lon="6.78044">
        <ele>1629.8000488281</ele>
        <time>2026-07-04T10:18:22.000Z</time>
      </trkpt>
      <trkpt lat="46.14573" lon="6.78047">
        <ele>1630.4000244141</ele>
        <time>2026-07-04T10:18:26.000Z</time>
      </trkpt>
      <trkpt lat="46.14574" lon="6.78048">
        <ele>1630.5999755859</ele>
        <time>2026-07-04T10:18:27.000Z</time>
      </trkpt>
      <trkpt lat="46.14578" lon="6.78051">
        <ele>1631.5999755859</ele>
        <time>2026-07-04T10:18:31.000Z</time>
      </trkpt>
      <trkpt lat="46.14579" lon="6.78052">
        <ele>1631.8000488281</ele>
        <time>2026-07-04T10:18:32.000Z</time>
      </trkpt>
      <trkpt lat="46.14587" lon="6.78058">
        <ele>1632.8000488281</ele>
        <time>2026-07-04T10:18:38.000Z</time>
      </trkpt>
      <trkpt lat="46.14589" lon="6.78059">
        <ele>1632.8000488281</ele>
        <time>2026-07-04T10:18:39.000Z</time>
      </trkpt>
      <trkpt lat="46.14595" lon="6.78065">
        <ele>1633.8000488281</ele>
        <time>2026-07-04T10:18:45.000Z</time>
      </trkpt>
      <trkpt lat="46.14597" lon="6.78068">
        <ele>1634.1999511719</ele>
        <time>2026-07-04T10:18:47.000Z</time>
      </trkpt>
      <trkpt lat="46.14598" lon="6.78072">
        <ele>1635</ele>
        <time>2026-07-04T10:18:51.000Z</time>
      </trkpt>
      <trkpt lat="46.14599" lon="6.78078">
        <ele>1635.4000244141</ele>
        <time>2026-07-04T10:18:55.000Z</time>
      </trkpt>
      <trkpt lat="46.14599" lon="6.78083">
        <ele>1636.1999511719</ele>
        <time>2026-07-04T10:18:59.000Z</time>
      </trkpt>
      <trkpt lat="46.14599" lon="6.78089">
        <ele>1637.1999511719</ele>
        <time>2026-07-04T10:19:04.000Z</time>
      </trkpt>
      <trkpt lat="46.14599" lon="6.78091">
        <ele>1637.4000244141</ele>
        <time>2026-07-04T10:19:05.000Z</time>
      </trkpt>
      <trkpt lat="46.146" lon="6.78097">
        <ele>1638.4000244141</ele>
        <time>2026-07-04T10:19:09.000Z</time>
      </trkpt>
      <trkpt lat="46.14598" lon="6.78103">
        <ele>1639.4000244141</ele>
        <time>2026-07-04T10:19:14.000Z</time>
      </trkpt>
      <trkpt lat="46.14598" lon="6.78103">
        <ele>1639.5999755859</ele>
        <time>2026-07-04T10:19:15.000Z</time>
      </trkpt>
      <trkpt lat="46.14597" lon="6.78111">
        <ele>1640.5999755859</ele>
        <time>2026-07-04T10:19:20.000Z</time>
      </trkpt>
      <trkpt lat="46.14597" lon="6.78115">
        <ele>1641.1999511719</ele>
        <time>2026-07-04T10:19:23.000Z</time>
      </trkpt>
      <trkpt lat="46.14595" lon="6.78121">
        <ele>1641.8000488281</ele>
        <time>2026-07-04T10:19:28.000Z</time>
      </trkpt>
      <trkpt lat="46.14594" lon="6.78126">
        <ele>1642.5999755859</ele>
        <time>2026-07-04T10:19:32.000Z</time>
      </trkpt>
      <trkpt lat="46.14594" lon="6.78129">
        <ele>1643</ele>
        <time>2026-07-04T10:19:34.000Z</time>
      </trkpt>
      <trkpt lat="46.14596" lon="6.78136">
        <ele>1644</ele>
        <time>2026-07-04T10:19:39.000Z</time>
      </trkpt>
      <trkpt lat="46.14597" lon="6.78142">
        <ele>1645</ele>
        <time>2026-07-04T10:19:45.000Z</time>
      </trkpt>
      <trkpt lat="46.14597" lon="6.78147">
        <ele>1645.5999755859</ele>
        <time>2026-07-04T10:19:48.000Z</time>
      </trkpt>
      <trkpt lat="46.14596" lon="6.78148">
        <ele>1646</ele>
        <time>2026-07-04T10:19:50.000Z</time>
      </trkpt>
      <trkpt lat="46.1459" lon="6.78148">
        <ele>1647.1999511719</ele>
        <time>2026-07-04T10:19:55.000Z</time>
      </trkpt>
      <trkpt lat="46.14586" lon="6.78145">
        <ele>1648.4000244141</ele>
        <time>2026-07-04T10:20:01.000Z</time>
      </trkpt>
      <trkpt lat="46.14584" lon="6.78143">
        <ele>1648.8000488281</ele>
        <time>2026-07-04T10:20:04.000Z</time>
      </trkpt>
      <trkpt lat="46.14582" lon="6.7814">
        <ele>1649.4000244141</ele>
        <time>2026-07-04T10:20:07.000Z</time>
      </trkpt>
      <trkpt lat="46.14579" lon="6.78136">
        <ele>1650.5999755859</ele>
        <time>2026-07-04T10:20:12.000Z</time>
      </trkpt>
      <trkpt lat="46.14574" lon="6.78132">
        <ele>1651.8000488281</ele>
        <time>2026-07-04T10:20:18.000Z</time>
      </trkpt>
      <trkpt lat="46.14572" lon="6.78128">
        <ele>1652.4000244141</ele>
        <time>2026-07-04T10:20:21.000Z</time>
      </trkpt>
      <trkpt lat="46.1457" lon="6.78125">
        <ele>1653</ele>
        <time>2026-07-04T10:20:25.000Z</time>
      </trkpt>
      <trkpt lat="46.14569" lon="6.7812">
        <ele>1653.8000488281</ele>
        <time>2026-07-04T10:20:29.000Z</time>
      </trkpt>
      <trkpt lat="46.14568" lon="6.78119">
        <ele>1654</ele>
        <time>2026-07-04T10:20:30.000Z</time>
      </trkpt>
      <trkpt lat="46.14565" lon="6.78118">
        <ele>1655</ele>
        <time>2026-07-04T10:20:36.000Z</time>
      </trkpt>
      <trkpt lat="46.14563" lon="6.78118">
        <ele>1655.4000244141</ele>
        <time>2026-07-04T10:20:38.000Z</time>
      </trkpt>
      <trkpt lat="46.14563" lon="6.78118">
        <ele>1655.5999755859</ele>
        <time>2026-07-04T10:20:39.000Z</time>
      </trkpt>
      <trkpt lat="46.14562" lon="6.78118">
        <ele>1655.5999755859</ele>
        <time>2026-07-04T10:20:40.000Z</time>
      </trkpt>
      <trkpt lat="46.14561" lon="6.78118">
        <ele>1655.8000488281</ele>
        <time>2026-07-04T10:20:41.000Z</time>
      </trkpt>
      <trkpt lat="46.1456" lon="6.78119">
        <ele>1656.1999511719</ele>
        <time>2026-07-04T10:20:42.000Z</time>
      </trkpt>
      <trkpt lat="46.14553" lon="6.78123">
        <ele>1657.1999511719</ele>
        <time>2026-07-04T10:20:49.000Z</time>
      </trkpt>
      <trkpt lat="46.14547" lon="6.78127">
        <ele>1658.4000244141</ele>
        <time>2026-07-04T10:20:55.000Z</time>
      </trkpt>
      <trkpt lat="46.14544" lon="6.78128">
        <ele>1658.8000488281</ele>
        <time>2026-07-04T10:20:58.000Z</time>
      </trkpt>
      <trkpt lat="46.14543" lon="6.7813">
        <ele>1659.4000244141</ele>
        <time>2026-07-04T10:21:01.000Z</time>
      </trkpt>
      <trkpt lat="46.14542" lon="6.78135">
        <ele>1660.4000244141</ele>
        <time>2026-07-04T10:21:06.000Z</time>
      </trkpt>
      <trkpt lat="46.14545" lon="6.78139">
        <ele>1661.5999755859</ele>
        <time>2026-07-04T10:21:12.000Z</time>
      </trkpt>
      <trkpt lat="46.14547" lon="6.7814">
        <ele>1662</ele>
        <time>2026-07-04T10:21:14.000Z</time>
      </trkpt>
      <trkpt lat="46.1455" lon="6.78143">
        <ele>1662.8000488281</ele>
        <time>2026-07-04T10:21:18.000Z</time>
      </trkpt>
      <trkpt lat="46.14552" lon="6.78145">
        <ele>1663.4000244141</ele>
        <time>2026-07-04T10:21:21.000Z</time>
      </trkpt>
      <trkpt lat="46.14553" lon="6.78146">
        <ele>1664</ele>
        <time>2026-07-04T10:21:23.000Z</time>
      </trkpt>
      <trkpt lat="46.14556" lon="6.78152">
        <ele>1665.1999511719</ele>
        <time>2026-07-04T10:21:28.000Z</time>
      </trkpt>
      <trkpt lat="46.14557" lon="6.78154">
        <ele>1665.4000244141</ele>
        <time>2026-07-04T10:21:29.000Z</time>
      </trkpt>
      <trkpt lat="46.14557" lon="6.7816">
        <ele>1666.1999511719</ele>
        <time>2026-07-04T10:21:33.000Z</time>
      </trkpt>
      <trkpt lat="46.14556" lon="6.78162">
        <ele>1666.4000244141</ele>
        <time>2026-07-04T10:21:35.000Z</time>
      </trkpt>
      <trkpt lat="46.14553" lon="6.78162">
        <ele>1666.8000488281</ele>
        <time>2026-07-04T10:21:37.000Z</time>
      </trkpt>
      <trkpt lat="46.1455" lon="6.78163">
        <ele>1667.1999511719</ele>
        <time>2026-07-04T10:21:40.000Z</time>
      </trkpt>
      <trkpt lat="46.14546" lon="6.78163">
        <ele>1668.4000244141</ele>
        <time>2026-07-04T10:21:45.000Z</time>
      </trkpt>
      <trkpt lat="46.14544" lon="6.78163">
        <ele>1669.1999511719</ele>
        <time>2026-07-04T10:21:48.000Z</time>
      </trkpt>
      <trkpt lat="46.14543" lon="6.78164">
        <ele>1669.5999755859</ele>
        <time>2026-07-04T10:21:50.000Z</time>
      </trkpt>
      <trkpt lat="46.1454" lon="6.78165">
        <ele>1670.4000244141</ele>
        <time>2026-07-04T10:21:54.000Z</time>
      </trkpt>
      <trkpt lat="46.14538" lon="6.78165">
        <ele>1670.8000488281</ele>
        <time>2026-07-04T10:21:56.000Z</time>
      </trkpt>
      <trkpt lat="46.14536" lon="6.78166">
        <ele>1671.1999511719</ele>
        <time>2026-07-04T10:21:58.000Z</time>
      </trkpt>
      <trkpt lat="46.14533" lon="6.78167">
        <ele>1671.8000488281</ele>
        <time>2026-07-04T10:22:02.000Z</time>
      </trkpt>
      <trkpt lat="46.14531" lon="6.78168">
        <ele>1672.1999511719</ele>
        <time>2026-07-04T10:22:06.000Z</time>
      </trkpt>
      <trkpt lat="46.14529" lon="6.78169">
        <ele>1672.4000244141</ele>
        <time>2026-07-04T10:22:11.000Z</time>
      </trkpt>
      <trkpt lat="46.14528" lon="6.78169">
        <ele>1672.4000244141</ele>
        <time>2026-07-04T10:22:12.000Z</time>
      </trkpt>
      <trkpt lat="46.14527" lon="6.78168">
        <ele>1672.5999755859</ele>
        <time>2026-07-04T10:22:17.000Z</time>
      </trkpt>
      <trkpt lat="46.14527" lon="6.78167">
        <ele>1672.5999755859</ele>
        <time>2026-07-04T10:22:18.000Z</time>
      </trkpt>
      <trkpt lat="46.14527" lon="6.78167">
        <ele>1672.5999755859</ele>
        <time>2026-07-04T10:22:19.000Z</time>
      </trkpt>
      <trkpt lat="46.14526" lon="6.78167">
        <ele>1672.8000488281</ele>
        <time>2026-07-04T10:22:22.000Z</time>
      </trkpt>
      <trkpt lat="46.14525" lon="6.78169">
        <ele>1672.5999755859</ele>
        <time>2026-07-04T10:22:27.000Z</time>
      </trkpt>
      <trkpt lat="46.14525" lon="6.78169">
        <ele>1672.5999755859</ele>
        <time>2026-07-04T10:22:31.000Z</time>
      </trkpt>
      <trkpt lat="46.14525" lon="6.78169">
        <ele>1672.5999755859</ele>
        <time>2026-07-04T10:22:33.000Z</time>
      </trkpt>
      <trkpt lat="46.14524" lon="6.78168">
        <ele>1672.5999755859</ele>
        <time>2026-07-04T10:22:36.000Z</time>
      </trkpt>
      <trkpt lat="46.14524" lon="6.78167">
        <ele>1672.5999755859</ele>
        <time>2026-07-04T10:22:40.000Z</time>
      </trkpt>
      <trkpt lat="46.14526" lon="6.78167">
        <ele>1672.5999755859</ele>
        <time>2026-07-04T10:22:44.000Z</time>
      </trkpt>
      <trkpt lat="46.14528" lon="6.78167">
        <ele>1672.8000488281</ele>
        <time>2026-07-04T10:22:47.000Z</time>
      </trkpt>
      <trkpt lat="46.14529" lon="6.78167">
        <ele>1673</ele>
        <time>2026-07-04T10:22:48.000Z</time>
      </trkpt>
      <trkpt lat="46.14532" lon="6.78168">
        <ele>1672.8000488281</ele>
        <time>2026-07-04T10:22:53.000Z</time>
      </trkpt>
      <trkpt lat="46.14535" lon="6.7817">
        <ele>1672.8000488281</ele>
        <time>2026-07-04T10:22:57.000Z</time>
      </trkpt>
      <trkpt lat="46.14534" lon="6.7817">
        <ele>1672.5999755859</ele>
        <time>2026-07-04T10:23:00.000Z</time>
      </trkpt>
      <trkpt lat="46.14533" lon="6.78166">
        <ele>1672.4000244141</ele>
        <time>2026-07-04T10:23:08.000Z</time>
      </trkpt>
      <trkpt lat="46.14533" lon="6.78166">
        <ele>1672.4000244141</ele>
        <time>2026-07-04T10:23:09.000Z</time>
      </trkpt>
      <trkpt lat="46.14533" lon="6.78166">
        <ele>1672.4000244141</ele>
        <time>2026-07-04T10:23:10.000Z</time>
      </trkpt>
      <trkpt lat="46.14533" lon="6.78166">
        <ele>1672.4000244141</ele>
        <time>2026-07-04T10:23:11.000Z</time>
      </trkpt>
      <trkpt lat="46.14534" lon="6.78166">
        <ele>1672.4000244141</ele>
        <time>2026-07-04T10:23:13.000Z</time>
      </trkpt>
      <trkpt lat="46.14534" lon="6.78165">
        <ele>1672.4000244141</ele>
        <time>2026-07-04T10:23:14.000Z</time>
      </trkpt>
      <trkpt lat="46.14533" lon="6.78166">
        <ele>1672.5999755859</ele>
        <time>2026-07-04T10:23:28.000Z</time>
      </trkpt>
      <trkpt lat="46.14533" lon="6.78171">
        <ele>1672.1999511719</ele>
        <time>2026-07-04T10:23:40.000Z</time>
      </trkpt>
      <trkpt lat="46.14533" lon="6.78173">
        <ele>1672</ele>
        <time>2026-07-04T10:23:48.000Z</time>
      </trkpt>
      <trkpt lat="46.14534" lon="6.78172">
        <ele>1672</ele>
        <time>2026-07-04T10:23:53.000Z</time>
      </trkpt>
      <trkpt lat="46.14534" lon="6.78172">
        <ele>1671.8000488281</ele>
        <time>2026-07-04T10:23:54.000Z</time>
      </trkpt>
      <trkpt lat="46.14534" lon="6.78167">
        <ele>1671.8000488281</ele>
        <time>2026-07-04T10:24:04.000Z</time>
      </trkpt>
      <trkpt lat="46.14534" lon="6.78166">
        <ele>1672</ele>
        <time>2026-07-04T10:24:16.000Z</time>
      </trkpt>
      <trkpt lat="46.14532" lon="6.78165">
        <ele>1672</ele>
        <time>2026-07-04T10:24:28.000Z</time>
      </trkpt>
      <trkpt lat="46.14532" lon="6.78163">
        <ele>1672</ele>
        <time>2026-07-04T10:24:37.000Z</time>
      </trkpt>
      <trkpt lat="46.14531" lon="6.78165">
        <ele>1672.1999511719</ele>
        <time>2026-07-04T10:24:47.000Z</time>
      </trkpt>
      <trkpt lat="46.14529" lon="6.78155">
        <ele>1672.8000488281</ele>
        <time>2026-07-04T10:24:57.000Z</time>
      </trkpt>
      <trkpt lat="46.14528" lon="6.78151">
        <ele>1672.4000244141</ele>
        <time>2026-07-04T10:25:02.000Z</time>
      </trkpt>
      <trkpt lat="46.14528" lon="6.78149">
        <ele>1672.4000244141</ele>
        <time>2026-07-04T10:25:11.000Z</time>
      </trkpt>
      <trkpt lat="46.1453" lon="6.78147">
        <ele>1672.1999511719</ele>
        <time>2026-07-04T10:25:25.000Z</time>
      </trkpt>
      <trkpt lat="46.1453" lon="6.7816">
        <ele>1672.1999511719</ele>
        <time>2026-07-04T10:25:37.000Z</time>
      </trkpt>
      <trkpt lat="46.1453" lon="6.78164">
        <ele>1672</ele>
        <time>2026-07-04T10:25:40.000Z</time>
      </trkpt>
      <trkpt lat="46.1453" lon="6.78166">
        <ele>1672.1999511719</ele>
        <time>2026-07-04T10:25:44.000Z</time>
      </trkpt>
      <trkpt lat="46.14528" lon="6.78162">
        <ele>1672</ele>
        <time>2026-07-04T10:25:53.000Z</time>
      </trkpt>
      <trkpt lat="46.14526" lon="6.78161">
        <ele>1672</ele>
        <time>2026-07-04T10:26:04.000Z</time>
      </trkpt>
      <trkpt lat="46.1453" lon="6.78163">
        <ele>1672.4000244141</ele>
        <time>2026-07-04T10:26:13.000Z</time>
      </trkpt>
      <trkpt lat="46.14531" lon="6.78165">
        <ele>1672.4000244141</ele>
        <time>2026-07-04T10:26:19.000Z</time>
      </trkpt>
      <trkpt lat="46.14531" lon="6.78165">
        <ele>1672.1999511719</ele>
        <time>2026-07-04T10:26:21.000Z</time>
      </trkpt>
      <trkpt lat="46.14532" lon="6.78166">
        <ele>1672.1999511719</ele>
        <time>2026-07-04T10:26:30.000Z</time>
      </trkpt>
      <trkpt lat="46.14533" lon="6.78165">
        <ele>1672</ele>
        <time>2026-07-04T10:26:36.000Z</time>
      </trkpt>
      <trkpt lat="46.14533" lon="6.78165">
        <ele>1672</ele>
        <time>2026-07-04T10:26:37.000Z</time>
      </trkpt>
      <trkpt lat="46.14533" lon="6.78164">
        <ele>1672</ele>
        <time>2026-07-04T10:26:39.000Z</time>
      </trkpt>
      <trkpt lat="46.14535" lon="6.78165">
        <ele>1671.5999755859</ele>
        <time>2026-07-04T10:26:44.000Z</time>
      </trkpt>
      <trkpt lat="46.14536" lon="6.78167">
        <ele>1671.4000244141</ele>
        <time>2026-07-04T10:26:47.000Z</time>
      </trkpt>
      <trkpt lat="46.14536" lon="6.78166">
        <ele>1671.5999755859</ele>
        <time>2026-07-04T10:26:56.000Z</time>
      </trkpt>
      <trkpt lat="46.14535" lon="6.78168">
        <ele>1671.8000488281</ele>
        <time>2026-07-04T10:27:05.000Z</time>
      </trkpt>
      <trkpt lat="46.14541" lon="6.78172">
        <ele>1672</ele>
        <time>2026-07-04T10:27:13.000Z</time>
      </trkpt>
      <trkpt lat="46.14547" lon="6.78176">
        <ele>1672.5999755859</ele>
        <time>2026-07-04T10:27:21.000Z</time>
      </trkpt>
      <trkpt lat="46.14549" lon="6.78177">
        <ele>1673</ele>
        <time>2026-07-04T10:27:23.000Z</time>
      </trkpt>
      <trkpt lat="46.14551" lon="6.7818">
        <ele>1673.4000244141</ele>
        <time>2026-07-04T10:27:26.000Z</time>
      </trkpt>
      <trkpt lat="46.14553" lon="6.78181">
        <ele>1674.1999511719</ele>
        <time>2026-07-04T10:27:29.000Z</time>
      </trkpt>
      <trkpt lat="46.14555" lon="6.78184">
        <ele>1675</ele>
        <time>2026-07-04T10:27:32.000Z</time>
      </trkpt>
      <trkpt lat="46.14555" lon="6.78184">
        <ele>1675.1999511719</ele>
        <time>2026-07-04T10:27:33.000Z</time>
      </trkpt>
      <trkpt lat="46.14556" lon="6.78186">
        <ele>1675.8000488281</ele>
        <time>2026-07-04T10:27:35.000Z</time>
      </trkpt>
      <trkpt lat="46.14557" lon="6.78189">
        <ele>1676.4000244141</ele>
        <time>2026-07-04T10:27:38.000Z</time>
      </trkpt>
      <trkpt lat="46.14559" lon="6.78194">
        <ele>1677.4000244141</ele>
        <time>2026-07-04T10:27:44.000Z</time>
      </trkpt>
      <trkpt lat="46.14563" lon="6.78201">
        <ele>1678.4000244141</ele>
        <time>2026-07-04T10:27:51.000Z</time>
      </trkpt>
      <trkpt lat="46.14563" lon="6.78202">
        <ele>1678.5999755859</ele>
        <time>2026-07-04T10:27:53.000Z</time>
      </trkpt>
      <trkpt lat="46.14565" lon="6.78208">
        <ele>1679.5999755859</ele>
        <time>2026-07-04T10:27:58.000Z</time>
      </trkpt>
      <trkpt lat="46.14567" lon="6.78213">
        <ele>1680.8000488281</ele>
        <time>2026-07-04T10:28:04.000Z</time>
      </trkpt>
      <trkpt lat="46.14567" lon="6.78214">
        <ele>1681</ele>
        <time>2026-07-04T10:28:05.000Z</time>
      </trkpt>
      <trkpt lat="46.14569" lon="6.7822">
        <ele>1681.8000488281</ele>
        <time>2026-07-04T10:28:10.000Z</time>
      </trkpt>
      <trkpt lat="46.1457" lon="6.78221">
        <ele>1682.1999511719</ele>
        <time>2026-07-04T10:28:12.000Z</time>
      </trkpt>
      <trkpt lat="46.14573" lon="6.78226">
        <ele>1683</ele>
        <time>2026-07-04T10:28:17.000Z</time>
      </trkpt>
      <trkpt lat="46.14575" lon="6.78228">
        <ele>1683.5999755859</ele>
        <time>2026-07-04T10:28:20.000Z</time>
      </trkpt>
      <trkpt lat="46.14577" lon="6.7823">
        <ele>1684.1999511719</ele>
        <time>2026-07-04T10:28:22.000Z</time>
      </trkpt>
      <trkpt lat="46.1458" lon="6.78234">
        <ele>1685.1999511719</ele>
        <time>2026-07-04T10:28:27.000Z</time>
      </trkpt>
      <trkpt lat="46.14582" lon="6.7824">
        <ele>1686.1999511719</ele>
        <time>2026-07-04T10:28:33.000Z</time>
      </trkpt>
      <trkpt lat="46.14582" lon="6.78242">
        <ele>1686.4000244141</ele>
        <time>2026-07-04T10:28:34.000Z</time>
      </trkpt>
      <trkpt lat="46.14582" lon="6.78249">
        <ele>1687.4000244141</ele>
        <time>2026-07-04T10:28:38.000Z</time>
      </trkpt>
      <trkpt lat="46.1458" lon="6.78255">
        <ele>1688.5999755859</ele>
        <time>2026-07-04T10:28:43.000Z</time>
      </trkpt>
      <trkpt lat="46.14576" lon="6.78258">
        <ele>1689.5999755859</ele>
        <time>2026-07-04T10:28:48.000Z</time>
      </trkpt>
      <trkpt lat="46.14573" lon="6.7826">
        <ele>1690</ele>
        <time>2026-07-04T10:28:51.000Z</time>
      </trkpt>
      <trkpt lat="46.14571" lon="6.78261">
        <ele>1690.8000488281</ele>
        <time>2026-07-04T10:28:54.000Z</time>
      </trkpt>
      <trkpt lat="46.14567" lon="6.78262">
        <ele>1691.8000488281</ele>
        <time>2026-07-04T10:28:59.000Z</time>
      </trkpt>
      <trkpt lat="46.14566" lon="6.78263">
        <ele>1692.4000244141</ele>
        <time>2026-07-04T10:29:01.000Z</time>
      </trkpt>
      <trkpt lat="46.14564" lon="6.78264">
        <ele>1693</ele>
        <time>2026-07-04T10:29:04.000Z</time>
      </trkpt>
      <trkpt lat="46.14561" lon="6.78271">
        <ele>1693.5999755859</ele>
        <time>2026-07-04T10:29:10.000Z</time>
      </trkpt>
      <trkpt lat="46.1456" lon="6.78277">
        <ele>1694.1999511719</ele>
        <time>2026-07-04T10:29:16.000Z</time>
      </trkpt>
      <trkpt lat="46.14561" lon="6.7828">
        <ele>1694.5999755859</ele>
        <time>2026-07-04T10:29:18.000Z</time>
      </trkpt>
      <trkpt lat="46.14562" lon="6.78287">
        <ele>1695.4000244141</ele>
        <time>2026-07-04T10:29:22.000Z</time>
      </trkpt>
      <trkpt lat="46.14562" lon="6.78294">
        <ele>1696.4000244141</ele>
        <time>2026-07-04T10:29:27.000Z</time>
      </trkpt>
      <trkpt lat="46.14556" lon="6.78301">
        <ele>1697.4000244141</ele>
        <time>2026-07-04T10:29:35.000Z</time>
      </trkpt>
      <trkpt lat="46.14555" lon="6.78301">
        <ele>1697.5999755859</ele>
        <time>2026-07-04T10:29:36.000Z</time>
      </trkpt>
      <trkpt lat="46.14551" lon="6.78301">
        <ele>1697.8000488281</ele>
        <time>2026-07-04T10:29:39.000Z</time>
      </trkpt>
      <trkpt lat="46.14544" lon="6.78299">
        <ele>1698</ele>
        <time>2026-07-04T10:29:45.000Z</time>
      </trkpt>
      <trkpt lat="46.14541" lon="6.78297">
        <ele>1698.5999755859</ele>
        <time>2026-07-04T10:29:48.000Z</time>
      </trkpt>
      <trkpt lat="46.14537" lon="6.78292">
        <ele>1699.1999511719</ele>
        <time>2026-07-04T10:29:54.000Z</time>
      </trkpt>
      <trkpt lat="46.14535" lon="6.7829">
        <ele>1699.5999755859</ele>
        <time>2026-07-04T10:29:56.000Z</time>
      </trkpt>
      <trkpt lat="46.14528" lon="6.78286">
        <ele>1700.4000244141</ele>
        <time>2026-07-04T10:30:02.000Z</time>
      </trkpt>
      <trkpt lat="46.14527" lon="6.78285">
        <ele>1700.5999755859</ele>
        <time>2026-07-04T10:30:04.000Z</time>
      </trkpt>
      <trkpt lat="46.14524" lon="6.78284">
        <ele>1701.5999755859</ele>
        <time>2026-07-04T10:30:08.000Z</time>
      </trkpt>
      <trkpt lat="46.14523" lon="6.78284">
        <ele>1702</ele>
        <time>2026-07-04T10:30:10.000Z</time>
      </trkpt>
      <trkpt lat="46.1452" lon="6.78285">
        <ele>1702.8000488281</ele>
        <time>2026-07-04T10:30:14.000Z</time>
      </trkpt>
      <trkpt lat="46.14519" lon="6.78286">
        <ele>1703</ele>
        <time>2026-07-04T10:30:15.000Z</time>
      </trkpt>
      <trkpt lat="46.14516" lon="6.7829">
        <ele>1703.4000244141</ele>
        <time>2026-07-04T10:30:19.000Z</time>
      </trkpt>
      <trkpt lat="46.14515" lon="6.78292">
        <ele>1703.8000488281</ele>
        <time>2026-07-04T10:30:21.000Z</time>
      </trkpt>
      <trkpt lat="46.14512" lon="6.78298">
        <ele>1705</ele>
        <time>2026-07-04T10:30:26.000Z</time>
      </trkpt>
      <trkpt lat="46.14513" lon="6.783">
        <ele>1705.4000244141</ele>
        <time>2026-07-04T10:30:28.000Z</time>
      </trkpt>
      <trkpt lat="46.14513" lon="6.78305">
        <ele>1706.1999511719</ele>
        <time>2026-07-04T10:30:33.000Z</time>
      </trkpt>
      <trkpt lat="46.14514" lon="6.7831">
        <ele>1706.8000488281</ele>
        <time>2026-07-04T10:30:37.000Z</time>
      </trkpt>
      <trkpt lat="46.14515" lon="6.78313">
        <ele>1707.1999511719</ele>
        <time>2026-07-04T10:30:39.000Z</time>
      </trkpt>
      <trkpt lat="46.14518" lon="6.78317">
        <ele>1708.1999511719</ele>
        <time>2026-07-04T10:30:44.000Z</time>
      </trkpt>
      <trkpt lat="46.14519" lon="6.78318">
        <ele>1708.4000244141</ele>
        <time>2026-07-04T10:30:45.000Z</time>
      </trkpt>
      <trkpt lat="46.1452" lon="6.78321">
        <ele>1709.5999755859</ele>
        <time>2026-07-04T10:30:50.000Z</time>
      </trkpt>
      <trkpt lat="46.14521" lon="6.78322">
        <ele>1710</ele>
        <time>2026-07-04T10:30:52.000Z</time>
      </trkpt>
      <trkpt lat="46.14523" lon="6.78322">
        <ele>1710.4000244141</ele>
        <time>2026-07-04T10:30:55.000Z</time>
      </trkpt>
      <trkpt lat="46.14524" lon="6.78323">
        <ele>1710.5999755859</ele>
        <time>2026-07-04T10:30:56.000Z</time>
      </trkpt>
      <trkpt lat="46.14527" lon="6.78323">
        <ele>1711.5999755859</ele>
        <time>2026-07-04T10:31:00.000Z</time>
      </trkpt>
      <trkpt lat="46.14528" lon="6.78324">
        <ele>1711.8000488281</ele>
        <time>2026-07-04T10:31:01.000Z</time>
      </trkpt>
      <trkpt lat="46.1453" lon="6.78323">
        <ele>1712.8000488281</ele>
        <time>2026-07-04T10:31:05.000Z</time>
      </trkpt>
      <trkpt lat="46.14532" lon="6.78323">
        <ele>1713.4000244141</ele>
        <time>2026-07-04T10:31:08.000Z</time>
      </trkpt>
      <trkpt lat="46.14534" lon="6.78324">
        <ele>1713.8000488281</ele>
        <time>2026-07-04T10:31:10.000Z</time>
      </trkpt>
      <trkpt lat="46.14537" lon="6.78326">
        <ele>1714.8000488281</ele>
        <time>2026-07-04T10:31:16.000Z</time>
      </trkpt>
      <trkpt lat="46.14539" lon="6.78327">
        <ele>1715.5999755859</ele>
        <time>2026-07-04T10:31:19.000Z</time>
      </trkpt>
      <trkpt lat="46.14539" lon="6.78328">
        <ele>1716</ele>
        <time>2026-07-04T10:31:21.000Z</time>
      </trkpt>
      <trkpt lat="46.14542" lon="6.7833">
        <ele>1717.1999511719</ele>
        <time>2026-07-04T10:31:25.000Z</time>
      </trkpt>
      <trkpt lat="46.14544" lon="6.78335">
        <ele>1717.8000488281</ele>
        <time>2026-07-04T10:31:30.000Z</time>
      </trkpt>
      <trkpt lat="46.14544" lon="6.78339">
        <ele>1718.1999511719</ele>
        <time>2026-07-04T10:31:33.000Z</time>
      </trkpt>
      <trkpt lat="46.14544" lon="6.78343">
        <ele>1719.4000244141</ele>
        <time>2026-07-04T10:31:38.000Z</time>
      </trkpt>
      <trkpt lat="46.14544" lon="6.78346">
        <ele>1719.5999755859</ele>
        <time>2026-07-04T10:31:40.000Z</time>
      </trkpt>
      <trkpt lat="46.14543" lon="6.7835">
        <ele>1720.5999755859</ele>
        <time>2026-07-04T10:31:45.000Z</time>
      </trkpt>
      <trkpt lat="46.14544" lon="6.78355">
        <ele>1721.4000244141</ele>
        <time>2026-07-04T10:31:50.000Z</time>
      </trkpt>
      <trkpt lat="46.14544" lon="6.78357">
        <ele>1721.5999755859</ele>
        <time>2026-07-04T10:31:51.000Z</time>
      </trkpt>
      <trkpt lat="46.14543" lon="6.78365">
        <ele>1722.8000488281</ele>
        <time>2026-07-04T10:31:58.000Z</time>
      </trkpt>
      <trkpt lat="46.14543" lon="6.78368">
        <ele>1723.1999511719</ele>
        <time>2026-07-04T10:32:00.000Z</time>
      </trkpt>
      <trkpt lat="46.14543" lon="6.78372">
        <ele>1723.8000488281</ele>
        <time>2026-07-04T10:32:03.000Z</time>
      </trkpt>
      <trkpt lat="46.14543" lon="6.78377">
        <ele>1724.5999755859</ele>
        <time>2026-07-04T10:32:07.000Z</time>
      </trkpt>
      <trkpt lat="46.14543" lon="6.78379">
        <ele>1724.8000488281</ele>
        <time>2026-07-04T10:32:09.000Z</time>
      </trkpt>
      <trkpt lat="46.14543" lon="6.78389">
        <ele>1726</ele>
        <time>2026-07-04T10:32:16.000Z</time>
      </trkpt>
      <trkpt lat="46.14543" lon="6.7839">
        <ele>1726.1999511719</ele>
        <time>2026-07-04T10:32:17.000Z</time>
      </trkpt>
      <trkpt lat="46.14545" lon="6.78393">
        <ele>1727</ele>
        <time>2026-07-04T10:32:24.000Z</time>
      </trkpt>
      <trkpt lat="46.14545" lon="6.78393">
        <ele>1727.1999511719</ele>
        <time>2026-07-04T10:32:25.000Z</time>
      </trkpt>
      <trkpt lat="46.14548" lon="6.78394">
        <ele>1728</ele>
        <time>2026-07-04T10:32:28.000Z</time>
      </trkpt>
      <trkpt lat="46.14549" lon="6.78391">
        <ele>1728.5999755859</ele>
        <time>2026-07-04T10:32:32.000Z</time>
      </trkpt>
      <trkpt lat="46.1455" lon="6.7839">
        <ele>1729</ele>
        <time>2026-07-04T10:32:34.000Z</time>
      </trkpt>
      <trkpt lat="46.1455" lon="6.78389">
        <ele>1729.1999511719</ele>
        <time>2026-07-04T10:32:35.000Z</time>
      </trkpt>
      <trkpt lat="46.14551" lon="6.78386">
        <ele>1730</ele>
        <time>2026-07-04T10:32:39.000Z</time>
      </trkpt>
      <trkpt lat="46.14552" lon="6.78385">
        <ele>1730.1999511719</ele>
        <time>2026-07-04T10:32:40.000Z</time>
      </trkpt>
      <trkpt lat="46.14554" lon="6.78382">
        <ele>1730.8000488281</ele>
        <time>2026-07-04T10:32:43.000Z</time>
      </trkpt>
      <trkpt lat="46.14556" lon="6.7838">
        <ele>1731.4000244141</ele>
        <time>2026-07-04T10:32:46.000Z</time>
      </trkpt>
      <trkpt lat="46.1456" lon="6.78379">
        <ele>1732.1999511719</ele>
        <time>2026-07-04T10:32:51.000Z</time>
      </trkpt>
      <trkpt lat="46.14562" lon="6.7838">
        <ele>1732.4000244141</ele>
        <time>2026-07-04T10:32:53.000Z</time>
      </trkpt>
      <trkpt lat="46.14569" lon="6.78384">
        <ele>1733</ele>
        <time>2026-07-04T10:32:59.000Z</time>
      </trkpt>
      <trkpt lat="46.14571" lon="6.78387">
        <ele>1733.5999755859</ele>
        <time>2026-07-04T10:33:02.000Z</time>
      </trkpt>
      <trkpt lat="46.14574" lon="6.78391">
        <ele>1734.5999755859</ele>
        <time>2026-07-04T10:33:06.000Z</time>
      </trkpt>
      <trkpt lat="46.14578" lon="6.78395">
        <ele>1735.4000244141</ele>
        <time>2026-07-04T10:33:11.000Z</time>
      </trkpt>
      <trkpt lat="46.14579" lon="6.78397">
        <ele>1735.5999755859</ele>
        <time>2026-07-04T10:33:13.000Z</time>
      </trkpt>
      <trkpt lat="46.1458" lon="6.78398">
        <ele>1735.8000488281</ele>
        <time>2026-07-04T10:33:14.000Z</time>
      </trkpt>
      <trkpt lat="46.14581" lon="6.784">
        <ele>1736.8000488281</ele>
        <time>2026-07-04T10:33:18.000Z</time>
      </trkpt>
      <trkpt lat="46.14583" lon="6.78404">
        <ele>1737.4000244141</ele>
        <time>2026-07-04T10:33:22.000Z</time>
      </trkpt>
      <trkpt lat="46.14584" lon="6.78407">
        <ele>1737.8000488281</ele>
        <time>2026-07-04T10:33:26.000Z</time>
      </trkpt>
      <trkpt lat="46.14584" lon="6.78408">
        <ele>1738</ele>
        <time>2026-07-04T10:33:29.000Z</time>
      </trkpt>
      <trkpt lat="46.14584" lon="6.78406">
        <ele>1738</ele>
        <time>2026-07-04T10:33:34.000Z</time>
      </trkpt>
      <trkpt lat="46.14583" lon="6.78404">
        <ele>1738</ele>
        <time>2026-07-04T10:33:38.000Z</time>
      </trkpt>
      <trkpt lat="46.14585" lon="6.78403">
        <ele>1738.5999755859</ele>
        <time>2026-07-04T10:33:48.000Z</time>
      </trkpt>
      <trkpt lat="46.14586" lon="6.78404">
        <ele>1738.4000244141</ele>
        <time>2026-07-04T10:33:53.000Z</time>
      </trkpt>
      <trkpt lat="46.14585" lon="6.78405">
        <ele>1738.1999511719</ele>
        <time>2026-07-04T10:33:56.000Z</time>
      </trkpt>
      <trkpt lat="46.14585" lon="6.78406">
        <ele>1738.4000244141</ele>
        <time>2026-07-04T10:33:59.000Z</time>
      </trkpt>
      <trkpt lat="46.14585" lon="6.78406">
        <ele>1738.4000244141</ele>
        <time>2026-07-04T10:34:01.000Z</time>
      </trkpt>
      <trkpt lat="46.14585" lon="6.78406">
        <ele>1738.5999755859</ele>
        <time>2026-07-04T10:34:04.000Z</time>
      </trkpt>
      <trkpt lat="46.14585" lon="6.78406">
        <ele>1738.8000488281</ele>
        <time>2026-07-04T10:34:07.000Z</time>
      </trkpt>
      <trkpt lat="46.14583" lon="6.78404">
        <ele>1738.5999755859</ele>
        <time>2026-07-04T10:34:11.000Z</time>
      </trkpt>
      <trkpt lat="46.1458" lon="6.78402">
        <ele>1738.4000244141</ele>
        <time>2026-07-04T10:34:17.000Z</time>
      </trkpt>
      <trkpt lat="46.14579" lon="6.78402">
        <ele>1738.4000244141</ele>
        <time>2026-07-04T10:34:22.000Z</time>
      </trkpt>
      <trkpt lat="46.14579" lon="6.78406">
        <ele>1738.4000244141</ele>
        <time>2026-07-04T10:34:32.000Z</time>
      </trkpt>
      <trkpt lat="46.14579" lon="6.78407">
        <ele>1738.4000244141</ele>
        <time>2026-07-04T10:34:34.000Z</time>
      </trkpt>
      <trkpt lat="46.14578" lon="6.78407">
        <ele>1738.4000244141</ele>
        <time>2026-07-04T10:34:36.000Z</time>
      </trkpt>
      <trkpt lat="46.14578" lon="6.78408">
        <ele>1738.4000244141</ele>
        <time>2026-07-04T10:34:42.000Z</time>
      </trkpt>
      <trkpt lat="46.14577" lon="6.78409">
        <ele>1738.4000244141</ele>
        <time>2026-07-04T10:34:44.000Z</time>
      </trkpt>
      <trkpt lat="46.14574" lon="6.78411">
        <ele>1738.4000244141</ele>
        <time>2026-07-04T10:34:54.000Z</time>
      </trkpt>
      <trkpt lat="46.14576" lon="6.78403">
        <ele>1738.1999511719</ele>
        <time>2026-07-04T10:35:01.000Z</time>
      </trkpt>
      <trkpt lat="46.14579" lon="6.78405">
        <ele>1738</ele>
        <time>2026-07-04T10:35:12.000Z</time>
      </trkpt>
      <trkpt lat="46.14582" lon="6.78405">
        <ele>1738.5999755859</ele>
        <time>2026-07-04T10:35:20.000Z</time>
      </trkpt>
      <trkpt lat="46.14582" lon="6.78405">
        <ele>1738.4000244141</ele>
        <time>2026-07-04T10:35:21.000Z</time>
      </trkpt>
      <trkpt lat="46.14582" lon="6.78405">
        <ele>1738.5999755859</ele>
        <time>2026-07-04T10:35:22.000Z</time>
      </trkpt>
      <trkpt lat="46.14581" lon="6.78406">
        <ele>1738.4000244141</ele>
        <time>2026-07-04T10:35:25.000Z</time>
      </trkpt>
      <trkpt lat="46.1458" lon="6.78406">
        <ele>1738.4000244141</ele>
        <time>2026-07-04T10:35:28.000Z</time>
      </trkpt>
      <trkpt lat="46.14579" lon="6.78406">
        <ele>1738.4000244141</ele>
        <time>2026-07-04T10:35:32.000Z</time>
      </trkpt>
      <trkpt lat="46.14577" lon="6.78405">
        <ele>1738.1999511719</ele>
        <time>2026-07-04T10:35:45.000Z</time>
      </trkpt>
      <trkpt lat="46.14581" lon="6.78402">
        <ele>1738.1999511719</ele>
        <time>2026-07-04T10:35:56.000Z</time>
      </trkpt>
      <trkpt lat="46.14582" lon="6.784">
        <ele>1738</ele>
        <time>2026-07-04T10:36:01.000Z</time>
      </trkpt>
      <trkpt lat="46.1458" lon="6.784">
        <ele>1738.4000244141</ele>
        <time>2026-07-04T10:36:06.000Z</time>
      </trkpt>
      <trkpt lat="46.1458" lon="6.78399">
        <ele>1737.8000488281</ele>
        <time>2026-07-04T10:36:15.000Z</time>
      </trkpt>
      <trkpt lat="46.1458" lon="6.78401">
        <ele>1737.5999755859</ele>
        <time>2026-07-04T10:36:17.000Z</time>
      </trkpt>
      <trkpt lat="46.14579" lon="6.78402">
        <ele>1738.1999511719</ele>
        <time>2026-07-04T10:36:30.000Z</time>
      </trkpt>
      <trkpt lat="46.14581" lon="6.78405">
        <ele>1738.5999755859</ele>
        <time>2026-07-04T10:36:38.000Z</time>
      </trkpt>
      <trkpt lat="46.14583" lon="6.78409">
        <ele>1738.5999755859</ele>
        <time>2026-07-04T10:36:44.000Z</time>
      </trkpt>
      <trkpt lat="46.14583" lon="6.78409">
        <ele>1738.5999755859</ele>
        <time>2026-07-04T10:36:45.000Z</time>
      </trkpt>
      <trkpt lat="46.14584" lon="6.78408">
        <ele>1738.5999755859</ele>
        <time>2026-07-04T10:36:47.000Z</time>
      </trkpt>
      <trkpt lat="46.14584" lon="6.78408">
        <ele>1738.5999755859</ele>
        <time>2026-07-04T10:36:48.000Z</time>
      </trkpt>
      <trkpt lat="46.14584" lon="6.78407">
        <ele>1738.5999755859</ele>
        <time>2026-07-04T10:36:51.000Z</time>
      </trkpt>
      <trkpt lat="46.14583" lon="6.78406">
        <ele>1738.4000244141</ele>
        <time>2026-07-04T10:36:55.000Z</time>
      </trkpt>
      <trkpt lat="46.14583" lon="6.78404">
        <ele>1738.5999755859</ele>
        <time>2026-07-04T10:36:58.000Z</time>
      </trkpt>
      <trkpt lat="46.14582" lon="6.78402">
        <ele>1738.5999755859</ele>
        <time>2026-07-04T10:37:00.000Z</time>
      </trkpt>
      <trkpt lat="46.14582" lon="6.78401">
        <ele>1738.4000244141</ele>
        <time>2026-07-04T10:37:05.000Z</time>
      </trkpt>
      <trkpt lat="46.14582" lon="6.78402">
        <ele>1738.5999755859</ele>
        <time>2026-07-04T10:37:12.000Z</time>
      </trkpt>
      <trkpt lat="46.14582" lon="6.78409">
        <ele>1738.8000488281</ele>
        <time>2026-07-04T10:37:25.000Z</time>
      </trkpt>
      <trkpt lat="46.14582" lon="6.78411">
        <ele>1738.5999755859</ele>
        <time>2026-07-04T10:37:29.000Z</time>
      </trkpt>
      <trkpt lat="46.1458" lon="6.78407">
        <ele>1738.1999511719</ele>
        <time>2026-07-04T10:37:37.000Z</time>
      </trkpt>
      <trkpt lat="46.1458" lon="6.78405">
        <ele>1738</ele>
        <time>2026-07-04T10:37:46.000Z</time>
      </trkpt>
      <trkpt lat="46.14579" lon="6.78402">
        <ele>1737.5999755859</ele>
        <time>2026-07-04T10:37:59.000Z</time>
      </trkpt>
      <trkpt lat="46.14575" lon="6.78402">
        <ele>1738</ele>
        <time>2026-07-04T10:38:08.000Z</time>
      </trkpt>
      <trkpt lat="46.14571" lon="6.78399">
        <ele>1738.1999511719</ele>
        <time>2026-07-04T10:38:17.000Z</time>
      </trkpt>
      <trkpt lat="46.14574" lon="6.78398">
        <ele>1738.4000244141</ele>
        <time>2026-07-04T10:38:22.000Z</time>
      </trkpt>
      <trkpt lat="46.14576" lon="6.78399">
        <ele>1738.1999511719</ele>
        <time>2026-07-04T10:38:26.000Z</time>
      </trkpt>
      <trkpt lat="46.14579" lon="6.78399">
        <ele>1737.5999755859</ele>
        <time>2026-07-04T10:38:34.000Z</time>
      </trkpt>
      <trkpt lat="46.14579" lon="6.78408">
        <ele>1737.8000488281</ele>
        <time>2026-07-04T10:38:42.000Z</time>
      </trkpt>
      <trkpt lat="46.14579" lon="6.78409">
        <ele>1737.8000488281</ele>
        <time>2026-07-04T10:38:43.000Z</time>
      </trkpt>
      <trkpt lat="46.14579" lon="6.784">
        <ele>1737.8000488281</ele>
        <time>2026-07-04T10:38:54.000Z</time>
      </trkpt>
      <trkpt lat="46.14583" lon="6.784">
        <ele>1737.5999755859</ele>
        <time>2026-07-04T10:39:06.000Z</time>
      </trkpt>
      <trkpt lat="46.14581" lon="6.78399">
        <ele>1737.4000244141</ele>
        <time>2026-07-04T10:39:09.000Z</time>
      </trkpt>
      <trkpt lat="46.14581" lon="6.78398">
        <ele>1737.1999511719</ele>
        <time>2026-07-04T10:39:16.000Z</time>
      </trkpt>
      <trkpt lat="46.14584" lon="6.78406">
        <ele>1737.5999755859</ele>
        <time>2026-07-04T10:39:25.000Z</time>
      </trkpt>
      <trkpt lat="46.14585" lon="6.7841">
        <ele>1737.5999755859</ele>
        <time>2026-07-04T10:39:28.000Z</time>
      </trkpt>
      <trkpt lat="46.14588" lon="6.78419">
        <ele>1738</ele>
        <time>2026-07-04T10:39:35.000Z</time>
      </trkpt>
      <trkpt lat="46.1459" lon="6.78428">
        <ele>1738.8000488281</ele>
        <time>2026-07-04T10:39:43.000Z</time>
      </trkpt>
      <trkpt lat="46.14591" lon="6.78431">
        <ele>1739</ele>
        <time>2026-07-04T10:39:46.000Z</time>
      </trkpt>
      <trkpt lat="46.14592" lon="6.78435">
        <ele>1739.4000244141</ele>
        <time>2026-07-04T10:39:50.000Z</time>
      </trkpt>
      <trkpt lat="46.14593" lon="6.78438">
        <ele>1739.8000488281</ele>
        <time>2026-07-04T10:39:53.000Z</time>
      </trkpt>
      <trkpt lat="46.14593" lon="6.78439">
        <ele>1740.1999511719</ele>
        <time>2026-07-04T10:39:55.000Z</time>
      </trkpt>
      <trkpt lat="46.14594" lon="6.7844">
        <ele>1740.4000244141</ele>
        <time>2026-07-04T10:39:56.000Z</time>
      </trkpt>
      <trkpt lat="46.14595" lon="6.78445">
        <ele>1740.8000488281</ele>
        <time>2026-07-04T10:40:01.000Z</time>
      </trkpt>
      <trkpt lat="46.14596" lon="6.78446">
        <ele>1740.8000488281</ele>
        <time>2026-07-04T10:40:02.000Z</time>
      </trkpt>
      <trkpt lat="46.14596" lon="6.78447">
        <ele>1740.8000488281</ele>
        <time>2026-07-04T10:40:03.000Z</time>
      </trkpt>
      <trkpt lat="46.14598" lon="6.78455">
        <ele>1742</ele>
        <time>2026-07-04T10:40:10.000Z</time>
      </trkpt>
      <trkpt lat="46.14598" lon="6.78457">
        <ele>1742.1999511719</ele>
        <time>2026-07-04T10:40:12.000Z</time>
      </trkpt>
      <trkpt lat="46.14599" lon="6.78459">
        <ele>1742.4000244141</ele>
        <time>2026-07-04T10:40:16.000Z</time>
      </trkpt>
      <trkpt lat="46.14601" lon="6.78464">
        <ele>1743.1999511719</ele>
        <time>2026-07-04T10:40:21.000Z</time>
      </trkpt>
      <trkpt lat="46.14601" lon="6.78464">
        <ele>1743.1999511719</ele>
        <time>2026-07-04T10:40:22.000Z</time>
      </trkpt>
      <trkpt lat="46.14602" lon="6.78469">
        <ele>1744</ele>
        <time>2026-07-04T10:40:26.000Z</time>
      </trkpt>
      <trkpt lat="46.14602" lon="6.7847">
        <ele>1744.1999511719</ele>
        <time>2026-07-04T10:40:27.000Z</time>
      </trkpt>
      <trkpt lat="46.14602" lon="6.78471">
        <ele>1744.5999755859</ele>
        <time>2026-07-04T10:40:29.000Z</time>
      </trkpt>
      <trkpt lat="46.14603" lon="6.78476">
        <ele>1745.4000244141</ele>
        <time>2026-07-04T10:40:34.000Z</time>
      </trkpt>
      <trkpt lat="46.14605" lon="6.7848">
        <ele>1746</ele>
        <time>2026-07-04T10:40:37.000Z</time>
      </trkpt>
      <trkpt lat="46.14606" lon="6.78482">
        <ele>1746.4000244141</ele>
        <time>2026-07-04T10:40:39.000Z</time>
      </trkpt>
      <trkpt lat="46.14607" lon="6.78487">
        <ele>1747</ele>
        <time>2026-07-04T10:40:44.000Z</time>
      </trkpt>
      <trkpt lat="46.14607" lon="6.78489">
        <ele>1747</ele>
        <time>2026-07-04T10:40:45.000Z</time>
      </trkpt>
      <trkpt lat="46.14608" lon="6.78493">
        <ele>1747.4000244141</ele>
        <time>2026-07-04T10:40:49.000Z</time>
      </trkpt>
      <trkpt lat="46.1461" lon="6.78497">
        <ele>1748</ele>
        <time>2026-07-04T10:40:53.000Z</time>
      </trkpt>
      <trkpt lat="46.14611" lon="6.78503">
        <ele>1748.4000244141</ele>
        <time>2026-07-04T10:40:58.000Z</time>
      </trkpt>
      <trkpt lat="46.14612" lon="6.78505">
        <ele>1748.5999755859</ele>
        <time>2026-07-04T10:40:59.000Z</time>
      </trkpt>
      <trkpt lat="46.14613" lon="6.78509">
        <ele>1749</ele>
        <time>2026-07-04T10:41:02.000Z</time>
      </trkpt>
      <trkpt lat="46.14614" lon="6.78514">
        <ele>1749.8000488281</ele>
        <time>2026-07-04T10:41:07.000Z</time>
      </trkpt>
      <trkpt lat="46.14613" lon="6.78517">
        <ele>1750</ele>
        <time>2026-07-04T10:41:10.000Z</time>
      </trkpt>
      <trkpt lat="46.14614" lon="6.78527">
        <ele>1750.4000244141</ele>
        <time>2026-07-04T10:41:18.000Z</time>
      </trkpt>
      <trkpt lat="46.14614" lon="6.78529">
        <ele>1750.4000244141</ele>
        <time>2026-07-04T10:41:20.000Z</time>
      </trkpt>
      <trkpt lat="46.14615" lon="6.78532">
        <ele>1750.8000488281</ele>
        <time>2026-07-04T10:41:22.000Z</time>
      </trkpt>
      <trkpt lat="46.14616" lon="6.78539">
        <ele>1751.4000244141</ele>
        <time>2026-07-04T10:41:29.000Z</time>
      </trkpt>
      <trkpt lat="46.14617" lon="6.78541">
        <ele>1751.8000488281</ele>
        <time>2026-07-04T10:41:32.000Z</time>
      </trkpt>
      <trkpt lat="46.14616" lon="6.78542">
        <ele>1752</ele>
        <time>2026-07-04T10:41:35.000Z</time>
      </trkpt>
      <trkpt lat="46.14616" lon="6.78543">
        <ele>1752</ele>
        <time>2026-07-04T10:41:37.000Z</time>
      </trkpt>
      <trkpt lat="46.14615" lon="6.78551">
        <ele>1752.4000244141</ele>
        <time>2026-07-04T10:41:42.000Z</time>
      </trkpt>
      <trkpt lat="46.14615" lon="6.78554">
        <ele>1752.8000488281</ele>
        <time>2026-07-04T10:41:44.000Z</time>
      </trkpt>
      <trkpt lat="46.14616" lon="6.78561">
        <ele>1754</ele>
        <time>2026-07-04T10:41:50.000Z</time>
      </trkpt>
      <trkpt lat="46.14616" lon="6.78563">
        <ele>1754.1999511719</ele>
        <time>2026-07-04T10:41:51.000Z</time>
      </trkpt>
      <trkpt lat="46.14617" lon="6.78572">
        <ele>1755</ele>
        <time>2026-07-04T10:41:57.000Z</time>
      </trkpt>
      <trkpt lat="46.14618" lon="6.78574">
        <ele>1755.4000244141</ele>
        <time>2026-07-04T10:41:59.000Z</time>
      </trkpt>
      <trkpt lat="46.14618" lon="6.78578">
        <ele>1756.1999511719</ele>
        <time>2026-07-04T10:42:03.000Z</time>
      </trkpt>
      <trkpt lat="46.14619" lon="6.78581">
        <ele>1756.5999755859</ele>
        <time>2026-07-04T10:42:07.000Z</time>
      </trkpt>
      <trkpt lat="46.1462" lon="6.78584">
        <ele>1757</ele>
        <time>2026-07-04T10:42:10.000Z</time>
      </trkpt>
      <trkpt lat="46.1462" lon="6.78586">
        <ele>1757.5999755859</ele>
        <time>2026-07-04T10:42:12.000Z</time>
      </trkpt>
      <trkpt lat="46.14621" lon="6.7859">
        <ele>1758.1999511719</ele>
        <time>2026-07-04T10:42:15.000Z</time>
      </trkpt>
      <trkpt lat="46.14621" lon="6.78593">
        <ele>1758.5999755859</ele>
        <time>2026-07-04T10:42:17.000Z</time>
      </trkpt>
      <trkpt lat="46.14623" lon="6.786">
        <ele>1760</ele>
        <time>2026-07-04T10:42:22.000Z</time>
      </trkpt>
      <trkpt lat="46.14623" lon="6.78601">
        <ele>1760.1999511719</ele>
        <time>2026-07-04T10:42:23.000Z</time>
      </trkpt>
      <trkpt lat="46.14624" lon="6.78605">
        <ele>1761</ele>
        <time>2026-07-04T10:42:26.000Z</time>
      </trkpt>
      <trkpt lat="46.14626" lon="6.78612">
        <ele>1762</ele>
        <time>2026-07-04T10:42:31.000Z</time>
      </trkpt>
      <trkpt lat="46.14626" lon="6.78613">
        <ele>1762.1999511719</ele>
        <time>2026-07-04T10:42:32.000Z</time>
      </trkpt>
      <trkpt lat="46.1463" lon="6.78621">
        <ele>1763.1999511719</ele>
        <time>2026-07-04T10:42:38.000Z</time>
      </trkpt>
      <trkpt lat="46.1463" lon="6.78622">
        <ele>1763.1999511719</ele>
        <time>2026-07-04T10:42:39.000Z</time>
      </trkpt>
      <trkpt lat="46.14633" lon="6.78633">
        <ele>1764.1999511719</ele>
        <time>2026-07-04T10:42:46.000Z</time>
      </trkpt>
      <trkpt lat="46.14633" lon="6.78635">
        <ele>1764.4000244141</ele>
        <time>2026-07-04T10:42:47.000Z</time>
      </trkpt>
      <trkpt lat="46.14633" lon="6.78638">
        <ele>1765.1999511719</ele>
        <time>2026-07-04T10:42:50.000Z</time>
      </trkpt>
      <trkpt lat="46.14633" lon="6.78645">
        <ele>1766.4000244141</ele>
        <time>2026-07-04T10:42:55.000Z</time>
      </trkpt>
      <trkpt lat="46.14634" lon="6.78651">
        <ele>1767.1999511719</ele>
        <time>2026-07-04T10:42:59.000Z</time>
      </trkpt>
      <trkpt lat="46.14634" lon="6.78652">
        <ele>1767.4000244141</ele>
        <time>2026-07-04T10:43:00.000Z</time>
      </trkpt>
      <trkpt lat="46.14636" lon="6.78661">
        <ele>1768.5999755859</ele>
        <time>2026-07-04T10:43:06.000Z</time>
      </trkpt>
      <trkpt lat="46.14636" lon="6.78664">
        <ele>1769</ele>
        <time>2026-07-04T10:43:09.000Z</time>
      </trkpt>
      <trkpt lat="46.14636" lon="6.78671">
        <ele>1769.8000488281</ele>
        <time>2026-07-04T10:43:14.000Z</time>
      </trkpt>
      <trkpt lat="46.14637" lon="6.78675">
        <ele>1771</ele>
        <time>2026-07-04T10:43:18.000Z</time>
      </trkpt>
      <trkpt lat="46.14638" lon="6.78678">
        <ele>1771.4000244141</ele>
        <time>2026-07-04T10:43:20.000Z</time>
      </trkpt>
      <trkpt lat="46.14639" lon="6.78682">
        <ele>1772</ele>
        <time>2026-07-04T10:43:23.000Z</time>
      </trkpt>
      <trkpt lat="46.14639" lon="6.7869">
        <ele>1773.1999511719</ele>
        <time>2026-07-04T10:43:29.000Z</time>
      </trkpt>
      <trkpt lat="46.14639" lon="6.78692">
        <ele>1773.4000244141</ele>
        <time>2026-07-04T10:43:30.000Z</time>
      </trkpt>
      <trkpt lat="46.1464" lon="6.78698">
        <ele>1774.4000244141</ele>
        <time>2026-07-04T10:43:35.000Z</time>
      </trkpt>
      <trkpt lat="46.1464" lon="6.78701">
        <ele>1774.8000488281</ele>
        <time>2026-07-04T10:43:37.000Z</time>
      </trkpt>
      <trkpt lat="46.1464" lon="6.78702">
        <ele>1775</ele>
        <time>2026-07-04T10:43:38.000Z</time>
      </trkpt>
      <trkpt lat="46.1464" lon="6.78705">
        <ele>1775.4000244141</ele>
        <time>2026-07-04T10:43:40.000Z</time>
      </trkpt>
      <trkpt lat="46.1464" lon="6.78709">
        <ele>1776.5999755859</ele>
        <time>2026-07-04T10:43:46.000Z</time>
      </trkpt>
      <trkpt lat="46.14638" lon="6.78711">
        <ele>1776.8000488281</ele>
        <time>2026-07-04T10:43:57.000Z</time>
      </trkpt>
      <trkpt lat="46.14639" lon="6.78711">
        <ele>1776.5999755859</ele>
        <time>2026-07-04T10:44:04.000Z</time>
      </trkpt>
      <trkpt lat="46.14639" lon="6.78715">
        <ele>1776.8000488281</ele>
        <time>2026-07-04T10:44:07.000Z</time>
      </trkpt>
      <trkpt lat="46.14639" lon="6.7872">
        <ele>1777.5999755859</ele>
        <time>2026-07-04T10:44:10.000Z</time>
      </trkpt>
      <trkpt lat="46.1464" lon="6.78726">
        <ele>1778.8000488281</ele>
        <time>2026-07-04T10:44:15.000Z</time>
      </trkpt>
      <trkpt lat="46.1464" lon="6.78728">
        <ele>1779.1999511719</ele>
        <time>2026-07-04T10:44:16.000Z</time>
      </trkpt>
      <trkpt lat="46.14641" lon="6.78734">
        <ele>1780</ele>
        <time>2026-07-04T10:44:19.000Z</time>
      </trkpt>
      <trkpt lat="46.14642" lon="6.7874">
        <ele>1781.1999511719</ele>
        <time>2026-07-04T10:44:23.000Z</time>
      </trkpt>
      <trkpt lat="46.14642" lon="6.7874">
        <ele>1781.4000244141</ele>
        <time>2026-07-04T10:44:24.000Z</time>
      </trkpt>
      <trkpt lat="46.14643" lon="6.78744">
        <ele>1782.1999511719</ele>
        <time>2026-07-04T10:44:27.000Z</time>
      </trkpt>
      <trkpt lat="46.14644" lon="6.78749">
        <ele>1783.4000244141</ele>
        <time>2026-07-04T10:44:31.000Z</time>
      </trkpt>
      <trkpt lat="46.14644" lon="6.7875">
        <ele>1783.8000488281</ele>
        <time>2026-07-04T10:44:32.000Z</time>
      </trkpt>
      <trkpt lat="46.14645" lon="6.78756">
        <ele>1784.5999755859</ele>
        <time>2026-07-04T10:44:36.000Z</time>
      </trkpt>
      <trkpt lat="46.14645" lon="6.78761">
        <ele>1785.5999755859</ele>
        <time>2026-07-04T10:44:40.000Z</time>
      </trkpt>
      <trkpt lat="46.14645" lon="6.78762">
        <ele>1785.8000488281</ele>
        <time>2026-07-04T10:44:41.000Z</time>
      </trkpt>
      <trkpt lat="46.14645" lon="6.78767">
        <ele>1786.5999755859</ele>
        <time>2026-07-04T10:44:48.000Z</time>
      </trkpt>
      <trkpt lat="46.14643" lon="6.78774">
        <ele>1787.5999755859</ele>
        <time>2026-07-04T10:44:58.000Z</time>
      </trkpt>
      <trkpt lat="46.14642" lon="6.78774">
        <ele>1787.5999755859</ele>
        <time>2026-07-04T10:44:59.000Z</time>
      </trkpt>
      <trkpt lat="46.14642" lon="6.78774">
        <ele>1787.4000244141</ele>
        <time>2026-07-04T10:45:05.000Z</time>
      </trkpt>
      <trkpt lat="46.14643" lon="6.78774">
        <ele>1787</ele>
        <time>2026-07-04T10:45:08.000Z</time>
      </trkpt>
      <trkpt lat="46.14643" lon="6.78775">
        <ele>1787.1999511719</ele>
        <time>2026-07-04T10:45:13.000Z</time>
      </trkpt>
      <trkpt lat="46.14643" lon="6.78774">
        <ele>1787</ele>
        <time>2026-07-04T10:45:18.000Z</time>
      </trkpt>
      <trkpt lat="46.14643" lon="6.78774">
        <ele>1787.1999511719</ele>
        <time>2026-07-04T10:45:21.000Z</time>
      </trkpt>
      <trkpt lat="46.14643" lon="6.78774">
        <ele>1787.1999511719</ele>
        <time>2026-07-04T10:45:23.000Z</time>
      </trkpt>
      <trkpt lat="46.14643" lon="6.78775">
        <ele>1787.4000244141</ele>
        <time>2026-07-04T10:45:26.000Z</time>
      </trkpt>
      <trkpt lat="46.14643" lon="6.78774">
        <ele>1787.8000488281</ele>
        <time>2026-07-04T10:45:31.000Z</time>
      </trkpt>
      <trkpt lat="46.14643" lon="6.78773">
        <ele>1787.4000244141</ele>
        <time>2026-07-04T10:45:40.000Z</time>
      </trkpt>
      <trkpt lat="46.14643" lon="6.78771">
        <ele>1787</ele>
        <time>2026-07-04T10:45:46.000Z</time>
      </trkpt>
      <trkpt lat="46.14644" lon="6.78774">
        <ele>1787.1999511719</ele>
        <time>2026-07-04T10:45:53.000Z</time>
      </trkpt>
      <trkpt lat="46.14644" lon="6.78775">
        <ele>1787</ele>
        <time>2026-07-04T10:45:56.000Z</time>
      </trkpt>
      <trkpt lat="46.14645" lon="6.7878">
        <ele>1788.5999755859</ele>
        <time>2026-07-04T10:46:04.000Z</time>
      </trkpt>
      <trkpt lat="46.14645" lon="6.78785">
        <ele>1789.5999755859</ele>
        <time>2026-07-04T10:46:08.000Z</time>
      </trkpt>
      <trkpt lat="46.14647" lon="6.78791">
        <ele>1790.8000488281</ele>
        <time>2026-07-04T10:46:14.000Z</time>
      </trkpt>
      <trkpt lat="46.14651" lon="6.78795">
        <ele>1792</ele>
        <time>2026-07-04T10:46:19.000Z</time>
      </trkpt>
      <trkpt lat="46.14653" lon="6.78795">
        <ele>1793</ele>
        <time>2026-07-04T10:46:21.000Z</time>
      </trkpt>
      <trkpt lat="46.14654" lon="6.78795">
        <ele>1793.1999511719</ele>
        <time>2026-07-04T10:46:22.000Z</time>
      </trkpt>
      <trkpt lat="46.14656" lon="6.78796">
        <ele>1793.5999755859</ele>
        <time>2026-07-04T10:46:26.000Z</time>
      </trkpt>
      <trkpt lat="46.14658" lon="6.78797">
        <ele>1793.5999755859</ele>
        <time>2026-07-04T10:46:29.000Z</time>
      </trkpt>
      <trkpt lat="46.14665" lon="6.78801">
        <ele>1794.4000244141</ele>
        <time>2026-07-04T10:46:36.000Z</time>
      </trkpt>
      <trkpt lat="46.14666" lon="6.78801">
        <ele>1794.4000244141</ele>
        <time>2026-07-04T10:46:37.000Z</time>
      </trkpt>
      <trkpt lat="46.14666" lon="6.78801">
        <ele>1795</ele>
        <time>2026-07-04T10:46:44.000Z</time>
      </trkpt>
      <trkpt lat="46.14667" lon="6.78801">
        <ele>1795</ele>
        <time>2026-07-04T10:46:45.000Z</time>
      </trkpt>
      <trkpt lat="46.14667" lon="6.788">
        <ele>1794</ele>
        <time>2026-07-04T10:46:54.000Z</time>
      </trkpt>
      <trkpt lat="46.14667" lon="6.788">
        <ele>1794</ele>
        <time>2026-07-04T10:46:57.000Z</time>
      </trkpt>
      <trkpt lat="46.14667" lon="6.788">
        <ele>1794</ele>
        <time>2026-07-04T10:46:59.000Z</time>
      </trkpt>
      <trkpt lat="46.14667" lon="6.788">
        <ele>1794</ele>
        <time>2026-07-04T10:47:03.000Z</time>
      </trkpt>
      <trkpt lat="46.14669" lon="6.78804">
        <ele>1794.4000244141</ele>
        <time>2026-07-04T10:47:09.000Z</time>
      </trkpt>
      <trkpt lat="46.14673" lon="6.78808">
        <ele>1795.5999755859</ele>
        <time>2026-07-04T10:47:13.000Z</time>
      </trkpt>
      <trkpt lat="46.14676" lon="6.78811">
        <ele>1796.4000244141</ele>
        <time>2026-07-04T10:47:17.000Z</time>
      </trkpt>
      <trkpt lat="46.14677" lon="6.78812">
        <ele>1796.5999755859</ele>
        <time>2026-07-04T10:47:18.000Z</time>
      </trkpt>
      <trkpt lat="46.14681" lon="6.78819">
        <ele>1797.8000488281</ele>
        <time>2026-07-04T10:47:25.000Z</time>
      </trkpt>
      <trkpt lat="46.14682" lon="6.78821">
        <ele>1797.8000488281</ele>
        <time>2026-07-04T10:47:26.000Z</time>
      </trkpt>
      <trkpt lat="46.14685" lon="6.78829">
        <ele>1798.8000488281</ele>
        <time>2026-07-04T10:47:33.000Z</time>
      </trkpt>
      <trkpt lat="46.14685" lon="6.78829">
        <ele>1799</ele>
        <time>2026-07-04T10:47:34.000Z</time>
      </trkpt>
      <trkpt lat="46.14686" lon="6.78833">
        <ele>1800</ele>
        <time>2026-07-04T10:47:37.000Z</time>
      </trkpt>
      <trkpt lat="46.14686" lon="6.78838">
        <ele>1800.8000488281</ele>
        <time>2026-07-04T10:47:40.000Z</time>
      </trkpt>
      <trkpt lat="46.14686" lon="6.78839">
        <ele>1801</ele>
        <time>2026-07-04T10:47:41.000Z</time>
      </trkpt>
      <trkpt lat="46.14687" lon="6.78846">
        <ele>1802</ele>
        <time>2026-07-04T10:47:46.000Z</time>
      </trkpt>
      <trkpt lat="46.14687" lon="6.78849">
        <ele>1802.8000488281</ele>
        <time>2026-07-04T10:47:48.000Z</time>
      </trkpt>
      <trkpt lat="46.14687" lon="6.78849">
        <ele>1803.1999511719</ele>
        <time>2026-07-04T10:47:50.000Z</time>
      </trkpt>
      <trkpt lat="46.14688" lon="6.7885">
        <ele>1803.1999511719</ele>
        <time>2026-07-04T10:47:54.000Z</time>
      </trkpt>
      <trkpt lat="46.14688" lon="6.78851">
        <ele>1803.5999755859</ele>
        <time>2026-07-04T10:47:56.000Z</time>
      </trkpt>
      <trkpt lat="46.14689" lon="6.78853">
        <ele>1804.1999511719</ele>
        <time>2026-07-04T10:47:58.000Z</time>
      </trkpt>
      <trkpt lat="46.14691" lon="6.78857">
        <ele>1805.4000244141</ele>
        <time>2026-07-04T10:48:03.000Z</time>
      </trkpt>
      <trkpt lat="46.14691" lon="6.78857">
        <ele>1805.5999755859</ele>
        <time>2026-07-04T10:48:04.000Z</time>
      </trkpt>
      <trkpt lat="46.14692" lon="6.78862">
        <ele>1806.4000244141</ele>
        <time>2026-07-04T10:48:10.000Z</time>
      </trkpt>
      <trkpt lat="46.14692" lon="6.78864">
        <ele>1806.8000488281</ele>
        <time>2026-07-04T10:48:12.000Z</time>
      </trkpt>
      <trkpt lat="46.14693" lon="6.78866">
        <ele>1807.5999755859</ele>
        <time>2026-07-04T10:48:15.000Z</time>
      </trkpt>
      <trkpt lat="46.14694" lon="6.78869">
        <ele>1808.8000488281</ele>
        <time>2026-07-04T10:48:19.000Z</time>
      </trkpt>
      <trkpt lat="46.14695" lon="6.78871">
        <ele>1809</ele>
        <time>2026-07-04T10:48:21.000Z</time>
      </trkpt>
      <trkpt lat="46.14698" lon="6.78873">
        <ele>1809.8000488281</ele>
        <time>2026-07-04T10:48:25.000Z</time>
      </trkpt>
      <trkpt lat="46.147" lon="6.78876">
        <ele>1810.8000488281</ele>
        <time>2026-07-04T10:48:29.000Z</time>
      </trkpt>
      <trkpt lat="46.14701" lon="6.78876">
        <ele>1811</ele>
        <time>2026-07-04T10:48:30.000Z</time>
      </trkpt>
      <trkpt lat="46.14708" lon="6.78876">
        <ele>1812</ele>
        <time>2026-07-04T10:48:37.000Z</time>
      </trkpt>
      <trkpt lat="46.14713" lon="6.78877">
        <ele>1813.1999511719</ele>
        <time>2026-07-04T10:48:44.000Z</time>
      </trkpt>
      <trkpt lat="46.14717" lon="6.78881">
        <ele>1814.1999511719</ele>
        <time>2026-07-04T10:48:50.000Z</time>
      </trkpt>
      <trkpt lat="46.14719" lon="6.78884">
        <ele>1815</ele>
        <time>2026-07-04T10:48:54.000Z</time>
      </trkpt>
      <trkpt lat="46.1472" lon="6.78885">
        <ele>1815.1999511719</ele>
        <time>2026-07-04T10:48:55.000Z</time>
      </trkpt>
      <trkpt lat="46.1472" lon="6.78886">
        <ele>1815.4000244141</ele>
        <time>2026-07-04T10:48:56.000Z</time>
      </trkpt>
      <trkpt lat="46.14723" lon="6.78889">
        <ele>1816.5999755859</ele>
        <time>2026-07-04T10:49:00.000Z</time>
      </trkpt>
      <trkpt lat="46.14724" lon="6.78892">
        <ele>1817</ele>
        <time>2026-07-04T10:49:03.000Z</time>
      </trkpt>
      <trkpt lat="46.14725" lon="6.78894">
        <ele>1817.5999755859</ele>
        <time>2026-07-04T10:49:06.000Z</time>
      </trkpt>
      <trkpt lat="46.14726" lon="6.78899">
        <ele>1818.1999511719</ele>
        <time>2026-07-04T10:49:10.000Z</time>
      </trkpt>
      <trkpt lat="46.14727" lon="6.78903">
        <ele>1818.8000488281</ele>
        <time>2026-07-04T10:49:14.000Z</time>
      </trkpt>
      <trkpt lat="46.14729" lon="6.78907">
        <ele>1819.5999755859</ele>
        <time>2026-07-04T10:49:19.000Z</time>
      </trkpt>
      <trkpt lat="46.14729" lon="6.78907">
        <ele>1819.8000488281</ele>
        <time>2026-07-04T10:49:20.000Z</time>
      </trkpt>
      <trkpt lat="46.14732" lon="6.78912">
        <ele>1820.8000488281</ele>
        <time>2026-07-04T10:49:26.000Z</time>
      </trkpt>
      <trkpt lat="46.14733" lon="6.78913">
        <ele>1821.1999511719</ele>
        <time>2026-07-04T10:49:28.000Z</time>
      </trkpt>
      <trkpt lat="46.14735" lon="6.78915">
        <ele>1822</ele>
        <time>2026-07-04T10:49:31.000Z</time>
      </trkpt>
      <trkpt lat="46.14737" lon="6.78917">
        <ele>1822.4000244141</ele>
        <time>2026-07-04T10:49:33.000Z</time>
      </trkpt>
      <trkpt lat="46.14738" lon="6.78918">
        <ele>1822.8000488281</ele>
        <time>2026-07-04T10:49:36.000Z</time>
      </trkpt>
      <trkpt lat="46.1474" lon="6.7892">
        <ele>1823.1999511719</ele>
        <time>2026-07-04T10:49:39.000Z</time>
      </trkpt>
      <trkpt lat="46.14743" lon="6.78924">
        <ele>1823.5999755859</ele>
        <time>2026-07-04T10:49:44.000Z</time>
      </trkpt>
      <trkpt lat="46.14745" lon="6.78928">
        <ele>1824.1999511719</ele>
        <time>2026-07-04T10:49:47.000Z</time>
      </trkpt>
      <trkpt lat="46.14747" lon="6.78931">
        <ele>1825.1999511719</ele>
        <time>2026-07-04T10:49:53.000Z</time>
      </trkpt>
      <trkpt lat="46.14748" lon="6.78933">
        <ele>1825.5999755859</ele>
        <time>2026-07-04T10:49:56.000Z</time>
      </trkpt>
      <trkpt lat="46.14751" lon="6.78937">
        <ele>1826.4000244141</ele>
        <time>2026-07-04T10:50:01.000Z</time>
      </trkpt>
      <trkpt lat="46.14753" lon="6.78939">
        <ele>1827.1999511719</ele>
        <time>2026-07-04T10:50:05.000Z</time>
      </trkpt>
      <trkpt lat="46.14755" lon="6.7894">
        <ele>1827.5999755859</ele>
        <time>2026-07-04T10:50:07.000Z</time>
      </trkpt>
      <trkpt lat="46.14757" lon="6.78943">
        <ele>1828.1999511719</ele>
        <time>2026-07-04T10:50:11.000Z</time>
      </trkpt>
      <trkpt lat="46.1476" lon="6.78944">
        <ele>1828.5999755859</ele>
        <time>2026-07-04T10:50:14.000Z</time>
      </trkpt>
      <trkpt lat="46.14764" lon="6.78944">
        <ele>1829.5999755859</ele>
        <time>2026-07-04T10:50:19.000Z</time>
      </trkpt>
      <trkpt lat="46.14767" lon="6.78946">
        <ele>1830.8000488281</ele>
        <time>2026-07-04T10:50:25.000Z</time>
      </trkpt>
      <trkpt lat="46.14768" lon="6.78947">
        <ele>1830.8000488281</ele>
        <time>2026-07-04T10:50:26.000Z</time>
      </trkpt>
      <trkpt lat="46.14772" lon="6.7895">
        <ele>1831.8000488281</ele>
        <time>2026-07-04T10:50:32.000Z</time>
      </trkpt>
      <trkpt lat="46.14775" lon="6.78952">
        <ele>1832.8000488281</ele>
        <time>2026-07-04T10:50:39.000Z</time>
      </trkpt>
      <trkpt lat="46.14775" lon="6.78952">
        <ele>1833</ele>
        <time>2026-07-04T10:50:40.000Z</time>
      </trkpt>
      <trkpt lat="46.14778" lon="6.78954">
        <ele>1834</ele>
        <time>2026-07-04T10:50:45.000Z</time>
      </trkpt>
      <trkpt lat="46.1478" lon="6.78955">
        <ele>1834.4000244141</ele>
        <time>2026-07-04T10:50:47.000Z</time>
      </trkpt>
      <trkpt lat="46.14782" lon="6.78956">
        <ele>1835.1999511719</ele>
        <time>2026-07-04T10:50:50.000Z</time>
      </trkpt>
      <trkpt lat="46.14785" lon="6.78957">
        <ele>1836.4000244141</ele>
        <time>2026-07-04T10:50:54.000Z</time>
      </trkpt>
      <trkpt lat="46.14786" lon="6.78958">
        <ele>1836.5999755859</ele>
        <time>2026-07-04T10:50:55.000Z</time>
      </trkpt>
      <trkpt lat="46.1479" lon="6.7896">
        <ele>1837.4000244141</ele>
        <time>2026-07-04T10:51:00.000Z</time>
      </trkpt>
      <trkpt lat="46.14791" lon="6.78961">
        <ele>1838.1999511719</ele>
        <time>2026-07-04T10:51:03.000Z</time>
      </trkpt>
      <trkpt lat="46.14792" lon="6.78964">
        <ele>1838.5999755859</ele>
        <time>2026-07-04T10:51:05.000Z</time>
      </trkpt>
      <trkpt lat="46.14795" lon="6.78968">
        <ele>1839.5999755859</ele>
        <time>2026-07-04T10:51:12.000Z</time>
      </trkpt>
      <trkpt lat="46.14797" lon="6.78975">
        <ele>1840.1999511719</ele>
        <time>2026-07-04T10:51:19.000Z</time>
      </trkpt>
      <trkpt lat="46.14798" lon="6.7898">
        <ele>1840.8000488281</ele>
        <time>2026-07-04T10:51:23.000Z</time>
      </trkpt>
      <trkpt lat="46.14798" lon="6.78983">
        <ele>1841.5999755859</ele>
        <time>2026-07-04T10:51:26.000Z</time>
      </trkpt>
      <trkpt lat="46.14798" lon="6.78984">
        <ele>1841.8000488281</ele>
        <time>2026-07-04T10:51:27.000Z</time>
      </trkpt>
      <trkpt lat="46.14798" lon="6.7899">
        <ele>1843.1999511719</ele>
        <time>2026-07-04T10:51:33.000Z</time>
      </trkpt>
      <trkpt lat="46.14797" lon="6.78994">
        <ele>1844.1999511719</ele>
        <time>2026-07-04T10:51:36.000Z</time>
      </trkpt>
      <trkpt lat="46.14793" lon="6.78997">
        <ele>1845.4000244141</ele>
        <time>2026-07-04T10:51:41.000Z</time>
      </trkpt>
      <trkpt lat="46.1479" lon="6.79">
        <ele>1846.1999511719</ele>
        <time>2026-07-04T10:51:44.000Z</time>
      </trkpt>
      <trkpt lat="46.14788" lon="6.79002">
        <ele>1846.4000244141</ele>
        <time>2026-07-04T10:51:46.000Z</time>
      </trkpt>
      <trkpt lat="46.14785" lon="6.79">
        <ele>1847.1999511719</ele>
        <time>2026-07-04T10:51:51.000Z</time>
      </trkpt>
      <trkpt lat="46.14785" lon="6.79001">
        <ele>1847.4000244141</ele>
        <time>2026-07-04T10:51:52.000Z</time>
      </trkpt>
      <trkpt lat="46.14785" lon="6.79">
        <ele>1847.5999755859</ele>
        <time>2026-07-04T10:51:53.000Z</time>
      </trkpt>
      <trkpt lat="46.14785" lon="6.79">
        <ele>1847.1999511719</ele>
        <time>2026-07-04T10:52:02.000Z</time>
      </trkpt>
      <trkpt lat="46.14785" lon="6.79">
        <ele>1847.1999511719</ele>
        <time>2026-07-04T10:52:05.000Z</time>
      </trkpt>
      <trkpt lat="46.14785" lon="6.79001">
        <ele>1847.4000244141</ele>
        <time>2026-07-04T10:52:13.000Z</time>
      </trkpt>
      <trkpt lat="46.14782" lon="6.79003">
        <ele>1848</ele>
        <time>2026-07-04T10:52:22.000Z</time>
      </trkpt>
      <trkpt lat="46.1478" lon="6.79003">
        <ele>1848.5999755859</ele>
        <time>2026-07-04T10:52:27.000Z</time>
      </trkpt>
      <trkpt lat="46.1478" lon="6.79004">
        <ele>1848.5999755859</ele>
        <time>2026-07-04T10:52:31.000Z</time>
      </trkpt>
      <trkpt lat="46.1478" lon="6.79004">
        <ele>1848.1999511719</ele>
        <time>2026-07-04T10:52:34.000Z</time>
      </trkpt>
      <trkpt lat="46.14778" lon="6.79003">
        <ele>1848.4000244141</ele>
        <time>2026-07-04T10:52:38.000Z</time>
      </trkpt>
      <trkpt lat="46.14778" lon="6.79003">
        <ele>1848.4000244141</ele>
        <time>2026-07-04T10:52:39.000Z</time>
      </trkpt>
      <trkpt lat="46.14777" lon="6.79003">
        <ele>1848.4000244141</ele>
        <time>2026-07-04T10:52:43.000Z</time>
      </trkpt>
      <trkpt lat="46.14778" lon="6.79003">
        <ele>1848.4000244141</ele>
        <time>2026-07-04T10:52:45.000Z</time>
      </trkpt>
      <trkpt lat="46.14777" lon="6.79003">
        <ele>1848.4000244141</ele>
        <time>2026-07-04T10:52:46.000Z</time>
      </trkpt>
      <trkpt lat="46.14777" lon="6.79003">
        <ele>1848.5999755859</ele>
        <time>2026-07-04T10:52:47.000Z</time>
      </trkpt>
      <trkpt lat="46.14776" lon="6.79003">
        <ele>1848.8000488281</ele>
        <time>2026-07-04T10:52:49.000Z</time>
      </trkpt>
      <trkpt lat="46.14771" lon="6.79005">
        <ele>1849.8000488281</ele>
        <time>2026-07-04T10:52:54.000Z</time>
      </trkpt>
      <trkpt lat="46.14769" lon="6.79006">
        <ele>1850.4000244141</ele>
        <time>2026-07-04T10:52:57.000Z</time>
      </trkpt>
      <trkpt lat="46.14767" lon="6.79006">
        <ele>1850.8000488281</ele>
        <time>2026-07-04T10:52:59.000Z</time>
      </trkpt>
      <trkpt lat="46.14764" lon="6.79005">
        <ele>1852</ele>
        <time>2026-07-04T10:53:03.000Z</time>
      </trkpt>
      <trkpt lat="46.14764" lon="6.79005">
        <ele>1852.1999511719</ele>
        <time>2026-07-04T10:53:05.000Z</time>
      </trkpt>
      <trkpt lat="46.14762" lon="6.79006">
        <ele>1851.5999755859</ele>
        <time>2026-07-04T10:53:16.000Z</time>
      </trkpt>
      <trkpt lat="46.1476" lon="6.79008">
        <ele>1851.8000488281</ele>
        <time>2026-07-04T10:53:19.000Z</time>
      </trkpt>
      <trkpt lat="46.14758" lon="6.79008">
        <ele>1852.4000244141</ele>
        <time>2026-07-04T10:53:22.000Z</time>
      </trkpt>
      <trkpt lat="46.14756" lon="6.79009">
        <ele>1853</ele>
        <time>2026-07-04T10:53:24.000Z</time>
      </trkpt>
      <trkpt lat="46.14754" lon="6.79015">
        <ele>1854.1999511719</ele>
        <time>2026-07-04T10:53:30.000Z</time>
      </trkpt>
      <trkpt lat="46.14753" lon="6.79019">
        <ele>1855.4000244141</ele>
        <time>2026-07-04T10:53:34.000Z</time>
      </trkpt>
      <trkpt lat="46.14753" lon="6.79023">
        <ele>1856.4000244141</ele>
        <time>2026-07-04T10:53:38.000Z</time>
      </trkpt>
      <trkpt lat="46.14753" lon="6.79029">
        <ele>1857.4000244141</ele>
        <time>2026-07-04T10:53:44.000Z</time>
      </trkpt>
      <trkpt lat="46.14754" lon="6.79031">
        <ele>1858.1999511719</ele>
        <time>2026-07-04T10:53:46.000Z</time>
      </trkpt>
      <trkpt lat="46.14755" lon="6.79032">
        <ele>1858.5999755859</ele>
        <time>2026-07-04T10:53:48.000Z</time>
      </trkpt>
      <trkpt lat="46.14756" lon="6.79035">
        <ele>1858.8000488281</ele>
        <time>2026-07-04T10:53:50.000Z</time>
      </trkpt>
      <trkpt lat="46.14758" lon="6.79038">
        <ele>1859.5999755859</ele>
        <time>2026-07-04T10:53:53.000Z</time>
      </trkpt>
      <trkpt lat="46.14761" lon="6.79043">
        <ele>1860.4000244141</ele>
        <time>2026-07-04T10:53:57.000Z</time>
      </trkpt>
      <trkpt lat="46.14762" lon="6.79044">
        <ele>1860.5999755859</ele>
        <time>2026-07-04T10:53:59.000Z</time>
      </trkpt>
      <trkpt lat="46.14764" lon="6.79048">
        <ele>1861.4000244141</ele>
        <time>2026-07-04T10:54:03.000Z</time>
      </trkpt>
      <trkpt lat="46.14765" lon="6.79052">
        <ele>1861.8000488281</ele>
        <time>2026-07-04T10:54:06.000Z</time>
      </trkpt>
      <trkpt lat="46.14766" lon="6.79053">
        <ele>1862</ele>
        <time>2026-07-04T10:54:07.000Z</time>
      </trkpt>
      <trkpt lat="46.14767" lon="6.79058">
        <ele>1862.8000488281</ele>
        <time>2026-07-04T10:54:11.000Z</time>
      </trkpt>
      <trkpt lat="46.14769" lon="6.79062">
        <ele>1863.8000488281</ele>
        <time>2026-07-04T10:54:14.000Z</time>
      </trkpt>
      <trkpt lat="46.14769" lon="6.79063">
        <ele>1864.1999511719</ele>
        <time>2026-07-04T10:54:15.000Z</time>
      </trkpt>
      <trkpt lat="46.1477" lon="6.79071">
        <ele>1865.4000244141</ele>
        <time>2026-07-04T10:54:21.000Z</time>
      </trkpt>
      <trkpt lat="46.1477" lon="6.79073">
        <ele>1865.8000488281</ele>
        <time>2026-07-04T10:54:23.000Z</time>
      </trkpt>
      <trkpt lat="46.14771" lon="6.79076">
        <ele>1866.5999755859</ele>
        <time>2026-07-04T10:54:26.000Z</time>
      </trkpt>
      <trkpt lat="46.14772" lon="6.79079">
        <ele>1867.5999755859</ele>
        <time>2026-07-04T10:54:30.000Z</time>
      </trkpt>
      <trkpt lat="46.14773" lon="6.7908">
        <ele>1867.8000488281</ele>
        <time>2026-07-04T10:54:31.000Z</time>
      </trkpt>
      <trkpt lat="46.14772" lon="6.7908">
        <ele>1868.5999755859</ele>
        <time>2026-07-04T10:54:35.000Z</time>
      </trkpt>
      <trkpt lat="46.14772" lon="6.79079">
        <ele>1868.5999755859</ele>
        <time>2026-07-04T10:54:38.000Z</time>
      </trkpt>
      <trkpt lat="46.14778" lon="6.79084">
        <ele>1869.1999511719</ele>
        <time>2026-07-04T10:54:46.000Z</time>
      </trkpt>
      <trkpt lat="46.14779" lon="6.79085">
        <ele>1869.8000488281</ele>
        <time>2026-07-04T10:54:48.000Z</time>
      </trkpt>
      <trkpt lat="46.1478" lon="6.79087">
        <ele>1870.1999511719</ele>
        <time>2026-07-04T10:54:51.000Z</time>
      </trkpt>
      <trkpt lat="46.14782" lon="6.79088">
        <ele>1870.8000488281</ele>
        <time>2026-07-04T10:54:54.000Z</time>
      </trkpt>
      <trkpt lat="46.14784" lon="6.79088">
        <ele>1871</ele>
        <time>2026-07-04T10:54:56.000Z</time>
      </trkpt>
      <trkpt lat="46.14785" lon="6.79088">
        <ele>1871.4000244141</ele>
        <time>2026-07-04T10:54:58.000Z</time>
      </trkpt>
      <trkpt lat="46.14787" lon="6.79089">
        <ele>1871.8000488281</ele>
        <time>2026-07-04T10:55:00.000Z</time>
      </trkpt>
      <trkpt lat="46.14788" lon="6.79089">
        <ele>1871.8000488281</ele>
        <time>2026-07-04T10:55:01.000Z</time>
      </trkpt>
      <trkpt lat="46.1479" lon="6.7909">
        <ele>1872</ele>
        <time>2026-07-04T10:55:03.000Z</time>
      </trkpt>
      <trkpt lat="46.14794" lon="6.79094">
        <ele>1873</ele>
        <time>2026-07-04T10:55:08.000Z</time>
      </trkpt>
      <trkpt lat="46.14796" lon="6.79096">
        <ele>1873.5999755859</ele>
        <time>2026-07-04T10:55:11.000Z</time>
      </trkpt>
      <trkpt lat="46.14798" lon="6.79097">
        <ele>1874</ele>
        <time>2026-07-04T10:55:13.000Z</time>
      </trkpt>
      <trkpt lat="46.148" lon="6.79099">
        <ele>1874.8000488281</ele>
        <time>2026-07-04T10:55:17.000Z</time>
      </trkpt>
      <trkpt lat="46.14801" lon="6.79101">
        <ele>1875.1999511719</ele>
        <time>2026-07-04T10:55:19.000Z</time>
      </trkpt>
      <trkpt lat="46.14802" lon="6.79101">
        <ele>1875.1999511719</ele>
        <time>2026-07-04T10:55:20.000Z</time>
      </trkpt>
      <trkpt lat="46.14807" lon="6.79107">
        <ele>1876.1999511719</ele>
        <time>2026-07-04T10:55:27.000Z</time>
      </trkpt>
      <trkpt lat="46.14807" lon="6.79108">
        <ele>1876.4000244141</ele>
        <time>2026-07-04T10:55:28.000Z</time>
      </trkpt>
      <trkpt lat="46.14809" lon="6.79112">
        <ele>1877.1999511719</ele>
        <time>2026-07-04T10:55:32.000Z</time>
      </trkpt>
      <trkpt lat="46.1481" lon="6.79114">
        <ele>1877.8000488281</ele>
        <time>2026-07-04T10:55:35.000Z</time>
      </trkpt>
      <trkpt lat="46.14812" lon="6.79116">
        <ele>1878</ele>
        <time>2026-07-04T10:55:36.000Z</time>
      </trkpt>
      <trkpt lat="46.14812" lon="6.79118">
        <ele>1878.4000244141</ele>
        <time>2026-07-04T10:55:38.000Z</time>
      </trkpt>
      <trkpt lat="46.14814" lon="6.79125">
        <ele>1879.4000244141</ele>
        <time>2026-07-04T10:55:43.000Z</time>
      </trkpt>
      <trkpt lat="46.14816" lon="6.79132">
        <ele>1880.4000244141</ele>
        <time>2026-07-04T10:55:49.000Z</time>
      </trkpt>
      <trkpt lat="46.14816" lon="6.79133">
        <ele>1880.5999755859</ele>
        <time>2026-07-04T10:55:50.000Z</time>
      </trkpt>
      <trkpt lat="46.14818" lon="6.79136">
        <ele>1880.8000488281</ele>
        <time>2026-07-04T10:55:53.000Z</time>
      </trkpt>
      <trkpt lat="46.14819" lon="6.79139">
        <ele>1881</ele>
        <time>2026-07-04T10:55:55.000Z</time>
      </trkpt>
      <trkpt lat="46.1482" lon="6.79142">
        <ele>1881.1999511719</ele>
        <time>2026-07-04T10:55:58.000Z</time>
      </trkpt>
      <trkpt lat="46.14821" lon="6.79145">
        <ele>1881.5999755859</ele>
        <time>2026-07-04T10:56:01.000Z</time>
      </trkpt>
      <trkpt lat="46.14821" lon="6.79146">
        <ele>1881.8000488281</ele>
        <time>2026-07-04T10:56:02.000Z</time>
      </trkpt>
      <trkpt lat="46.14822" lon="6.7915">
        <ele>1882.8000488281</ele>
        <time>2026-07-04T10:56:06.000Z</time>
      </trkpt>
      <trkpt lat="46.14823" lon="6.79151">
        <ele>1883</ele>
        <time>2026-07-04T10:56:07.000Z</time>
      </trkpt>
      <trkpt lat="46.14826" lon="6.79156">
        <ele>1883.8000488281</ele>
        <time>2026-07-04T10:56:12.000Z</time>
      </trkpt>
      <trkpt lat="46.1483" lon="6.7916">
        <ele>1884.1999511719</ele>
        <time>2026-07-04T10:56:16.000Z</time>
      </trkpt>
      <trkpt lat="46.14834" lon="6.79162">
        <ele>1885</ele>
        <time>2026-07-04T10:56:21.000Z</time>
      </trkpt>
      <trkpt lat="46.14836" lon="6.79163">
        <ele>1885.5999755859</ele>
        <time>2026-07-04T10:56:24.000Z</time>
      </trkpt>
      <trkpt lat="46.14838" lon="6.79164">
        <ele>1886</ele>
        <time>2026-07-04T10:56:26.000Z</time>
      </trkpt>
      <trkpt lat="46.14838" lon="6.79164">
        <ele>1886</ele>
        <time>2026-07-04T10:56:27.000Z</time>
      </trkpt>
      <trkpt lat="46.14839" lon="6.79164">
        <ele>1886.1999511719</ele>
        <time>2026-07-04T10:56:28.000Z</time>
      </trkpt>
      <trkpt lat="46.1484" lon="6.79165">
        <ele>1886.4000244141</ele>
        <time>2026-07-04T10:56:29.000Z</time>
      </trkpt>
      <trkpt lat="46.14841" lon="6.79166">
        <ele>1886.8000488281</ele>
        <time>2026-07-04T10:56:31.000Z</time>
      </trkpt>
      <trkpt lat="46.14842" lon="6.79167">
        <ele>1887.1999511719</ele>
        <time>2026-07-04T10:56:33.000Z</time>
      </trkpt>
      <trkpt lat="46.14847" lon="6.79173">
        <ele>1888.4000244141</ele>
        <time>2026-07-04T10:56:39.000Z</time>
      </trkpt>
      <trkpt lat="46.14848" lon="6.79174">
        <ele>1888.5999755859</ele>
        <time>2026-07-04T10:56:40.000Z</time>
      </trkpt>
      <trkpt lat="46.1485" lon="6.79177">
        <ele>1889.4000244141</ele>
        <time>2026-07-04T10:56:44.000Z</time>
      </trkpt>
      <trkpt lat="46.14852" lon="6.79181">
        <ele>1890</ele>
        <time>2026-07-04T10:56:48.000Z</time>
      </trkpt>
      <trkpt lat="46.14853" lon="6.79184">
        <ele>1890.5999755859</ele>
        <time>2026-07-04T10:56:51.000Z</time>
      </trkpt>
      <trkpt lat="46.14855" lon="6.79188">
        <ele>1891.5999755859</ele>
        <time>2026-07-04T10:56:56.000Z</time>
      </trkpt>
      <trkpt lat="46.14855" lon="6.79188">
        <ele>1891.8000488281</ele>
        <time>2026-07-04T10:56:57.000Z</time>
      </trkpt>
      <trkpt lat="46.14861" lon="6.79193">
        <ele>1892.8000488281</ele>
        <time>2026-07-04T10:57:04.000Z</time>
      </trkpt>
      <trkpt lat="46.14864" lon="6.79196">
        <ele>1893.5999755859</ele>
        <time>2026-07-04T10:57:07.000Z</time>
      </trkpt>
      <trkpt lat="46.14865" lon="6.79197">
        <ele>1894.1999511719</ele>
        <time>2026-07-04T10:57:09.000Z</time>
      </trkpt>
      <trkpt lat="46.14868" lon="6.79197">
        <ele>1894.8000488281</ele>
        <time>2026-07-04T10:57:12.000Z</time>
      </trkpt>
      <trkpt lat="46.1487" lon="6.79197">
        <ele>1895.4000244141</ele>
        <time>2026-07-04T10:57:14.000Z</time>
      </trkpt>
      <trkpt lat="46.14874" lon="6.79198">
        <ele>1896.4000244141</ele>
        <time>2026-07-04T10:57:19.000Z</time>
      </trkpt>
      <trkpt lat="46.14878" lon="6.79197">
        <ele>1897.5999755859</ele>
        <time>2026-07-04T10:57:24.000Z</time>
      </trkpt>
      <trkpt lat="46.14882" lon="6.79201">
        <ele>1898.8000488281</ele>
        <time>2026-07-04T10:57:31.000Z</time>
      </trkpt>
      <trkpt lat="46.14884" lon="6.79203">
        <ele>1899</ele>
        <time>2026-07-04T10:57:33.000Z</time>
      </trkpt>
      <trkpt lat="46.14885" lon="6.79206">
        <ele>1899.1999511719</ele>
        <time>2026-07-04T10:57:36.000Z</time>
      </trkpt>
      <trkpt lat="46.14889" lon="6.79209">
        <ele>1899.8000488281</ele>
        <time>2026-07-04T10:57:40.000Z</time>
      </trkpt>
      <trkpt lat="46.14892" lon="6.79212">
        <ele>1901</ele>
        <time>2026-07-04T10:57:44.000Z</time>
      </trkpt>
      <trkpt lat="46.14893" lon="6.79213">
        <ele>1901.4000244141</ele>
        <time>2026-07-04T10:57:47.000Z</time>
      </trkpt>
      <trkpt lat="46.14895" lon="6.79214">
        <ele>1901.5999755859</ele>
        <time>2026-07-04T10:57:50.000Z</time>
      </trkpt>
      <trkpt lat="46.14896" lon="6.79215">
        <ele>1901.8000488281</ele>
        <time>2026-07-04T10:57:51.000Z</time>
      </trkpt>
      <trkpt lat="46.14896" lon="6.79215">
        <ele>1902.1999511719</ele>
        <time>2026-07-04T10:57:53.000Z</time>
      </trkpt>
      <trkpt lat="46.149" lon="6.79217">
        <ele>1903.4000244141</ele>
        <time>2026-07-04T10:57:57.000Z</time>
      </trkpt>
      <trkpt lat="46.14904" lon="6.79218">
        <ele>1904</ele>
        <time>2026-07-04T10:58:02.000Z</time>
      </trkpt>
      <trkpt lat="46.14905" lon="6.79219">
        <ele>1904.4000244141</ele>
        <time>2026-07-04T10:58:04.000Z</time>
      </trkpt>
      <trkpt lat="46.14907" lon="6.79221">
        <ele>1905</ele>
        <time>2026-07-04T10:58:07.000Z</time>
      </trkpt>
      <trkpt lat="46.1491" lon="6.79226">
        <ele>1905.4000244141</ele>
        <time>2026-07-04T10:58:12.000Z</time>
      </trkpt>
      <trkpt lat="46.1491" lon="6.79228">
        <ele>1905.8000488281</ele>
        <time>2026-07-04T10:58:14.000Z</time>
      </trkpt>
      <trkpt lat="46.14912" lon="6.79231">
        <ele>1906.4000244141</ele>
        <time>2026-07-04T10:58:18.000Z</time>
      </trkpt>
      <trkpt lat="46.14913" lon="6.79235">
        <ele>1907.1999511719</ele>
        <time>2026-07-04T10:58:23.000Z</time>
      </trkpt>
      <trkpt lat="46.14915" lon="6.79236">
        <ele>1907.5999755859</ele>
        <time>2026-07-04T10:58:26.000Z</time>
      </trkpt>
      <trkpt lat="46.14916" lon="6.79236">
        <ele>1907.8000488281</ele>
        <time>2026-07-04T10:58:32.000Z</time>
      </trkpt>
      <trkpt lat="46.14916" lon="6.79236">
        <ele>1907.8000488281</ele>
        <time>2026-07-04T10:58:33.000Z</time>
      </trkpt>
      <trkpt lat="46.14917" lon="6.79235">
        <ele>1907.8000488281</ele>
        <time>2026-07-04T10:58:37.000Z</time>
      </trkpt>
      <trkpt lat="46.14916" lon="6.79234">
        <ele>1907.4000244141</ele>
        <time>2026-07-04T10:58:41.000Z</time>
      </trkpt>
      <trkpt lat="46.14916" lon="6.79234">
        <ele>1907.4000244141</ele>
        <time>2026-07-04T10:58:42.000Z</time>
      </trkpt>
      <trkpt lat="46.14916" lon="6.79236">
        <ele>1907.1999511719</ele>
        <time>2026-07-04T10:58:54.000Z</time>
      </trkpt>
      <trkpt lat="46.14916" lon="6.79237">
        <ele>1907</ele>
        <time>2026-07-04T10:58:58.000Z</time>
      </trkpt>
      <trkpt lat="46.14916" lon="6.79237">
        <ele>1907</ele>
        <time>2026-07-04T10:58:59.000Z</time>
      </trkpt>
      <trkpt lat="46.14916" lon="6.79237">
        <ele>1907</ele>
        <time>2026-07-04T10:59:01.000Z</time>
      </trkpt>
      <trkpt lat="46.14916" lon="6.79237">
        <ele>1907.5999755859</ele>
        <time>2026-07-04T10:59:05.000Z</time>
      </trkpt>
      <trkpt lat="46.14917" lon="6.79238">
        <ele>1907.8000488281</ele>
        <time>2026-07-04T10:59:09.000Z</time>
      </trkpt>
      <trkpt lat="46.14917" lon="6.7924">
        <ele>1908.1999511719</ele>
        <time>2026-07-04T10:59:18.000Z</time>
      </trkpt>
      <trkpt lat="46.14919" lon="6.79241">
        <ele>1907.8000488281</ele>
        <time>2026-07-04T10:59:27.000Z</time>
      </trkpt>
      <trkpt lat="46.14919" lon="6.79242">
        <ele>1907.8000488281</ele>
        <time>2026-07-04T10:59:28.000Z</time>
      </trkpt>
      <trkpt lat="46.1492" lon="6.79243">
        <ele>1907.8000488281</ele>
        <time>2026-07-04T10:59:29.000Z</time>
      </trkpt>
      <trkpt lat="46.1492" lon="6.79244">
        <ele>1907.8000488281</ele>
        <time>2026-07-04T10:59:30.000Z</time>
      </trkpt>
      <trkpt lat="46.14921" lon="6.79247">
        <ele>1908.1999511719</ele>
        <time>2026-07-04T10:59:35.000Z</time>
      </trkpt>
      <trkpt lat="46.14922" lon="6.79247">
        <ele>1908.4000244141</ele>
        <time>2026-07-04T10:59:37.000Z</time>
      </trkpt>
      <trkpt lat="46.14921" lon="6.79245">
        <ele>1908.4000244141</ele>
        <time>2026-07-04T10:59:44.000Z</time>
      </trkpt>
      <trkpt lat="46.14921" lon="6.79245">
        <ele>1908.5999755859</ele>
        <time>2026-07-04T11:00:00.000Z</time>
      </trkpt>
      <trkpt lat="46.14921" lon="6.79245">
        <ele>1908.8000488281</ele>
        <time>2026-07-04T11:00:02.000Z</time>
      </trkpt>
      <trkpt lat="46.14925" lon="6.7925">
        <ele>1908.8000488281</ele>
        <time>2026-07-04T11:00:10.000Z</time>
      </trkpt>
      <trkpt lat="46.14927" lon="6.79251">
        <ele>1909.1999511719</ele>
        <time>2026-07-04T11:00:19.000Z</time>
      </trkpt>
      <trkpt lat="46.14927" lon="6.7925">
        <ele>1909.4000244141</ele>
        <time>2026-07-04T11:00:23.000Z</time>
      </trkpt>
      <trkpt lat="46.14927" lon="6.79248">
        <ele>1909.4000244141</ele>
        <time>2026-07-04T11:00:30.000Z</time>
      </trkpt>
      <trkpt lat="46.14927" lon="6.79248">
        <ele>1909.5999755859</ele>
        <time>2026-07-04T11:00:36.000Z</time>
      </trkpt>
      <trkpt lat="46.14925" lon="6.79247">
        <ele>1909.4000244141</ele>
        <time>2026-07-04T11:00:43.000Z</time>
      </trkpt>
      <trkpt lat="46.14925" lon="6.79252">
        <ele>1910</ele>
        <time>2026-07-04T11:00:57.000Z</time>
      </trkpt>
      <trkpt lat="46.14927" lon="6.79252">
        <ele>1909.8000488281</ele>
        <time>2026-07-04T11:01:11.000Z</time>
      </trkpt>
      <trkpt lat="46.14928" lon="6.79252">
        <ele>1909.4000244141</ele>
        <time>2026-07-04T11:01:22.000Z</time>
      </trkpt>
      <trkpt lat="46.14928" lon="6.79252">
        <ele>1909.5999755859</ele>
        <time>2026-07-04T11:01:26.000Z</time>
      </trkpt>
      <trkpt lat="46.14927" lon="6.79252">
        <ele>1910.1999511719</ele>
        <time>2026-07-04T11:01:33.000Z</time>
      </trkpt>
      <trkpt lat="46.14925" lon="6.79252">
        <ele>1910.5999755859</ele>
        <time>2026-07-04T11:01:43.000Z</time>
      </trkpt>
      <trkpt lat="46.14925" lon="6.79252">
        <ele>1910.5999755859</ele>
        <time>2026-07-04T11:01:46.000Z</time>
      </trkpt>
      <trkpt lat="46.14923" lon="6.79254">
        <ele>1910</ele>
        <time>2026-07-04T11:01:58.000Z</time>
      </trkpt>
      <trkpt lat="46.14927" lon="6.79254">
        <ele>1910</ele>
        <time>2026-07-04T11:02:10.000Z</time>
      </trkpt>
      <trkpt lat="46.14929" lon="6.79252">
        <ele>1909.8000488281</ele>
        <time>2026-07-04T11:02:20.000Z</time>
      </trkpt>
      <trkpt lat="46.14928" lon="6.79251">
        <ele>1910</ele>
        <time>2026-07-04T11:02:31.000Z</time>
      </trkpt>
      <trkpt lat="46.14929" lon="6.79251">
        <ele>1910.1999511719</ele>
        <time>2026-07-04T11:02:40.000Z</time>
      </trkpt>
      <trkpt lat="46.14927" lon="6.79253">
        <ele>1910</ele>
        <time>2026-07-04T11:02:53.000Z</time>
      </trkpt>
      <trkpt lat="46.14927" lon="6.79252">
        <ele>1909.8000488281</ele>
        <time>2026-07-04T11:03:03.000Z</time>
      </trkpt>
      <trkpt lat="46.14926" lon="6.79251">
        <ele>1909.8000488281</ele>
        <time>2026-07-04T11:03:09.000Z</time>
      </trkpt>
      <trkpt lat="46.14926" lon="6.79251">
        <ele>1909.8000488281</ele>
        <time>2026-07-04T11:03:14.000Z</time>
      </trkpt>
      <trkpt lat="46.14926" lon="6.79251">
        <ele>1909.8000488281</ele>
        <time>2026-07-04T11:03:15.000Z</time>
      </trkpt>
      <trkpt lat="46.14926" lon="6.7925">
        <ele>1909.8000488281</ele>
        <time>2026-07-04T11:03:27.000Z</time>
      </trkpt>
      <trkpt lat="46.14928" lon="6.7925">
        <ele>1910</ele>
        <time>2026-07-04T11:03:33.000Z</time>
      </trkpt>
      <trkpt lat="46.14928" lon="6.7925">
        <ele>1909.8000488281</ele>
        <time>2026-07-04T11:03:40.000Z</time>
      </trkpt>
      <trkpt lat="46.14929" lon="6.7925">
        <ele>1909.8000488281</ele>
        <time>2026-07-04T11:03:42.000Z</time>
      </trkpt>
      <trkpt lat="46.1493" lon="6.79252">
        <ele>1910.8000488281</ele>
        <time>2026-07-04T11:03:49.000Z</time>
      </trkpt>
      <trkpt lat="46.14928" lon="6.79253">
        <ele>1910</ele>
        <time>2026-07-04T11:04:01.000Z</time>
      </trkpt>
      <trkpt lat="46.14928" lon="6.79252">
        <ele>1910.4000244141</ele>
        <time>2026-07-04T11:04:10.000Z</time>
      </trkpt>
      <trkpt lat="46.14928" lon="6.79252">
        <ele>1910.4000244141</ele>
        <time>2026-07-04T11:04:18.000Z</time>
      </trkpt>
      <trkpt lat="46.14928" lon="6.79252">
        <ele>1910.5999755859</ele>
        <time>2026-07-04T11:04:21.000Z</time>
      </trkpt>
      <trkpt lat="46.14928" lon="6.79253">
        <ele>1910.1999511719</ele>
        <time>2026-07-04T11:04:34.000Z</time>
      </trkpt>
      <trkpt lat="46.14929" lon="6.79252">
        <ele>1910.4000244141</ele>
        <time>2026-07-04T11:04:46.000Z</time>
      </trkpt>
      <trkpt lat="46.1493" lon="6.7925">
        <ele>1910</ele>
        <time>2026-07-04T11:04:57.000Z</time>
      </trkpt>
      <trkpt lat="46.14929" lon="6.7925">
        <ele>1910.1999511719</ele>
        <time>2026-07-04T11:05:10.000Z</time>
      </trkpt>
      <trkpt lat="46.14929" lon="6.79252">
        <ele>1910.1999511719</ele>
        <time>2026-07-04T11:05:23.000Z</time>
      </trkpt>
      <trkpt lat="46.14929" lon="6.79252">
        <ele>1910.1999511719</ele>
        <time>2026-07-04T11:05:38.000Z</time>
      </trkpt>
      <trkpt lat="46.14928" lon="6.79251">
        <ele>1910.5999755859</ele>
        <time>2026-07-04T11:05:50.000Z</time>
      </trkpt>
      <trkpt lat="46.14929" lon="6.79251">
        <ele>1910.5999755859</ele>
        <time>2026-07-04T11:05:53.000Z</time>
      </trkpt>
      <trkpt lat="46.14929" lon="6.79252">
        <ele>1910.8000488281</ele>
        <time>2026-07-04T11:06:02.000Z</time>
      </trkpt>
      <trkpt lat="46.14928" lon="6.79252">
        <ele>1911</ele>
        <time>2026-07-04T11:06:12.000Z</time>
      </trkpt>
      <trkpt lat="46.14928" lon="6.79251">
        <ele>1910.8000488281</ele>
        <time>2026-07-04T11:06:13.000Z</time>
      </trkpt>
      <trkpt lat="46.14929" lon="6.7925">
        <ele>1910.4000244141</ele>
        <time>2026-07-04T11:06:24.000Z</time>
      </trkpt>
      <trkpt lat="46.14929" lon="6.79252">
        <ele>1909.8000488281</ele>
        <time>2026-07-04T11:06:34.000Z</time>
      </trkpt>
      <trkpt lat="46.1493" lon="6.7925">
        <ele>1910.5999755859</ele>
        <time>2026-07-04T11:06:45.000Z</time>
      </trkpt>
      <trkpt lat="46.1493" lon="6.79249">
        <ele>1911</ele>
        <time>2026-07-04T11:06:58.000Z</time>
      </trkpt>
      <trkpt lat="46.14929" lon="6.7925">
        <ele>1910.5999755859</ele>
        <time>2026-07-04T11:07:10.000Z</time>
      </trkpt>
      <trkpt lat="46.1493" lon="6.79251">
        <ele>1910.5999755859</ele>
        <time>2026-07-04T11:07:14.000Z</time>
      </trkpt>
      <trkpt lat="46.1493" lon="6.7925">
        <ele>1910.4000244141</ele>
        <time>2026-07-04T11:07:23.000Z</time>
      </trkpt>
      <trkpt lat="46.14931" lon="6.79252">
        <ele>1910.5999755859</ele>
        <time>2026-07-04T11:07:35.000Z</time>
      </trkpt>
      <trkpt lat="46.14931" lon="6.79253">
        <ele>1910.8000488281</ele>
        <time>2026-07-04T11:07:47.000Z</time>
      </trkpt>
      <trkpt lat="46.1493" lon="6.79252">
        <ele>1910.8000488281</ele>
        <time>2026-07-04T11:07:57.000Z</time>
      </trkpt>
      <trkpt lat="46.1493" lon="6.79252">
        <ele>1910.4000244141</ele>
        <time>2026-07-04T11:08:07.000Z</time>
      </trkpt>
      <trkpt lat="46.1493" lon="6.79253">
        <ele>1910.4000244141</ele>
        <time>2026-07-04T11:08:09.000Z</time>
      </trkpt>
      <trkpt lat="46.1493" lon="6.79255">
        <ele>1910.5999755859</ele>
        <time>2026-07-04T11:08:22.000Z</time>
      </trkpt>
      <trkpt lat="46.14929" lon="6.79254">
        <ele>1911</ele>
        <time>2026-07-04T11:08:30.000Z</time>
      </trkpt>
      <trkpt lat="46.14929" lon="6.79255">
        <ele>1911</ele>
        <time>2026-07-04T11:08:33.000Z</time>
      </trkpt>
      <trkpt lat="46.14928" lon="6.79252">
        <ele>1911</ele>
        <time>2026-07-04T11:08:47.000Z</time>
      </trkpt>
      <trkpt lat="46.14928" lon="6.79251">
        <ele>1911</ele>
        <time>2026-07-04T11:08:59.000Z</time>
      </trkpt>
      <trkpt lat="46.14928" lon="6.79251">
        <ele>1910.8000488281</ele>
        <time>2026-07-04T11:09:11.000Z</time>
      </trkpt>
      <trkpt lat="46.14928" lon="6.79252">
        <ele>1910.8000488281</ele>
        <time>2026-07-04T11:09:21.000Z</time>
      </trkpt>
      <trkpt lat="46.14928" lon="6.79252">
        <ele>1910.5999755859</ele>
        <time>2026-07-04T11:09:32.000Z</time>
      </trkpt>
      <trkpt lat="46.14928" lon="6.79252">
        <ele>1910.8000488281</ele>
        <time>2026-07-04T11:09:42.000Z</time>
      </trkpt>
      <trkpt lat="46.14928" lon="6.79254">
        <ele>1910.1999511719</ele>
        <time>2026-07-04T11:09:58.000Z</time>
      </trkpt>
      <trkpt lat="46.14929" lon="6.79255">
        <ele>1910.5999755859</ele>
        <time>2026-07-04T11:10:10.000Z</time>
      </trkpt>
      <trkpt lat="46.14928" lon="6.79252">
        <ele>1911</ele>
        <time>2026-07-04T11:10:21.000Z</time>
      </trkpt>
      <trkpt lat="46.14929" lon="6.79252">
        <ele>1911.1999511719</ele>
        <time>2026-07-04T11:10:29.000Z</time>
      </trkpt>
      <trkpt lat="46.14929" lon="6.79252">
        <ele>1911.1999511719</ele>
        <time>2026-07-04T11:10:31.000Z</time>
      </trkpt>
      <trkpt lat="46.14929" lon="6.79252">
        <ele>1911.4000244141</ele>
        <time>2026-07-04T11:10:34.000Z</time>
      </trkpt>
      <trkpt lat="46.14929" lon="6.79252">
        <ele>1911.1999511719</ele>
        <time>2026-07-04T11:10:39.000Z</time>
      </trkpt>
      <trkpt lat="46.14929" lon="6.79252">
        <ele>1911</ele>
        <time>2026-07-04T11:10:46.000Z</time>
      </trkpt>
      <trkpt lat="46.14929" lon="6.79252">
        <ele>1910.8000488281</ele>
        <time>2026-07-04T11:10:48.000Z</time>
      </trkpt>
      <trkpt lat="46.14932" lon="6.79253">
        <ele>1911</ele>
        <time>2026-07-04T11:11:00.000Z</time>
      </trkpt>
      <trkpt lat="46.14934" lon="6.79255">
        <ele>1911.1999511719</ele>
        <time>2026-07-04T11:11:04.000Z</time>
      </trkpt>
      <trkpt lat="46.14937" lon="6.79258">
        <ele>1911.5999755859</ele>
        <time>2026-07-04T11:11:09.000Z</time>
      </trkpt>
      <trkpt lat="46.14938" lon="6.79258">
        <ele>1911.8000488281</ele>
        <time>2026-07-04T11:11:10.000Z</time>
      </trkpt>
      <trkpt lat="46.14945" lon="6.79261">
        <ele>1912.5999755859</ele>
        <time>2026-07-04T11:11:19.000Z</time>
      </trkpt>
      <trkpt lat="46.14945" lon="6.79261">
        <ele>1912.8000488281</ele>
        <time>2026-07-04T11:11:20.000Z</time>
      </trkpt>
      <trkpt lat="46.14949" lon="6.79263">
        <ele>1913.4000244141</ele>
        <time>2026-07-04T11:11:24.000Z</time>
      </trkpt>
      <trkpt lat="46.14952" lon="6.79264">
        <ele>1913.5999755859</ele>
        <time>2026-07-04T11:11:27.000Z</time>
      </trkpt>
      <trkpt lat="46.14954" lon="6.79264">
        <ele>1913.8000488281</ele>
        <time>2026-07-04T11:11:29.000Z</time>
      </trkpt>
      <trkpt lat="46.14955" lon="6.79264">
        <ele>1913.8000488281</ele>
        <time>2026-07-04T11:11:30.000Z</time>
      </trkpt>
      <trkpt lat="46.14956" lon="6.79264">
        <ele>1914</ele>
        <time>2026-07-04T11:11:31.000Z</time>
      </trkpt>
      <trkpt lat="46.14962" lon="6.79265">
        <ele>1914.8000488281</ele>
        <time>2026-07-04T11:11:38.000Z</time>
      </trkpt>
      <trkpt lat="46.14963" lon="6.79265">
        <ele>1914.8000488281</ele>
        <time>2026-07-04T11:11:39.000Z</time>
      </trkpt>
      <trkpt lat="46.14968" lon="6.79263">
        <ele>1915.1999511719</ele>
        <time>2026-07-04T11:11:46.000Z</time>
      </trkpt>
      <trkpt lat="46.14972" lon="6.79263">
        <ele>1916</ele>
        <time>2026-07-04T11:11:51.000Z</time>
      </trkpt>
      <trkpt lat="46.14974" lon="6.79264">
        <ele>1916.4000244141</ele>
        <time>2026-07-04T11:11:53.000Z</time>
      </trkpt>
      <trkpt lat="46.14978" lon="6.79266">
        <ele>1917</ele>
        <time>2026-07-04T11:11:58.000Z</time>
      </trkpt>
      <trkpt lat="46.14979" lon="6.79267">
        <ele>1917.4000244141</ele>
        <time>2026-07-04T11:12:01.000Z</time>
      </trkpt>
      <trkpt lat="46.14985" lon="6.79268">
        <ele>1918.1999511719</ele>
        <time>2026-07-04T11:12:07.000Z</time>
      </trkpt>
      <trkpt lat="46.14988" lon="6.79269">
        <ele>1918.8000488281</ele>
        <time>2026-07-04T11:12:11.000Z</time>
      </trkpt>
      <trkpt lat="46.14992" lon="6.79269">
        <ele>1919.1999511719</ele>
        <time>2026-07-04T11:12:15.000Z</time>
      </trkpt>
      <trkpt lat="46.14996" lon="6.79269">
        <ele>1919.5999755859</ele>
        <time>2026-07-04T11:12:19.000Z</time>
      </trkpt>
      <trkpt lat="46.14998" lon="6.7927">
        <ele>1920.4000244141</ele>
        <time>2026-07-04T11:12:26.000Z</time>
      </trkpt>
      <trkpt lat="46.14999" lon="6.7927">
        <ele>1920.8000488281</ele>
        <time>2026-07-04T11:12:28.000Z</time>
      </trkpt>
      <trkpt lat="46.15003" lon="6.79272">
        <ele>1921.4000244141</ele>
        <time>2026-07-04T11:12:32.000Z</time>
      </trkpt>
      <trkpt lat="46.15005" lon="6.79273">
        <ele>1922</ele>
        <time>2026-07-04T11:12:35.000Z</time>
      </trkpt>
      <trkpt lat="46.15009" lon="6.79274">
        <ele>1922.5999755859</ele>
        <time>2026-07-04T11:12:41.000Z</time>
      </trkpt>
      <trkpt lat="46.15011" lon="6.79275">
        <ele>1923</ele>
        <time>2026-07-04T11:12:44.000Z</time>
      </trkpt>
      <trkpt lat="46.15014" lon="6.79274">
        <ele>1923.5999755859</ele>
        <time>2026-07-04T11:12:48.000Z</time>
      </trkpt>
      <trkpt lat="46.15015" lon="6.79274">
        <ele>1924</ele>
        <time>2026-07-04T11:12:51.000Z</time>
      </trkpt>
      <trkpt lat="46.1502" lon="6.79275">
        <ele>1924.8000488281</ele>
        <time>2026-07-04T11:12:55.000Z</time>
      </trkpt>
      <trkpt lat="46.15024" lon="6.79278">
        <ele>1926.1999511719</ele>
        <time>2026-07-04T11:12:59.000Z</time>
      </trkpt>
      <trkpt lat="46.15025" lon="6.79279">
        <ele>1926.5999755859</ele>
        <time>2026-07-04T11:13:00.000Z</time>
      </trkpt>
      <trkpt lat="46.15025" lon="6.79281">
        <ele>1926.5999755859</ele>
        <time>2026-07-04T11:13:03.000Z</time>
      </trkpt>
      <trkpt lat="46.15026" lon="6.79287">
        <ele>1926.4000244141</ele>
        <time>2026-07-04T11:13:10.000Z</time>
      </trkpt>
      <trkpt lat="46.15024" lon="6.79289">
        <ele>1926.1999511719</ele>
        <time>2026-07-04T11:13:13.000Z</time>
      </trkpt>
      <trkpt lat="46.15019" lon="6.7929">
        <ele>1926.5999755859</ele>
        <time>2026-07-04T11:13:18.000Z</time>
      </trkpt>
      <trkpt lat="46.15015" lon="6.79292">
        <ele>1927.4000244141</ele>
        <time>2026-07-04T11:13:24.000Z</time>
      </trkpt>
      <trkpt lat="46.15015" lon="6.79293">
        <ele>1928</ele>
        <time>2026-07-04T11:13:27.000Z</time>
      </trkpt>
      <trkpt lat="46.15015" lon="6.79295">
        <ele>1928</ele>
        <time>2026-07-04T11:13:35.000Z</time>
      </trkpt>
      <trkpt lat="46.15015" lon="6.79294">
        <ele>1928.5999755859</ele>
        <time>2026-07-04T11:13:37.000Z</time>
      </trkpt>
      <trkpt lat="46.15015" lon="6.79292">
        <ele>1929</ele>
        <time>2026-07-04T11:13:41.000Z</time>
      </trkpt>
      <trkpt lat="46.15014" lon="6.79292">
        <ele>1929.1999511719</ele>
        <time>2026-07-04T11:13:43.000Z</time>
      </trkpt>
      <trkpt lat="46.15013" lon="6.79291">
        <ele>1929.4000244141</ele>
        <time>2026-07-04T11:13:48.000Z</time>
      </trkpt>
      <trkpt lat="46.15013" lon="6.79291">
        <ele>1929.4000244141</ele>
        <time>2026-07-04T11:13:49.000Z</time>
      </trkpt>
      <trkpt lat="46.15013" lon="6.79291">
        <ele>1929</ele>
        <time>2026-07-04T11:13:58.000Z</time>
      </trkpt>
      <trkpt lat="46.15014" lon="6.79294">
        <ele>1928.8000488281</ele>
        <time>2026-07-04T11:14:11.000Z</time>
      </trkpt>
      <trkpt lat="46.15018" lon="6.79294">
        <ele>1929.1999511719</ele>
        <time>2026-07-04T11:14:19.000Z</time>
      </trkpt>
      <trkpt lat="46.15019" lon="6.79298">
        <ele>1926.8000488281</ele>
        <time>2026-07-04T11:14:24.000Z</time>
      </trkpt>
      <trkpt lat="46.15018" lon="6.793">
        <ele>1926.1999511719</ele>
        <time>2026-07-04T11:14:26.000Z</time>
      </trkpt>
      <trkpt lat="46.15017" lon="6.79305">
        <ele>1927.5999755859</ele>
        <time>2026-07-04T11:14:32.000Z</time>
      </trkpt>
      <trkpt lat="46.15019" lon="6.79303">
        <ele>1926.1999511719</ele>
        <time>2026-07-04T11:14:37.000Z</time>
      </trkpt>
      <trkpt lat="46.1502" lon="6.79306">
        <ele>1925</ele>
        <time>2026-07-04T11:14:41.000Z</time>
      </trkpt>
      <trkpt lat="46.15021" lon="6.79307">
        <ele>1925.8000488281</ele>
        <time>2026-07-04T11:14:44.000Z</time>
      </trkpt>
      <trkpt lat="46.15021" lon="6.79307">
        <ele>1926.5999755859</ele>
        <time>2026-07-04T11:14:47.000Z</time>
      </trkpt>
      <trkpt lat="46.15021" lon="6.79306">
        <ele>1925.4000244141</ele>
        <time>2026-07-04T11:14:53.000Z</time>
      </trkpt>
      <trkpt lat="46.15021" lon="6.79306">
        <ele>1925</ele>
        <time>2026-07-04T11:14:55.000Z</time>
      </trkpt>
      <trkpt lat="46.15021" lon="6.79306">
        <ele>1924.4000244141</ele>
        <time>2026-07-04T11:15:00.000Z</time>
      </trkpt>
      <trkpt lat="46.15021" lon="6.79306">
        <ele>1924.5999755859</ele>
        <time>2026-07-04T11:15:07.000Z</time>
      </trkpt>
      <trkpt lat="46.15021" lon="6.79306">
        <ele>1925.4000244141</ele>
        <time>2026-07-04T11:15:12.000Z</time>
      </trkpt>
      <trkpt lat="46.15022" lon="6.79302">
        <ele>1926</ele>
        <time>2026-07-04T11:15:17.000Z</time>
      </trkpt>
      <trkpt lat="46.15023" lon="6.79299">
        <ele>1926.4000244141</ele>
        <time>2026-07-04T11:15:19.000Z</time>
      </trkpt>
      <trkpt lat="46.15023" lon="6.79292">
        <ele>1927.4000244141</ele>
        <time>2026-07-04T11:15:25.000Z</time>
      </trkpt>
      <trkpt lat="46.15023" lon="6.79292">
        <ele>1927.5999755859</ele>
        <time>2026-07-04T11:15:26.000Z</time>
      </trkpt>
      <trkpt lat="46.15021" lon="6.79293">
        <ele>1927.5999755859</ele>
        <time>2026-07-04T11:15:27.000Z</time>
      </trkpt>
      <trkpt lat="46.15019" lon="6.79293">
        <ele>1927.5999755859</ele>
        <time>2026-07-04T11:15:32.000Z</time>
      </trkpt>
      <trkpt lat="46.15019" lon="6.79293">
        <ele>1928.1999511719</ele>
        <time>2026-07-04T11:15:36.000Z</time>
      </trkpt>
      <trkpt lat="46.15018" lon="6.79294">
        <ele>1927.5999755859</ele>
        <time>2026-07-04T11:15:42.000Z</time>
      </trkpt>
      <trkpt lat="46.15018" lon="6.79294">
        <ele>1927.8000488281</ele>
        <time>2026-07-04T11:15:45.000Z</time>
      </trkpt>
      <trkpt lat="46.15018" lon="6.79293">
        <ele>1928</ele>
        <time>2026-07-04T11:15:46.000Z</time>
      </trkpt>
      <trkpt lat="46.15018" lon="6.79293">
        <ele>1928.1999511719</ele>
        <time>2026-07-04T11:15:49.000Z</time>
      </trkpt>
      <trkpt lat="46.15018" lon="6.79292">
        <ele>1928.1999511719</ele>
        <time>2026-07-04T11:15:51.000Z</time>
      </trkpt>
      <trkpt lat="46.15018" lon="6.79289">
        <ele>1927.8000488281</ele>
        <time>2026-07-04T11:15:57.000Z</time>
      </trkpt>
      <trkpt lat="46.15017" lon="6.79288">
        <ele>1927.1999511719</ele>
        <time>2026-07-04T11:16:00.000Z</time>
      </trkpt>
      <trkpt lat="46.15018" lon="6.7929">
        <ele>1927</ele>
        <time>2026-07-04T11:16:05.000Z</time>
      </trkpt>
      <trkpt lat="46.15018" lon="6.7929">
        <ele>1927</ele>
        <time>2026-07-04T11:16:11.000Z</time>
      </trkpt>
      <trkpt lat="46.15018" lon="6.7929">
        <ele>1927</ele>
        <time>2026-07-04T11:16:15.000Z</time>
      </trkpt>
      <trkpt lat="46.15017" lon="6.7929">
        <ele>1927.1999511719</ele>
        <time>2026-07-04T11:16:30.000Z</time>
      </trkpt>
      <trkpt lat="46.15017" lon="6.7929">
        <ele>1927.1999511719</ele>
        <time>2026-07-04T11:16:34.000Z</time>
      </trkpt>
      <trkpt lat="46.15016" lon="6.79293">
        <ele>1927.4000244141</ele>
        <time>2026-07-04T11:16:41.000Z</time>
      </trkpt>
      <trkpt lat="46.15015" lon="6.79292">
        <ele>1928.4000244141</ele>
        <time>2026-07-04T11:16:44.000Z</time>
      </trkpt>
      <trkpt lat="46.15016" lon="6.79292">
        <ele>1928.5999755859</ele>
        <time>2026-07-04T11:16:45.000Z</time>
      </trkpt>
      <trkpt lat="46.15016" lon="6.79292">
        <ele>1928.5999755859</ele>
        <time>2026-07-04T11:16:46.000Z</time>
      </trkpt>
      <trkpt lat="46.15016" lon="6.79292">
        <ele>1928.4000244141</ele>
        <time>2026-07-04T11:16:47.000Z</time>
      </trkpt>
      <trkpt lat="46.15016" lon="6.79293">
        <ele>1928.1999511719</ele>
        <time>2026-07-04T11:16:50.000Z</time>
      </trkpt>
      <trkpt lat="46.15016" lon="6.79292">
        <ele>1927.5999755859</ele>
        <time>2026-07-04T11:16:58.000Z</time>
      </trkpt>
      <trkpt lat="46.15016" lon="6.79292">
        <ele>1927.4000244141</ele>
        <time>2026-07-04T11:16:59.000Z</time>
      </trkpt>
      <trkpt lat="46.15016" lon="6.79292">
        <ele>1927.1999511719</ele>
        <time>2026-07-04T11:17:01.000Z</time>
      </trkpt>
      <trkpt lat="46.15016" lon="6.79293">
        <ele>1927.1999511719</ele>
        <time>2026-07-04T11:17:05.000Z</time>
      </trkpt>
      <trkpt lat="46.15015" lon="6.79293">
        <ele>1928</ele>
        <time>2026-07-04T11:17:13.000Z</time>
      </trkpt>
      <trkpt lat="46.15015" lon="6.79293">
        <ele>1928</ele>
        <time>2026-07-04T11:17:16.000Z</time>
      </trkpt>
      <trkpt lat="46.15015" lon="6.79293">
        <ele>1927.1999511719</ele>
        <time>2026-07-04T11:17:20.000Z</time>
      </trkpt>
      <trkpt lat="46.15015" lon="6.79293">
        <ele>1927.1999511719</ele>
        <time>2026-07-04T11:17:21.000Z</time>
      </trkpt>
      <trkpt lat="46.15015" lon="6.79293">
        <ele>1927</ele>
        <time>2026-07-04T11:17:22.000Z</time>
      </trkpt>
      <trkpt lat="46.15015" lon="6.79293">
        <ele>1927.1999511719</ele>
        <time>2026-07-04T11:17:25.000Z</time>
      </trkpt>
      <trkpt lat="46.15015" lon="6.79293">
        <ele>1926.8000488281</ele>
        <time>2026-07-04T11:17:33.000Z</time>
      </trkpt>
      <trkpt lat="46.15015" lon="6.79293">
        <ele>1927.4000244141</ele>
        <time>2026-07-04T11:17:41.000Z</time>
      </trkpt>
      <trkpt lat="46.15015" lon="6.79293">
        <ele>1927.1999511719</ele>
        <time>2026-07-04T11:17:46.000Z</time>
      </trkpt>
      <trkpt lat="46.15015" lon="6.79293">
        <ele>1927</ele>
        <time>2026-07-04T11:17:47.000Z</time>
      </trkpt>
      <trkpt lat="46.15013" lon="6.79293">
        <ele>1927.5999755859</ele>
        <time>2026-07-04T11:17:55.000Z</time>
      </trkpt>
      <trkpt lat="46.15013" lon="6.79292">
        <ele>1927.5999755859</ele>
        <time>2026-07-04T11:18:02.000Z</time>
      </trkpt>
      <trkpt lat="46.15013" lon="6.79292">
        <ele>1927.8000488281</ele>
        <time>2026-07-04T11:18:03.000Z</time>
      </trkpt>
      <trkpt lat="46.15013" lon="6.79293">
        <ele>1927.4000244141</ele>
        <time>2026-07-04T11:18:07.000Z</time>
      </trkpt>
      <trkpt lat="46.15013" lon="6.79293">
        <ele>1927.5999755859</ele>
        <time>2026-07-04T11:18:11.000Z</time>
      </trkpt>
      <trkpt lat="46.15013" lon="6.79293">
        <ele>1927.8000488281</ele>
        <time>2026-07-04T11:18:17.000Z</time>
      </trkpt>
      <trkpt lat="46.15013" lon="6.79293">
        <ele>1927.8000488281</ele>
        <time>2026-07-04T11:18:21.000Z</time>
      </trkpt>
      <trkpt lat="46.15015" lon="6.79295">
        <ele>1927.1999511719</ele>
        <time>2026-07-04T11:18:33.000Z</time>
      </trkpt>
      <trkpt lat="46.15015" lon="6.79295">
        <ele>1926.8000488281</ele>
        <time>2026-07-04T11:18:37.000Z</time>
      </trkpt>
      <trkpt lat="46.15015" lon="6.79294">
        <ele>1927</ele>
        <time>2026-07-04T11:18:43.000Z</time>
      </trkpt>
      <trkpt lat="46.15015" lon="6.79294">
        <ele>1927.5999755859</ele>
        <time>2026-07-04T11:18:47.000Z</time>
      </trkpt>
      <trkpt lat="46.15016" lon="6.79292">
        <ele>1927.5999755859</ele>
        <time>2026-07-04T11:18:59.000Z</time>
      </trkpt>
      <trkpt lat="46.15014" lon="6.79292">
        <ele>1927.1999511719</ele>
        <time>2026-07-04T11:19:04.000Z</time>
      </trkpt>
      <trkpt lat="46.1501" lon="6.79295">
        <ele>1926.5999755859</ele>
        <time>2026-07-04T11:19:12.000Z</time>
      </trkpt>
      <trkpt lat="46.15013" lon="6.79293">
        <ele>1927.5999755859</ele>
        <time>2026-07-04T11:19:17.000Z</time>
      </trkpt>
      <trkpt lat="46.15015" lon="6.79295">
        <ele>1927.4000244141</ele>
        <time>2026-07-04T11:19:23.000Z</time>
      </trkpt>
      <trkpt lat="46.15018" lon="6.79293">
        <ele>1926.4000244141</ele>
        <time>2026-07-04T11:19:28.000Z</time>
      </trkpt>
      <trkpt lat="46.15017" lon="6.79294">
        <ele>1925.4000244141</ele>
        <time>2026-07-04T11:19:30.000Z</time>
      </trkpt>
      <trkpt lat="46.15017" lon="6.79294">
        <ele>1925.1999511719</ele>
        <time>2026-07-04T11:19:31.000Z</time>
      </trkpt>
      <trkpt lat="46.15017" lon="6.79296">
        <ele>1925.1999511719</ele>
        <time>2026-07-04T11:19:35.000Z</time>
      </trkpt>
      <trkpt lat="46.15017" lon="6.79296">
        <ele>1925.8000488281</ele>
        <time>2026-07-04T11:19:39.000Z</time>
      </trkpt>
      <trkpt lat="46.15016" lon="6.79297">
        <ele>1926.5999755859</ele>
        <time>2026-07-04T11:19:41.000Z</time>
      </trkpt>
      <trkpt lat="46.15016" lon="6.79296">
        <ele>1927.4000244141</ele>
        <time>2026-07-04T11:19:46.000Z</time>
      </trkpt>
      <trkpt lat="46.15017" lon="6.79293">
        <ele>1926.5999755859</ele>
        <time>2026-07-04T11:19:53.000Z</time>
      </trkpt>
      <trkpt lat="46.15017" lon="6.79294">
        <ele>1926.5999755859</ele>
        <time>2026-07-04T11:20:00.000Z</time>
      </trkpt>
      <trkpt lat="46.15018" lon="6.79292">
        <ele>1926.5999755859</ele>
        <time>2026-07-04T11:20:02.000Z</time>
      </trkpt>
      <trkpt lat="46.15019" lon="6.79291">
        <ele>1927.5999755859</ele>
        <time>2026-07-04T11:20:03.000Z</time>
      </trkpt>
      <trkpt lat="46.15024" lon="6.79289">
        <ele>1927.5999755859</ele>
        <time>2026-07-04T11:20:08.000Z</time>
      </trkpt>
      <trkpt lat="46.15024" lon="6.79291">
        <ele>1927</ele>
        <time>2026-07-04T11:20:09.000Z</time>
      </trkpt>
      <trkpt lat="46.15023" lon="6.79296">
        <ele>1925.8000488281</ele>
        <time>2026-07-04T11:20:11.000Z</time>
      </trkpt>
      <trkpt lat="46.15023" lon="6.79299">
        <ele>1924.4000244141</ele>
        <time>2026-07-04T11:20:13.000Z</time>
      </trkpt>
      <trkpt lat="46.15022" lon="6.79301">
        <ele>1924.1999511719</ele>
        <time>2026-07-04T11:20:14.000Z</time>
      </trkpt>
      <trkpt lat="46.15017" lon="6.7931">
        <ele>1923.4000244141</ele>
        <time>2026-07-04T11:20:21.000Z</time>
      </trkpt>
      <trkpt lat="46.15015" lon="6.79312">
        <ele>1923.1999511719</ele>
        <time>2026-07-04T11:20:23.000Z</time>
      </trkpt>
      <trkpt lat="46.1501" lon="6.79316">
        <ele>1923</ele>
        <time>2026-07-04T11:20:27.000Z</time>
      </trkpt>
      <trkpt lat="46.1501" lon="6.79317">
        <ele>1922.8000488281</ele>
        <time>2026-07-04T11:20:28.000Z</time>
      </trkpt>
      <trkpt lat="46.1501" lon="6.79317">
        <ele>1922.8000488281</ele>
        <time>2026-07-04T11:20:29.000Z</time>
      </trkpt>
      <trkpt lat="46.15006" lon="6.7932">
        <ele>1922.8000488281</ele>
        <time>2026-07-04T11:20:32.000Z</time>
      </trkpt>
      <trkpt lat="46.15005" lon="6.79321">
        <ele>1922.4000244141</ele>
        <time>2026-07-04T11:20:34.000Z</time>
      </trkpt>
      <trkpt lat="46.15004" lon="6.79321">
        <ele>1922.1999511719</ele>
        <time>2026-07-04T11:20:35.000Z</time>
      </trkpt>
      <trkpt lat="46.15002" lon="6.79324">
        <ele>1921.1999511719</ele>
        <time>2026-07-04T11:20:42.000Z</time>
      </trkpt>
      <trkpt lat="46.15002" lon="6.79324">
        <ele>1921.1999511719</ele>
        <time>2026-07-04T11:20:44.000Z</time>
      </trkpt>
      <trkpt lat="46.14999" lon="6.79326">
        <ele>1920.8000488281</ele>
        <time>2026-07-04T11:20:54.000Z</time>
      </trkpt>
      <trkpt lat="46.14998" lon="6.79326">
        <ele>1920.5999755859</ele>
        <time>2026-07-04T11:21:01.000Z</time>
      </trkpt>
      <trkpt lat="46.14998" lon="6.79327">
        <ele>1920.4000244141</ele>
        <time>2026-07-04T11:21:08.000Z</time>
      </trkpt>
      <trkpt lat="46.14997" lon="6.79327">
        <ele>1920</ele>
        <time>2026-07-04T11:21:14.000Z</time>
      </trkpt>
      <trkpt lat="46.14997" lon="6.79327">
        <ele>1920</ele>
        <time>2026-07-04T11:21:15.000Z</time>
      </trkpt>
      <trkpt lat="46.14997" lon="6.79327">
        <ele>1920</ele>
        <time>2026-07-04T11:21:18.000Z</time>
      </trkpt>
      <trkpt lat="46.14997" lon="6.79326">
        <ele>1920.1999511719</ele>
        <time>2026-07-04T11:21:20.000Z</time>
      </trkpt>
      <trkpt lat="46.14998" lon="6.79328">
        <ele>1920.4000244141</ele>
        <time>2026-07-04T11:21:25.000Z</time>
      </trkpt>
      <trkpt lat="46.14997" lon="6.79327">
        <ele>1920.1999511719</ele>
        <time>2026-07-04T11:21:29.000Z</time>
      </trkpt>
      <trkpt lat="46.14998" lon="6.79326">
        <ele>1919.8000488281</ele>
        <time>2026-07-04T11:21:33.000Z</time>
      </trkpt>
      <trkpt lat="46.14998" lon="6.79326">
        <ele>1919.8000488281</ele>
        <time>2026-07-04T11:21:34.000Z</time>
      </trkpt>
      <trkpt lat="46.14998" lon="6.79325">
        <ele>1919.8000488281</ele>
        <time>2026-07-04T11:21:40.000Z</time>
      </trkpt>
      <trkpt lat="46.14998" lon="6.79326">
        <ele>1919.8000488281</ele>
        <time>2026-07-04T11:21:42.000Z</time>
      </trkpt>
      <trkpt lat="46.14998" lon="6.79327">
        <ele>1919.8000488281</ele>
        <time>2026-07-04T11:21:53.000Z</time>
      </trkpt>
      <trkpt lat="46.14998" lon="6.79327">
        <ele>1919.8000488281</ele>
        <time>2026-07-04T11:21:56.000Z</time>
      </trkpt>
      <trkpt lat="46.14998" lon="6.79327">
        <ele>1919.8000488281</ele>
        <time>2026-07-04T11:21:57.000Z</time>
      </trkpt>
      <trkpt lat="46.14998" lon="6.79327">
        <ele>1919.8000488281</ele>
        <time>2026-07-04T11:21:59.000Z</time>
      </trkpt>
      <trkpt lat="46.14998" lon="6.79327">
        <ele>1919.8000488281</ele>
        <time>2026-07-04T11:22:08.000Z</time>
      </trkpt>
      <trkpt lat="46.14998" lon="6.79327">
        <ele>1919.8000488281</ele>
        <time>2026-07-04T11:22:23.000Z</time>
      </trkpt>
      <trkpt lat="46.14998" lon="6.79326">
        <ele>1919.8000488281</ele>
        <time>2026-07-04T11:22:24.000Z</time>
      </trkpt>
      <trkpt lat="46.14997" lon="6.79326">
        <ele>1919.8000488281</ele>
        <time>2026-07-04T11:22:25.000Z</time>
      </trkpt>
      <trkpt lat="46.14997" lon="6.79326">
        <ele>1919.8000488281</ele>
        <time>2026-07-04T11:22:27.000Z</time>
      </trkpt>
      <trkpt lat="46.14998" lon="6.79327">
        <ele>1919.8000488281</ele>
        <time>2026-07-04T11:22:32.000Z</time>
      </trkpt>
      <trkpt lat="46.14998" lon="6.79327">
        <ele>1919.8000488281</ele>
        <time>2026-07-04T11:22:34.000Z</time>
      </trkpt>
      <trkpt lat="46.14998" lon="6.79327">
        <ele>1919.8000488281</ele>
        <time>2026-07-04T11:22:45.000Z</time>
      </trkpt>
      <trkpt lat="46.14998" lon="6.79327">
        <ele>1919.5999755859</ele>
        <time>2026-07-04T11:22:49.000Z</time>
      </trkpt>
      <trkpt lat="46.14998" lon="6.79327">
        <ele>1919.5999755859</ele>
        <time>2026-07-04T11:22:50.000Z</time>
      </trkpt>
      <trkpt lat="46.14998" lon="6.79327">
        <ele>1919.5999755859</ele>
        <time>2026-07-04T11:22:51.000Z</time>
      </trkpt>
      <trkpt lat="46.14998" lon="6.79327">
        <ele>1919.5999755859</ele>
        <time>2026-07-04T11:22:52.000Z</time>
      </trkpt>
      <trkpt lat="46.14998" lon="6.79326">
        <ele>1919.4000244141</ele>
        <time>2026-07-04T11:23:07.000Z</time>
      </trkpt>
      <trkpt lat="46.14997" lon="6.79326">
        <ele>1919.4000244141</ele>
        <time>2026-07-04T11:23:11.000Z</time>
      </trkpt>
      <trkpt lat="46.14997" lon="6.79326">
        <ele>1919.1999511719</ele>
        <time>2026-07-04T11:23:12.000Z</time>
      </trkpt>
      <trkpt lat="46.14997" lon="6.79326">
        <ele>1919.1999511719</ele>
        <time>2026-07-04T11:23:14.000Z</time>
      </trkpt>
      <trkpt lat="46.14998" lon="6.79327">
        <ele>1919.1999511719</ele>
        <time>2026-07-04T11:23:19.000Z</time>
      </trkpt>
      <trkpt lat="46.14997" lon="6.79327">
        <ele>1919.1999511719</ele>
        <time>2026-07-04T11:23:24.000Z</time>
      </trkpt>
      <trkpt lat="46.14998" lon="6.79327">
        <ele>1919.1999511719</ele>
        <time>2026-07-04T11:23:33.000Z</time>
      </trkpt>
      <trkpt lat="46.14998" lon="6.79327">
        <ele>1919.4000244141</ele>
        <time>2026-07-04T11:23:37.000Z</time>
      </trkpt>
      <trkpt lat="46.14998" lon="6.79327">
        <ele>1919.4000244141</ele>
        <time>2026-07-04T11:23:38.000Z</time>
      </trkpt>
      <trkpt lat="46.14997" lon="6.79326">
        <ele>1919.4000244141</ele>
        <time>2026-07-04T11:23:47.000Z</time>
      </trkpt>
      <trkpt lat="46.14997" lon="6.79326">
        <ele>1919.4000244141</ele>
        <time>2026-07-04T11:23:49.000Z</time>
      </trkpt>
      <trkpt lat="46.14998" lon="6.79327">
        <ele>1919.1999511719</ele>
        <time>2026-07-04T11:23:59.000Z</time>
      </trkpt>
      <trkpt lat="46.14998" lon="6.79327">
        <ele>1919</ele>
        <time>2026-07-04T11:24:04.000Z</time>
      </trkpt>
      <trkpt lat="46.14998" lon="6.79327">
        <ele>1919.1999511719</ele>
        <time>2026-07-04T11:24:17.000Z</time>
      </trkpt>
      <trkpt lat="46.14998" lon="6.79327">
        <ele>1919.4000244141</ele>
        <time>2026-07-04T11:24:22.000Z</time>
      </trkpt>
      <trkpt lat="46.14998" lon="6.79327">
        <ele>1919.4000244141</ele>
        <time>2026-07-04T11:24:33.000Z</time>
      </trkpt>
      <trkpt lat="46.14998" lon="6.79326">
        <ele>1919.1999511719</ele>
        <time>2026-07-04T11:24:44.000Z</time>
      </trkpt>
      <trkpt lat="46.14998" lon="6.79326">
        <ele>1919.1999511719</ele>
        <time>2026-07-04T11:24:49.000Z</time>
      </trkpt>
      <trkpt lat="46.14998" lon="6.79327">
        <ele>1919.1999511719</ele>
        <time>2026-07-04T11:24:56.000Z</time>
      </trkpt>
      <trkpt lat="46.14998" lon="6.79327">
        <ele>1919.1999511719</ele>
        <time>2026-07-04T11:24:59.000Z</time>
      </trkpt>
      <trkpt lat="46.14998" lon="6.79326">
        <ele>1919</ele>
        <time>2026-07-04T11:25:04.000Z</time>
      </trkpt>
      <trkpt lat="46.14998" lon="6.79326">
        <ele>1919.1999511719</ele>
        <time>2026-07-04T11:25:09.000Z</time>
      </trkpt>
      <trkpt lat="46.14998" lon="6.79327">
        <ele>1919.1999511719</ele>
        <time>2026-07-04T11:25:17.000Z</time>
      </trkpt>
      <trkpt lat="46.14998" lon="6.79327">
        <ele>1919.1999511719</ele>
        <time>2026-07-04T11:25:19.000Z</time>
      </trkpt>
      <trkpt lat="46.14998" lon="6.79327">
        <ele>1919.1999511719</ele>
        <time>2026-07-04T11:25:27.000Z</time>
      </trkpt>
      <trkpt lat="46.14998" lon="6.79327">
        <ele>1919.1999511719</ele>
        <time>2026-07-04T11:25:28.000Z</time>
      </trkpt>
      <trkpt lat="46.14997" lon="6.79327">
        <ele>1919.1999511719</ele>
        <time>2026-07-04T11:25:31.000Z</time>
      </trkpt>
      <trkpt lat="46.14997" lon="6.79326">
        <ele>1918.5999755859</ele>
        <time>2026-07-04T11:25:44.000Z</time>
      </trkpt>
      <trkpt lat="46.14998" lon="6.79327">
        <ele>1918.5999755859</ele>
        <time>2026-07-04T11:25:54.000Z</time>
      </trkpt>
      <trkpt lat="46.14998" lon="6.79327">
        <ele>1918.5999755859</ele>
        <time>2026-07-04T11:25:56.000Z</time>
      </trkpt>
      <trkpt lat="46.14998" lon="6.79327">
        <ele>1918.5999755859</ele>
        <time>2026-07-04T11:25:59.000Z</time>
      </trkpt>
      <trkpt lat="46.14997" lon="6.79326">
        <ele>1918.5999755859</ele>
        <time>2026-07-04T11:26:16.000Z</time>
      </trkpt>
      <trkpt lat="46.14998" lon="6.79326">
        <ele>1919</ele>
        <time>2026-07-04T11:26:28.000Z</time>
      </trkpt>
      <trkpt lat="46.14998" lon="6.79327">
        <ele>1918.4000244141</ele>
        <time>2026-07-04T11:26:47.000Z</time>
      </trkpt>
      <trkpt lat="46.14998" lon="6.79327">
        <ele>1918.4000244141</ele>
        <time>2026-07-04T11:27:01.000Z</time>
      </trkpt>
      <trkpt lat="46.14998" lon="6.79327">
        <ele>1918.8000488281</ele>
        <time>2026-07-04T11:27:16.000Z</time>
      </trkpt>
      <trkpt lat="46.14998" lon="6.79327">
        <ele>1918.8000488281</ele>
        <time>2026-07-04T11:27:32.000Z</time>
      </trkpt>
      <trkpt lat="46.14998" lon="6.79327">
        <ele>1918.8000488281</ele>
        <time>2026-07-04T11:27:34.000Z</time>
      </trkpt>
      <trkpt lat="46.14998" lon="6.79327">
        <ele>1918.5999755859</ele>
        <time>2026-07-04T11:27:39.000Z</time>
      </trkpt>
      <trkpt lat="46.14998" lon="6.79326">
        <ele>1918.4000244141</ele>
        <time>2026-07-04T11:27:42.000Z</time>
      </trkpt>
      <trkpt lat="46.14998" lon="6.79326">
        <ele>1918.5999755859</ele>
        <time>2026-07-04T11:27:50.000Z</time>
      </trkpt>
      <trkpt lat="46.14998" lon="6.79327">
        <ele>1918.5999755859</ele>
        <time>2026-07-04T11:27:58.000Z</time>
      </trkpt>
      <trkpt lat="46.14997" lon="6.79326">
        <ele>1918.5999755859</ele>
        <time>2026-07-04T11:28:04.000Z</time>
      </trkpt>
      <trkpt lat="46.14998" lon="6.79327">
        <ele>1918.4000244141</ele>
        <time>2026-07-04T11:28:16.000Z</time>
      </trkpt>
      <trkpt lat="46.14998" lon="6.79327">
        <ele>1918.5999755859</ele>
        <time>2026-07-04T11:28:22.000Z</time>
      </trkpt>
      <trkpt lat="46.14998" lon="6.79327">
        <ele>1918.5999755859</ele>
        <time>2026-07-04T11:28:25.000Z</time>
      </trkpt>
      <trkpt lat="46.14998" lon="6.79327">
        <ele>1918.5999755859</ele>
        <time>2026-07-04T11:28:33.000Z</time>
      </trkpt>
      <trkpt lat="46.14998" lon="6.79327">
        <ele>1918.5999755859</ele>
        <time>2026-07-04T11:28:38.000Z</time>
      </trkpt>
      <trkpt lat="46.14998" lon="6.79326">
        <ele>1918.8000488281</ele>
        <time>2026-07-04T11:28:49.000Z</time>
      </trkpt>
      <trkpt lat="46.14997" lon="6.79326">
        <ele>1919</ele>
        <time>2026-07-04T11:28:59.000Z</time>
      </trkpt>
      <trkpt lat="46.14998" lon="6.79327">
        <ele>1919</ele>
        <time>2026-07-04T11:29:09.000Z</time>
      </trkpt>
      <trkpt lat="46.14998" lon="6.79326">
        <ele>1919</ele>
        <time>2026-07-04T11:29:19.000Z</time>
      </trkpt>
      <trkpt lat="46.14998" lon="6.79327">
        <ele>1919</ele>
        <time>2026-07-04T11:29:33.000Z</time>
      </trkpt>
      <trkpt lat="46.14997" lon="6.79326">
        <ele>1919</ele>
        <time>2026-07-04T11:29:41.000Z</time>
      </trkpt>
      <trkpt lat="46.14997" lon="6.79326">
        <ele>1919</ele>
        <time>2026-07-04T11:29:42.000Z</time>
      </trkpt>
      <trkpt lat="46.14997" lon="6.79326">
        <ele>1919</ele>
        <time>2026-07-04T11:29:50.000Z</time>
      </trkpt>
      <trkpt lat="46.14997" lon="6.79326">
        <ele>1919</ele>
        <time>2026-07-04T11:29:53.000Z</time>
      </trkpt>
      <trkpt lat="46.14998" lon="6.79326">
        <ele>1919</ele>
        <time>2026-07-04T11:29:59.000Z</time>
      </trkpt>
      <trkpt lat="46.14998" lon="6.79326">
        <ele>1919</ele>
        <time>2026-07-04T11:30:00.000Z</time>
      </trkpt>
      <trkpt lat="46.14998" lon="6.79326">
        <ele>1919</ele>
        <time>2026-07-04T11:30:01.000Z</time>
      </trkpt>
      <trkpt lat="46.14998" lon="6.79326">
        <ele>1919</ele>
        <time>2026-07-04T11:30:05.000Z</time>
      </trkpt>
      <trkpt lat="46.14998" lon="6.79327">
        <ele>1919</ele>
        <time>2026-07-04T11:30:06.000Z</time>
      </trkpt>
      <trkpt lat="46.14998" lon="6.79327">
        <ele>1919</ele>
        <time>2026-07-04T11:30:17.000Z</time>
      </trkpt>
      <trkpt lat="46.14999" lon="6.79327">
        <ele>1919</ele>
        <time>2026-07-04T11:30:20.000Z</time>
      </trkpt>
      <trkpt lat="46.14998" lon="6.79327">
        <ele>1919</ele>
        <time>2026-07-04T11:30:37.000Z</time>
      </trkpt>
      <trkpt lat="46.14998" lon="6.79327">
        <ele>1919</ele>
        <time>2026-07-04T11:30:44.000Z</time>
      </trkpt>
      <trkpt lat="46.14998" lon="6.79327">
        <ele>1919</ele>
        <time>2026-07-04T11:30:48.000Z</time>
      </trkpt>
      <trkpt lat="46.14998" lon="6.79327">
        <ele>1919</ele>
        <time>2026-07-04T11:30:50.000Z</time>
      </trkpt>
      <trkpt lat="46.14998" lon="6.79327">
        <ele>1919</ele>
        <time>2026-07-04T11:30:55.000Z</time>
      </trkpt>
      <trkpt lat="46.14998" lon="6.79327">
        <ele>1918.5999755859</ele>
        <time>2026-07-04T11:31:13.000Z</time>
      </trkpt>
      <trkpt lat="46.14997" lon="6.79326">
        <ele>1918.5999755859</ele>
        <time>2026-07-04T11:31:22.000Z</time>
      </trkpt>
      <trkpt lat="46.14997" lon="6.79326">
        <ele>1918.5999755859</ele>
        <time>2026-07-04T11:31:24.000Z</time>
      </trkpt>
      <trkpt lat="46.14998" lon="6.79327">
        <ele>1918.8000488281</ele>
        <time>2026-07-04T11:31:27.000Z</time>
      </trkpt>
      <trkpt lat="46.14998" lon="6.79327">
        <ele>1918.8000488281</ele>
        <time>2026-07-04T11:31:31.000Z</time>
      </trkpt>
      <trkpt lat="46.14998" lon="6.79327">
        <ele>1919</ele>
        <time>2026-07-04T11:31:33.000Z</time>
      </trkpt>
      <trkpt lat="46.14998" lon="6.79327">
        <ele>1919</ele>
        <time>2026-07-04T11:31:43.000Z</time>
      </trkpt>
      <trkpt lat="46.14998" lon="6.79326">
        <ele>1919</ele>
        <time>2026-07-04T11:31:49.000Z</time>
      </trkpt>
      <trkpt lat="46.14998" lon="6.79326">
        <ele>1919.1999511719</ele>
        <time>2026-07-04T11:31:58.000Z</time>
      </trkpt>
      <trkpt lat="46.14998" lon="6.79326">
        <ele>1918.8000488281</ele>
        <time>2026-07-04T11:32:06.000Z</time>
      </trkpt>
      <trkpt lat="46.14998" lon="6.79326">
        <ele>1919</ele>
        <time>2026-07-04T11:32:10.000Z</time>
      </trkpt>
      <trkpt lat="46.14998" lon="6.79325">
        <ele>1919</ele>
        <time>2026-07-04T11:32:15.000Z</time>
      </trkpt>
      <trkpt lat="46.14998" lon="6.79326">
        <ele>1919.1999511719</ele>
        <time>2026-07-04T11:32:20.000Z</time>
      </trkpt>
      <trkpt lat="46.14998" lon="6.79327">
        <ele>1919</ele>
        <time>2026-07-04T11:32:29.000Z</time>
      </trkpt>
      <trkpt lat="46.14998" lon="6.79327">
        <ele>1919</ele>
        <time>2026-07-04T11:32:38.000Z</time>
      </trkpt>
      <trkpt lat="46.14997" lon="6.79327">
        <ele>1919</ele>
        <time>2026-07-04T11:32:47.000Z</time>
      </trkpt>
      <trkpt lat="46.14997" lon="6.79326">
        <ele>1919.1999511719</ele>
        <time>2026-07-04T11:32:59.000Z</time>
      </trkpt>
      <trkpt lat="46.14998" lon="6.79326">
        <ele>1919.1999511719</ele>
        <time>2026-07-04T11:33:03.000Z</time>
      </trkpt>
      <trkpt lat="46.14998" lon="6.79327">
        <ele>1919</ele>
        <time>2026-07-04T11:33:18.000Z</time>
      </trkpt>
      <trkpt lat="46.14998" lon="6.79327">
        <ele>1919</ele>
        <time>2026-07-04T11:33:23.000Z</time>
      </trkpt>
      <trkpt lat="46.14998" lon="6.79327">
        <ele>1919</ele>
        <time>2026-07-04T11:33:36.000Z</time>
      </trkpt>
      <trkpt lat="46.14998" lon="6.79327">
        <ele>1919.1999511719</ele>
        <time>2026-07-04T11:33:47.000Z</time>
      </trkpt>
      <trkpt lat="46.14998" lon="6.79327">
        <ele>1919.1999511719</ele>
        <time>2026-07-04T11:33:54.000Z</time>
      </trkpt>
      <trkpt lat="46.14998" lon="6.79327">
        <ele>1919.1999511719</ele>
        <time>2026-07-04T11:34:08.000Z</time>
      </trkpt>
      <trkpt lat="46.14998" lon="6.79327">
        <ele>1919.1999511719</ele>
        <time>2026-07-04T11:34:22.000Z</time>
      </trkpt>
      <trkpt lat="46.14998" lon="6.79327">
        <ele>1919.4000244141</ele>
        <time>2026-07-04T11:34:28.000Z</time>
      </trkpt>
      <trkpt lat="46.14998" lon="6.79327">
        <ele>1919.1999511719</ele>
        <time>2026-07-04T11:34:34.000Z</time>
      </trkpt>
      <trkpt lat="46.14998" lon="6.79327">
        <ele>1919.4000244141</ele>
        <time>2026-07-04T11:34:42.000Z</time>
      </trkpt>
      <trkpt lat="46.14998" lon="6.79327">
        <ele>1919.4000244141</ele>
        <time>2026-07-04T11:34:46.000Z</time>
      </trkpt>
      <trkpt lat="46.14998" lon="6.79327">
        <ele>1919.4000244141</ele>
        <time>2026-07-04T11:34:51.000Z</time>
      </trkpt>
      <trkpt lat="46.14998" lon="6.79327">
        <ele>1919.4000244141</ele>
        <time>2026-07-04T11:35:10.000Z</time>
      </trkpt>
      <trkpt lat="46.14998" lon="6.79326">
        <ele>1919.4000244141</ele>
        <time>2026-07-04T11:35:28.000Z</time>
      </trkpt>
      <trkpt lat="46.14998" lon="6.79325">
        <ele>1919.4000244141</ele>
        <time>2026-07-04T11:35:35.000Z</time>
      </trkpt>
      <trkpt lat="46.14997" lon="6.79326">
        <ele>1919.4000244141</ele>
        <time>2026-07-04T11:35:39.000Z</time>
      </trkpt>
      <trkpt lat="46.14997" lon="6.79326">
        <ele>1919.5999755859</ele>
        <time>2026-07-04T11:35:41.000Z</time>
      </trkpt>
      <trkpt lat="46.14997" lon="6.79326">
        <ele>1919.8000488281</ele>
        <time>2026-07-04T11:35:44.000Z</time>
      </trkpt>
      <trkpt lat="46.14998" lon="6.79327">
        <ele>1919.4000244141</ele>
        <time>2026-07-04T11:35:51.000Z</time>
      </trkpt>
      <trkpt lat="46.14998" lon="6.79327">
        <ele>1919.4000244141</ele>
        <time>2026-07-04T11:35:53.000Z</time>
      </trkpt>
      <trkpt lat="46.14997" lon="6.79325">
        <ele>1919.4000244141</ele>
        <time>2026-07-04T11:35:57.000Z</time>
      </trkpt>
      <trkpt lat="46.14997" lon="6.79325">
        <ele>1919.4000244141</ele>
        <time>2026-07-04T11:36:00.000Z</time>
      </trkpt>
      <trkpt lat="46.14997" lon="6.79325">
        <ele>1919.8000488281</ele>
        <time>2026-07-04T11:36:19.000Z</time>
      </trkpt>
      <trkpt lat="46.14997" lon="6.79325">
        <ele>1919.8000488281</ele>
        <time>2026-07-04T11:36:22.000Z</time>
      </trkpt>
      <trkpt lat="46.14998" lon="6.79326">
        <ele>1919.5999755859</ele>
        <time>2026-07-04T11:36:30.000Z</time>
      </trkpt>
      <trkpt lat="46.14999" lon="6.79326">
        <ele>1919.5999755859</ele>
        <time>2026-07-04T11:36:35.000Z</time>
      </trkpt>
      <trkpt lat="46.14999" lon="6.79326">
        <ele>1919.8000488281</ele>
        <time>2026-07-04T11:36:36.000Z</time>
      </trkpt>
      <trkpt lat="46.14999" lon="6.79326">
        <ele>1919.8000488281</ele>
        <time>2026-07-04T11:36:40.000Z</time>
      </trkpt>
      <trkpt lat="46.14998" lon="6.79326">
        <ele>1919.8000488281</ele>
        <time>2026-07-04T11:36:52.000Z</time>
      </trkpt>
      <trkpt lat="46.14998" lon="6.79326">
        <ele>1919.5999755859</ele>
        <time>2026-07-04T11:37:00.000Z</time>
      </trkpt>
      <trkpt lat="46.14999" lon="6.79326">
        <ele>1919.5999755859</ele>
        <time>2026-07-04T11:37:05.000Z</time>
      </trkpt>
      <trkpt lat="46.14997" lon="6.79326">
        <ele>1919.5999755859</ele>
        <time>2026-07-04T11:37:34.000Z</time>
      </trkpt>
      <trkpt lat="46.14997" lon="6.79325">
        <ele>1919.8000488281</ele>
        <time>2026-07-04T11:37:40.000Z</time>
      </trkpt>
      <trkpt lat="46.14997" lon="6.79325">
        <ele>1919.8000488281</ele>
        <time>2026-07-04T11:37:46.000Z</time>
      </trkpt>
      <trkpt lat="46.14997" lon="6.79325">
        <ele>1919.8000488281</ele>
        <time>2026-07-04T11:37:48.000Z</time>
      </trkpt>
      <trkpt lat="46.14997" lon="6.79325">
        <ele>1919.8000488281</ele>
        <time>2026-07-04T11:37:53.000Z</time>
      </trkpt>
      <trkpt lat="46.14997" lon="6.79326">
        <ele>1919.8000488281</ele>
        <time>2026-07-04T11:38:09.000Z</time>
      </trkpt>
      <trkpt lat="46.14997" lon="6.79325">
        <ele>1920</ele>
        <time>2026-07-04T11:38:12.000Z</time>
      </trkpt>
      <trkpt lat="46.14997" lon="6.79325">
        <ele>1920</ele>
        <time>2026-07-04T11:38:24.000Z</time>
      </trkpt>
      <trkpt lat="46.14997" lon="6.79325">
        <ele>1920</ele>
        <time>2026-07-04T11:38:25.000Z</time>
      </trkpt>
      <trkpt lat="46.14996" lon="6.79326">
        <ele>1919.8000488281</ele>
        <time>2026-07-04T11:38:39.000Z</time>
      </trkpt>
      <trkpt lat="46.14996" lon="6.79326">
        <ele>1920</ele>
        <time>2026-07-04T11:38:43.000Z</time>
      </trkpt>
      <trkpt lat="46.14997" lon="6.79325">
        <ele>1919.8000488281</ele>
        <time>2026-07-04T11:38:55.000Z</time>
      </trkpt>
      <trkpt lat="46.14998" lon="6.79326">
        <ele>1920</ele>
        <time>2026-07-04T11:39:02.000Z</time>
      </trkpt>
      <trkpt lat="46.14998" lon="6.79326">
        <ele>1920</ele>
        <time>2026-07-04T11:39:07.000Z</time>
      </trkpt>
      <trkpt lat="46.14998" lon="6.79326">
        <ele>1920</ele>
        <time>2026-07-04T11:39:09.000Z</time>
      </trkpt>
      <trkpt lat="46.14997" lon="6.79326">
        <ele>1920</ele>
        <time>2026-07-04T11:39:26.000Z</time>
      </trkpt>
      <trkpt lat="46.14996" lon="6.79326">
        <ele>1920.1999511719</ele>
        <time>2026-07-04T11:39:32.000Z</time>
      </trkpt>
      <trkpt lat="46.14996" lon="6.79326">
        <ele>1920.1999511719</ele>
        <time>2026-07-04T11:39:33.000Z</time>
      </trkpt>
      <trkpt lat="46.14996" lon="6.79326">
        <ele>1920.1999511719</ele>
        <time>2026-07-04T11:39:39.000Z</time>
      </trkpt>
      <trkpt lat="46.14997" lon="6.79326">
        <ele>1920.1999511719</ele>
        <time>2026-07-04T11:39:48.000Z</time>
      </trkpt>
      <trkpt lat="46.14997" lon="6.79325">
        <ele>1920.1999511719</ele>
        <time>2026-07-04T11:40:08.000Z</time>
      </trkpt>
      <trkpt lat="46.14997" lon="6.79325">
        <ele>1920.1999511719</ele>
        <time>2026-07-04T11:40:11.000Z</time>
      </trkpt>
      <trkpt lat="46.14997" lon="6.79326">
        <ele>1920.4000244141</ele>
        <time>2026-07-04T11:40:24.000Z</time>
      </trkpt>
      <trkpt lat="46.14997" lon="6.79325">
        <ele>1920.4000244141</ele>
        <time>2026-07-04T11:40:37.000Z</time>
      </trkpt>
      <trkpt lat="46.14997" lon="6.79327">
        <ele>1920.8000488281</ele>
        <time>2026-07-04T11:40:48.000Z</time>
      </trkpt>
      <trkpt lat="46.14997" lon="6.79325">
        <ele>1920.1999511719</ele>
        <time>2026-07-04T11:40:59.000Z</time>
      </trkpt>
      <trkpt lat="46.14997" lon="6.79326">
        <ele>1920.4000244141</ele>
        <time>2026-07-04T11:41:13.000Z</time>
      </trkpt>
      <trkpt lat="46.14997" lon="6.79326">
        <ele>1920.1999511719</ele>
        <time>2026-07-04T11:41:16.000Z</time>
      </trkpt>
      <trkpt lat="46.14997" lon="6.79325">
        <ele>1920.1999511719</ele>
        <time>2026-07-04T11:41:26.000Z</time>
      </trkpt>
      <trkpt lat="46.14998" lon="6.79326">
        <ele>1920</ele>
        <time>2026-07-04T11:41:40.000Z</time>
      </trkpt>
      <trkpt lat="46.14997" lon="6.79325">
        <ele>1920</ele>
        <time>2026-07-04T11:41:49.000Z</time>
      </trkpt>
      <trkpt lat="46.14997" lon="6.79325">
        <ele>1920</ele>
        <time>2026-07-04T11:41:51.000Z</time>
      </trkpt>
      <trkpt lat="46.14998" lon="6.79325">
        <ele>1920</ele>
        <time>2026-07-04T11:41:54.000Z</time>
      </trkpt>
      <trkpt lat="46.14997" lon="6.79325">
        <ele>1920</ele>
        <time>2026-07-04T11:41:59.000Z</time>
      </trkpt>
      <trkpt lat="46.14997" lon="6.79324">
        <ele>1920</ele>
        <time>2026-07-04T11:42:01.000Z</time>
      </trkpt>
      <trkpt lat="46.14998" lon="6.79325">
        <ele>1920.1999511719</ele>
        <time>2026-07-04T11:42:12.000Z</time>
      </trkpt>
      <trkpt lat="46.14997" lon="6.79325">
        <ele>1920.1999511719</ele>
        <time>2026-07-04T11:42:21.000Z</time>
      </trkpt>
      <trkpt lat="46.14997" lon="6.79325">
        <ele>1920.1999511719</ele>
        <time>2026-07-04T11:42:22.000Z</time>
      </trkpt>
      <trkpt lat="46.14997" lon="6.79325">
        <ele>1920.1999511719</ele>
        <time>2026-07-04T11:42:23.000Z</time>
      </trkpt>
      <trkpt lat="46.14997" lon="6.79325">
        <ele>1920.1999511719</ele>
        <time>2026-07-04T11:42:24.000Z</time>
      </trkpt>
      <trkpt lat="46.14997" lon="6.79325">
        <ele>1920.1999511719</ele>
        <time>2026-07-04T11:42:31.000Z</time>
      </trkpt>
      <trkpt lat="46.14997" lon="6.79326">
        <ele>1920</ele>
        <time>2026-07-04T11:42:38.000Z</time>
      </trkpt>
      <trkpt lat="46.14997" lon="6.79326">
        <ele>1920.4000244141</ele>
        <time>2026-07-04T11:42:47.000Z</time>
      </trkpt>
      <trkpt lat="46.14998" lon="6.79325">
        <ele>1920.1999511719</ele>
        <time>2026-07-04T11:42:54.000Z</time>
      </trkpt>
      <trkpt lat="46.14998" lon="6.79325">
        <ele>1920.1999511719</ele>
        <time>2026-07-04T11:42:59.000Z</time>
      </trkpt>
      <trkpt lat="46.14998" lon="6.79326">
        <ele>1920</ele>
        <time>2026-07-04T11:43:13.000Z</time>
      </trkpt>
      <trkpt lat="46.14998" lon="6.79326">
        <ele>1920</ele>
        <time>2026-07-04T11:43:14.000Z</time>
      </trkpt>
      <trkpt lat="46.14997" lon="6.79326">
        <ele>1920</ele>
        <time>2026-07-04T11:43:15.000Z</time>
      </trkpt>
      <trkpt lat="46.14997" lon="6.79326">
        <ele>1920.1999511719</ele>
        <time>2026-07-04T11:43:21.000Z</time>
      </trkpt>
      <trkpt lat="46.14997" lon="6.79326">
        <ele>1920</ele>
        <time>2026-07-04T11:43:25.000Z</time>
      </trkpt>
      <trkpt lat="46.14997" lon="6.79325">
        <ele>1920</ele>
        <time>2026-07-04T11:43:26.000Z</time>
      </trkpt>
      <trkpt lat="46.14998" lon="6.79325">
        <ele>1920</ele>
        <time>2026-07-04T11:43:46.000Z</time>
      </trkpt>
      <trkpt lat="46.14997" lon="6.79325">
        <ele>1920</ele>
        <time>2026-07-04T11:43:56.000Z</time>
      </trkpt>
      <trkpt lat="46.14997" lon="6.79325">
        <ele>1920</ele>
        <time>2026-07-04T11:43:59.000Z</time>
      </trkpt>
      <trkpt lat="46.14997" lon="6.79325">
        <ele>1919.8000488281</ele>
        <time>2026-07-04T11:44:20.000Z</time>
      </trkpt>
      <trkpt lat="46.14997" lon="6.79325">
        <ele>1919.8000488281</ele>
        <time>2026-07-04T11:44:27.000Z</time>
      </trkpt>
      <trkpt lat="46.14997" lon="6.79325">
        <ele>1919.8000488281</ele>
        <time>2026-07-04T11:44:42.000Z</time>
      </trkpt>
      <trkpt lat="46.14997" lon="6.79325">
        <ele>1919.8000488281</ele>
        <time>2026-07-04T11:45:06.000Z</time>
      </trkpt>
      <trkpt lat="46.14997" lon="6.79325">
        <ele>1920</ele>
        <time>2026-07-04T11:45:15.000Z</time>
      </trkpt>
      <trkpt lat="46.14997" lon="6.79326">
        <ele>1920</ele>
        <time>2026-07-04T11:45:29.000Z</time>
      </trkpt>
      <trkpt lat="46.14997" lon="6.79325">
        <ele>1920</ele>
        <time>2026-07-04T11:45:39.000Z</time>
      </trkpt>
      <trkpt lat="46.14998" lon="6.79325">
        <ele>1919.8000488281</ele>
        <time>2026-07-04T11:45:49.000Z</time>
      </trkpt>
      <trkpt lat="46.14997" lon="6.79325">
        <ele>1919.8000488281</ele>
        <time>2026-07-04T11:46:07.000Z</time>
      </trkpt>
      <trkpt lat="46.14998" lon="6.79325">
        <ele>1919.8000488281</ele>
        <time>2026-07-04T11:46:18.000Z</time>
      </trkpt>
      <trkpt lat="46.14998" lon="6.79325">
        <ele>1920</ele>
        <time>2026-07-04T11:46:28.000Z</time>
      </trkpt>
      <trkpt lat="46.14998" lon="6.79325">
        <ele>1919.8000488281</ele>
        <time>2026-07-04T11:46:38.000Z</time>
      </trkpt>
      <trkpt lat="46.14998" lon="6.79325">
        <ele>1919.8000488281</ele>
        <time>2026-07-04T11:46:44.000Z</time>
      </trkpt>
      <trkpt lat="46.14998" lon="6.79324">
        <ele>1919.5999755859</ele>
        <time>2026-07-04T11:46:49.000Z</time>
      </trkpt>
      <trkpt lat="46.14997" lon="6.79325">
        <ele>1919.8000488281</ele>
        <time>2026-07-04T11:46:55.000Z</time>
      </trkpt>
      <trkpt lat="46.14997" lon="6.79326">
        <ele>1919.8000488281</ele>
        <time>2026-07-04T11:46:58.000Z</time>
      </trkpt>
      <trkpt lat="46.14997" lon="6.79325">
        <ele>1919.8000488281</ele>
        <time>2026-07-04T11:47:04.000Z</time>
      </trkpt>
      <trkpt lat="46.14996" lon="6.79326">
        <ele>1919.8000488281</ele>
        <time>2026-07-04T11:47:16.000Z</time>
      </trkpt>
      <trkpt lat="46.14997" lon="6.79326">
        <ele>1919.4000244141</ele>
        <time>2026-07-04T11:47:28.000Z</time>
      </trkpt>
      <trkpt lat="46.14997" lon="6.79325">
        <ele>1919.1999511719</ele>
        <time>2026-07-04T11:47:43.000Z</time>
      </trkpt>
      <trkpt lat="46.14997" lon="6.79326">
        <ele>1919.4000244141</ele>
        <time>2026-07-04T11:47:52.000Z</time>
      </trkpt>
      <trkpt lat="46.14997" lon="6.79325">
        <ele>1919.1999511719</ele>
        <time>2026-07-04T11:47:55.000Z</time>
      </trkpt>
      <trkpt lat="46.14997" lon="6.79325">
        <ele>1919.4000244141</ele>
        <time>2026-07-04T11:48:14.000Z</time>
      </trkpt>
      <trkpt lat="46.14996" lon="6.79326">
        <ele>1919.4000244141</ele>
        <time>2026-07-04T11:48:20.000Z</time>
      </trkpt>
      <trkpt lat="46.14996" lon="6.79325">
        <ele>1919.1999511719</ele>
        <time>2026-07-04T11:48:25.000Z</time>
      </trkpt>
      <trkpt lat="46.14997" lon="6.79325">
        <ele>1919.1999511719</ele>
        <time>2026-07-04T11:48:26.000Z</time>
      </trkpt>
      <trkpt lat="46.14997" lon="6.79326">
        <ele>1919.1999511719</ele>
        <time>2026-07-04T11:48:37.000Z</time>
      </trkpt>
      <trkpt lat="46.14997" lon="6.79325">
        <ele>1919</ele>
        <time>2026-07-04T11:48:50.000Z</time>
      </trkpt>
      <trkpt lat="46.14998" lon="6.79325">
        <ele>1918.8000488281</ele>
        <time>2026-07-04T11:48:58.000Z</time>
      </trkpt>
      <trkpt lat="46.14998" lon="6.79325">
        <ele>1919</ele>
        <time>2026-07-04T11:49:06.000Z</time>
      </trkpt>
      <trkpt lat="46.14997" lon="6.79326">
        <ele>1919.1999511719</ele>
        <time>2026-07-04T11:49:17.000Z</time>
      </trkpt>
      <trkpt lat="46.14996" lon="6.79326">
        <ele>1919.4000244141</ele>
        <time>2026-07-04T11:49:26.000Z</time>
      </trkpt>
      <trkpt lat="46.14998" lon="6.79325">
        <ele>1918.8000488281</ele>
        <time>2026-07-04T11:49:37.000Z</time>
      </trkpt>
      <trkpt lat="46.14998" lon="6.79326">
        <ele>1919</ele>
        <time>2026-07-04T11:49:47.000Z</time>
      </trkpt>
      <trkpt lat="46.14998" lon="6.79326">
        <ele>1919.1999511719</ele>
        <time>2026-07-04T11:49:49.000Z</time>
      </trkpt>
      <trkpt lat="46.14999" lon="6.79327">
        <ele>1919.4000244141</ele>
        <time>2026-07-04T11:49:55.000Z</time>
      </trkpt>
      <trkpt lat="46.14999" lon="6.79327">
        <ele>1919.1999511719</ele>
        <time>2026-07-04T11:49:56.000Z</time>
      </trkpt>
      <trkpt lat="46.14999" lon="6.79327">
        <ele>1919.4000244141</ele>
        <time>2026-07-04T11:50:02.000Z</time>
      </trkpt>
      <trkpt lat="46.14998" lon="6.79327">
        <ele>1919.1999511719</ele>
        <time>2026-07-04T11:50:08.000Z</time>
      </trkpt>
      <trkpt lat="46.14997" lon="6.79326">
        <ele>1918.8000488281</ele>
        <time>2026-07-04T11:50:16.000Z</time>
      </trkpt>
      <trkpt lat="46.14997" lon="6.79325">
        <ele>1918.8000488281</ele>
        <time>2026-07-04T11:50:28.000Z</time>
      </trkpt>
      <trkpt lat="46.14997" lon="6.79325">
        <ele>1919</ele>
        <time>2026-07-04T11:50:37.000Z</time>
      </trkpt>
      <trkpt lat="46.14997" lon="6.79325">
        <ele>1919</ele>
        <time>2026-07-04T11:50:50.000Z</time>
      </trkpt>
      <trkpt lat="46.14997" lon="6.79325">
        <ele>1919</ele>
        <time>2026-07-04T11:51:01.000Z</time>
      </trkpt>
      <trkpt lat="46.14997" lon="6.79325">
        <ele>1919.1999511719</ele>
        <time>2026-07-04T11:51:25.000Z</time>
      </trkpt>
      <trkpt lat="46.14997" lon="6.79325">
        <ele>1919.1999511719</ele>
        <time>2026-07-04T11:51:48.000Z</time>
      </trkpt>
      <trkpt lat="46.14997" lon="6.79325">
        <ele>1919.1999511719</ele>
        <time>2026-07-04T11:52:09.000Z</time>
      </trkpt>
      <trkpt lat="46.14997" lon="6.79325">
        <ele>1919</ele>
        <time>2026-07-04T11:52:33.000Z</time>
      </trkpt>
      <trkpt lat="46.14998" lon="6.79324">
        <ele>1919</ele>
        <time>2026-07-04T11:52:51.000Z</time>
      </trkpt>
      <trkpt lat="46.14997" lon="6.79325">
        <ele>1919.4000244141</ele>
        <time>2026-07-04T11:53:01.000Z</time>
      </trkpt>
      <trkpt lat="46.14995" lon="6.79326">
        <ele>1919</ele>
        <time>2026-07-04T11:53:18.000Z</time>
      </trkpt>
      <trkpt lat="46.14995" lon="6.79326">
        <ele>1918.8000488281</ele>
        <time>2026-07-04T11:53:30.000Z</time>
      </trkpt>
      <trkpt lat="46.14998" lon="6.79324">
        <ele>1918.8000488281</ele>
        <time>2026-07-04T11:53:40.000Z</time>
      </trkpt>
      <trkpt lat="46.14998" lon="6.79325">
        <ele>1918.8000488281</ele>
        <time>2026-07-04T11:53:50.000Z</time>
      </trkpt>
      <trkpt lat="46.14997" lon="6.79325">
        <ele>1918.8000488281</ele>
        <time>2026-07-04T11:53:57.000Z</time>
      </trkpt>
      <trkpt lat="46.14997" lon="6.79325">
        <ele>1918.8000488281</ele>
        <time>2026-07-04T11:54:09.000Z</time>
      </trkpt>
      <trkpt lat="46.14998" lon="6.79326">
        <ele>1918.8000488281</ele>
        <time>2026-07-04T11:54:24.000Z</time>
      </trkpt>
      <trkpt lat="46.14998" lon="6.79327">
        <ele>1918.5999755859</ele>
        <time>2026-07-04T11:54:35.000Z</time>
      </trkpt>
      <trkpt lat="46.14999" lon="6.79326">
        <ele>1918.8000488281</ele>
        <time>2026-07-04T11:54:49.000Z</time>
      </trkpt>
      <trkpt lat="46.14998" lon="6.79326">
        <ele>1918.4000244141</ele>
        <time>2026-07-04T11:55:05.000Z</time>
      </trkpt>
      <trkpt lat="46.14997" lon="6.79326">
        <ele>1918.4000244141</ele>
        <time>2026-07-04T11:55:14.000Z</time>
      </trkpt>
      <trkpt lat="46.14997" lon="6.79326">
        <ele>1918.4000244141</ele>
        <time>2026-07-04T11:55:19.000Z</time>
      </trkpt>
      <trkpt lat="46.14997" lon="6.79325">
        <ele>1918.4000244141</ele>
        <time>2026-07-04T11:55:22.000Z</time>
      </trkpt>
      <trkpt lat="46.14997" lon="6.79325">
        <ele>1918.4000244141</ele>
        <time>2026-07-04T11:55:30.000Z</time>
      </trkpt>
      <trkpt lat="46.14997" lon="6.79324">
        <ele>1918.5999755859</ele>
        <time>2026-07-04T11:55:33.000Z</time>
      </trkpt>
      <trkpt lat="46.14998" lon="6.79326">
        <ele>1918.5999755859</ele>
        <time>2026-07-04T11:55:43.000Z</time>
      </trkpt>
      <trkpt lat="46.14997" lon="6.79326">
        <ele>1918.4000244141</ele>
        <time>2026-07-04T11:55:46.000Z</time>
      </trkpt>
      <trkpt lat="46.14997" lon="6.79326">
        <ele>1918.1999511719</ele>
        <time>2026-07-04T11:55:56.000Z</time>
      </trkpt>
      <trkpt lat="46.14997" lon="6.79326">
        <ele>1918.1999511719</ele>
        <time>2026-07-04T11:56:01.000Z</time>
      </trkpt>
      <trkpt lat="46.14997" lon="6.79325">
        <ele>1918.1999511719</ele>
        <time>2026-07-04T11:56:09.000Z</time>
      </trkpt>
      <trkpt lat="46.14998" lon="6.79325">
        <ele>1918.1999511719</ele>
        <time>2026-07-04T11:56:15.000Z</time>
      </trkpt>
      <trkpt lat="46.14998" lon="6.79325">
        <ele>1919</ele>
        <time>2026-07-04T11:56:22.000Z</time>
      </trkpt>
      <trkpt lat="46.14998" lon="6.79326">
        <ele>1918.8000488281</ele>
        <time>2026-07-04T11:56:32.000Z</time>
      </trkpt>
      <trkpt lat="46.14998" lon="6.79326">
        <ele>1918.5999755859</ele>
        <time>2026-07-04T11:56:34.000Z</time>
      </trkpt>
      <trkpt lat="46.14998" lon="6.79327">
        <ele>1918.5999755859</ele>
        <time>2026-07-04T11:56:36.000Z</time>
      </trkpt>
      <trkpt lat="46.14998" lon="6.79329">
        <ele>1918.4000244141</ele>
        <time>2026-07-04T11:56:40.000Z</time>
      </trkpt>
      <trkpt lat="46.14998" lon="6.79329">
        <ele>1918.8000488281</ele>
        <time>2026-07-04T11:56:52.000Z</time>
      </trkpt>
      <trkpt lat="46.14998" lon="6.79328">
        <ele>1919</ele>
        <time>2026-07-04T11:56:54.000Z</time>
      </trkpt>
      <trkpt lat="46.14998" lon="6.79324">
        <ele>1919.5999755859</ele>
        <time>2026-07-04T11:57:03.000Z</time>
      </trkpt>
      <trkpt lat="46.14998" lon="6.79324">
        <ele>1919.4000244141</ele>
        <time>2026-07-04T11:57:10.000Z</time>
      </trkpt>
      <trkpt lat="46.14998" lon="6.79324">
        <ele>1919.1999511719</ele>
        <time>2026-07-04T11:57:18.000Z</time>
      </trkpt>
      <trkpt lat="46.15" lon="6.79323">
        <ele>1919</ele>
        <time>2026-07-04T11:57:31.000Z</time>
      </trkpt>
      <trkpt lat="46.15" lon="6.79326">
        <ele>1919.1999511719</ele>
        <time>2026-07-04T11:57:41.000Z</time>
      </trkpt>
      <trkpt lat="46.14999" lon="6.79327">
        <ele>1918.8000488281</ele>
        <time>2026-07-04T11:57:48.000Z</time>
      </trkpt>
      <trkpt lat="46.15" lon="6.79327">
        <ele>1918.4000244141</ele>
        <time>2026-07-04T11:57:52.000Z</time>
      </trkpt>
      <trkpt lat="46.15" lon="6.79327">
        <ele>1918.5999755859</ele>
        <time>2026-07-04T11:57:56.000Z</time>
      </trkpt>
      <trkpt lat="46.15" lon="6.79327">
        <ele>1918.8000488281</ele>
        <time>2026-07-04T11:57:58.000Z</time>
      </trkpt>
      <trkpt lat="46.14999" lon="6.79327">
        <ele>1919</ele>
        <time>2026-07-04T11:58:05.000Z</time>
      </trkpt>
      <trkpt lat="46.14999" lon="6.79326">
        <ele>1919.5999755859</ele>
        <time>2026-07-04T11:58:09.000Z</time>
      </trkpt>
      <trkpt lat="46.14998" lon="6.79326">
        <ele>1919.5999755859</ele>
        <time>2026-07-04T11:58:17.000Z</time>
      </trkpt>
      <trkpt lat="46.14998" lon="6.79326">
        <ele>1919.8000488281</ele>
        <time>2026-07-04T11:58:19.000Z</time>
      </trkpt>
      <trkpt lat="46.14999" lon="6.79327">
        <ele>1919.8000488281</ele>
        <time>2026-07-04T11:58:23.000Z</time>
      </trkpt>
      <trkpt lat="46.15" lon="6.79327">
        <ele>1919.5999755859</ele>
        <time>2026-07-04T11:58:29.000Z</time>
      </trkpt>
      <trkpt lat="46.14998" lon="6.79325">
        <ele>1919.5999755859</ele>
        <time>2026-07-04T11:58:37.000Z</time>
      </trkpt>
      <trkpt lat="46.14997" lon="6.79324">
        <ele>1919.4000244141</ele>
        <time>2026-07-04T11:58:44.000Z</time>
      </trkpt>
      <trkpt lat="46.14997" lon="6.79324">
        <ele>1919.4000244141</ele>
        <time>2026-07-04T11:58:45.000Z</time>
      </trkpt>
      <trkpt lat="46.14996" lon="6.79324">
        <ele>1919.5999755859</ele>
        <time>2026-07-04T11:58:49.000Z</time>
      </trkpt>
      <trkpt lat="46.14997" lon="6.79325">
        <ele>1919.5999755859</ele>
        <time>2026-07-04T11:58:52.000Z</time>
      </trkpt>
      <trkpt lat="46.14997" lon="6.79326">
        <ele>1919.1999511719</ele>
        <time>2026-07-04T11:58:55.000Z</time>
      </trkpt>
      <trkpt lat="46.14997" lon="6.79326">
        <ele>1919</ele>
        <time>2026-07-04T11:58:58.000Z</time>
      </trkpt>
      <trkpt lat="46.14997" lon="6.79326">
        <ele>1919.1999511719</ele>
        <time>2026-07-04T11:59:05.000Z</time>
      </trkpt>
      <trkpt lat="46.14997" lon="6.79326">
        <ele>1918.8000488281</ele>
        <time>2026-07-04T11:59:16.000Z</time>
      </trkpt>
      <trkpt lat="46.14997" lon="6.79326">
        <ele>1919</ele>
        <time>2026-07-04T11:59:27.000Z</time>
      </trkpt>
      <trkpt lat="46.14997" lon="6.79326">
        <ele>1919</ele>
        <time>2026-07-04T11:59:29.000Z</time>
      </trkpt>
      <trkpt lat="46.14997" lon="6.79326">
        <ele>1919</ele>
        <time>2026-07-04T11:59:31.000Z</time>
      </trkpt>
      <trkpt lat="46.14997" lon="6.79327">
        <ele>1919</ele>
        <time>2026-07-04T11:59:33.000Z</time>
      </trkpt>
      <trkpt lat="46.14997" lon="6.79327">
        <ele>1919</ele>
        <time>2026-07-04T11:59:38.000Z</time>
      </trkpt>
      <trkpt lat="46.14997" lon="6.79328">
        <ele>1919</ele>
        <time>2026-07-04T11:59:45.000Z</time>
      </trkpt>
      <trkpt lat="46.14998" lon="6.79327">
        <ele>1919</ele>
        <time>2026-07-04T11:59:50.000Z</time>
      </trkpt>
      <trkpt lat="46.14996" lon="6.79326">
        <ele>1919</ele>
        <time>2026-07-04T12:00:00.000Z</time>
      </trkpt>
      <trkpt lat="46.14996" lon="6.79326">
        <ele>1919</ele>
        <time>2026-07-04T12:00:02.000Z</time>
      </trkpt>
      <trkpt lat="46.14997" lon="6.79326">
        <ele>1919.1999511719</ele>
        <time>2026-07-04T12:00:09.000Z</time>
      </trkpt>
      <trkpt lat="46.14996" lon="6.79327">
        <ele>1919.4000244141</ele>
        <time>2026-07-04T12:00:15.000Z</time>
      </trkpt>
      <trkpt lat="46.14996" lon="6.79327">
        <ele>1919.1999511719</ele>
        <time>2026-07-04T12:00:20.000Z</time>
      </trkpt>
      <trkpt lat="46.14996" lon="6.79327">
        <ele>1919.1999511719</ele>
        <time>2026-07-04T12:00:29.000Z</time>
      </trkpt>
      <trkpt lat="46.14997" lon="6.79326">
        <ele>1919</ele>
        <time>2026-07-04T12:00:36.000Z</time>
      </trkpt>
      <trkpt lat="46.14997" lon="6.79325">
        <ele>1919</ele>
        <time>2026-07-04T12:00:39.000Z</time>
      </trkpt>
      <trkpt lat="46.14998" lon="6.79325">
        <ele>1919</ele>
        <time>2026-07-04T12:00:42.000Z</time>
      </trkpt>
      <trkpt lat="46.14998" lon="6.79325">
        <ele>1919</ele>
        <time>2026-07-04T12:00:45.000Z</time>
      </trkpt>
      <trkpt lat="46.14998" lon="6.79325">
        <ele>1919</ele>
        <time>2026-07-04T12:00:47.000Z</time>
      </trkpt>
      <trkpt lat="46.14998" lon="6.79325">
        <ele>1919</ele>
        <time>2026-07-04T12:00:49.000Z</time>
      </trkpt>
      <trkpt lat="46.14998" lon="6.79325">
        <ele>1919.1999511719</ele>
        <time>2026-07-04T12:00:53.000Z</time>
      </trkpt>
      <trkpt lat="46.14997" lon="6.79325">
        <ele>1919</ele>
        <time>2026-07-04T12:00:57.000Z</time>
      </trkpt>
      <trkpt lat="46.14997" lon="6.79326">
        <ele>1919</ele>
        <time>2026-07-04T12:00:59.000Z</time>
      </trkpt>
      <trkpt lat="46.14996" lon="6.79326">
        <ele>1918.8000488281</ele>
        <time>2026-07-04T12:01:13.000Z</time>
      </trkpt>
      <trkpt lat="46.14999" lon="6.79325">
        <ele>1918.8000488281</ele>
        <time>2026-07-04T12:01:21.000Z</time>
      </trkpt>
      <trkpt lat="46.15" lon="6.79324">
        <ele>1919.1999511719</ele>
        <time>2026-07-04T12:01:35.000Z</time>
      </trkpt>
      <trkpt lat="46.15" lon="6.79324">
        <ele>1919.1999511719</ele>
        <time>2026-07-04T12:01:51.000Z</time>
      </trkpt>
      <trkpt lat="46.14999" lon="6.79325">
        <ele>1919.4000244141</ele>
        <time>2026-07-04T12:02:04.000Z</time>
      </trkpt>
      <trkpt lat="46.15" lon="6.79322">
        <ele>1919.1999511719</ele>
        <time>2026-07-04T12:02:13.000Z</time>
      </trkpt>
      <trkpt lat="46.15001" lon="6.79324">
        <ele>1919.1999511719</ele>
        <time>2026-07-04T12:02:21.000Z</time>
      </trkpt>
      <trkpt lat="46.15001" lon="6.79324">
        <ele>1920</ele>
        <time>2026-07-04T12:02:25.000Z</time>
      </trkpt>
      <trkpt lat="46.15" lon="6.79323">
        <ele>1919.8000488281</ele>
        <time>2026-07-04T12:02:29.000Z</time>
      </trkpt>
      <trkpt lat="46.15" lon="6.79324">
        <ele>1919.5999755859</ele>
        <time>2026-07-04T12:02:35.000Z</time>
      </trkpt>
      <trkpt lat="46.15" lon="6.79324">
        <ele>1919.4000244141</ele>
        <time>2026-07-04T12:02:38.000Z</time>
      </trkpt>
      <trkpt lat="46.15" lon="6.79324">
        <ele>1919.1999511719</ele>
        <time>2026-07-04T12:02:41.000Z</time>
      </trkpt>
      <trkpt lat="46.15004" lon="6.79321">
        <ele>1919.5999755859</ele>
        <time>2026-07-04T12:02:55.000Z</time>
      </trkpt>
      <trkpt lat="46.15009" lon="6.79315">
        <ele>1920</ele>
        <time>2026-07-04T12:03:03.000Z</time>
      </trkpt>
      <trkpt lat="46.15009" lon="6.79315">
        <ele>1920.1999511719</ele>
        <time>2026-07-04T12:03:04.000Z</time>
      </trkpt>
      <trkpt lat="46.15013" lon="6.79312">
        <ele>1920.8000488281</ele>
        <time>2026-07-04T12:03:11.000Z</time>
      </trkpt>
      <trkpt lat="46.15015" lon="6.79311">
        <ele>1921.1999511719</ele>
        <time>2026-07-04T12:03:16.000Z</time>
      </trkpt>
      <trkpt lat="46.15017" lon="6.79308">
        <ele>1921.5999755859</ele>
        <time>2026-07-04T12:03:20.000Z</time>
      </trkpt>
      <trkpt lat="46.15017" lon="6.79306">
        <ele>1921.5999755859</ele>
        <time>2026-07-04T12:03:21.000Z</time>
      </trkpt>
      <trkpt lat="46.15018" lon="6.79305">
        <ele>1921.8000488281</ele>
        <time>2026-07-04T12:03:22.000Z</time>
      </trkpt>
      <trkpt lat="46.15019" lon="6.79304">
        <ele>1922</ele>
        <time>2026-07-04T12:03:25.000Z</time>
      </trkpt>
      <trkpt lat="46.1502" lon="6.79302">
        <ele>1922.4000244141</ele>
        <time>2026-07-04T12:03:26.000Z</time>
      </trkpt>
      <trkpt lat="46.15022" lon="6.79299">
        <ele>1923</ele>
        <time>2026-07-04T12:03:30.000Z</time>
      </trkpt>
      <trkpt lat="46.15023" lon="6.79297">
        <ele>1923.4000244141</ele>
        <time>2026-07-04T12:03:34.000Z</time>
      </trkpt>
      <trkpt lat="46.15023" lon="6.79296">
        <ele>1924</ele>
        <time>2026-07-04T12:03:37.000Z</time>
      </trkpt>
      <trkpt lat="46.15023" lon="6.79297">
        <ele>1923.8000488281</ele>
        <time>2026-07-04T12:03:41.000Z</time>
      </trkpt>
      <trkpt lat="46.15023" lon="6.79296">
        <ele>1923.5999755859</ele>
        <time>2026-07-04T12:03:45.000Z</time>
      </trkpt>
      <trkpt lat="46.15024" lon="6.79295">
        <ele>1923.8000488281</ele>
        <time>2026-07-04T12:03:46.000Z</time>
      </trkpt>
      <trkpt lat="46.15024" lon="6.79294">
        <ele>1924</ele>
        <time>2026-07-04T12:03:48.000Z</time>
      </trkpt>
      <trkpt lat="46.15024" lon="6.79291">
        <ele>1924.4000244141</ele>
        <time>2026-07-04T12:03:52.000Z</time>
      </trkpt>
      <trkpt lat="46.15023" lon="6.79285">
        <ele>1923.8000488281</ele>
        <time>2026-07-04T12:04:01.000Z</time>
      </trkpt>
      <trkpt lat="46.15022" lon="6.79279">
        <ele>1922.5999755859</ele>
        <time>2026-07-04T12:04:11.000Z</time>
      </trkpt>
      <trkpt lat="46.15023" lon="6.79278">
        <ele>1922.5999755859</ele>
        <time>2026-07-04T12:04:21.000Z</time>
      </trkpt>
      <trkpt lat="46.15023" lon="6.79278">
        <ele>1922.5999755859</ele>
        <time>2026-07-04T12:04:24.000Z</time>
      </trkpt>
      <trkpt lat="46.15022" lon="6.79277">
        <ele>1922.5999755859</ele>
        <time>2026-07-04T12:04:25.000Z</time>
      </trkpt>
      <trkpt lat="46.15022" lon="6.79278">
        <ele>1922.1999511719</ele>
        <time>2026-07-04T12:04:27.000Z</time>
      </trkpt>
      <trkpt lat="46.1502" lon="6.7928">
        <ele>1922</ele>
        <time>2026-07-04T12:04:35.000Z</time>
      </trkpt>
      <trkpt lat="46.1502" lon="6.79281">
        <ele>1922.5999755859</ele>
        <time>2026-07-04T12:04:39.000Z</time>
      </trkpt>
      <trkpt lat="46.1502" lon="6.79281">
        <ele>1923</ele>
        <time>2026-07-04T12:04:41.000Z</time>
      </trkpt>
      <trkpt lat="46.1502" lon="6.79282">
        <ele>1923</ele>
        <time>2026-07-04T12:04:49.000Z</time>
      </trkpt>
      <trkpt lat="46.1502" lon="6.79282">
        <ele>1923.1999511719</ele>
        <time>2026-07-04T12:04:51.000Z</time>
      </trkpt>
      <trkpt lat="46.1502" lon="6.79282">
        <ele>1922.4000244141</ele>
        <time>2026-07-04T12:05:01.000Z</time>
      </trkpt>
      <trkpt lat="46.1502" lon="6.79282">
        <ele>1923.8000488281</ele>
        <time>2026-07-04T12:05:14.000Z</time>
      </trkpt>
      <trkpt lat="46.1502" lon="6.79282">
        <ele>1922.8000488281</ele>
        <time>2026-07-04T12:05:25.000Z</time>
      </trkpt>
      <trkpt lat="46.1502" lon="6.79282">
        <ele>1922.8000488281</ele>
        <time>2026-07-04T12:05:36.000Z</time>
      </trkpt>
      <trkpt lat="46.15021" lon="6.79282">
        <ele>1923.5999755859</ele>
        <time>2026-07-04T12:05:41.000Z</time>
      </trkpt>
      <trkpt lat="46.15021" lon="6.79281">
        <ele>1923.1999511719</ele>
        <time>2026-07-04T12:05:44.000Z</time>
      </trkpt>
      <trkpt lat="46.1502" lon="6.79281">
        <ele>1922.5999755859</ele>
        <time>2026-07-04T12:05:55.000Z</time>
      </trkpt>
      <trkpt lat="46.1502" lon="6.79281">
        <ele>1923.1999511719</ele>
        <time>2026-07-04T12:06:07.000Z</time>
      </trkpt>
      <trkpt lat="46.1502" lon="6.79282">
        <ele>1923.1999511719</ele>
        <time>2026-07-04T12:06:19.000Z</time>
      </trkpt>
      <trkpt lat="46.1502" lon="6.79282">
        <ele>1923.4000244141</ele>
        <time>2026-07-04T12:06:20.000Z</time>
      </trkpt>
      <trkpt lat="46.15021" lon="6.79282">
        <ele>1923.1999511719</ele>
        <time>2026-07-04T12:06:27.000Z</time>
      </trkpt>
      <trkpt lat="46.15024" lon="6.79281">
        <ele>1924.1999511719</ele>
        <time>2026-07-04T12:06:33.000Z</time>
      </trkpt>
      <trkpt lat="46.15024" lon="6.7928">
        <ele>1924.1999511719</ele>
        <time>2026-07-04T12:06:34.000Z</time>
      </trkpt>
      <trkpt lat="46.15025" lon="6.79276">
        <ele>1923.5999755859</ele>
        <time>2026-07-04T12:06:43.000Z</time>
      </trkpt>
      <trkpt lat="46.15024" lon="6.79277">
        <ele>1923.5999755859</ele>
        <time>2026-07-04T12:06:59.000Z</time>
      </trkpt>
      <trkpt lat="46.15024" lon="6.79277">
        <ele>1923.1999511719</ele>
        <time>2026-07-04T12:07:06.000Z</time>
      </trkpt>
      <trkpt lat="46.15024" lon="6.79277">
        <ele>1923</ele>
        <time>2026-07-04T12:07:22.000Z</time>
      </trkpt>
      <trkpt lat="46.15026" lon="6.79276">
        <ele>1923</ele>
        <time>2026-07-04T12:07:42.000Z</time>
      </trkpt>
      <trkpt lat="46.15026" lon="6.79275">
        <ele>1923</ele>
        <time>2026-07-04T12:07:55.000Z</time>
      </trkpt>
      <trkpt lat="46.15025" lon="6.79278">
        <ele>1923</ele>
        <time>2026-07-04T12:08:07.000Z</time>
      </trkpt>
      <trkpt lat="46.15025" lon="6.79279">
        <ele>1923</ele>
        <time>2026-07-04T12:08:21.000Z</time>
      </trkpt>
      <trkpt lat="46.15028" lon="6.79274">
        <ele>1923</ele>
        <time>2026-07-04T12:08:35.000Z</time>
      </trkpt>
      <trkpt lat="46.15025" lon="6.79278">
        <ele>1923.1999511719</ele>
        <time>2026-07-04T12:08:44.000Z</time>
      </trkpt>
      <trkpt lat="46.15025" lon="6.79277">
        <ele>1923.4000244141</ele>
        <time>2026-07-04T12:08:47.000Z</time>
      </trkpt>
      <trkpt lat="46.15026" lon="6.79277">
        <ele>1923.4000244141</ele>
        <time>2026-07-04T12:08:52.000Z</time>
      </trkpt>
      <trkpt lat="46.15026" lon="6.79278">
        <ele>1923</ele>
        <time>2026-07-04T12:08:55.000Z</time>
      </trkpt>
      <trkpt lat="46.15024" lon="6.79278">
        <ele>1922.8000488281</ele>
        <time>2026-07-04T12:08:58.000Z</time>
      </trkpt>
      <trkpt lat="46.15023" lon="6.79276">
        <ele>1922.4000244141</ele>
        <time>2026-07-04T12:09:05.000Z</time>
      </trkpt>
      <trkpt lat="46.15023" lon="6.79275">
        <ele>1922.1999511719</ele>
        <time>2026-07-04T12:09:07.000Z</time>
      </trkpt>
      <trkpt lat="46.15023" lon="6.79275">
        <ele>1922.1999511719</ele>
        <time>2026-07-04T12:09:08.000Z</time>
      </trkpt>
      <trkpt lat="46.15024" lon="6.79277">
        <ele>1922.4000244141</ele>
        <time>2026-07-04T12:09:17.000Z</time>
      </trkpt>
      <trkpt lat="46.15024" lon="6.79277">
        <ele>1922.4000244141</ele>
        <time>2026-07-04T12:09:20.000Z</time>
      </trkpt>
      <trkpt lat="46.15023" lon="6.79277">
        <ele>1922.4000244141</ele>
        <time>2026-07-04T12:09:23.000Z</time>
      </trkpt>
      <trkpt lat="46.15023" lon="6.79276">
        <ele>1922</ele>
        <time>2026-07-04T12:09:38.000Z</time>
      </trkpt>
      <trkpt lat="46.15024" lon="6.79274">
        <ele>1922.4000244141</ele>
        <time>2026-07-04T12:09:47.000Z</time>
      </trkpt>
      <trkpt lat="46.15024" lon="6.79275">
        <ele>1922.5999755859</ele>
        <time>2026-07-04T12:10:03.000Z</time>
      </trkpt>
      <trkpt lat="46.15023" lon="6.79276">
        <ele>1922.8000488281</ele>
        <time>2026-07-04T12:10:20.000Z</time>
      </trkpt>
      <trkpt lat="46.15023" lon="6.79276">
        <ele>1922.4000244141</ele>
        <time>2026-07-04T12:10:34.000Z</time>
      </trkpt>
      <trkpt lat="46.15023" lon="6.79275">
        <ele>1922.5999755859</ele>
        <time>2026-07-04T12:10:41.000Z</time>
      </trkpt>
      <trkpt lat="46.15023" lon="6.79275">
        <ele>1922.5999755859</ele>
        <time>2026-07-04T12:10:44.000Z</time>
      </trkpt>
      <trkpt lat="46.15023" lon="6.79276">
        <ele>1922.4000244141</ele>
        <time>2026-07-04T12:10:58.000Z</time>
      </trkpt>
      <trkpt lat="46.15023" lon="6.79276">
        <ele>1922.4000244141</ele>
        <time>2026-07-04T12:11:07.000Z</time>
      </trkpt>
      <trkpt lat="46.15023" lon="6.79276">
        <ele>1922.1999511719</ele>
        <time>2026-07-04T12:11:11.000Z</time>
      </trkpt>
      <trkpt lat="46.15023" lon="6.79276">
        <ele>1922.1999511719</ele>
        <time>2026-07-04T12:11:17.000Z</time>
      </trkpt>
      <trkpt lat="46.15023" lon="6.79276">
        <ele>1922</ele>
        <time>2026-07-04T12:11:21.000Z</time>
      </trkpt>
      <trkpt lat="46.15023" lon="6.79276">
        <ele>1922.1999511719</ele>
        <time>2026-07-04T12:11:26.000Z</time>
      </trkpt>
      <trkpt lat="46.15023" lon="6.79276">
        <ele>1922.1999511719</ele>
        <time>2026-07-04T12:11:36.000Z</time>
      </trkpt>
      <trkpt lat="46.15023" lon="6.79276">
        <ele>1922</ele>
        <time>2026-07-04T12:11:38.000Z</time>
      </trkpt>
      <trkpt lat="46.15023" lon="6.79276">
        <ele>1922</ele>
        <time>2026-07-04T12:11:44.000Z</time>
      </trkpt>
      <trkpt lat="46.15023" lon="6.79276">
        <ele>1922</ele>
        <time>2026-07-04T12:11:46.000Z</time>
      </trkpt>
      <trkpt lat="46.15023" lon="6.79276">
        <ele>1922</ele>
        <time>2026-07-04T12:11:49.000Z</time>
      </trkpt>
      <trkpt lat="46.15023" lon="6.79276">
        <ele>1921.8000488281</ele>
        <time>2026-07-04T12:12:00.000Z</time>
      </trkpt>
      <trkpt lat="46.15024" lon="6.79276">
        <ele>1921.8000488281</ele>
        <time>2026-07-04T12:12:08.000Z</time>
      </trkpt>
      <trkpt lat="46.15023" lon="6.79276">
        <ele>1921.5999755859</ele>
        <time>2026-07-04T12:12:23.000Z</time>
      </trkpt>
      <trkpt lat="46.15023" lon="6.79276">
        <ele>1921.5999755859</ele>
        <time>2026-07-04T12:12:24.000Z</time>
      </trkpt>
      <trkpt lat="46.15024" lon="6.79275">
        <ele>1921.5999755859</ele>
        <time>2026-07-04T12:12:27.000Z</time>
      </trkpt>
      <trkpt lat="46.15024" lon="6.79275">
        <ele>1921.5999755859</ele>
        <time>2026-07-04T12:12:35.000Z</time>
      </trkpt>
      <trkpt lat="46.15023" lon="6.79276">
        <ele>1922</ele>
        <time>2026-07-04T12:12:53.000Z</time>
      </trkpt>
      <trkpt lat="46.15023" lon="6.79276">
        <ele>1922</ele>
        <time>2026-07-04T12:12:56.000Z</time>
      </trkpt>
      <trkpt lat="46.15023" lon="6.79276">
        <ele>1921.8000488281</ele>
        <time>2026-07-04T12:13:19.000Z</time>
      </trkpt>
      <trkpt lat="46.15023" lon="6.79276">
        <ele>1922</ele>
        <time>2026-07-04T12:13:41.000Z</time>
      </trkpt>
      <trkpt lat="46.15023" lon="6.79276">
        <ele>1922</ele>
        <time>2026-07-04T12:13:56.000Z</time>
      </trkpt>
      <trkpt lat="46.15022" lon="6.79276">
        <ele>1921.8000488281</ele>
        <time>2026-07-04T12:13:57.000Z</time>
      </trkpt>
      <trkpt lat="46.15021" lon="6.79275">
        <ele>1921.1999511719</ele>
        <time>2026-07-04T12:14:00.000Z</time>
      </trkpt>
      <trkpt lat="46.1502" lon="6.79272">
        <ele>1920.5999755859</ele>
        <time>2026-07-04T12:14:04.000Z</time>
      </trkpt>
      <trkpt lat="46.15022" lon="6.79269">
        <ele>1920</ele>
        <time>2026-07-04T12:14:09.000Z</time>
      </trkpt>
      <trkpt lat="46.15023" lon="6.79266">
        <ele>1919.4000244141</ele>
        <time>2026-07-04T12:14:12.000Z</time>
      </trkpt>
      <trkpt lat="46.15023" lon="6.79259">
        <ele>1918.8000488281</ele>
        <time>2026-07-04T12:14:17.000Z</time>
      </trkpt>
      <trkpt lat="46.15024" lon="6.79256">
        <ele>1918.4000244141</ele>
        <time>2026-07-04T12:14:21.000Z</time>
      </trkpt>
      <trkpt lat="46.15026" lon="6.7925">
        <ele>1917.8000488281</ele>
        <time>2026-07-04T12:14:27.000Z</time>
      </trkpt>
      <trkpt lat="46.15027" lon="6.79246">
        <ele>1917.1999511719</ele>
        <time>2026-07-04T12:14:31.000Z</time>
      </trkpt>
      <trkpt lat="46.15027" lon="6.79244">
        <ele>1916.8000488281</ele>
        <time>2026-07-04T12:14:34.000Z</time>
      </trkpt>
      <trkpt lat="46.15029" lon="6.7924">
        <ele>1915.8000488281</ele>
        <time>2026-07-04T12:14:40.000Z</time>
      </trkpt>
      <trkpt lat="46.1503" lon="6.79239">
        <ele>1915.5999755859</ele>
        <time>2026-07-04T12:14:42.000Z</time>
      </trkpt>
      <trkpt lat="46.15035" lon="6.79232">
        <ele>1914.5999755859</ele>
        <time>2026-07-04T12:14:49.000Z</time>
      </trkpt>
      <trkpt lat="46.15036" lon="6.79231">
        <ele>1914.4000244141</ele>
        <time>2026-07-04T12:14:50.000Z</time>
      </trkpt>
      <trkpt lat="46.15038" lon="6.79222">
        <ele>1913.4000244141</ele>
        <time>2026-07-04T12:14:56.000Z</time>
      </trkpt>
      <trkpt lat="46.15038" lon="6.79221">
        <ele>1913</ele>
        <time>2026-07-04T12:14:58.000Z</time>
      </trkpt>
      <trkpt lat="46.15038" lon="6.79218">
        <ele>1912.4000244141</ele>
        <time>2026-07-04T12:15:02.000Z</time>
      </trkpt>
      <trkpt lat="46.15038" lon="6.79215">
        <ele>1911.5999755859</ele>
        <time>2026-07-04T12:15:05.000Z</time>
      </trkpt>
      <trkpt lat="46.15037" lon="6.79213">
        <ele>1911.1999511719</ele>
        <time>2026-07-04T12:15:07.000Z</time>
      </trkpt>
      <trkpt lat="46.15038" lon="6.79208">
        <ele>1910.8000488281</ele>
        <time>2026-07-04T12:15:10.000Z</time>
      </trkpt>
      <trkpt lat="46.15038" lon="6.79205">
        <ele>1910.4000244141</ele>
        <time>2026-07-04T12:15:14.000Z</time>
      </trkpt>
      <trkpt lat="46.15038" lon="6.79204">
        <ele>1910</ele>
        <time>2026-07-04T12:15:16.000Z</time>
      </trkpt>
      <trkpt lat="46.15038" lon="6.79201">
        <ele>1909</ele>
        <time>2026-07-04T12:15:21.000Z</time>
      </trkpt>
      <trkpt lat="46.15038" lon="6.79199">
        <ele>1908.5999755859</ele>
        <time>2026-07-04T12:15:24.000Z</time>
      </trkpt>
      <trkpt lat="46.15037" lon="6.79194">
        <ele>1907.5999755859</ele>
        <time>2026-07-04T12:15:29.000Z</time>
      </trkpt>
      <trkpt lat="46.15037" lon="6.79189">
        <ele>1906.5999755859</ele>
        <time>2026-07-04T12:15:32.000Z</time>
      </trkpt>
      <trkpt lat="46.15035" lon="6.79184">
        <ele>1905.5999755859</ele>
        <time>2026-07-04T12:15:36.000Z</time>
      </trkpt>
      <trkpt lat="46.15034" lon="6.79178">
        <ele>1904.5999755859</ele>
        <time>2026-07-04T12:15:41.000Z</time>
      </trkpt>
      <trkpt lat="46.15035" lon="6.79177">
        <ele>1904.4000244141</ele>
        <time>2026-07-04T12:15:42.000Z</time>
      </trkpt>
      <trkpt lat="46.15036" lon="6.79174">
        <ele>1903.8000488281</ele>
        <time>2026-07-04T12:15:45.000Z</time>
      </trkpt>
      <trkpt lat="46.15037" lon="6.79172">
        <ele>1903.4000244141</ele>
        <time>2026-07-04T12:15:47.000Z</time>
      </trkpt>
      <trkpt lat="46.15038" lon="6.79169">
        <ele>1902.8000488281</ele>
        <time>2026-07-04T12:15:50.000Z</time>
      </trkpt>
      <trkpt lat="46.1504" lon="6.79168">
        <ele>1902.1999511719</ele>
        <time>2026-07-04T12:15:53.000Z</time>
      </trkpt>
      <trkpt lat="46.15043" lon="6.79163">
        <ele>1901</ele>
        <time>2026-07-04T12:15:58.000Z</time>
      </trkpt>
      <trkpt lat="46.15043" lon="6.79162">
        <ele>1900.8000488281</ele>
        <time>2026-07-04T12:15:59.000Z</time>
      </trkpt>
      <trkpt lat="46.15046" lon="6.79155">
        <ele>1900.1999511719</ele>
        <time>2026-07-04T12:16:06.000Z</time>
      </trkpt>
      <trkpt lat="46.15046" lon="6.79153">
        <ele>1900</ele>
        <time>2026-07-04T12:16:08.000Z</time>
      </trkpt>
      <trkpt lat="46.15046" lon="6.7915">
        <ele>1899</ele>
        <time>2026-07-04T12:16:13.000Z</time>
      </trkpt>
      <trkpt lat="46.15047" lon="6.79149">
        <ele>1898.8000488281</ele>
        <time>2026-07-04T12:16:14.000Z</time>
      </trkpt>
      <trkpt lat="46.15047" lon="6.79144">
        <ele>1898</ele>
        <time>2026-07-04T12:16:18.000Z</time>
      </trkpt>
      <trkpt lat="46.15046" lon="6.79143">
        <ele>1897.8000488281</ele>
        <time>2026-07-04T12:16:19.000Z</time>
      </trkpt>
      <trkpt lat="46.15045" lon="6.79139">
        <ele>1896.5999755859</ele>
        <time>2026-07-04T12:16:24.000Z</time>
      </trkpt>
      <trkpt lat="46.15044" lon="6.79138">
        <ele>1896</ele>
        <time>2026-07-04T12:16:27.000Z</time>
      </trkpt>
      <trkpt lat="46.15044" lon="6.79137">
        <ele>1895.4000244141</ele>
        <time>2026-07-04T12:16:29.000Z</time>
      </trkpt>
      <trkpt lat="46.15045" lon="6.79136">
        <ele>1895.4000244141</ele>
        <time>2026-07-04T12:16:33.000Z</time>
      </trkpt>
      <trkpt lat="46.15048" lon="6.79131">
        <ele>1894.5999755859</ele>
        <time>2026-07-04T12:16:40.000Z</time>
      </trkpt>
      <trkpt lat="46.15048" lon="6.7913">
        <ele>1894.4000244141</ele>
        <time>2026-07-04T12:16:41.000Z</time>
      </trkpt>
      <trkpt lat="46.1505" lon="6.79126">
        <ele>1893.1999511719</ele>
        <time>2026-07-04T12:16:47.000Z</time>
      </trkpt>
      <trkpt lat="46.15051" lon="6.79124">
        <ele>1892.8000488281</ele>
        <time>2026-07-04T12:16:49.000Z</time>
      </trkpt>
      <trkpt lat="46.15054" lon="6.7912">
        <ele>1892.1999511719</ele>
        <time>2026-07-04T12:16:52.000Z</time>
      </trkpt>
      <trkpt lat="46.15057" lon="6.79115">
        <ele>1892</ele>
        <time>2026-07-04T12:16:57.000Z</time>
      </trkpt>
      <trkpt lat="46.15057" lon="6.79114">
        <ele>1892</ele>
        <time>2026-07-04T12:17:01.000Z</time>
      </trkpt>
      <trkpt lat="46.15057" lon="6.79115">
        <ele>1891.8000488281</ele>
        <time>2026-07-04T12:17:04.000Z</time>
      </trkpt>
      <trkpt lat="46.15057" lon="6.79115">
        <ele>1891.8000488281</ele>
        <time>2026-07-04T12:17:07.000Z</time>
      </trkpt>
      <trkpt lat="46.15056" lon="6.79115">
        <ele>1891.8000488281</ele>
        <time>2026-07-04T12:17:23.000Z</time>
      </trkpt>
      <trkpt lat="46.15056" lon="6.79114">
        <ele>1893</ele>
        <time>2026-07-04T12:17:36.000Z</time>
      </trkpt>
      <trkpt lat="46.15059" lon="6.79109">
        <ele>1891.8000488281</ele>
        <time>2026-07-04T12:17:46.000Z</time>
      </trkpt>
      <trkpt lat="46.1506" lon="6.79107">
        <ele>1891</ele>
        <time>2026-07-04T12:17:49.000Z</time>
      </trkpt>
      <trkpt lat="46.15063" lon="6.79104">
        <ele>1889.8000488281</ele>
        <time>2026-07-04T12:17:54.000Z</time>
      </trkpt>
      <trkpt lat="46.15064" lon="6.79103">
        <ele>1889</ele>
        <time>2026-07-04T12:17:58.000Z</time>
      </trkpt>
      <trkpt lat="46.15065" lon="6.79102">
        <ele>1888.8000488281</ele>
        <time>2026-07-04T12:17:59.000Z</time>
      </trkpt>
      <trkpt lat="46.15067" lon="6.79097">
        <ele>1887.8000488281</ele>
        <time>2026-07-04T12:18:05.000Z</time>
      </trkpt>
      <trkpt lat="46.15068" lon="6.79096">
        <ele>1887.4000244141</ele>
        <time>2026-07-04T12:18:07.000Z</time>
      </trkpt>
      <trkpt lat="46.15069" lon="6.79093">
        <ele>1887</ele>
        <time>2026-07-04T12:18:10.000Z</time>
      </trkpt>
      <trkpt lat="46.1507" lon="6.79091">
        <ele>1886.5999755859</ele>
        <time>2026-07-04T12:18:14.000Z</time>
      </trkpt>
      <trkpt lat="46.1507" lon="6.79089">
        <ele>1886.4000244141</ele>
        <time>2026-07-04T12:18:16.000Z</time>
      </trkpt>
      <trkpt lat="46.15072" lon="6.79087">
        <ele>1885.4000244141</ele>
        <time>2026-07-04T12:18:22.000Z</time>
      </trkpt>
      <trkpt lat="46.15072" lon="6.79087">
        <ele>1885.4000244141</ele>
        <time>2026-07-04T12:18:23.000Z</time>
      </trkpt>
      <trkpt lat="46.15076" lon="6.79081">
        <ele>1884.4000244141</ele>
        <time>2026-07-04T12:18:28.000Z</time>
      </trkpt>
      <trkpt lat="46.15078" lon="6.79078">
        <ele>1884</ele>
        <time>2026-07-04T12:18:32.000Z</time>
      </trkpt>
      <trkpt lat="46.1508" lon="6.79074">
        <ele>1883.1999511719</ele>
        <time>2026-07-04T12:18:37.000Z</time>
      </trkpt>
      <trkpt lat="46.1508" lon="6.79071">
        <ele>1883</ele>
        <time>2026-07-04T12:18:41.000Z</time>
      </trkpt>
      <trkpt lat="46.15081" lon="6.79069">
        <ele>1882.1999511719</ele>
        <time>2026-07-04T12:18:45.000Z</time>
      </trkpt>
      <trkpt lat="46.15081" lon="6.79068">
        <ele>1882.1999511719</ele>
        <time>2026-07-04T12:18:46.000Z</time>
      </trkpt>
      <trkpt lat="46.15081" lon="6.79066">
        <ele>1881.5999755859</ele>
        <time>2026-07-04T12:18:50.000Z</time>
      </trkpt>
      <trkpt lat="46.15081" lon="6.79064">
        <ele>1881</ele>
        <time>2026-07-04T12:18:53.000Z</time>
      </trkpt>
      <trkpt lat="46.15079" lon="6.79059">
        <ele>1880.1999511719</ele>
        <time>2026-07-04T12:18:58.000Z</time>
      </trkpt>
      <trkpt lat="46.15079" lon="6.79057">
        <ele>1880</ele>
        <time>2026-07-04T12:19:00.000Z</time>
      </trkpt>
      <trkpt lat="46.1508" lon="6.79053">
        <ele>1879.1999511719</ele>
        <time>2026-07-04T12:19:05.000Z</time>
      </trkpt>
      <trkpt lat="46.15081" lon="6.79052">
        <ele>1879</ele>
        <time>2026-07-04T12:19:07.000Z</time>
      </trkpt>
      <trkpt lat="46.15083" lon="6.79049">
        <ele>1878.5999755859</ele>
        <time>2026-07-04T12:19:12.000Z</time>
      </trkpt>
      <trkpt lat="46.15084" lon="6.79048">
        <ele>1877.8000488281</ele>
        <time>2026-07-04T12:19:16.000Z</time>
      </trkpt>
      <trkpt lat="46.15084" lon="6.79045">
        <ele>1877.4000244141</ele>
        <time>2026-07-04T12:19:20.000Z</time>
      </trkpt>
      <trkpt lat="46.15084" lon="6.79045">
        <ele>1877.1999511719</ele>
        <time>2026-07-04T12:19:22.000Z</time>
      </trkpt>
      <trkpt lat="46.15084" lon="6.79043">
        <ele>1876.8000488281</ele>
        <time>2026-07-04T12:19:24.000Z</time>
      </trkpt>
      <trkpt lat="46.15086" lon="6.7904">
        <ele>1875.8000488281</ele>
        <time>2026-07-04T12:19:29.000Z</time>
      </trkpt>
      <trkpt lat="46.15086" lon="6.7904">
        <ele>1875.5999755859</ele>
        <time>2026-07-04T12:19:30.000Z</time>
      </trkpt>
      <trkpt lat="46.15085" lon="6.79037">
        <ele>1874.5999755859</ele>
        <time>2026-07-04T12:19:34.000Z</time>
      </trkpt>
      <trkpt lat="46.15084" lon="6.79035">
        <ele>1874</ele>
        <time>2026-07-04T12:19:37.000Z</time>
      </trkpt>
      <trkpt lat="46.15083" lon="6.79033">
        <ele>1873.4000244141</ele>
        <time>2026-07-04T12:19:39.000Z</time>
      </trkpt>
      <trkpt lat="46.15081" lon="6.79029">
        <ele>1872.1999511719</ele>
        <time>2026-07-04T12:19:44.000Z</time>
      </trkpt>
      <trkpt lat="46.15079" lon="6.79027">
        <ele>1871.1999511719</ele>
        <time>2026-07-04T12:19:49.000Z</time>
      </trkpt>
      <trkpt lat="46.15079" lon="6.79025">
        <ele>1870.1999511719</ele>
        <time>2026-07-04T12:19:56.000Z</time>
      </trkpt>
      <trkpt lat="46.15078" lon="6.79022">
        <ele>1869.1999511719</ele>
        <time>2026-07-04T12:20:02.000Z</time>
      </trkpt>
      <trkpt lat="46.15078" lon="6.79023">
        <ele>1869</ele>
        <time>2026-07-04T12:20:04.000Z</time>
      </trkpt>
      <trkpt lat="46.15077" lon="6.7902">
        <ele>1868.1999511719</ele>
        <time>2026-07-04T12:20:10.000Z</time>
      </trkpt>
      <trkpt lat="46.15077" lon="6.79018">
        <ele>1867.5999755859</ele>
        <time>2026-07-04T12:20:13.000Z</time>
      </trkpt>
      <trkpt lat="46.15077" lon="6.79016">
        <ele>1867</ele>
        <time>2026-07-04T12:20:16.000Z</time>
      </trkpt>
      <trkpt lat="46.15076" lon="6.79011">
        <ele>1865.8000488281</ele>
        <time>2026-07-04T12:20:21.000Z</time>
      </trkpt>
      <trkpt lat="46.15076" lon="6.79009">
        <ele>1865</ele>
        <time>2026-07-04T12:20:25.000Z</time>
      </trkpt>
      <trkpt lat="46.15075" lon="6.79008">
        <ele>1864.5999755859</ele>
        <time>2026-07-04T12:20:27.000Z</time>
      </trkpt>
      <trkpt lat="46.15074" lon="6.79007">
        <ele>1864.4000244141</ele>
        <time>2026-07-04T12:20:29.000Z</time>
      </trkpt>
      <trkpt lat="46.15073" lon="6.79005">
        <ele>1863.5999755859</ele>
        <time>2026-07-04T12:20:32.000Z</time>
      </trkpt>
      <trkpt lat="46.15073" lon="6.79003">
        <ele>1862.4000244141</ele>
        <time>2026-07-04T12:20:37.000Z</time>
      </trkpt>
      <trkpt lat="46.15073" lon="6.79003">
        <ele>1862.1999511719</ele>
        <time>2026-07-04T12:20:38.000Z</time>
      </trkpt>
      <trkpt lat="46.15076" lon="6.79">
        <ele>1861.4000244141</ele>
        <time>2026-07-04T12:20:44.000Z</time>
      </trkpt>
      <trkpt lat="46.15076" lon="6.79">
        <ele>1861.1999511719</ele>
        <time>2026-07-04T12:20:45.000Z</time>
      </trkpt>
      <trkpt lat="46.15075" lon="6.78998">
        <ele>1860.1999511719</ele>
        <time>2026-07-04T12:20:49.000Z</time>
      </trkpt>
      <trkpt lat="46.15074" lon="6.78994">
        <ele>1859.4000244141</ele>
        <time>2026-07-04T12:20:52.000Z</time>
      </trkpt>
      <trkpt lat="46.15074" lon="6.78993">
        <ele>1859.1999511719</ele>
        <time>2026-07-04T12:20:53.000Z</time>
      </trkpt>
      <trkpt lat="46.15075" lon="6.78989">
        <ele>1858.4000244141</ele>
        <time>2026-07-04T12:20:58.000Z</time>
      </trkpt>
      <trkpt lat="46.15075" lon="6.78988">
        <ele>1858.1999511719</ele>
        <time>2026-07-04T12:20:59.000Z</time>
      </trkpt>
      <trkpt lat="46.15075" lon="6.78987">
        <ele>1858</ele>
        <time>2026-07-04T12:21:00.000Z</time>
      </trkpt>
      <trkpt lat="46.15074" lon="6.78984">
        <ele>1857</ele>
        <time>2026-07-04T12:21:04.000Z</time>
      </trkpt>
      <trkpt lat="46.15073" lon="6.78983">
        <ele>1856.5999755859</ele>
        <time>2026-07-04T12:21:07.000Z</time>
      </trkpt>
      <trkpt lat="46.15072" lon="6.78982">
        <ele>1856</ele>
        <time>2026-07-04T12:21:09.000Z</time>
      </trkpt>
      <trkpt lat="46.15071" lon="6.7898">
        <ele>1855.1999511719</ele>
        <time>2026-07-04T12:21:13.000Z</time>
      </trkpt>
      <trkpt lat="46.1507" lon="6.78979">
        <ele>1855</ele>
        <time>2026-07-04T12:21:14.000Z</time>
      </trkpt>
      <trkpt lat="46.1507" lon="6.78978">
        <ele>1854.8000488281</ele>
        <time>2026-07-04T12:21:16.000Z</time>
      </trkpt>
      <trkpt lat="46.1507" lon="6.78975">
        <ele>1853.8000488281</ele>
        <time>2026-07-04T12:21:21.000Z</time>
      </trkpt>
      <trkpt lat="46.15067" lon="6.78975">
        <ele>1853.4000244141</ele>
        <time>2026-07-04T12:21:25.000Z</time>
      </trkpt>
      <trkpt lat="46.15065" lon="6.78974">
        <ele>1852.8000488281</ele>
        <time>2026-07-04T12:21:30.000Z</time>
      </trkpt>
      <trkpt lat="46.15064" lon="6.78974">
        <ele>1852.1999511719</ele>
        <time>2026-07-04T12:21:33.000Z</time>
      </trkpt>
      <trkpt lat="46.15062" lon="6.78974">
        <ele>1851.8000488281</ele>
        <time>2026-07-04T12:21:37.000Z</time>
      </trkpt>
      <trkpt lat="46.1506" lon="6.78973">
        <ele>1851.4000244141</ele>
        <time>2026-07-04T12:21:41.000Z</time>
      </trkpt>
      <trkpt lat="46.15059" lon="6.78971">
        <ele>1850.5999755859</ele>
        <time>2026-07-04T12:21:45.000Z</time>
      </trkpt>
      <trkpt lat="46.15058" lon="6.7897">
        <ele>1850.1999511719</ele>
        <time>2026-07-04T12:21:47.000Z</time>
      </trkpt>
      <trkpt lat="46.15056" lon="6.78969">
        <ele>1849.4000244141</ele>
        <time>2026-07-04T12:21:50.000Z</time>
      </trkpt>
      <trkpt lat="46.15056" lon="6.78965">
        <ele>1848.1999511719</ele>
        <time>2026-07-04T12:21:54.000Z</time>
      </trkpt>
      <trkpt lat="46.15058" lon="6.78959">
        <ele>1847</ele>
        <time>2026-07-04T12:22:00.000Z</time>
      </trkpt>
      <trkpt lat="46.15059" lon="6.78956">
        <ele>1846.1999511719</ele>
        <time>2026-07-04T12:22:03.000Z</time>
      </trkpt>
      <trkpt lat="46.15059" lon="6.78955">
        <ele>1845.8000488281</ele>
        <time>2026-07-04T12:22:04.000Z</time>
      </trkpt>
      <trkpt lat="46.15059" lon="6.78953">
        <ele>1844.8000488281</ele>
        <time>2026-07-04T12:22:09.000Z</time>
      </trkpt>
      <trkpt lat="46.15059" lon="6.78952">
        <ele>1844.1999511719</ele>
        <time>2026-07-04T12:22:11.000Z</time>
      </trkpt>
      <trkpt lat="46.15058" lon="6.7895">
        <ele>1843.8000488281</ele>
        <time>2026-07-04T12:22:13.000Z</time>
      </trkpt>
      <trkpt lat="46.15059" lon="6.78948">
        <ele>1843.1999511719</ele>
        <time>2026-07-04T12:22:16.000Z</time>
      </trkpt>
      <trkpt lat="46.15061" lon="6.78947">
        <ele>1842.5999755859</ele>
        <time>2026-07-04T12:22:20.000Z</time>
      </trkpt>
      <trkpt lat="46.1506" lon="6.78945">
        <ele>1841.8000488281</ele>
        <time>2026-07-04T12:22:24.000Z</time>
      </trkpt>
      <trkpt lat="46.1506" lon="6.78944">
        <ele>1841.5999755859</ele>
        <time>2026-07-04T12:22:26.000Z</time>
      </trkpt>
      <trkpt lat="46.15061" lon="6.7894">
        <ele>1840.4000244141</ele>
        <time>2026-07-04T12:22:32.000Z</time>
      </trkpt>
      <trkpt lat="46.15061" lon="6.78939">
        <ele>1840.1999511719</ele>
        <time>2026-07-04T12:22:34.000Z</time>
      </trkpt>
      <trkpt lat="46.15062" lon="6.78934">
        <ele>1839.1999511719</ele>
        <time>2026-07-04T12:22:39.000Z</time>
      </trkpt>
      <trkpt lat="46.15062" lon="6.78931">
        <ele>1838.8000488281</ele>
        <time>2026-07-04T12:22:41.000Z</time>
      </trkpt>
      <trkpt lat="46.15062" lon="6.78929">
        <ele>1838.4000244141</ele>
        <time>2026-07-04T12:22:43.000Z</time>
      </trkpt>
      <trkpt lat="46.15062" lon="6.78927">
        <ele>1838.1999511719</ele>
        <time>2026-07-04T12:22:44.000Z</time>
      </trkpt>
      <trkpt lat="46.15063" lon="6.78924">
        <ele>1837.4000244141</ele>
        <time>2026-07-04T12:22:48.000Z</time>
      </trkpt>
      <trkpt lat="46.15064" lon="6.78922">
        <ele>1837</ele>
        <time>2026-07-04T12:22:51.000Z</time>
      </trkpt>
      <trkpt lat="46.15064" lon="6.78923">
        <ele>1836.4000244141</ele>
        <time>2026-07-04T12:22:54.000Z</time>
      </trkpt>
      <trkpt lat="46.15065" lon="6.78925">
        <ele>1836</ele>
        <time>2026-07-04T12:22:57.000Z</time>
      </trkpt>
      <trkpt lat="46.15065" lon="6.78926">
        <ele>1836</ele>
        <time>2026-07-04T12:22:58.000Z</time>
      </trkpt>
      <trkpt lat="46.15068" lon="6.78927">
        <ele>1835.8000488281</ele>
        <time>2026-07-04T12:23:02.000Z</time>
      </trkpt>
      <trkpt lat="46.15068" lon="6.78927">
        <ele>1835.5999755859</ele>
        <time>2026-07-04T12:23:03.000Z</time>
      </trkpt>
      <trkpt lat="46.15072" lon="6.78928">
        <ele>1834.8000488281</ele>
        <time>2026-07-04T12:23:07.000Z</time>
      </trkpt>
      <trkpt lat="46.15076" lon="6.78928">
        <ele>1834</ele>
        <time>2026-07-04T12:23:11.000Z</time>
      </trkpt>
      <trkpt lat="46.15076" lon="6.78928">
        <ele>1833.5999755859</ele>
        <time>2026-07-04T12:23:12.000Z</time>
      </trkpt>
      <trkpt lat="46.15079" lon="6.78927">
        <ele>1832.5999755859</ele>
        <time>2026-07-04T12:23:17.000Z</time>
      </trkpt>
      <trkpt lat="46.15079" lon="6.78927">
        <ele>1832.4000244141</ele>
        <time>2026-07-04T12:23:18.000Z</time>
      </trkpt>
      <trkpt lat="46.1508" lon="6.78925">
        <ele>1831.5999755859</ele>
        <time>2026-07-04T12:23:22.000Z</time>
      </trkpt>
      <trkpt lat="46.15079" lon="6.78923">
        <ele>1831</ele>
        <time>2026-07-04T12:23:26.000Z</time>
      </trkpt>
      <trkpt lat="46.1508" lon="6.78921">
        <ele>1830.4000244141</ele>
        <time>2026-07-04T12:23:28.000Z</time>
      </trkpt>
      <trkpt lat="46.15082" lon="6.78915">
        <ele>1830</ele>
        <time>2026-07-04T12:23:32.000Z</time>
      </trkpt>
      <trkpt lat="46.15083" lon="6.7891">
        <ele>1829.1999511719</ele>
        <time>2026-07-04T12:23:36.000Z</time>
      </trkpt>
      <trkpt lat="46.15084" lon="6.78906">
        <ele>1828.8000488281</ele>
        <time>2026-07-04T12:23:39.000Z</time>
      </trkpt>
      <trkpt lat="46.15084" lon="6.78904">
        <ele>1828.1999511719</ele>
        <time>2026-07-04T12:23:43.000Z</time>
      </trkpt>
      <trkpt lat="46.15085" lon="6.78898">
        <ele>1827.4000244141</ele>
        <time>2026-07-04T12:23:47.000Z</time>
      </trkpt>
      <trkpt lat="46.15085" lon="6.78897">
        <ele>1827.1999511719</ele>
        <time>2026-07-04T12:23:49.000Z</time>
      </trkpt>
      <trkpt lat="46.15085" lon="6.78896">
        <ele>1826.8000488281</ele>
        <time>2026-07-04T12:23:54.000Z</time>
      </trkpt>
      <trkpt lat="46.15085" lon="6.78896">
        <ele>1827</ele>
        <time>2026-07-04T12:24:04.000Z</time>
      </trkpt>
      <trkpt lat="46.15084" lon="6.78897">
        <ele>1827</ele>
        <time>2026-07-04T12:24:11.000Z</time>
      </trkpt>
      <trkpt lat="46.15085" lon="6.78898">
        <ele>1827.1999511719</ele>
        <time>2026-07-04T12:24:17.000Z</time>
      </trkpt>
      <trkpt lat="46.15085" lon="6.78896">
        <ele>1827</ele>
        <time>2026-07-04T12:24:32.000Z</time>
      </trkpt>
      <trkpt lat="46.15085" lon="6.78896">
        <ele>1827.1999511719</ele>
        <time>2026-07-04T12:24:44.000Z</time>
      </trkpt>
      <trkpt lat="46.15085" lon="6.78896">
        <ele>1827.4000244141</ele>
        <time>2026-07-04T12:24:46.000Z</time>
      </trkpt>
      <trkpt lat="46.15085" lon="6.78896">
        <ele>1827.4000244141</ele>
        <time>2026-07-04T12:24:57.000Z</time>
      </trkpt>
      <trkpt lat="46.15086" lon="6.78897">
        <ele>1827.4000244141</ele>
        <time>2026-07-04T12:25:04.000Z</time>
      </trkpt>
      <trkpt lat="46.15086" lon="6.78898">
        <ele>1827.4000244141</ele>
        <time>2026-07-04T12:25:11.000Z</time>
      </trkpt>
      <trkpt lat="46.15086" lon="6.78898">
        <ele>1827.8000488281</ele>
        <time>2026-07-04T12:25:21.000Z</time>
      </trkpt>
      <trkpt lat="46.15085" lon="6.78896">
        <ele>1827.5999755859</ele>
        <time>2026-07-04T12:25:29.000Z</time>
      </trkpt>
      <trkpt lat="46.15086" lon="6.78897">
        <ele>1827.5999755859</ele>
        <time>2026-07-04T12:25:34.000Z</time>
      </trkpt>
      <trkpt lat="46.15086" lon="6.78896">
        <ele>1827.4000244141</ele>
        <time>2026-07-04T12:25:43.000Z</time>
      </trkpt>
      <trkpt lat="46.15084" lon="6.78895">
        <ele>1827.4000244141</ele>
        <time>2026-07-04T12:26:00.000Z</time>
      </trkpt>
      <trkpt lat="46.15085" lon="6.78896">
        <ele>1827.4000244141</ele>
        <time>2026-07-04T12:26:16.000Z</time>
      </trkpt>
      <trkpt lat="46.15085" lon="6.78896">
        <ele>1827.8000488281</ele>
        <time>2026-07-04T12:26:35.000Z</time>
      </trkpt>
      <trkpt lat="46.15085" lon="6.78896">
        <ele>1828.1999511719</ele>
        <time>2026-07-04T12:26:39.000Z</time>
      </trkpt>
      <trkpt lat="46.15086" lon="6.78893">
        <ele>1828.1999511719</ele>
        <time>2026-07-04T12:26:46.000Z</time>
      </trkpt>
      <trkpt lat="46.15087" lon="6.78896">
        <ele>1828.1999511719</ele>
        <time>2026-07-04T12:26:56.000Z</time>
      </trkpt>
      <trkpt lat="46.15087" lon="6.78896">
        <ele>1828.5999755859</ele>
        <time>2026-07-04T12:27:02.000Z</time>
      </trkpt>
      <trkpt lat="46.15087" lon="6.78897">
        <ele>1828.5999755859</ele>
        <time>2026-07-04T12:27:06.000Z</time>
      </trkpt>
      <trkpt lat="46.15086" lon="6.78896">
        <ele>1828.4000244141</ele>
        <time>2026-07-04T12:27:16.000Z</time>
      </trkpt>
      <trkpt lat="46.15088" lon="6.78895">
        <ele>1828.4000244141</ele>
        <time>2026-07-04T12:27:24.000Z</time>
      </trkpt>
      <trkpt lat="46.15088" lon="6.78895">
        <ele>1828.4000244141</ele>
        <time>2026-07-04T12:27:28.000Z</time>
      </trkpt>
      <trkpt lat="46.15087" lon="6.78894">
        <ele>1828</ele>
        <time>2026-07-04T12:27:35.000Z</time>
      </trkpt>
      <trkpt lat="46.15087" lon="6.78894">
        <ele>1828</ele>
        <time>2026-07-04T12:27:37.000Z</time>
      </trkpt>
      <trkpt lat="46.15085" lon="6.78891">
        <ele>1827.4000244141</ele>
        <time>2026-07-04T12:27:45.000Z</time>
      </trkpt>
      <trkpt lat="46.15085" lon="6.7889">
        <ele>1827.4000244141</ele>
        <time>2026-07-04T12:27:46.000Z</time>
      </trkpt>
      <trkpt lat="46.15085" lon="6.78889">
        <ele>1827.1999511719</ele>
        <time>2026-07-04T12:27:48.000Z</time>
      </trkpt>
      <trkpt lat="46.15085" lon="6.78884">
        <ele>1826.1999511719</ele>
        <time>2026-07-04T12:27:54.000Z</time>
      </trkpt>
      <trkpt lat="46.15084" lon="6.78881">
        <ele>1825.1999511719</ele>
        <time>2026-07-04T12:27:59.000Z</time>
      </trkpt>
      <trkpt lat="46.15084" lon="6.78881">
        <ele>1824.8000488281</ele>
        <time>2026-07-04T12:28:01.000Z</time>
      </trkpt>
      <trkpt lat="46.15084" lon="6.78877">
        <ele>1824</ele>
        <time>2026-07-04T12:28:04.000Z</time>
      </trkpt>
      <trkpt lat="46.15083" lon="6.78875">
        <ele>1823.4000244141</ele>
        <time>2026-07-04T12:28:06.000Z</time>
      </trkpt>
      <trkpt lat="46.15083" lon="6.78873">
        <ele>1822.8000488281</ele>
        <time>2026-07-04T12:28:09.000Z</time>
      </trkpt>
      <trkpt lat="46.15084" lon="6.7887">
        <ele>1822</ele>
        <time>2026-07-04T12:28:13.000Z</time>
      </trkpt>
      <trkpt lat="46.15084" lon="6.78868">
        <ele>1821.8000488281</ele>
        <time>2026-07-04T12:28:14.000Z</time>
      </trkpt>
      <trkpt lat="46.15083" lon="6.78864">
        <ele>1820.5999755859</ele>
        <time>2026-07-04T12:28:18.000Z</time>
      </trkpt>
      <trkpt lat="46.15083" lon="6.78858">
        <ele>1819.5999755859</ele>
        <time>2026-07-04T12:28:22.000Z</time>
      </trkpt>
      <trkpt lat="46.15083" lon="6.78857">
        <ele>1819.1999511719</ele>
        <time>2026-07-04T12:28:23.000Z</time>
      </trkpt>
      <trkpt lat="46.15083" lon="6.78852">
        <ele>1818.5999755859</ele>
        <time>2026-07-04T12:28:26.000Z</time>
      </trkpt>
      <trkpt lat="46.15083" lon="6.78851">
        <ele>1818.1999511719</ele>
        <time>2026-07-04T12:28:27.000Z</time>
      </trkpt>
      <trkpt lat="46.15084" lon="6.78848">
        <ele>1817.8000488281</ele>
        <time>2026-07-04T12:28:29.000Z</time>
      </trkpt>
      <trkpt lat="46.15083" lon="6.78846">
        <ele>1817.1999511719</ele>
        <time>2026-07-04T12:28:31.000Z</time>
      </trkpt>
      <trkpt lat="46.15084" lon="6.78844">
        <ele>1816.5999755859</ele>
        <time>2026-07-04T12:28:34.000Z</time>
      </trkpt>
      <trkpt lat="46.15084" lon="6.78843">
        <ele>1816.4000244141</ele>
        <time>2026-07-04T12:28:35.000Z</time>
      </trkpt>
      <trkpt lat="46.15084" lon="6.78843">
        <ele>1816</ele>
        <time>2026-07-04T12:28:37.000Z</time>
      </trkpt>
      <trkpt lat="46.15084" lon="6.78839">
        <ele>1815.4000244141</ele>
        <time>2026-07-04T12:28:39.000Z</time>
      </trkpt>
      <trkpt lat="46.15085" lon="6.78838">
        <ele>1815.1999511719</ele>
        <time>2026-07-04T12:28:40.000Z</time>
      </trkpt>
      <trkpt lat="46.15085" lon="6.78837">
        <ele>1814.8000488281</ele>
        <time>2026-07-04T12:28:41.000Z</time>
      </trkpt>
      <trkpt lat="46.15085" lon="6.78834">
        <ele>1814.1999511719</ele>
        <time>2026-07-04T12:28:43.000Z</time>
      </trkpt>
      <trkpt lat="46.15085" lon="6.78833">
        <ele>1814</ele>
        <time>2026-07-04T12:28:44.000Z</time>
      </trkpt>
      <trkpt lat="46.15084" lon="6.78832">
        <ele>1813.8000488281</ele>
        <time>2026-07-04T12:28:45.000Z</time>
      </trkpt>
      <trkpt lat="46.1508" lon="6.78829">
        <ele>1812.5999755859</ele>
        <time>2026-07-04T12:28:50.000Z</time>
      </trkpt>
      <trkpt lat="46.15078" lon="6.78825">
        <ele>1811.8000488281</ele>
        <time>2026-07-04T12:28:55.000Z</time>
      </trkpt>
      <trkpt lat="46.15078" lon="6.78824">
        <ele>1811.4000244141</ele>
        <time>2026-07-04T12:28:56.000Z</time>
      </trkpt>
      <trkpt lat="46.15079" lon="6.78818">
        <ele>1810.4000244141</ele>
        <time>2026-07-04T12:29:02.000Z</time>
      </trkpt>
      <trkpt lat="46.1508" lon="6.78814">
        <ele>1810</ele>
        <time>2026-07-04T12:29:04.000Z</time>
      </trkpt>
      <trkpt lat="46.15078" lon="6.78808">
        <ele>1809.1999511719</ele>
        <time>2026-07-04T12:29:08.000Z</time>
      </trkpt>
      <trkpt lat="46.15076" lon="6.78805">
        <ele>1808.4000244141</ele>
        <time>2026-07-04T12:29:12.000Z</time>
      </trkpt>
      <trkpt lat="46.15076" lon="6.78804">
        <ele>1808</ele>
        <time>2026-07-04T12:29:14.000Z</time>
      </trkpt>
      <trkpt lat="46.15072" lon="6.78799">
        <ele>1807</ele>
        <time>2026-07-04T12:29:20.000Z</time>
      </trkpt>
      <trkpt lat="46.15071" lon="6.78799">
        <ele>1806.5999755859</ele>
        <time>2026-07-04T12:29:23.000Z</time>
      </trkpt>
      <trkpt lat="46.1507" lon="6.78797">
        <ele>1806</ele>
        <time>2026-07-04T12:29:26.000Z</time>
      </trkpt>
      <trkpt lat="46.15069" lon="6.78797">
        <ele>1805.5999755859</ele>
        <time>2026-07-04T12:29:27.000Z</time>
      </trkpt>
      <trkpt lat="46.15068" lon="6.78792">
        <ele>1804.8000488281</ele>
        <time>2026-07-04T12:29:31.000Z</time>
      </trkpt>
      <trkpt lat="46.15067" lon="6.78791">
        <ele>1804</ele>
        <time>2026-07-04T12:29:34.000Z</time>
      </trkpt>
      <trkpt lat="46.15066" lon="6.78791">
        <ele>1803.8000488281</ele>
        <time>2026-07-04T12:29:35.000Z</time>
      </trkpt>
      <trkpt lat="46.15064" lon="6.78788">
        <ele>1802.8000488281</ele>
        <time>2026-07-04T12:29:39.000Z</time>
      </trkpt>
      <trkpt lat="46.15064" lon="6.78787">
        <ele>1802.4000244141</ele>
        <time>2026-07-04T12:29:40.000Z</time>
      </trkpt>
      <trkpt lat="46.15064" lon="6.78786">
        <ele>1802.1999511719</ele>
        <time>2026-07-04T12:29:41.000Z</time>
      </trkpt>
      <trkpt lat="46.15063" lon="6.78783">
        <ele>1801.5999755859</ele>
        <time>2026-07-04T12:29:45.000Z</time>
      </trkpt>
      <trkpt lat="46.15064" lon="6.7878">
        <ele>1801</ele>
        <time>2026-07-04T12:29:48.000Z</time>
      </trkpt>
      <trkpt lat="46.15064" lon="6.78779">
        <ele>1800.4000244141</ele>
        <time>2026-07-04T12:29:50.000Z</time>
      </trkpt>
      <trkpt lat="46.15067" lon="6.78776">
        <ele>1799.8000488281</ele>
        <time>2026-07-04T12:29:54.000Z</time>
      </trkpt>
      <trkpt lat="46.15068" lon="6.78775">
        <ele>1799.5999755859</ele>
        <time>2026-07-04T12:29:55.000Z</time>
      </trkpt>
      <trkpt lat="46.15068" lon="6.78775">
        <ele>1799.4000244141</ele>
        <time>2026-07-04T12:29:56.000Z</time>
      </trkpt>
      <trkpt lat="46.15073" lon="6.78771">
        <ele>1798.4000244141</ele>
        <time>2026-07-04T12:30:01.000Z</time>
      </trkpt>
      <trkpt lat="46.15075" lon="6.78771">
        <ele>1797.8000488281</ele>
        <time>2026-07-04T12:30:03.000Z</time>
      </trkpt>
      <trkpt lat="46.15076" lon="6.78771">
        <ele>1797.1999511719</ele>
        <time>2026-07-04T12:30:06.000Z</time>
      </trkpt>
      <trkpt lat="46.15078" lon="6.78771">
        <ele>1796.4000244141</ele>
        <time>2026-07-04T12:30:10.000Z</time>
      </trkpt>
      <trkpt lat="46.15078" lon="6.78771">
        <ele>1796.1999511719</ele>
        <time>2026-07-04T12:30:11.000Z</time>
      </trkpt>
      <trkpt lat="46.15078" lon="6.78767">
        <ele>1795</ele>
        <time>2026-07-04T12:30:16.000Z</time>
      </trkpt>
      <trkpt lat="46.15079" lon="6.78764">
        <ele>1794.5999755859</ele>
        <time>2026-07-04T12:30:18.000Z</time>
      </trkpt>
      <trkpt lat="46.15078" lon="6.78761">
        <ele>1793.8000488281</ele>
        <time>2026-07-04T12:30:20.000Z</time>
      </trkpt>
      <trkpt lat="46.15078" lon="6.78754">
        <ele>1792.5999755859</ele>
        <time>2026-07-04T12:30:24.000Z</time>
      </trkpt>
      <trkpt lat="46.15078" lon="6.78749">
        <ele>1791.5999755859</ele>
        <time>2026-07-04T12:30:28.000Z</time>
      </trkpt>
      <trkpt lat="46.15077" lon="6.78745">
        <ele>1790.8000488281</ele>
        <time>2026-07-04T12:30:32.000Z</time>
      </trkpt>
      <trkpt lat="46.15077" lon="6.78744">
        <ele>1790.4000244141</ele>
        <time>2026-07-04T12:30:34.000Z</time>
      </trkpt>
      <trkpt lat="46.15079" lon="6.78739">
        <ele>1789.4000244141</ele>
        <time>2026-07-04T12:30:38.000Z</time>
      </trkpt>
      <trkpt lat="46.15079" lon="6.78738">
        <ele>1789.1999511719</ele>
        <time>2026-07-04T12:30:39.000Z</time>
      </trkpt>
      <trkpt lat="46.15081" lon="6.78733">
        <ele>1788.1999511719</ele>
        <time>2026-07-04T12:30:43.000Z</time>
      </trkpt>
      <trkpt lat="46.15082" lon="6.78731">
        <ele>1787.8000488281</ele>
        <time>2026-07-04T12:30:45.000Z</time>
      </trkpt>
      <trkpt lat="46.15082" lon="6.78728">
        <ele>1787.1999511719</ele>
        <time>2026-07-04T12:30:48.000Z</time>
      </trkpt>
      <trkpt lat="46.15085" lon="6.78724">
        <ele>1786.1999511719</ele>
        <time>2026-07-04T12:30:52.000Z</time>
      </trkpt>
      <trkpt lat="46.15087" lon="6.78723">
        <ele>1785.4000244141</ele>
        <time>2026-07-04T12:30:59.000Z</time>
      </trkpt>
      <trkpt lat="46.15088" lon="6.78723">
        <ele>1785.4000244141</ele>
        <time>2026-07-04T12:31:01.000Z</time>
      </trkpt>
      <trkpt lat="46.15091" lon="6.78723">
        <ele>1785.1999511719</ele>
        <time>2026-07-04T12:31:05.000Z</time>
      </trkpt>
      <trkpt lat="46.15092" lon="6.78722">
        <ele>1785</ele>
        <time>2026-07-04T12:31:06.000Z</time>
      </trkpt>
      <trkpt lat="46.15093" lon="6.78714">
        <ele>1784.1999511719</ele>
        <time>2026-07-04T12:31:12.000Z</time>
      </trkpt>
      <trkpt lat="46.15093" lon="6.7871">
        <ele>1784.1999511719</ele>
        <time>2026-07-04T12:31:16.000Z</time>
      </trkpt>
      <trkpt lat="46.15093" lon="6.78706">
        <ele>1783.8000488281</ele>
        <time>2026-07-04T12:31:18.000Z</time>
      </trkpt>
      <trkpt lat="46.15093" lon="6.78702">
        <ele>1783</ele>
        <time>2026-07-04T12:31:21.000Z</time>
      </trkpt>
      <trkpt lat="46.15094" lon="6.78695">
        <ele>1782.4000244141</ele>
        <time>2026-07-04T12:31:25.000Z</time>
      </trkpt>
      <trkpt lat="46.15094" lon="6.78692">
        <ele>1782</ele>
        <time>2026-07-04T12:31:28.000Z</time>
      </trkpt>
      <trkpt lat="46.15094" lon="6.78687">
        <ele>1781</ele>
        <time>2026-07-04T12:31:33.000Z</time>
      </trkpt>
      <trkpt lat="46.15091" lon="6.78683">
        <ele>1779.8000488281</ele>
        <time>2026-07-04T12:31:38.000Z</time>
      </trkpt>
      <trkpt lat="46.15091" lon="6.78678">
        <ele>1779</ele>
        <time>2026-07-04T12:31:41.000Z</time>
      </trkpt>
      <trkpt lat="46.15091" lon="6.78677">
        <ele>1778.8000488281</ele>
        <time>2026-07-04T12:31:42.000Z</time>
      </trkpt>
      <trkpt lat="46.15091" lon="6.78672">
        <ele>1777.8000488281</ele>
        <time>2026-07-04T12:31:46.000Z</time>
      </trkpt>
      <trkpt lat="46.15091" lon="6.78668">
        <ele>1777.1999511719</ele>
        <time>2026-07-04T12:31:49.000Z</time>
      </trkpt>
      <trkpt lat="46.15092" lon="6.78665">
        <ele>1776.5999755859</ele>
        <time>2026-07-04T12:31:52.000Z</time>
      </trkpt>
      <trkpt lat="46.15093" lon="6.78665">
        <ele>1776.1999511719</ele>
        <time>2026-07-04T12:31:55.000Z</time>
      </trkpt>
      <trkpt lat="46.15093" lon="6.78662">
        <ele>1775.4000244141</ele>
        <time>2026-07-04T12:32:04.000Z</time>
      </trkpt>
      <trkpt lat="46.15093" lon="6.78662">
        <ele>1775.4000244141</ele>
        <time>2026-07-04T12:32:05.000Z</time>
      </trkpt>
      <trkpt lat="46.15094" lon="6.78662">
        <ele>1775</ele>
        <time>2026-07-04T12:32:15.000Z</time>
      </trkpt>
      <trkpt lat="46.15095" lon="6.78657">
        <ele>1774.4000244141</ele>
        <time>2026-07-04T12:32:22.000Z</time>
      </trkpt>
      <trkpt lat="46.15095" lon="6.78656">
        <ele>1774.1999511719</ele>
        <time>2026-07-04T12:32:23.000Z</time>
      </trkpt>
      <trkpt lat="46.15097" lon="6.78652">
        <ele>1773.4000244141</ele>
        <time>2026-07-04T12:32:29.000Z</time>
      </trkpt>
      <trkpt lat="46.15097" lon="6.78651">
        <ele>1773</ele>
        <time>2026-07-04T12:32:31.000Z</time>
      </trkpt>
      <trkpt lat="46.15099" lon="6.78647">
        <ele>1772.4000244141</ele>
        <time>2026-07-04T12:32:36.000Z</time>
      </trkpt>
      <trkpt lat="46.15099" lon="6.78644">
        <ele>1771.8000488281</ele>
        <time>2026-07-04T12:32:38.000Z</time>
      </trkpt>
      <trkpt lat="46.15099" lon="6.78639">
        <ele>1771.1999511719</ele>
        <time>2026-07-04T12:32:43.000Z</time>
      </trkpt>
      <trkpt lat="46.151" lon="6.78635">
        <ele>1770.5999755859</ele>
        <time>2026-07-04T12:32:47.000Z</time>
      </trkpt>
      <trkpt lat="46.15098" lon="6.78626">
        <ele>1770.5999755859</ele>
        <time>2026-07-04T12:32:54.000Z</time>
      </trkpt>
      <trkpt lat="46.15097" lon="6.7862">
        <ele>1770.1999511719</ele>
        <time>2026-07-04T12:32:58.000Z</time>
      </trkpt>
      <trkpt lat="46.15097" lon="6.78614">
        <ele>1770</ele>
        <time>2026-07-04T12:33:02.000Z</time>
      </trkpt>
      <trkpt lat="46.15095" lon="6.78609">
        <ele>1768.8000488281</ele>
        <time>2026-07-04T12:33:07.000Z</time>
      </trkpt>
      <trkpt lat="46.15092" lon="6.78605">
        <ele>1768.1999511719</ele>
        <time>2026-07-04T12:33:11.000Z</time>
      </trkpt>
      <trkpt lat="46.15091" lon="6.78601">
        <ele>1767.8000488281</ele>
        <time>2026-07-04T12:33:14.000Z</time>
      </trkpt>
      <trkpt lat="46.15091" lon="6.78596">
        <ele>1766.8000488281</ele>
        <time>2026-07-04T12:33:18.000Z</time>
      </trkpt>
      <trkpt lat="46.15091" lon="6.78588">
        <ele>1765.5999755859</ele>
        <time>2026-07-04T12:33:23.000Z</time>
      </trkpt>
      <trkpt lat="46.1509" lon="6.78577">
        <ele>1765.5999755859</ele>
        <time>2026-07-04T12:33:29.000Z</time>
      </trkpt>
      <trkpt lat="46.1509" lon="6.78568">
        <ele>1765.8000488281</ele>
        <time>2026-07-04T12:33:37.000Z</time>
      </trkpt>
      <trkpt lat="46.15091" lon="6.7856">
        <ele>1764.4000244141</ele>
        <time>2026-07-04T12:33:45.000Z</time>
      </trkpt>
      <trkpt lat="46.15094" lon="6.78553">
        <ele>1763.4000244141</ele>
        <time>2026-07-04T12:33:52.000Z</time>
      </trkpt>
      <trkpt lat="46.15097" lon="6.78547">
        <ele>1762.1999511719</ele>
        <time>2026-07-04T12:33:58.000Z</time>
      </trkpt>
      <trkpt lat="46.15098" lon="6.78545">
        <ele>1761.8000488281</ele>
        <time>2026-07-04T12:34:00.000Z</time>
      </trkpt>
      <trkpt lat="46.15098" lon="6.78544">
        <ele>1761.5999755859</ele>
        <time>2026-07-04T12:34:06.000Z</time>
      </trkpt>
      <trkpt lat="46.15098" lon="6.78546">
        <ele>1761.4000244141</ele>
        <time>2026-07-04T12:34:15.000Z</time>
      </trkpt>
      <trkpt lat="46.15098" lon="6.78543">
        <ele>1761.8000488281</ele>
        <time>2026-07-04T12:34:26.000Z</time>
      </trkpt>
      <trkpt lat="46.15097" lon="6.78539">
        <ele>1761.1999511719</ele>
        <time>2026-07-04T12:34:33.000Z</time>
      </trkpt>
      <trkpt lat="46.15097" lon="6.78539">
        <ele>1761</ele>
        <time>2026-07-04T12:34:34.000Z</time>
      </trkpt>
      <trkpt lat="46.15098" lon="6.78541">
        <ele>1760.4000244141</ele>
        <time>2026-07-04T12:34:45.000Z</time>
      </trkpt>
      <trkpt lat="46.15097" lon="6.7854">
        <ele>1760.5999755859</ele>
        <time>2026-07-04T12:34:50.000Z</time>
      </trkpt>
      <trkpt lat="46.15097" lon="6.7854">
        <ele>1760.8000488281</ele>
        <time>2026-07-04T12:34:54.000Z</time>
      </trkpt>
      <trkpt lat="46.15099" lon="6.78537">
        <ele>1761</ele>
        <time>2026-07-04T12:35:02.000Z</time>
      </trkpt>
      <trkpt lat="46.15101" lon="6.78531">
        <ele>1760.5999755859</ele>
        <time>2026-07-04T12:35:08.000Z</time>
      </trkpt>
      <trkpt lat="46.15101" lon="6.78528">
        <ele>1760.5999755859</ele>
        <time>2026-07-04T12:35:12.000Z</time>
      </trkpt>
      <trkpt lat="46.15102" lon="6.78527">
        <ele>1760.5999755859</ele>
        <time>2026-07-04T12:35:15.000Z</time>
      </trkpt>
      <trkpt lat="46.15101" lon="6.78526">
        <ele>1760.8000488281</ele>
        <time>2026-07-04T12:35:23.000Z</time>
      </trkpt>
      <trkpt lat="46.15101" lon="6.78525">
        <ele>1761</ele>
        <time>2026-07-04T12:35:36.000Z</time>
      </trkpt>
      <trkpt lat="46.15101" lon="6.78528">
        <ele>1761</ele>
        <time>2026-07-04T12:35:47.000Z</time>
      </trkpt>
      <trkpt lat="46.151" lon="6.78529">
        <ele>1760.8000488281</ele>
        <time>2026-07-04T12:35:59.000Z</time>
      </trkpt>
      <trkpt lat="46.151" lon="6.78527">
        <ele>1760.4000244141</ele>
        <time>2026-07-04T12:36:09.000Z</time>
      </trkpt>
      <trkpt lat="46.15101" lon="6.78528">
        <ele>1760.4000244141</ele>
        <time>2026-07-04T12:36:14.000Z</time>
      </trkpt>
      <trkpt lat="46.15101" lon="6.78529">
        <ele>1760.4000244141</ele>
        <time>2026-07-04T12:36:19.000Z</time>
      </trkpt>
      <trkpt lat="46.15101" lon="6.78528">
        <ele>1760.4000244141</ele>
        <time>2026-07-04T12:36:33.000Z</time>
      </trkpt>
      <trkpt lat="46.15102" lon="6.78529">
        <ele>1760.1999511719</ele>
        <time>2026-07-04T12:36:45.000Z</time>
      </trkpt>
      <trkpt lat="46.15102" lon="6.78529">
        <ele>1760.1999511719</ele>
        <time>2026-07-04T12:36:55.000Z</time>
      </trkpt>
      <trkpt lat="46.15102" lon="6.7853">
        <ele>1760.1999511719</ele>
        <time>2026-07-04T12:37:11.000Z</time>
      </trkpt>
      <trkpt lat="46.15101" lon="6.78531">
        <ele>1760</ele>
        <time>2026-07-04T12:37:28.000Z</time>
      </trkpt>
      <trkpt lat="46.151" lon="6.78529">
        <ele>1760</ele>
        <time>2026-07-04T12:37:40.000Z</time>
      </trkpt>
      <trkpt lat="46.15102" lon="6.78527">
        <ele>1760.1999511719</ele>
        <time>2026-07-04T12:37:54.000Z</time>
      </trkpt>
      <trkpt lat="46.15102" lon="6.78529">
        <ele>1760</ele>
        <time>2026-07-04T12:38:05.000Z</time>
      </trkpt>
      <trkpt lat="46.15102" lon="6.78528">
        <ele>1760.1999511719</ele>
        <time>2026-07-04T12:38:14.000Z</time>
      </trkpt>
      <trkpt lat="46.15102" lon="6.78528">
        <ele>1760.4000244141</ele>
        <time>2026-07-04T12:38:18.000Z</time>
      </trkpt>
      <trkpt lat="46.151" lon="6.78527">
        <ele>1760.4000244141</ele>
        <time>2026-07-04T12:38:26.000Z</time>
      </trkpt>
      <trkpt lat="46.15099" lon="6.78527">
        <ele>1760.8000488281</ele>
        <time>2026-07-04T12:38:33.000Z</time>
      </trkpt>
      <trkpt lat="46.15101" lon="6.78524">
        <ele>1760.8000488281</ele>
        <time>2026-07-04T12:38:44.000Z</time>
      </trkpt>
      <trkpt lat="46.15101" lon="6.78517">
        <ele>1759.5999755859</ele>
        <time>2026-07-04T12:38:53.000Z</time>
      </trkpt>
      <trkpt lat="46.15101" lon="6.78514">
        <ele>1759.1999511719</ele>
        <time>2026-07-04T12:38:55.000Z</time>
      </trkpt>
      <trkpt lat="46.15103" lon="6.78508">
        <ele>1758.1999511719</ele>
        <time>2026-07-04T12:39:01.000Z</time>
      </trkpt>
      <trkpt lat="46.15103" lon="6.78507">
        <ele>1758</ele>
        <time>2026-07-04T12:39:02.000Z</time>
      </trkpt>
      <trkpt lat="46.15104" lon="6.78502">
        <ele>1757.1999511719</ele>
        <time>2026-07-04T12:39:07.000Z</time>
      </trkpt>
      <trkpt lat="46.15104" lon="6.785">
        <ele>1757</ele>
        <time>2026-07-04T12:39:12.000Z</time>
      </trkpt>
      <trkpt lat="46.15105" lon="6.78495">
        <ele>1756.5999755859</ele>
        <time>2026-07-04T12:39:16.000Z</time>
      </trkpt>
      <trkpt lat="46.15106" lon="6.78493">
        <ele>1756</ele>
        <time>2026-07-04T12:39:21.000Z</time>
      </trkpt>
      <trkpt lat="46.15107" lon="6.7849">
        <ele>1755.8000488281</ele>
        <time>2026-07-04T12:39:24.000Z</time>
      </trkpt>
      <trkpt lat="46.15109" lon="6.78485">
        <ele>1754.8000488281</ele>
        <time>2026-07-04T12:39:30.000Z</time>
      </trkpt>
      <trkpt lat="46.15109" lon="6.78483">
        <ele>1754.5999755859</ele>
        <time>2026-07-04T12:39:31.000Z</time>
      </trkpt>
      <trkpt lat="46.15111" lon="6.78475">
        <ele>1753.5999755859</ele>
        <time>2026-07-04T12:39:36.000Z</time>
      </trkpt>
      <trkpt lat="46.15112" lon="6.78474">
        <ele>1753.4000244141</ele>
        <time>2026-07-04T12:39:39.000Z</time>
      </trkpt>
      <trkpt lat="46.15113" lon="6.78466">
        <ele>1752.8000488281</ele>
        <time>2026-07-04T12:39:47.000Z</time>
      </trkpt>
      <trkpt lat="46.15112" lon="6.78462">
        <ele>1752.4000244141</ele>
        <time>2026-07-04T12:39:49.000Z</time>
      </trkpt>
      <trkpt lat="46.15113" lon="6.78456">
        <ele>1751.5999755859</ele>
        <time>2026-07-04T12:39:52.000Z</time>
      </trkpt>
      <trkpt lat="46.15114" lon="6.78453">
        <ele>1751.4000244141</ele>
        <time>2026-07-04T12:39:54.000Z</time>
      </trkpt>
      <trkpt lat="46.15116" lon="6.78449">
        <ele>1751</ele>
        <time>2026-07-04T12:39:59.000Z</time>
      </trkpt>
      <trkpt lat="46.15113" lon="6.78446">
        <ele>1750.1999511719</ele>
        <time>2026-07-04T12:40:04.000Z</time>
      </trkpt>
      <trkpt lat="46.15112" lon="6.78444">
        <ele>1749.8000488281</ele>
        <time>2026-07-04T12:40:06.000Z</time>
      </trkpt>
      <trkpt lat="46.15109" lon="6.7844">
        <ele>1749</ele>
        <time>2026-07-04T12:40:09.000Z</time>
      </trkpt>
      <trkpt lat="46.15109" lon="6.78435">
        <ele>1747.8000488281</ele>
        <time>2026-07-04T12:40:13.000Z</time>
      </trkpt>
      <trkpt lat="46.15109" lon="6.78434">
        <ele>1747.5999755859</ele>
        <time>2026-07-04T12:40:14.000Z</time>
      </trkpt>
      <trkpt lat="46.1511" lon="6.78431">
        <ele>1746.8000488281</ele>
        <time>2026-07-04T12:40:18.000Z</time>
      </trkpt>
      <trkpt lat="46.15111" lon="6.78425">
        <ele>1745.8000488281</ele>
        <time>2026-07-04T12:40:24.000Z</time>
      </trkpt>
      <trkpt lat="46.1511" lon="6.78423">
        <ele>1745.8000488281</ele>
        <time>2026-07-04T12:40:25.000Z</time>
      </trkpt>
      <trkpt lat="46.15107" lon="6.78419">
        <ele>1744.5999755859</ele>
        <time>2026-07-04T12:40:29.000Z</time>
      </trkpt>
      <trkpt lat="46.15105" lon="6.78417">
        <ele>1743.5999755859</ele>
        <time>2026-07-04T12:40:32.000Z</time>
      </trkpt>
      <trkpt lat="46.15105" lon="6.78416">
        <ele>1743.4000244141</ele>
        <time>2026-07-04T12:40:33.000Z</time>
      </trkpt>
      <trkpt lat="46.15103" lon="6.78411">
        <ele>1742.1999511719</ele>
        <time>2026-07-04T12:40:37.000Z</time>
      </trkpt>
      <trkpt lat="46.15103" lon="6.78405">
        <ele>1741.1999511719</ele>
        <time>2026-07-04T12:40:41.000Z</time>
      </trkpt>
      <trkpt lat="46.15103" lon="6.78403">
        <ele>1740.1999511719</ele>
        <time>2026-07-04T12:40:45.000Z</time>
      </trkpt>
      <trkpt lat="46.15104" lon="6.784">
        <ele>1739</ele>
        <time>2026-07-04T12:40:50.000Z</time>
      </trkpt>
      <trkpt lat="46.15104" lon="6.78398">
        <ele>1738.5999755859</ele>
        <time>2026-07-04T12:40:52.000Z</time>
      </trkpt>
      <trkpt lat="46.15103" lon="6.78394">
        <ele>1737.8000488281</ele>
        <time>2026-07-04T12:40:55.000Z</time>
      </trkpt>
      <trkpt lat="46.15102" lon="6.78391">
        <ele>1736.8000488281</ele>
        <time>2026-07-04T12:40:59.000Z</time>
      </trkpt>
      <trkpt lat="46.15101" lon="6.7839">
        <ele>1736.5999755859</ele>
        <time>2026-07-04T12:41:00.000Z</time>
      </trkpt>
      <trkpt lat="46.15099" lon="6.78385">
        <ele>1735.4000244141</ele>
        <time>2026-07-04T12:41:04.000Z</time>
      </trkpt>
      <trkpt lat="46.151" lon="6.78384">
        <ele>1735</ele>
        <time>2026-07-04T12:41:06.000Z</time>
      </trkpt>
      <trkpt lat="46.151" lon="6.78382">
        <ele>1734.4000244141</ele>
        <time>2026-07-04T12:41:09.000Z</time>
      </trkpt>
      <trkpt lat="46.15098" lon="6.78379">
        <ele>1733.1999511719</ele>
        <time>2026-07-04T12:41:13.000Z</time>
      </trkpt>
      <trkpt lat="46.15097" lon="6.78379">
        <ele>1733</ele>
        <time>2026-07-04T12:41:14.000Z</time>
      </trkpt>
      <trkpt lat="46.15095" lon="6.78378">
        <ele>1732.1999511719</ele>
        <time>2026-07-04T12:41:18.000Z</time>
      </trkpt>
      <trkpt lat="46.15095" lon="6.78373">
        <ele>1731.4000244141</ele>
        <time>2026-07-04T12:41:21.000Z</time>
      </trkpt>
      <trkpt lat="46.15095" lon="6.78371">
        <ele>1731</ele>
        <time>2026-07-04T12:41:22.000Z</time>
      </trkpt>
      <trkpt lat="46.15095" lon="6.78369">
        <ele>1730</ele>
        <time>2026-07-04T12:41:28.000Z</time>
      </trkpt>
      <trkpt lat="46.15096" lon="6.78363">
        <ele>1728.8000488281</ele>
        <time>2026-07-04T12:41:33.000Z</time>
      </trkpt>
      <trkpt lat="46.15096" lon="6.7836">
        <ele>1728.4000244141</ele>
        <time>2026-07-04T12:41:35.000Z</time>
      </trkpt>
      <trkpt lat="46.15098" lon="6.78355">
        <ele>1727.5999755859</ele>
        <time>2026-07-04T12:41:39.000Z</time>
      </trkpt>
      <trkpt lat="46.15098" lon="6.78351">
        <ele>1726.5999755859</ele>
        <time>2026-07-04T12:41:43.000Z</time>
      </trkpt>
      <trkpt lat="46.15096" lon="6.78345">
        <ele>1725.5999755859</ele>
        <time>2026-07-04T12:41:48.000Z</time>
      </trkpt>
      <trkpt lat="46.15096" lon="6.78343">
        <ele>1725.1999511719</ele>
        <time>2026-07-04T12:41:50.000Z</time>
      </trkpt>
      <trkpt lat="46.15095" lon="6.78341">
        <ele>1724.4000244141</ele>
        <time>2026-07-04T12:41:53.000Z</time>
      </trkpt>
      <trkpt lat="46.15093" lon="6.78337">
        <ele>1723.4000244141</ele>
        <time>2026-07-04T12:41:58.000Z</time>
      </trkpt>
      <trkpt lat="46.15092" lon="6.78335">
        <ele>1723</ele>
        <time>2026-07-04T12:41:59.000Z</time>
      </trkpt>
      <trkpt lat="46.15092" lon="6.7833">
        <ele>1722</ele>
        <time>2026-07-04T12:42:02.000Z</time>
      </trkpt>
      <trkpt lat="46.15092" lon="6.78326">
        <ele>1721.4000244141</ele>
        <time>2026-07-04T12:42:04.000Z</time>
      </trkpt>
      <trkpt lat="46.15093" lon="6.78324">
        <ele>1721.1999511719</ele>
        <time>2026-07-04T12:42:05.000Z</time>
      </trkpt>
      <trkpt lat="46.15093" lon="6.78322">
        <ele>1720.8000488281</ele>
        <time>2026-07-04T12:42:06.000Z</time>
      </trkpt>
      <trkpt lat="46.15093" lon="6.78319">
        <ele>1720.4000244141</ele>
        <time>2026-07-04T12:42:09.000Z</time>
      </trkpt>
      <trkpt lat="46.15093" lon="6.78314">
        <ele>1719.8000488281</ele>
        <time>2026-07-04T12:42:12.000Z</time>
      </trkpt>
      <trkpt lat="46.15094" lon="6.7831">
        <ele>1718.5999755859</ele>
        <time>2026-07-04T12:42:17.000Z</time>
      </trkpt>
      <trkpt lat="46.15093" lon="6.78309">
        <ele>1718.4000244141</ele>
        <time>2026-07-04T12:42:18.000Z</time>
      </trkpt>
      <trkpt lat="46.15093" lon="6.78306">
        <ele>1717.5999755859</ele>
        <time>2026-07-04T12:42:21.000Z</time>
      </trkpt>
      <trkpt lat="46.15095" lon="6.78304">
        <ele>1716.5999755859</ele>
        <time>2026-07-04T12:42:25.000Z</time>
      </trkpt>
      <trkpt lat="46.15094" lon="6.78302">
        <ele>1716.4000244141</ele>
        <time>2026-07-04T12:42:27.000Z</time>
      </trkpt>
      <trkpt lat="46.15093" lon="6.78297">
        <ele>1715.4000244141</ele>
        <time>2026-07-04T12:42:31.000Z</time>
      </trkpt>
      <trkpt lat="46.15093" lon="6.78295">
        <ele>1714.8000488281</ele>
        <time>2026-07-04T12:42:33.000Z</time>
      </trkpt>
      <trkpt lat="46.15093" lon="6.78294">
        <ele>1714.4000244141</ele>
        <time>2026-07-04T12:42:35.000Z</time>
      </trkpt>
      <trkpt lat="46.15092" lon="6.7829">
        <ele>1713.4000244141</ele>
        <time>2026-07-04T12:42:39.000Z</time>
      </trkpt>
      <trkpt lat="46.15091" lon="6.78288">
        <ele>1713</ele>
        <time>2026-07-04T12:42:41.000Z</time>
      </trkpt>
      <trkpt lat="46.1509" lon="6.78286">
        <ele>1712.1999511719</ele>
        <time>2026-07-04T12:42:44.000Z</time>
      </trkpt>
      <trkpt lat="46.15089" lon="6.78284">
        <ele>1711.4000244141</ele>
        <time>2026-07-04T12:42:48.000Z</time>
      </trkpt>
      <trkpt lat="46.15089" lon="6.78283">
        <ele>1711.1999511719</ele>
        <time>2026-07-04T12:42:49.000Z</time>
      </trkpt>
      <trkpt lat="46.1509" lon="6.78277">
        <ele>1709.8000488281</ele>
        <time>2026-07-04T12:42:54.000Z</time>
      </trkpt>
      <trkpt lat="46.1509" lon="6.78274">
        <ele>1708.8000488281</ele>
        <time>2026-07-04T12:42:57.000Z</time>
      </trkpt>
      <trkpt lat="46.1509" lon="6.78268">
        <ele>1707.8000488281</ele>
        <time>2026-07-04T12:43:00.000Z</time>
      </trkpt>
      <trkpt lat="46.1509" lon="6.78266">
        <ele>1707.4000244141</ele>
        <time>2026-07-04T12:43:01.000Z</time>
      </trkpt>
      <trkpt lat="46.15092" lon="6.78262">
        <ele>1706.8000488281</ele>
        <time>2026-07-04T12:43:04.000Z</time>
      </trkpt>
      <trkpt lat="46.15093" lon="6.78258">
        <ele>1706</ele>
        <time>2026-07-04T12:43:07.000Z</time>
      </trkpt>
      <trkpt lat="46.15092" lon="6.78256">
        <ele>1705.5999755859</ele>
        <time>2026-07-04T12:43:09.000Z</time>
      </trkpt>
      <trkpt lat="46.15092" lon="6.78251">
        <ele>1704.5999755859</ele>
        <time>2026-07-04T12:43:14.000Z</time>
      </trkpt>
      <trkpt lat="46.15092" lon="6.78247">
        <ele>1703.4000244141</ele>
        <time>2026-07-04T12:43:19.000Z</time>
      </trkpt>
      <trkpt lat="46.15094" lon="6.78243">
        <ele>1702.4000244141</ele>
        <time>2026-07-04T12:43:24.000Z</time>
      </trkpt>
      <trkpt lat="46.15094" lon="6.78239">
        <ele>1701.4000244141</ele>
        <time>2026-07-04T12:43:29.000Z</time>
      </trkpt>
      <trkpt lat="46.15093" lon="6.78238">
        <ele>1701</ele>
        <time>2026-07-04T12:43:31.000Z</time>
      </trkpt>
      <trkpt lat="46.15091" lon="6.78235">
        <ele>1700.1999511719</ele>
        <time>2026-07-04T12:43:34.000Z</time>
      </trkpt>
      <trkpt lat="46.15091" lon="6.7823">
        <ele>1699</ele>
        <time>2026-07-04T12:43:37.000Z</time>
      </trkpt>
      <trkpt lat="46.15091" lon="6.78228">
        <ele>1698.8000488281</ele>
        <time>2026-07-04T12:43:38.000Z</time>
      </trkpt>
      <trkpt lat="46.1509" lon="6.78223">
        <ele>1697.8000488281</ele>
        <time>2026-07-04T12:43:42.000Z</time>
      </trkpt>
      <trkpt lat="46.15089" lon="6.78217">
        <ele>1696.5999755859</ele>
        <time>2026-07-04T12:43:46.000Z</time>
      </trkpt>
      <trkpt lat="46.15089" lon="6.78217">
        <ele>1696.4000244141</ele>
        <time>2026-07-04T12:43:47.000Z</time>
      </trkpt>
      <trkpt lat="46.15087" lon="6.78214">
        <ele>1695.4000244141</ele>
        <time>2026-07-04T12:43:51.000Z</time>
      </trkpt>
      <trkpt lat="46.15085" lon="6.7821">
        <ele>1694.4000244141</ele>
        <time>2026-07-04T12:43:55.000Z</time>
      </trkpt>
      <trkpt lat="46.15085" lon="6.78205">
        <ele>1693.4000244141</ele>
        <time>2026-07-04T12:44:00.000Z</time>
      </trkpt>
      <trkpt lat="46.15085" lon="6.78204">
        <ele>1693</ele>
        <time>2026-07-04T12:44:03.000Z</time>
      </trkpt>
      <trkpt lat="46.15086" lon="6.78199">
        <ele>1692.1999511719</ele>
        <time>2026-07-04T12:44:07.000Z</time>
      </trkpt>
      <trkpt lat="46.15087" lon="6.78196">
        <ele>1691.1999511719</ele>
        <time>2026-07-04T12:44:11.000Z</time>
      </trkpt>
      <trkpt lat="46.15087" lon="6.78196">
        <ele>1691.1999511719</ele>
        <time>2026-07-04T12:44:12.000Z</time>
      </trkpt>
      <trkpt lat="46.15088" lon="6.78193">
        <ele>1690</ele>
        <time>2026-07-04T12:44:17.000Z</time>
      </trkpt>
      <trkpt lat="46.15088" lon="6.78192">
        <ele>1689.1999511719</ele>
        <time>2026-07-04T12:44:20.000Z</time>
      </trkpt>
      <trkpt lat="46.15087" lon="6.78191">
        <ele>1688.8000488281</ele>
        <time>2026-07-04T12:44:21.000Z</time>
      </trkpt>
      <trkpt lat="46.15088" lon="6.78185">
        <ele>1687.5999755859</ele>
        <time>2026-07-04T12:44:25.000Z</time>
      </trkpt>
      <trkpt lat="46.15089" lon="6.78183">
        <ele>1687</ele>
        <time>2026-07-04T12:44:27.000Z</time>
      </trkpt>
      <trkpt lat="46.1509" lon="6.78182">
        <ele>1686.4000244141</ele>
        <time>2026-07-04T12:44:29.000Z</time>
      </trkpt>
      <trkpt lat="46.15088" lon="6.78179">
        <ele>1685.5999755859</ele>
        <time>2026-07-04T12:44:33.000Z</time>
      </trkpt>
      <trkpt lat="46.15088" lon="6.78178">
        <ele>1685.1999511719</ele>
        <time>2026-07-04T12:44:34.000Z</time>
      </trkpt>
      <trkpt lat="46.15088" lon="6.78175">
        <ele>1684.1999511719</ele>
        <time>2026-07-04T12:44:37.000Z</time>
      </trkpt>
      <trkpt lat="46.15089" lon="6.78173">
        <ele>1683.4000244141</ele>
        <time>2026-07-04T12:44:41.000Z</time>
      </trkpt>
      <trkpt lat="46.1509" lon="6.78173">
        <ele>1683</ele>
        <time>2026-07-04T12:44:42.000Z</time>
      </trkpt>
      <trkpt lat="46.15091" lon="6.78168">
        <ele>1681.8000488281</ele>
        <time>2026-07-04T12:44:46.000Z</time>
      </trkpt>
      <trkpt lat="46.15092" lon="6.78164">
        <ele>1680.5999755859</ele>
        <time>2026-07-04T12:44:50.000Z</time>
      </trkpt>
      <trkpt lat="46.15094" lon="6.78159">
        <ele>1679.5999755859</ele>
        <time>2026-07-04T12:44:54.000Z</time>
      </trkpt>
      <trkpt lat="46.15096" lon="6.78155">
        <ele>1678.5999755859</ele>
        <time>2026-07-04T12:44:57.000Z</time>
      </trkpt>
      <trkpt lat="46.15097" lon="6.78154">
        <ele>1678.1999511719</ele>
        <time>2026-07-04T12:44:58.000Z</time>
      </trkpt>
      <trkpt lat="46.15099" lon="6.78151">
        <ele>1677</ele>
        <time>2026-07-04T12:45:02.000Z</time>
      </trkpt>
      <trkpt lat="46.15099" lon="6.78149">
        <ele>1676.5999755859</ele>
        <time>2026-07-04T12:45:05.000Z</time>
      </trkpt>
      <trkpt lat="46.15099" lon="6.78148">
        <ele>1676.1999511719</ele>
        <time>2026-07-04T12:45:08.000Z</time>
      </trkpt>
      <trkpt lat="46.15099" lon="6.78148">
        <ele>1676</ele>
        <time>2026-07-04T12:45:09.000Z</time>
      </trkpt>
      <trkpt lat="46.15098" lon="6.78146">
        <ele>1675.5999755859</ele>
        <time>2026-07-04T12:45:13.000Z</time>
      </trkpt>
      <trkpt lat="46.15098" lon="6.78144">
        <ele>1675</ele>
        <time>2026-07-04T12:45:16.000Z</time>
      </trkpt>
      <trkpt lat="46.151" lon="6.78143">
        <ele>1674.4000244141</ele>
        <time>2026-07-04T12:45:20.000Z</time>
      </trkpt>
      <trkpt lat="46.15101" lon="6.78142">
        <ele>1674</ele>
        <time>2026-07-04T12:45:23.000Z</time>
      </trkpt>
      <trkpt lat="46.15098" lon="6.78138">
        <ele>1673</ele>
        <time>2026-07-04T12:45:28.000Z</time>
      </trkpt>
      <trkpt lat="46.15097" lon="6.78137">
        <ele>1672.5999755859</ele>
        <time>2026-07-04T12:45:29.000Z</time>
      </trkpt>
      <trkpt lat="46.15096" lon="6.78135">
        <ele>1671.8000488281</ele>
        <time>2026-07-04T12:45:32.000Z</time>
      </trkpt>
      <trkpt lat="46.15095" lon="6.78135">
        <ele>1671.5999755859</ele>
        <time>2026-07-04T12:45:33.000Z</time>
      </trkpt>
      <trkpt lat="46.15093" lon="6.78133">
        <ele>1670.8000488281</ele>
        <time>2026-07-04T12:45:36.000Z</time>
      </trkpt>
      <trkpt lat="46.15092" lon="6.78133">
        <ele>1670.4000244141</ele>
        <time>2026-07-04T12:45:38.000Z</time>
      </trkpt>
      <trkpt lat="46.1509" lon="6.78132">
        <ele>1669.5999755859</ele>
        <time>2026-07-04T12:45:43.000Z</time>
      </trkpt>
      <trkpt lat="46.15089" lon="6.78131">
        <ele>1669.1999511719</ele>
        <time>2026-07-04T12:45:45.000Z</time>
      </trkpt>
      <trkpt lat="46.15088" lon="6.78129">
        <ele>1668</ele>
        <time>2026-07-04T12:45:52.000Z</time>
      </trkpt>
      <trkpt lat="46.15084" lon="6.78127">
        <ele>1666.8000488281</ele>
        <time>2026-07-04T12:45:57.000Z</time>
      </trkpt>
      <trkpt lat="46.15083" lon="6.78127">
        <ele>1666.1999511719</ele>
        <time>2026-07-04T12:45:59.000Z</time>
      </trkpt>
      <trkpt lat="46.15081" lon="6.78126">
        <ele>1665.4000244141</ele>
        <time>2026-07-04T12:46:02.000Z</time>
      </trkpt>
      <trkpt lat="46.15078" lon="6.78125">
        <ele>1664.4000244141</ele>
        <time>2026-07-04T12:46:06.000Z</time>
      </trkpt>
      <trkpt lat="46.15077" lon="6.78123">
        <ele>1663.8000488281</ele>
        <time>2026-07-04T12:46:08.000Z</time>
      </trkpt>
      <trkpt lat="46.15075" lon="6.78122">
        <ele>1663.1999511719</ele>
        <time>2026-07-04T12:46:10.000Z</time>
      </trkpt>
      <trkpt lat="46.15073" lon="6.78121">
        <ele>1662.1999511719</ele>
        <time>2026-07-04T12:46:15.000Z</time>
      </trkpt>
      <trkpt lat="46.15072" lon="6.78121">
        <ele>1661.5999755859</ele>
        <time>2026-07-04T12:46:17.000Z</time>
      </trkpt>
      <trkpt lat="46.1507" lon="6.78122">
        <ele>1661</ele>
        <time>2026-07-04T12:46:20.000Z</time>
      </trkpt>
      <trkpt lat="46.15064" lon="6.78122">
        <ele>1659.8000488281</ele>
        <time>2026-07-04T12:46:26.000Z</time>
      </trkpt>
      <trkpt lat="46.15061" lon="6.78124">
        <ele>1658.5999755859</ele>
        <time>2026-07-04T12:46:32.000Z</time>
      </trkpt>
      <trkpt lat="46.1506" lon="6.78123">
        <ele>1658.1999511719</ele>
        <time>2026-07-04T12:46:35.000Z</time>
      </trkpt>
      <trkpt lat="46.15061" lon="6.78123">
        <ele>1657.5999755859</ele>
        <time>2026-07-04T12:46:39.000Z</time>
      </trkpt>
      <trkpt lat="46.15061" lon="6.7812">
        <ele>1657</ele>
        <time>2026-07-04T12:46:43.000Z</time>
      </trkpt>
      <trkpt lat="46.1506" lon="6.78119">
        <ele>1656.5999755859</ele>
        <time>2026-07-04T12:46:45.000Z</time>
      </trkpt>
      <trkpt lat="46.15057" lon="6.78119">
        <ele>1655.5999755859</ele>
        <time>2026-07-04T12:46:50.000Z</time>
      </trkpt>
      <trkpt lat="46.15056" lon="6.78119">
        <ele>1655.4000244141</ele>
        <time>2026-07-04T12:46:51.000Z</time>
      </trkpt>
      <trkpt lat="46.15053" lon="6.7812">
        <ele>1654.5999755859</ele>
        <time>2026-07-04T12:46:56.000Z</time>
      </trkpt>
      <trkpt lat="46.15053" lon="6.7812">
        <ele>1654.1999511719</ele>
        <time>2026-07-04T12:46:58.000Z</time>
      </trkpt>
      <trkpt lat="46.15051" lon="6.78119">
        <ele>1653.4000244141</ele>
        <time>2026-07-04T12:47:02.000Z</time>
      </trkpt>
      <trkpt lat="46.15051" lon="6.78118">
        <ele>1652.8000488281</ele>
        <time>2026-07-04T12:47:06.000Z</time>
      </trkpt>
      <trkpt lat="46.15049" lon="6.78117">
        <ele>1652.1999511719</ele>
        <time>2026-07-04T12:47:09.000Z</time>
      </trkpt>
      <trkpt lat="46.15048" lon="6.78116">
        <ele>1651.5999755859</ele>
        <time>2026-07-04T12:47:12.000Z</time>
      </trkpt>
      <trkpt lat="46.15048" lon="6.78116">
        <ele>1651.1999511719</ele>
        <time>2026-07-04T12:47:13.000Z</time>
      </trkpt>
      <trkpt lat="46.15045" lon="6.78117">
        <ele>1650.1999511719</ele>
        <time>2026-07-04T12:47:18.000Z</time>
      </trkpt>
      <trkpt lat="46.15044" lon="6.78116">
        <ele>1649.8000488281</ele>
        <time>2026-07-04T12:47:20.000Z</time>
      </trkpt>
      <trkpt lat="46.15043" lon="6.78115">
        <ele>1649</ele>
        <time>2026-07-04T12:47:25.000Z</time>
      </trkpt>
      <trkpt lat="46.15043" lon="6.78115">
        <ele>1648.8000488281</ele>
        <time>2026-07-04T12:47:29.000Z</time>
      </trkpt>
      <trkpt lat="46.15042" lon="6.78111">
        <ele>1648.1999511719</ele>
        <time>2026-07-04T12:47:37.000Z</time>
      </trkpt>
      <trkpt lat="46.15043" lon="6.7811">
        <ele>1648</ele>
        <time>2026-07-04T12:47:42.000Z</time>
      </trkpt>
      <trkpt lat="46.15042" lon="6.78111">
        <ele>1647.5999755859</ele>
        <time>2026-07-04T12:47:46.000Z</time>
      </trkpt>
      <trkpt lat="46.15041" lon="6.78109">
        <ele>1647.1999511719</ele>
        <time>2026-07-04T12:47:52.000Z</time>
      </trkpt>
      <trkpt lat="46.1504" lon="6.78108">
        <ele>1647</ele>
        <time>2026-07-04T12:47:54.000Z</time>
      </trkpt>
      <trkpt lat="46.15037" lon="6.78105">
        <ele>1646</ele>
        <time>2026-07-04T12:48:01.000Z</time>
      </trkpt>
      <trkpt lat="46.15036" lon="6.78105">
        <ele>1645.5999755859</ele>
        <time>2026-07-04T12:48:03.000Z</time>
      </trkpt>
      <trkpt lat="46.15034" lon="6.78104">
        <ele>1644.8000488281</ele>
        <time>2026-07-04T12:48:08.000Z</time>
      </trkpt>
      <trkpt lat="46.15034" lon="6.78098">
        <ele>1643.5999755859</ele>
        <time>2026-07-04T12:48:15.000Z</time>
      </trkpt>
      <trkpt lat="46.15035" lon="6.78096">
        <ele>1643</ele>
        <time>2026-07-04T12:48:17.000Z</time>
      </trkpt>
      <trkpt lat="46.15037" lon="6.78094">
        <ele>1642.5999755859</ele>
        <time>2026-07-04T12:48:21.000Z</time>
      </trkpt>
      <trkpt lat="46.15036" lon="6.78094">
        <ele>1642.4000244141</ele>
        <time>2026-07-04T12:48:28.000Z</time>
      </trkpt>
      <trkpt lat="46.15038" lon="6.78094">
        <ele>1642.4000244141</ele>
        <time>2026-07-04T12:48:36.000Z</time>
      </trkpt>
      <trkpt lat="46.15037" lon="6.78093">
        <ele>1642.5999755859</ele>
        <time>2026-07-04T12:48:39.000Z</time>
      </trkpt>
      <trkpt lat="46.15036" lon="6.7809">
        <ele>1642.4000244141</ele>
        <time>2026-07-04T12:48:49.000Z</time>
      </trkpt>
      <trkpt lat="46.15037" lon="6.78091">
        <ele>1643</ele>
        <time>2026-07-04T12:49:01.000Z</time>
      </trkpt>
      <trkpt lat="46.15036" lon="6.78091">
        <ele>1642.8000488281</ele>
        <time>2026-07-04T12:49:14.000Z</time>
      </trkpt>
      <trkpt lat="46.15036" lon="6.7809">
        <ele>1642.4000244141</ele>
        <time>2026-07-04T12:49:25.000Z</time>
      </trkpt>
      <trkpt lat="46.15038" lon="6.7809">
        <ele>1642.5999755859</ele>
        <time>2026-07-04T12:49:35.000Z</time>
      </trkpt>
      <trkpt lat="46.15039" lon="6.78091">
        <ele>1642.1999511719</ele>
        <time>2026-07-04T12:49:44.000Z</time>
      </trkpt>
      <trkpt lat="46.1504" lon="6.78088">
        <ele>1642</ele>
        <time>2026-07-04T12:49:55.000Z</time>
      </trkpt>
      <trkpt lat="46.15039" lon="6.78087">
        <ele>1641.5999755859</ele>
        <time>2026-07-04T12:50:03.000Z</time>
      </trkpt>
      <trkpt lat="46.15038" lon="6.78087">
        <ele>1641.5999755859</ele>
        <time>2026-07-04T12:50:04.000Z</time>
      </trkpt>
      <trkpt lat="46.15035" lon="6.78087">
        <ele>1641.5999755859</ele>
        <time>2026-07-04T12:50:11.000Z</time>
      </trkpt>
      <trkpt lat="46.15037" lon="6.78085">
        <ele>1641.1999511719</ele>
        <time>2026-07-04T12:50:17.000Z</time>
      </trkpt>
      <trkpt lat="46.15038" lon="6.78086">
        <ele>1641.1999511719</ele>
        <time>2026-07-04T12:50:20.000Z</time>
      </trkpt>
      <trkpt lat="46.15038" lon="6.78087">
        <ele>1641.1999511719</ele>
        <time>2026-07-04T12:50:31.000Z</time>
      </trkpt>
      <trkpt lat="46.15038" lon="6.78087">
        <ele>1641.4000244141</ele>
        <time>2026-07-04T12:50:33.000Z</time>
      </trkpt>
      <trkpt lat="46.15037" lon="6.78086">
        <ele>1641.4000244141</ele>
        <time>2026-07-04T12:50:41.000Z</time>
      </trkpt>
      <trkpt lat="46.15039" lon="6.78085">
        <ele>1641.5999755859</ele>
        <time>2026-07-04T12:50:44.000Z</time>
      </trkpt>
      <trkpt lat="46.15039" lon="6.78085">
        <ele>1641.8000488281</ele>
        <time>2026-07-04T12:50:50.000Z</time>
      </trkpt>
      <trkpt lat="46.15039" lon="6.78086">
        <ele>1642</ele>
        <time>2026-07-04T12:50:54.000Z</time>
      </trkpt>
      <trkpt lat="46.15039" lon="6.78087">
        <ele>1641.5999755859</ele>
        <time>2026-07-04T12:50:59.000Z</time>
      </trkpt>
      <trkpt lat="46.15037" lon="6.78087">
        <ele>1641.8000488281</ele>
        <time>2026-07-04T12:51:02.000Z</time>
      </trkpt>
      <trkpt lat="46.15037" lon="6.78087">
        <ele>1641.8000488281</ele>
        <time>2026-07-04T12:51:04.000Z</time>
      </trkpt>
      <trkpt lat="46.15037" lon="6.78088">
        <ele>1641.5999755859</ele>
        <time>2026-07-04T12:51:06.000Z</time>
      </trkpt>
      <trkpt lat="46.15038" lon="6.78088">
        <ele>1641.5999755859</ele>
        <time>2026-07-04T12:51:08.000Z</time>
      </trkpt>
      <trkpt lat="46.15037" lon="6.78089">
        <ele>1641.5999755859</ele>
        <time>2026-07-04T12:51:11.000Z</time>
      </trkpt>
      <trkpt lat="46.15038" lon="6.78088">
        <ele>1641.5999755859</ele>
        <time>2026-07-04T12:51:16.000Z</time>
      </trkpt>
      <trkpt lat="46.15039" lon="6.78088">
        <ele>1641.5999755859</ele>
        <time>2026-07-04T12:51:27.000Z</time>
      </trkpt>
      <trkpt lat="46.15041" lon="6.78087">
        <ele>1642</ele>
        <time>2026-07-04T12:51:37.000Z</time>
      </trkpt>
      <trkpt lat="46.15039" lon="6.78089">
        <ele>1641.8000488281</ele>
        <time>2026-07-04T12:51:51.000Z</time>
      </trkpt>
      <trkpt lat="46.15038" lon="6.7809">
        <ele>1641.8000488281</ele>
        <time>2026-07-04T12:52:03.000Z</time>
      </trkpt>
      <trkpt lat="46.15038" lon="6.78089">
        <ele>1641.5999755859</ele>
        <time>2026-07-04T12:52:11.000Z</time>
      </trkpt>
      <trkpt lat="46.15038" lon="6.78088">
        <ele>1641.5999755859</ele>
        <time>2026-07-04T12:52:16.000Z</time>
      </trkpt>
      <trkpt lat="46.15039" lon="6.78088">
        <ele>1641.5999755859</ele>
        <time>2026-07-04T12:52:25.000Z</time>
      </trkpt>
      <trkpt lat="46.1504" lon="6.78087">
        <ele>1641.4000244141</ele>
        <time>2026-07-04T12:52:30.000Z</time>
      </trkpt>
      <trkpt lat="46.15038" lon="6.78087">
        <ele>1641.5999755859</ele>
        <time>2026-07-04T12:52:40.000Z</time>
      </trkpt>
      <trkpt lat="46.15038" lon="6.78086">
        <ele>1641.4000244141</ele>
        <time>2026-07-04T12:52:53.000Z</time>
      </trkpt>
      <trkpt lat="46.15041" lon="6.78087">
        <ele>1641.1999511719</ele>
        <time>2026-07-04T12:53:04.000Z</time>
      </trkpt>
      <trkpt lat="46.15041" lon="6.78087">
        <ele>1641.1999511719</ele>
        <time>2026-07-04T12:53:13.000Z</time>
      </trkpt>
      <trkpt lat="46.1504" lon="6.78086">
        <ele>1641</ele>
        <time>2026-07-04T12:53:21.000Z</time>
      </trkpt>
      <trkpt lat="46.1504" lon="6.78086">
        <ele>1640.8000488281</ele>
        <time>2026-07-04T12:53:34.000Z</time>
      </trkpt>
      <trkpt lat="46.15039" lon="6.78086">
        <ele>1641.4000244141</ele>
        <time>2026-07-04T12:53:44.000Z</time>
      </trkpt>
      <trkpt lat="46.15039" lon="6.78085">
        <ele>1641.4000244141</ele>
        <time>2026-07-04T12:53:51.000Z</time>
      </trkpt>
      <trkpt lat="46.15041" lon="6.78086">
        <ele>1641.4000244141</ele>
        <time>2026-07-04T12:53:58.000Z</time>
      </trkpt>
      <trkpt lat="46.15043" lon="6.78077">
        <ele>1640.4000244141</ele>
        <time>2026-07-04T12:54:06.000Z</time>
      </trkpt>
      <trkpt lat="46.15043" lon="6.78076">
        <ele>1640</ele>
        <time>2026-07-04T12:54:08.000Z</time>
      </trkpt>
      <trkpt lat="46.15042" lon="6.78073">
        <ele>1639.4000244141</ele>
        <time>2026-07-04T12:54:10.000Z</time>
      </trkpt>
      <trkpt lat="46.15041" lon="6.78072">
        <ele>1639</ele>
        <time>2026-07-04T12:54:11.000Z</time>
      </trkpt>
      <trkpt lat="46.15039" lon="6.78068">
        <ele>1638.1999511719</ele>
        <time>2026-07-04T12:54:14.000Z</time>
      </trkpt>
      <trkpt lat="46.15037" lon="6.78062">
        <ele>1637</ele>
        <time>2026-07-04T12:54:17.000Z</time>
      </trkpt>
      <trkpt lat="46.15037" lon="6.78055">
        <ele>1636.1999511719</ele>
        <time>2026-07-04T12:54:22.000Z</time>
      </trkpt>
      <trkpt lat="46.15037" lon="6.7805">
        <ele>1636</ele>
        <time>2026-07-04T12:54:26.000Z</time>
      </trkpt>
      <trkpt lat="46.15037" lon="6.78047">
        <ele>1635.5999755859</ele>
        <time>2026-07-04T12:54:28.000Z</time>
      </trkpt>
      <trkpt lat="46.15038" lon="6.78043">
        <ele>1634.8000488281</ele>
        <time>2026-07-04T12:54:31.000Z</time>
      </trkpt>
      <trkpt lat="46.15038" lon="6.78035">
        <ele>1633.8000488281</ele>
        <time>2026-07-04T12:54:36.000Z</time>
      </trkpt>
      <trkpt lat="46.15038" lon="6.78033">
        <ele>1633.4000244141</ele>
        <time>2026-07-04T12:54:38.000Z</time>
      </trkpt>
      <trkpt lat="46.15038" lon="6.78028">
        <ele>1632.8000488281</ele>
        <time>2026-07-04T12:54:42.000Z</time>
      </trkpt>
      <trkpt lat="46.15037" lon="6.78026">
        <ele>1632.5999755859</ele>
        <time>2026-07-04T12:54:44.000Z</time>
      </trkpt>
      <trkpt lat="46.15036" lon="6.7802">
        <ele>1631.8000488281</ele>
        <time>2026-07-04T12:54:48.000Z</time>
      </trkpt>
      <trkpt lat="46.15035" lon="6.78016">
        <ele>1631.1999511719</ele>
        <time>2026-07-04T12:54:51.000Z</time>
      </trkpt>
      <trkpt lat="46.15035" lon="6.78011">
        <ele>1630.5999755859</ele>
        <time>2026-07-04T12:54:54.000Z</time>
      </trkpt>
      <trkpt lat="46.15035" lon="6.78">
        <ele>1629.8000488281</ele>
        <time>2026-07-04T12:55:00.000Z</time>
      </trkpt>
      <trkpt lat="46.15036" lon="6.77994">
        <ele>1629.5999755859</ele>
        <time>2026-07-04T12:55:06.000Z</time>
      </trkpt>
      <trkpt lat="46.15036" lon="6.77994">
        <ele>1629.4000244141</ele>
        <time>2026-07-04T12:55:07.000Z</time>
      </trkpt>
      <trkpt lat="46.15035" lon="6.77986">
        <ele>1628.5999755859</ele>
        <time>2026-07-04T12:55:16.000Z</time>
      </trkpt>
      <trkpt lat="46.15035" lon="6.7798">
        <ele>1627.1999511719</ele>
        <time>2026-07-04T12:55:22.000Z</time>
      </trkpt>
      <trkpt lat="46.15035" lon="6.77979">
        <ele>1627</ele>
        <time>2026-07-04T12:55:23.000Z</time>
      </trkpt>
      <trkpt lat="46.15034" lon="6.77974">
        <ele>1626.1999511719</ele>
        <time>2026-07-04T12:55:26.000Z</time>
      </trkpt>
      <trkpt lat="46.15033" lon="6.77968">
        <ele>1625.1999511719</ele>
        <time>2026-07-04T12:55:31.000Z</time>
      </trkpt>
      <trkpt lat="46.15032" lon="6.77966">
        <ele>1625</ele>
        <time>2026-07-04T12:55:32.000Z</time>
      </trkpt>
      <trkpt lat="46.15032" lon="6.7796">
        <ele>1624.1999511719</ele>
        <time>2026-07-04T12:55:37.000Z</time>
      </trkpt>
      <trkpt lat="46.15032" lon="6.77959">
        <ele>1624.1999511719</ele>
        <time>2026-07-04T12:55:38.000Z</time>
      </trkpt>
      <trkpt lat="46.15032" lon="6.77957">
        <ele>1623.8000488281</ele>
        <time>2026-07-04T12:55:40.000Z</time>
      </trkpt>
      <trkpt lat="46.15031" lon="6.77953">
        <ele>1623.1999511719</ele>
        <time>2026-07-04T12:55:44.000Z</time>
      </trkpt>
      <trkpt lat="46.15032" lon="6.77952">
        <ele>1623</ele>
        <time>2026-07-04T12:55:45.000Z</time>
      </trkpt>
      <trkpt lat="46.15031" lon="6.7795">
        <ele>1622.4000244141</ele>
        <time>2026-07-04T12:55:48.000Z</time>
      </trkpt>
      <trkpt lat="46.15031" lon="6.77943">
        <ele>1621.8000488281</ele>
        <time>2026-07-04T12:55:53.000Z</time>
      </trkpt>
      <trkpt lat="46.15031" lon="6.7794">
        <ele>1621.4000244141</ele>
        <time>2026-07-04T12:55:55.000Z</time>
      </trkpt>
      <trkpt lat="46.1503" lon="6.77937">
        <ele>1620.5999755859</ele>
        <time>2026-07-04T12:55:57.000Z</time>
      </trkpt>
      <trkpt lat="46.1503" lon="6.77933">
        <ele>1619.5999755859</ele>
        <time>2026-07-04T12:56:00.000Z</time>
      </trkpt>
      <trkpt lat="46.1503" lon="6.77928">
        <ele>1618.4000244141</ele>
        <time>2026-07-04T12:56:05.000Z</time>
      </trkpt>
      <trkpt lat="46.15031" lon="6.77924">
        <ele>1617.4000244141</ele>
        <time>2026-07-04T12:56:09.000Z</time>
      </trkpt>
      <trkpt lat="46.15032" lon="6.77922">
        <ele>1616.4000244141</ele>
        <time>2026-07-04T12:56:12.000Z</time>
      </trkpt>
      <trkpt lat="46.15032" lon="6.7792">
        <ele>1616.1999511719</ele>
        <time>2026-07-04T12:56:13.000Z</time>
      </trkpt>
      <trkpt lat="46.15033" lon="6.77916">
        <ele>1615.4000244141</ele>
        <time>2026-07-04T12:56:17.000Z</time>
      </trkpt>
      <trkpt lat="46.15034" lon="6.77911">
        <ele>1614.1999511719</ele>
        <time>2026-07-04T12:56:22.000Z</time>
      </trkpt>
      <trkpt lat="46.15034" lon="6.77909">
        <ele>1613.8000488281</ele>
        <time>2026-07-04T12:56:23.000Z</time>
      </trkpt>
      <trkpt lat="46.15035" lon="6.77907">
        <ele>1613</ele>
        <time>2026-07-04T12:56:25.000Z</time>
      </trkpt>
      <trkpt lat="46.15036" lon="6.77896">
        <ele>1611.8000488281</ele>
        <time>2026-07-04T12:56:34.000Z</time>
      </trkpt>
      <trkpt lat="46.15036" lon="6.77895">
        <ele>1611.5999755859</ele>
        <time>2026-07-04T12:56:35.000Z</time>
      </trkpt>
      <trkpt lat="46.15036" lon="6.77891">
        <ele>1610.5999755859</ele>
        <time>2026-07-04T12:56:38.000Z</time>
      </trkpt>
      <trkpt lat="46.15037" lon="6.77886">
        <ele>1609.4000244141</ele>
        <time>2026-07-04T12:56:41.000Z</time>
      </trkpt>
      <trkpt lat="46.15037" lon="6.77882">
        <ele>1608.5999755859</ele>
        <time>2026-07-04T12:56:45.000Z</time>
      </trkpt>
      <trkpt lat="46.15037" lon="6.77882">
        <ele>1608.4000244141</ele>
        <time>2026-07-04T12:56:46.000Z</time>
      </trkpt>
      <trkpt lat="46.15034" lon="6.77876">
        <ele>1607.4000244141</ele>
        <time>2026-07-04T12:56:53.000Z</time>
      </trkpt>
      <trkpt lat="46.15034" lon="6.77875">
        <ele>1607.1999511719</ele>
        <time>2026-07-04T12:56:54.000Z</time>
      </trkpt>
      <trkpt lat="46.15033" lon="6.77871">
        <ele>1606</ele>
        <time>2026-07-04T12:56:58.000Z</time>
      </trkpt>
      <trkpt lat="46.15032" lon="6.77867">
        <ele>1605.1999511719</ele>
        <time>2026-07-04T12:57:01.000Z</time>
      </trkpt>
      <trkpt lat="46.15032" lon="6.77866">
        <ele>1604.8000488281</ele>
        <time>2026-07-04T12:57:02.000Z</time>
      </trkpt>
      <trkpt lat="46.15031" lon="6.77862">
        <ele>1603.8000488281</ele>
        <time>2026-07-04T12:57:06.000Z</time>
      </trkpt>
      <trkpt lat="46.15032" lon="6.77857">
        <ele>1602.5999755859</ele>
        <time>2026-07-04T12:57:10.000Z</time>
      </trkpt>
      <trkpt lat="46.1503" lon="6.77851">
        <ele>1601.5999755859</ele>
        <time>2026-07-04T12:57:15.000Z</time>
      </trkpt>
      <trkpt lat="46.15029" lon="6.77848">
        <ele>1601</ele>
        <time>2026-07-04T12:57:18.000Z</time>
      </trkpt>
      <trkpt lat="46.15028" lon="6.77844">
        <ele>1600.4000244141</ele>
        <time>2026-07-04T12:57:20.000Z</time>
      </trkpt>
      <trkpt lat="46.15027" lon="6.77835">
        <ele>1599.1999511719</ele>
        <time>2026-07-04T12:57:25.000Z</time>
      </trkpt>
      <trkpt lat="46.15026" lon="6.77833">
        <ele>1599</ele>
        <time>2026-07-04T12:57:26.000Z</time>
      </trkpt>
      <trkpt lat="46.15026" lon="6.77827">
        <ele>1598</ele>
        <time>2026-07-04T12:57:29.000Z</time>
      </trkpt>
      <trkpt lat="46.15024" lon="6.77821">
        <ele>1597</ele>
        <time>2026-07-04T12:57:33.000Z</time>
      </trkpt>
      <trkpt lat="46.15023" lon="6.77819">
        <ele>1596.4000244141</ele>
        <time>2026-07-04T12:57:35.000Z</time>
      </trkpt>
      <trkpt lat="46.15021" lon="6.77816">
        <ele>1595.5999755859</ele>
        <time>2026-07-04T12:57:38.000Z</time>
      </trkpt>
      <trkpt lat="46.15021" lon="6.7781">
        <ele>1594.1999511719</ele>
        <time>2026-07-04T12:57:42.000Z</time>
      </trkpt>
      <trkpt lat="46.15021" lon="6.7781">
        <ele>1594</ele>
        <time>2026-07-04T12:57:43.000Z</time>
      </trkpt>
      <trkpt lat="46.1502" lon="6.77806">
        <ele>1593</ele>
        <time>2026-07-04T12:57:45.000Z</time>
      </trkpt>
      <trkpt lat="46.1502" lon="6.778">
        <ele>1592</ele>
        <time>2026-07-04T12:57:48.000Z</time>
      </trkpt>
      <trkpt lat="46.1502" lon="6.77795">
        <ele>1591.1999511719</ele>
        <time>2026-07-04T12:57:51.000Z</time>
      </trkpt>
      <trkpt lat="46.1502" lon="6.77794">
        <ele>1591</ele>
        <time>2026-07-04T12:57:52.000Z</time>
      </trkpt>
      <trkpt lat="46.15017" lon="6.77784">
        <ele>1589.5999755859</ele>
        <time>2026-07-04T12:57:57.000Z</time>
      </trkpt>
      <trkpt lat="46.15017" lon="6.7778">
        <ele>1589</ele>
        <time>2026-07-04T12:57:59.000Z</time>
      </trkpt>
      <trkpt lat="46.15017" lon="6.77777">
        <ele>1588.1999511719</ele>
        <time>2026-07-04T12:58:01.000Z</time>
      </trkpt>
      <trkpt lat="46.15017" lon="6.77771">
        <ele>1587.1999511719</ele>
        <time>2026-07-04T12:58:05.000Z</time>
      </trkpt>
      <trkpt lat="46.15018" lon="6.77768">
        <ele>1586.5999755859</ele>
        <time>2026-07-04T12:58:08.000Z</time>
      </trkpt>
      <trkpt lat="46.15018" lon="6.77765">
        <ele>1586.1999511719</ele>
        <time>2026-07-04T12:58:10.000Z</time>
      </trkpt>
      <trkpt lat="46.15018" lon="6.7776">
        <ele>1585</ele>
        <time>2026-07-04T12:58:13.000Z</time>
      </trkpt>
      <trkpt lat="46.15017" lon="6.77754">
        <ele>1584</ele>
        <time>2026-07-04T12:58:16.000Z</time>
      </trkpt>
      <trkpt lat="46.15014" lon="6.77739">
        <ele>1583</ele>
        <time>2026-07-04T12:58:24.000Z</time>
      </trkpt>
      <trkpt lat="46.15013" lon="6.77737">
        <ele>1582.8000488281</ele>
        <time>2026-07-04T12:58:25.000Z</time>
      </trkpt>
      <trkpt lat="46.15013" lon="6.77731">
        <ele>1581.8000488281</ele>
        <time>2026-07-04T12:58:29.000Z</time>
      </trkpt>
      <trkpt lat="46.15013" lon="6.77726">
        <ele>1581.1999511719</ele>
        <time>2026-07-04T12:58:31.000Z</time>
      </trkpt>
      <trkpt lat="46.15015" lon="6.77722">
        <ele>1580.8000488281</ele>
        <time>2026-07-04T12:58:34.000Z</time>
      </trkpt>
      <trkpt lat="46.15015" lon="6.77714">
        <ele>1580</ele>
        <time>2026-07-04T12:58:39.000Z</time>
      </trkpt>
      <trkpt lat="46.15014" lon="6.7771">
        <ele>1579.8000488281</ele>
        <time>2026-07-04T12:58:41.000Z</time>
      </trkpt>
      <trkpt lat="46.15013" lon="6.77704">
        <ele>1579.1999511719</ele>
        <time>2026-07-04T12:58:45.000Z</time>
      </trkpt>
      <trkpt lat="46.15012" lon="6.77699">
        <ele>1578.4000244141</ele>
        <time>2026-07-04T12:58:48.000Z</time>
      </trkpt>
      <trkpt lat="46.1501" lon="6.77692">
        <ele>1577.4000244141</ele>
        <time>2026-07-04T12:58:52.000Z</time>
      </trkpt>
      <trkpt lat="46.1501" lon="6.77688">
        <ele>1577.1999511719</ele>
        <time>2026-07-04T12:58:54.000Z</time>
      </trkpt>
      <trkpt lat="46.15012" lon="6.77678">
        <ele>1577.8000488281</ele>
        <time>2026-07-04T12:59:01.000Z</time>
      </trkpt>
      <trkpt lat="46.15012" lon="6.77671">
        <ele>1578.4000244141</ele>
        <time>2026-07-04T12:59:06.000Z</time>
      </trkpt>
      <trkpt lat="46.15011" lon="6.77669">
        <ele>1578.5999755859</ele>
        <time>2026-07-04T12:59:08.000Z</time>
      </trkpt>
      <trkpt lat="46.15009" lon="6.77666">
        <ele>1578.5999755859</ele>
        <time>2026-07-04T12:59:17.000Z</time>
      </trkpt>
      <trkpt lat="46.15007" lon="6.77668">
        <ele>1579</ele>
        <time>2026-07-04T12:59:22.000Z</time>
      </trkpt>
      <trkpt lat="46.15007" lon="6.77668">
        <ele>1579.1999511719</ele>
        <time>2026-07-04T12:59:23.000Z</time>
      </trkpt>
      <trkpt lat="46.15006" lon="6.77668">
        <ele>1579.1999511719</ele>
        <time>2026-07-04T12:59:27.000Z</time>
      </trkpt>
      <trkpt lat="46.15006" lon="6.77668">
        <ele>1579</ele>
        <time>2026-07-04T12:59:33.000Z</time>
      </trkpt>
      <trkpt lat="46.15006" lon="6.77668">
        <ele>1579</ele>
        <time>2026-07-04T12:59:36.000Z</time>
      </trkpt>
      <trkpt lat="46.15005" lon="6.77668">
        <ele>1579</ele>
        <time>2026-07-04T12:59:37.000Z</time>
      </trkpt>
      <trkpt lat="46.15005" lon="6.77667">
        <ele>1579</ele>
        <time>2026-07-04T12:59:42.000Z</time>
      </trkpt>
      <trkpt lat="46.15005" lon="6.77667">
        <ele>1579</ele>
        <time>2026-07-04T12:59:43.000Z</time>
      </trkpt>
      <trkpt lat="46.15005" lon="6.77667">
        <ele>1579</ele>
        <time>2026-07-04T12:59:44.000Z</time>
      </trkpt>
      <trkpt lat="46.15007" lon="6.77671">
        <ele>1578.5999755859</ele>
        <time>2026-07-04T12:59:54.000Z</time>
      </trkpt>
      <trkpt lat="46.15006" lon="6.77667">
        <ele>1579.1999511719</ele>
        <time>2026-07-04T13:00:05.000Z</time>
      </trkpt>
      <trkpt lat="46.15002" lon="6.7767">
        <ele>1579.5999755859</ele>
        <time>2026-07-04T13:00:11.000Z</time>
      </trkpt>
      <trkpt lat="46.15002" lon="6.77671">
        <ele>1579.8000488281</ele>
        <time>2026-07-04T13:00:12.000Z</time>
      </trkpt>
      <trkpt lat="46.14999" lon="6.77672">
        <ele>1580.8000488281</ele>
        <time>2026-07-04T13:00:16.000Z</time>
      </trkpt>
      <trkpt lat="46.14999" lon="6.77673">
        <ele>1580.5999755859</ele>
        <time>2026-07-04T13:00:21.000Z</time>
      </trkpt>
      <trkpt lat="46.14999" lon="6.77673">
        <ele>1580.5999755859</ele>
        <time>2026-07-04T13:00:26.000Z</time>
      </trkpt>
      <trkpt lat="46.15" lon="6.77673">
        <ele>1580.8000488281</ele>
        <time>2026-07-04T13:00:33.000Z</time>
      </trkpt>
      <trkpt lat="46.15" lon="6.77673">
        <ele>1580.8000488281</ele>
        <time>2026-07-04T13:00:46.000Z</time>
      </trkpt>
      <trkpt lat="46.15005" lon="6.77669">
        <ele>1580.5999755859</ele>
        <time>2026-07-04T13:00:53.000Z</time>
      </trkpt>
      <trkpt lat="46.15008" lon="6.77668">
        <ele>1579.4000244141</ele>
        <time>2026-07-04T13:00:57.000Z</time>
      </trkpt>
      <trkpt lat="46.15008" lon="6.77669">
        <ele>1579.1999511719</ele>
        <time>2026-07-04T13:00:58.000Z</time>
      </trkpt>
      <trkpt lat="46.15008" lon="6.77669">
        <ele>1578.4000244141</ele>
        <time>2026-07-04T13:01:04.000Z</time>
      </trkpt>
      <trkpt lat="46.15009" lon="6.77668">
        <ele>1578.4000244141</ele>
        <time>2026-07-04T13:01:08.000Z</time>
      </trkpt>
      <trkpt lat="46.15009" lon="6.77667">
        <ele>1578.4000244141</ele>
        <time>2026-07-04T13:01:09.000Z</time>
      </trkpt>
      <trkpt lat="46.15009" lon="6.77665">
        <ele>1578.4000244141</ele>
        <time>2026-07-04T13:01:10.000Z</time>
      </trkpt>
      <trkpt lat="46.15008" lon="6.77663">
        <ele>1578.1999511719</ele>
        <time>2026-07-04T13:01:12.000Z</time>
      </trkpt>
      <trkpt lat="46.15008" lon="6.77662">
        <ele>1578.4000244141</ele>
        <time>2026-07-04T13:01:15.000Z</time>
      </trkpt>
      <trkpt lat="46.15008" lon="6.7766">
        <ele>1578.4000244141</ele>
        <time>2026-07-04T13:01:23.000Z</time>
      </trkpt>
      <trkpt lat="46.15008" lon="6.7766">
        <ele>1578.4000244141</ele>
        <time>2026-07-04T13:01:26.000Z</time>
      </trkpt>
      <trkpt lat="46.15009" lon="6.77662">
        <ele>1578.1999511719</ele>
        <time>2026-07-04T13:01:41.000Z</time>
      </trkpt>
      <trkpt lat="46.15007" lon="6.77659">
        <ele>1578.8000488281</ele>
        <time>2026-07-04T13:01:52.000Z</time>
      </trkpt>
      <trkpt lat="46.15003" lon="6.7766">
        <ele>1578.5999755859</ele>
        <time>2026-07-04T13:02:04.000Z</time>
      </trkpt>
      <trkpt lat="46.15008" lon="6.77662">
        <ele>1578.1999511719</ele>
        <time>2026-07-04T13:02:18.000Z</time>
      </trkpt>
      <trkpt lat="46.15008" lon="6.77665">
        <ele>1578</ele>
        <time>2026-07-04T13:02:28.000Z</time>
      </trkpt>
      <trkpt lat="46.15008" lon="6.77663">
        <ele>1578</ele>
        <time>2026-07-04T13:02:43.000Z</time>
      </trkpt>
      <trkpt lat="46.15005" lon="6.77657">
        <ele>1578</ele>
        <time>2026-07-04T13:02:52.000Z</time>
      </trkpt>
      <trkpt lat="46.15009" lon="6.77658">
        <ele>1577.8000488281</ele>
        <time>2026-07-04T13:03:03.000Z</time>
      </trkpt>
      <trkpt lat="46.15008" lon="6.77662">
        <ele>1577.8000488281</ele>
        <time>2026-07-04T13:03:14.000Z</time>
      </trkpt>
      <trkpt lat="46.15008" lon="6.77661">
        <ele>1577.5999755859</ele>
        <time>2026-07-04T13:03:24.000Z</time>
      </trkpt>
      <trkpt lat="46.15008" lon="6.7766">
        <ele>1577.4000244141</ele>
        <time>2026-07-04T13:03:25.000Z</time>
      </trkpt>
      <trkpt lat="46.15009" lon="6.77655">
        <ele>1577.4000244141</ele>
        <time>2026-07-04T13:03:31.000Z</time>
      </trkpt>
      <trkpt lat="46.15007" lon="6.7765">
        <ele>1577.4000244141</ele>
        <time>2026-07-04T13:03:34.000Z</time>
      </trkpt>
      <trkpt lat="46.15005" lon="6.77646">
        <ele>1577.1999511719</ele>
        <time>2026-07-04T13:03:38.000Z</time>
      </trkpt>
      <trkpt lat="46.14995" lon="6.77638">
        <ele>1576.5999755859</ele>
        <time>2026-07-04T13:03:47.000Z</time>
      </trkpt>
      <trkpt lat="46.14994" lon="6.77634">
        <ele>1576.5999755859</ele>
        <time>2026-07-04T13:03:50.000Z</time>
      </trkpt>
      <trkpt lat="46.14994" lon="6.7763">
        <ele>1576.5999755859</ele>
        <time>2026-07-04T13:03:53.000Z</time>
      </trkpt>
      <trkpt lat="46.14994" lon="6.77628">
        <ele>1576.4000244141</ele>
        <time>2026-07-04T13:03:55.000Z</time>
      </trkpt>
      <trkpt lat="46.14992" lon="6.77617">
        <ele>1575.4000244141</ele>
        <time>2026-07-04T13:04:01.000Z</time>
      </trkpt>
      <trkpt lat="46.14991" lon="6.77616">
        <ele>1575.1999511719</ele>
        <time>2026-07-04T13:04:02.000Z</time>
      </trkpt>
      <trkpt lat="46.14989" lon="6.7761">
        <ele>1575.1999511719</ele>
        <time>2026-07-04T13:04:07.000Z</time>
      </trkpt>
      <trkpt lat="46.14987" lon="6.77603">
        <ele>1574.5999755859</ele>
        <time>2026-07-04T13:04:10.000Z</time>
      </trkpt>
      <trkpt lat="46.14985" lon="6.77598">
        <ele>1574.1999511719</ele>
        <time>2026-07-04T13:04:13.000Z</time>
      </trkpt>
      <trkpt lat="46.14983" lon="6.7759">
        <ele>1573.4000244141</ele>
        <time>2026-07-04T13:04:19.000Z</time>
      </trkpt>
      <trkpt lat="46.14982" lon="6.77587">
        <ele>1573.1999511719</ele>
        <time>2026-07-04T13:04:20.000Z</time>
      </trkpt>
      <trkpt lat="46.14981" lon="6.77585">
        <ele>1573.1999511719</ele>
        <time>2026-07-04T13:04:22.000Z</time>
      </trkpt>
      <trkpt lat="46.14976" lon="6.77582">
        <ele>1572.8000488281</ele>
        <time>2026-07-04T13:04:27.000Z</time>
      </trkpt>
      <trkpt lat="46.14972" lon="6.77579">
        <ele>1572.1999511719</ele>
        <time>2026-07-04T13:04:31.000Z</time>
      </trkpt>
      <trkpt lat="46.14967" lon="6.77578">
        <ele>1571.5999755859</ele>
        <time>2026-07-04T13:04:35.000Z</time>
      </trkpt>
      <trkpt lat="46.14965" lon="6.77578">
        <ele>1570.8000488281</ele>
        <time>2026-07-04T13:04:37.000Z</time>
      </trkpt>
      <trkpt lat="46.14962" lon="6.77576">
        <ele>1569.4000244141</ele>
        <time>2026-07-04T13:04:40.000Z</time>
      </trkpt>
      <trkpt lat="46.14958" lon="6.77575">
        <ele>1568.5999755859</ele>
        <time>2026-07-04T13:04:43.000Z</time>
      </trkpt>
      <trkpt lat="46.14958" lon="6.77575">
        <ele>1568.4000244141</ele>
        <time>2026-07-04T13:04:44.000Z</time>
      </trkpt>
      <trkpt lat="46.14953" lon="6.77574">
        <ele>1567.1999511719</ele>
        <time>2026-07-04T13:04:47.000Z</time>
      </trkpt>
      <trkpt lat="46.14949" lon="6.77572">
        <ele>1566</ele>
        <time>2026-07-04T13:04:50.000Z</time>
      </trkpt>
      <trkpt lat="46.14946" lon="6.77571">
        <ele>1565</ele>
        <time>2026-07-04T13:04:53.000Z</time>
      </trkpt>
      <trkpt lat="46.14943" lon="6.7757">
        <ele>1564</ele>
        <time>2026-07-04T13:04:56.000Z</time>
      </trkpt>
      <trkpt lat="46.1494" lon="6.77566">
        <ele>1562.8000488281</ele>
        <time>2026-07-04T13:05:00.000Z</time>
      </trkpt>
      <trkpt lat="46.14938" lon="6.77563">
        <ele>1562</ele>
        <time>2026-07-04T13:05:02.000Z</time>
      </trkpt>
      <trkpt lat="46.14938" lon="6.77562">
        <ele>1561.5999755859</ele>
        <time>2026-07-04T13:05:03.000Z</time>
      </trkpt>
      <trkpt lat="46.14935" lon="6.77559">
        <ele>1560.5999755859</ele>
        <time>2026-07-04T13:05:06.000Z</time>
      </trkpt>
      <trkpt lat="46.1493" lon="6.77556">
        <ele>1559.4000244141</ele>
        <time>2026-07-04T13:05:11.000Z</time>
      </trkpt>
      <trkpt lat="46.14925" lon="6.77554">
        <ele>1558.1999511719</ele>
        <time>2026-07-04T13:05:16.000Z</time>
      </trkpt>
      <trkpt lat="46.14922" lon="6.7755">
        <ele>1556.8000488281</ele>
        <time>2026-07-04T13:05:19.000Z</time>
      </trkpt>
      <trkpt lat="46.1492" lon="6.77547">
        <ele>1555.8000488281</ele>
        <time>2026-07-04T13:05:22.000Z</time>
      </trkpt>
      <trkpt lat="46.14916" lon="6.77544">
        <ele>1555.1999511719</ele>
        <time>2026-07-04T13:05:26.000Z</time>
      </trkpt>
      <trkpt lat="46.14914" lon="6.77542">
        <ele>1554.5999755859</ele>
        <time>2026-07-04T13:05:28.000Z</time>
      </trkpt>
      <trkpt lat="46.14912" lon="6.77539">
        <ele>1553.4000244141</ele>
        <time>2026-07-04T13:05:31.000Z</time>
      </trkpt>
      <trkpt lat="46.1491" lon="6.77538">
        <ele>1552.5999755859</ele>
        <time>2026-07-04T13:05:34.000Z</time>
      </trkpt>
      <trkpt lat="46.14908" lon="6.77536">
        <ele>1552.4000244141</ele>
        <time>2026-07-04T13:05:36.000Z</time>
      </trkpt>
      <trkpt lat="46.14905" lon="6.77532">
        <ele>1551.1999511719</ele>
        <time>2026-07-04T13:05:40.000Z</time>
      </trkpt>
      <trkpt lat="46.14903" lon="6.77528">
        <ele>1550</ele>
        <time>2026-07-04T13:05:44.000Z</time>
      </trkpt>
      <trkpt lat="46.14898" lon="6.77523">
        <ele>1549</ele>
        <time>2026-07-04T13:05:49.000Z</time>
      </trkpt>
      <trkpt lat="46.14893" lon="6.77519">
        <ele>1547.8000488281</ele>
        <time>2026-07-04T13:05:54.000Z</time>
      </trkpt>
      <trkpt lat="46.14891" lon="6.77515">
        <ele>1547.1999511719</ele>
        <time>2026-07-04T13:05:57.000Z</time>
      </trkpt>
      <trkpt lat="46.14886" lon="6.77504">
        <ele>1546.5999755859</ele>
        <time>2026-07-04T13:06:04.000Z</time>
      </trkpt>
      <trkpt lat="46.14886" lon="6.77502">
        <ele>1546.4000244141</ele>
        <time>2026-07-04T13:06:05.000Z</time>
      </trkpt>
      <trkpt lat="46.14885" lon="6.77497">
        <ele>1545.5999755859</ele>
        <time>2026-07-04T13:06:08.000Z</time>
      </trkpt>
      <trkpt lat="46.14886" lon="6.77488">
        <ele>1544.5999755859</ele>
        <time>2026-07-04T13:06:13.000Z</time>
      </trkpt>
      <trkpt lat="46.14887" lon="6.77486">
        <ele>1544.4000244141</ele>
        <time>2026-07-04T13:06:14.000Z</time>
      </trkpt>
      <trkpt lat="46.14889" lon="6.77479">
        <ele>1543.1999511719</ele>
        <time>2026-07-04T13:06:19.000Z</time>
      </trkpt>
      <trkpt lat="46.1489" lon="6.77474">
        <ele>1542</ele>
        <time>2026-07-04T13:06:23.000Z</time>
      </trkpt>
      <trkpt lat="46.14889" lon="6.77467">
        <ele>1541</ele>
        <time>2026-07-04T13:06:28.000Z</time>
      </trkpt>
      <trkpt lat="46.14891" lon="6.77463">
        <ele>1540.4000244141</ele>
        <time>2026-07-04T13:06:30.000Z</time>
      </trkpt>
      <trkpt lat="46.14892" lon="6.7746">
        <ele>1540</ele>
        <time>2026-07-04T13:06:32.000Z</time>
      </trkpt>
      <trkpt lat="46.14894" lon="6.77455">
        <ele>1539.1999511719</ele>
        <time>2026-07-04T13:06:37.000Z</time>
      </trkpt>
      <trkpt lat="46.14896" lon="6.77451">
        <ele>1538.8000488281</ele>
        <time>2026-07-04T13:06:39.000Z</time>
      </trkpt>
      <trkpt lat="46.149" lon="6.77445">
        <ele>1537.8000488281</ele>
        <time>2026-07-04T13:06:45.000Z</time>
      </trkpt>
      <trkpt lat="46.14901" lon="6.77437">
        <ele>1536.8000488281</ele>
        <time>2026-07-04T13:06:53.000Z</time>
      </trkpt>
      <trkpt lat="46.14902" lon="6.77434">
        <ele>1536.8000488281</ele>
        <time>2026-07-04T13:07:00.000Z</time>
      </trkpt>
      <trkpt lat="46.14902" lon="6.77434">
        <ele>1536.8000488281</ele>
        <time>2026-07-04T13:07:03.000Z</time>
      </trkpt>
      <trkpt lat="46.14902" lon="6.77435">
        <ele>1536.8000488281</ele>
        <time>2026-07-04T13:07:17.000Z</time>
      </trkpt>
      <trkpt lat="46.14902" lon="6.77437">
        <ele>1536.5999755859</ele>
        <time>2026-07-04T13:07:27.000Z</time>
      </trkpt>
      <trkpt lat="46.14904" lon="6.7744">
        <ele>1536.5999755859</ele>
        <time>2026-07-04T13:07:43.000Z</time>
      </trkpt>
      <trkpt lat="46.14907" lon="6.77439">
        <ele>1536.1999511719</ele>
        <time>2026-07-04T13:07:50.000Z</time>
      </trkpt>
      <trkpt lat="46.14908" lon="6.77436">
        <ele>1536.1999511719</ele>
        <time>2026-07-04T13:07:53.000Z</time>
      </trkpt>
      <trkpt lat="46.14908" lon="6.77436">
        <ele>1536.1999511719</ele>
        <time>2026-07-04T13:07:56.000Z</time>
      </trkpt>
      <trkpt lat="46.1491" lon="6.77439">
        <ele>1536</ele>
        <time>2026-07-04T13:08:00.000Z</time>
      </trkpt>
      <trkpt lat="46.14911" lon="6.7744">
        <ele>1535.5999755859</ele>
        <time>2026-07-04T13:08:02.000Z</time>
      </trkpt>
      <trkpt lat="46.14916" lon="6.77446">
        <ele>1535.8000488281</ele>
        <time>2026-07-04T13:08:10.000Z</time>
      </trkpt>
      <trkpt lat="46.14917" lon="6.77447">
        <ele>1536.5999755859</ele>
        <time>2026-07-04T13:08:16.000Z</time>
      </trkpt>
      <trkpt lat="46.14917" lon="6.77447">
        <ele>1536.5999755859</ele>
        <time>2026-07-04T13:08:17.000Z</time>
      </trkpt>
      <trkpt lat="46.14917" lon="6.77447">
        <ele>1536.8000488281</ele>
        <time>2026-07-04T13:08:29.000Z</time>
      </trkpt>
      <trkpt lat="46.14918" lon="6.77447">
        <ele>1537.1999511719</ele>
        <time>2026-07-04T13:08:42.000Z</time>
      </trkpt>
      <trkpt lat="46.14918" lon="6.77447">
        <ele>1537</ele>
        <time>2026-07-04T13:08:43.000Z</time>
      </trkpt>
      <trkpt lat="46.14918" lon="6.77445">
        <ele>1536.5999755859</ele>
        <time>2026-07-04T13:08:49.000Z</time>
      </trkpt>
      <trkpt lat="46.14917" lon="6.77442">
        <ele>1536</ele>
        <time>2026-07-04T13:08:52.000Z</time>
      </trkpt>
      <trkpt lat="46.14918" lon="6.77439">
        <ele>1535.5999755859</ele>
        <time>2026-07-04T13:08:55.000Z</time>
      </trkpt>
      <trkpt lat="46.14918" lon="6.77438">
        <ele>1535.1999511719</ele>
        <time>2026-07-04T13:09:00.000Z</time>
      </trkpt>
      <trkpt lat="46.14916" lon="6.7743">
        <ele>1535.5999755859</ele>
        <time>2026-07-04T13:09:08.000Z</time>
      </trkpt>
      <trkpt lat="46.14914" lon="6.77428">
        <ele>1536.1999511719</ele>
        <time>2026-07-04T13:09:17.000Z</time>
      </trkpt>
      <trkpt lat="46.14914" lon="6.77428">
        <ele>1536.1999511719</ele>
        <time>2026-07-04T13:09:19.000Z</time>
      </trkpt>
      <trkpt lat="46.14914" lon="6.77428">
        <ele>1536.1999511719</ele>
        <time>2026-07-04T13:09:23.000Z</time>
      </trkpt>
      <trkpt lat="46.14915" lon="6.77429">
        <ele>1535.8000488281</ele>
        <time>2026-07-04T13:09:29.000Z</time>
      </trkpt>
      <trkpt lat="46.14921" lon="6.77438">
        <ele>1535.1999511719</ele>
        <time>2026-07-04T13:09:37.000Z</time>
      </trkpt>
      <trkpt lat="46.14927" lon="6.77441">
        <ele>1534.4000244141</ele>
        <time>2026-07-04T13:09:42.000Z</time>
      </trkpt>
      <trkpt lat="46.14929" lon="6.77443">
        <ele>1534</ele>
        <time>2026-07-04T13:09:44.000Z</time>
      </trkpt>
      <trkpt lat="46.14942" lon="6.77447">
        <ele>1533.1999511719</ele>
        <time>2026-07-04T13:09:54.000Z</time>
      </trkpt>
      <trkpt lat="46.14953" lon="6.77451">
        <ele>1532.4000244141</ele>
        <time>2026-07-04T13:10:02.000Z</time>
      </trkpt>
      <trkpt lat="46.14954" lon="6.77452">
        <ele>1532.1999511719</ele>
        <time>2026-07-04T13:10:03.000Z</time>
      </trkpt>
      <trkpt lat="46.14955" lon="6.77453">
        <ele>1532.1999511719</ele>
        <time>2026-07-04T13:10:04.000Z</time>
      </trkpt>
      <trkpt lat="46.14963" lon="6.77465">
        <ele>1531</ele>
        <time>2026-07-04T13:10:14.000Z</time>
      </trkpt>
      <trkpt lat="46.1497" lon="6.77474">
        <ele>1530.1999511719</ele>
        <time>2026-07-04T13:10:22.000Z</time>
      </trkpt>
      <trkpt lat="46.14972" lon="6.77475">
        <ele>1530</ele>
        <time>2026-07-04T13:10:24.000Z</time>
      </trkpt>
      <trkpt lat="46.1498" lon="6.77479">
        <ele>1529</ele>
        <time>2026-07-04T13:10:30.000Z</time>
      </trkpt>
      <trkpt lat="46.14988" lon="6.77481">
        <ele>1528.4000244141</ele>
        <time>2026-07-04T13:10:36.000Z</time>
      </trkpt>
      <trkpt lat="46.14995" lon="6.77481">
        <ele>1528</ele>
        <time>2026-07-04T13:10:42.000Z</time>
      </trkpt>
      <trkpt lat="46.14999" lon="6.77482">
        <ele>1527.5999755859</ele>
        <time>2026-07-04T13:10:46.000Z</time>
      </trkpt>
      <trkpt lat="46.15007" lon="6.77485">
        <ele>1526.8000488281</ele>
        <time>2026-07-04T13:10:53.000Z</time>
      </trkpt>
      <trkpt lat="46.15009" lon="6.77485">
        <ele>1526.5999755859</ele>
        <time>2026-07-04T13:10:55.000Z</time>
      </trkpt>
      <trkpt lat="46.15015" lon="6.77486">
        <ele>1525.8000488281</ele>
        <time>2026-07-04T13:11:01.000Z</time>
      </trkpt>
      <trkpt lat="46.15025" lon="6.77488">
        <ele>1524.8000488281</ele>
        <time>2026-07-04T13:11:09.000Z</time>
      </trkpt>
      <trkpt lat="46.15037" lon="6.77486">
        <ele>1523.5999755859</ele>
        <time>2026-07-04T13:11:20.000Z</time>
      </trkpt>
      <trkpt lat="46.15046" lon="6.77487">
        <ele>1523</ele>
        <time>2026-07-04T13:11:28.000Z</time>
      </trkpt>
      <trkpt lat="46.15053" lon="6.77486">
        <ele>1522.5999755859</ele>
        <time>2026-07-04T13:11:34.000Z</time>
      </trkpt>
      <trkpt lat="46.15057" lon="6.77484">
        <ele>1522.1999511719</ele>
        <time>2026-07-04T13:11:37.000Z</time>
      </trkpt>
      <trkpt lat="46.15062" lon="6.7748">
        <ele>1521.5999755859</ele>
        <time>2026-07-04T13:11:41.000Z</time>
      </trkpt>
      <trkpt lat="46.15068" lon="6.77474">
        <ele>1521</ele>
        <time>2026-07-04T13:11:47.000Z</time>
      </trkpt>
      <trkpt lat="46.15072" lon="6.77469">
        <ele>1520.5999755859</ele>
        <time>2026-07-04T13:11:51.000Z</time>
      </trkpt>
      <trkpt lat="46.15076" lon="6.77464">
        <ele>1519.8000488281</ele>
        <time>2026-07-04T13:11:55.000Z</time>
      </trkpt>
      <trkpt lat="46.15078" lon="6.77461">
        <ele>1519.4000244141</ele>
        <time>2026-07-04T13:11:58.000Z</time>
      </trkpt>
      <trkpt lat="46.15084" lon="6.77454">
        <ele>1518.1999511719</ele>
        <time>2026-07-04T13:12:04.000Z</time>
      </trkpt>
      <trkpt lat="46.15084" lon="6.77453">
        <ele>1518</ele>
        <time>2026-07-04T13:12:05.000Z</time>
      </trkpt>
      <trkpt lat="46.15089" lon="6.77442">
        <ele>1517.1999511719</ele>
        <time>2026-07-04T13:12:12.000Z</time>
      </trkpt>
      <trkpt lat="46.1509" lon="6.77439">
        <ele>1516.8000488281</ele>
        <time>2026-07-04T13:12:14.000Z</time>
      </trkpt>
      <trkpt lat="46.15091" lon="6.77433">
        <ele>1516.1999511719</ele>
        <time>2026-07-04T13:12:18.000Z</time>
      </trkpt>
      <trkpt lat="46.15092" lon="6.77424">
        <ele>1515</ele>
        <time>2026-07-04T13:12:24.000Z</time>
      </trkpt>
      <trkpt lat="46.15092" lon="6.77416">
        <ele>1514</ele>
        <time>2026-07-04T13:12:29.000Z</time>
      </trkpt>
      <trkpt lat="46.15092" lon="6.77412">
        <ele>1513.5999755859</ele>
        <time>2026-07-04T13:12:31.000Z</time>
      </trkpt>
      <trkpt lat="46.15092" lon="6.77407">
        <ele>1513</ele>
        <time>2026-07-04T13:12:34.000Z</time>
      </trkpt>
      <trkpt lat="46.1509" lon="6.77399">
        <ele>1512</ele>
        <time>2026-07-04T13:12:39.000Z</time>
      </trkpt>
      <trkpt lat="46.1509" lon="6.77398">
        <ele>1511.8000488281</ele>
        <time>2026-07-04T13:12:40.000Z</time>
      </trkpt>
      <trkpt lat="46.15088" lon="6.77392">
        <ele>1510.8000488281</ele>
        <time>2026-07-04T13:12:45.000Z</time>
      </trkpt>
      <trkpt lat="46.15086" lon="6.77384">
        <ele>1510</ele>
        <time>2026-07-04T13:12:49.000Z</time>
      </trkpt>
      <trkpt lat="46.15085" lon="6.77381">
        <ele>1509.5999755859</ele>
        <time>2026-07-04T13:12:51.000Z</time>
      </trkpt>
      <trkpt lat="46.1508" lon="6.77373">
        <ele>1508.4000244141</ele>
        <time>2026-07-04T13:12:57.000Z</time>
      </trkpt>
      <trkpt lat="46.15079" lon="6.7737">
        <ele>1508.1999511719</ele>
        <time>2026-07-04T13:12:59.000Z</time>
      </trkpt>
      <trkpt lat="46.15077" lon="6.77362">
        <ele>1507.1999511719</ele>
        <time>2026-07-04T13:13:03.000Z</time>
      </trkpt>
      <trkpt lat="46.15075" lon="6.77355">
        <ele>1506.1999511719</ele>
        <time>2026-07-04T13:13:08.000Z</time>
      </trkpt>
      <trkpt lat="46.15073" lon="6.77347">
        <ele>1505.1999511719</ele>
        <time>2026-07-04T13:13:13.000Z</time>
      </trkpt>
      <trkpt lat="46.15072" lon="6.77342">
        <ele>1504.4000244141</ele>
        <time>2026-07-04T13:13:16.000Z</time>
      </trkpt>
      <trkpt lat="46.15072" lon="6.77339">
        <ele>1504</ele>
        <time>2026-07-04T13:13:17.000Z</time>
      </trkpt>
      <trkpt lat="46.15071" lon="6.77331">
        <ele>1503</ele>
        <time>2026-07-04T13:13:23.000Z</time>
      </trkpt>
      <trkpt lat="46.15071" lon="6.77329">
        <ele>1503</ele>
        <time>2026-07-04T13:13:24.000Z</time>
      </trkpt>
      <trkpt lat="46.15071" lon="6.77321">
        <ele>1502</ele>
        <time>2026-07-04T13:13:30.000Z</time>
      </trkpt>
      <trkpt lat="46.15071" lon="6.77318">
        <ele>1501.5999755859</ele>
        <time>2026-07-04T13:13:32.000Z</time>
      </trkpt>
      <trkpt lat="46.15069" lon="6.77315">
        <ele>1500.8000488281</ele>
        <time>2026-07-04T13:13:36.000Z</time>
      </trkpt>
      <trkpt lat="46.15069" lon="6.77316">
        <ele>1500.8000488281</ele>
        <time>2026-07-04T13:13:39.000Z</time>
      </trkpt>
      <trkpt lat="46.15067" lon="6.77312">
        <ele>1500.5999755859</ele>
        <time>2026-07-04T13:13:46.000Z</time>
      </trkpt>
      <trkpt lat="46.15069" lon="6.77302">
        <ele>1499.8000488281</ele>
        <time>2026-07-04T13:13:54.000Z</time>
      </trkpt>
      <trkpt lat="46.15069" lon="6.773">
        <ele>1499.5999755859</ele>
        <time>2026-07-04T13:13:55.000Z</time>
      </trkpt>
      <trkpt lat="46.15071" lon="6.77292">
        <ele>1498.5999755859</ele>
        <time>2026-07-04T13:14:01.000Z</time>
      </trkpt>
      <trkpt lat="46.15073" lon="6.77288">
        <ele>1498</ele>
        <time>2026-07-04T13:14:04.000Z</time>
      </trkpt>
      <trkpt lat="46.15075" lon="6.77284">
        <ele>1497.4000244141</ele>
        <time>2026-07-04T13:14:07.000Z</time>
      </trkpt>
      <trkpt lat="46.1508" lon="6.77279">
        <ele>1496.5999755859</ele>
        <time>2026-07-04T13:14:12.000Z</time>
      </trkpt>
      <trkpt lat="46.1508" lon="6.77279">
        <ele>1496.4000244141</ele>
        <time>2026-07-04T13:14:13.000Z</time>
      </trkpt>
      <trkpt lat="46.15085" lon="6.77269">
        <ele>1495.1999511719</ele>
        <time>2026-07-04T13:14:19.000Z</time>
      </trkpt>
      <trkpt lat="46.15087" lon="6.77264">
        <ele>1494.4000244141</ele>
        <time>2026-07-04T13:14:22.000Z</time>
      </trkpt>
      <trkpt lat="46.15088" lon="6.77261">
        <ele>1494</ele>
        <time>2026-07-04T13:14:24.000Z</time>
      </trkpt>
      <trkpt lat="46.15089" lon="6.77255">
        <ele>1493</ele>
        <time>2026-07-04T13:14:28.000Z</time>
      </trkpt>
      <trkpt lat="46.15089" lon="6.77253">
        <ele>1492.8000488281</ele>
        <time>2026-07-04T13:14:29.000Z</time>
      </trkpt>
      <trkpt lat="46.15088" lon="6.77244">
        <ele>1491.5999755859</ele>
        <time>2026-07-04T13:14:34.000Z</time>
      </trkpt>
      <trkpt lat="46.15088" lon="6.77243">
        <ele>1491.5999755859</ele>
        <time>2026-07-04T13:14:35.000Z</time>
      </trkpt>
      <trkpt lat="46.15086" lon="6.7723">
        <ele>1490.4000244141</ele>
        <time>2026-07-04T13:14:42.000Z</time>
      </trkpt>
      <trkpt lat="46.15086" lon="6.77228">
        <ele>1490.1999511719</ele>
        <time>2026-07-04T13:14:43.000Z</time>
      </trkpt>
      <trkpt lat="46.15084" lon="6.77223">
        <ele>1489.4000244141</ele>
        <time>2026-07-04T13:14:46.000Z</time>
      </trkpt>
      <trkpt lat="46.15083" lon="6.77217">
        <ele>1488.4000244141</ele>
        <time>2026-07-04T13:14:50.000Z</time>
      </trkpt>
      <trkpt lat="46.15082" lon="6.77213">
        <ele>1488</ele>
        <time>2026-07-04T13:14:52.000Z</time>
      </trkpt>
      <trkpt lat="46.15081" lon="6.77208">
        <ele>1487.1999511719</ele>
        <time>2026-07-04T13:14:55.000Z</time>
      </trkpt>
      <trkpt lat="46.15077" lon="6.772">
        <ele>1486.1999511719</ele>
        <time>2026-07-04T13:15:00.000Z</time>
      </trkpt>
      <trkpt lat="46.15077" lon="6.77199">
        <ele>1486</ele>
        <time>2026-07-04T13:15:01.000Z</time>
      </trkpt>
      <trkpt lat="46.15074" lon="6.77191">
        <ele>1485</ele>
        <time>2026-07-04T13:15:05.000Z</time>
      </trkpt>
      <trkpt lat="46.1507" lon="6.77183">
        <ele>1483.8000488281</ele>
        <time>2026-07-04T13:15:10.000Z</time>
      </trkpt>
      <trkpt lat="46.15069" lon="6.7718">
        <ele>1483.4000244141</ele>
        <time>2026-07-04T13:15:12.000Z</time>
      </trkpt>
      <trkpt lat="46.15065" lon="6.77173">
        <ele>1482.5999755859</ele>
        <time>2026-07-04T13:15:18.000Z</time>
      </trkpt>
      <trkpt lat="46.15064" lon="6.77174">
        <ele>1482.4000244141</ele>
        <time>2026-07-04T13:15:20.000Z</time>
      </trkpt>
      <trkpt lat="46.15064" lon="6.77174">
        <ele>1482.4000244141</ele>
        <time>2026-07-04T13:15:21.000Z</time>
      </trkpt>
      <trkpt lat="46.15068" lon="6.77174">
        <ele>1482.4000244141</ele>
        <time>2026-07-04T13:15:29.000Z</time>
      </trkpt>
      <trkpt lat="46.15071" lon="6.77173">
        <ele>1482.4000244141</ele>
        <time>2026-07-04T13:15:32.000Z</time>
      </trkpt>
      <trkpt lat="46.15071" lon="6.77173">
        <ele>1482.4000244141</ele>
        <time>2026-07-04T13:15:36.000Z</time>
      </trkpt>
      <trkpt lat="46.1507" lon="6.77172">
        <ele>1482.4000244141</ele>
        <time>2026-07-04T13:15:43.000Z</time>
      </trkpt>
      <trkpt lat="46.15067" lon="6.77173">
        <ele>1482.4000244141</ele>
        <time>2026-07-04T13:15:50.000Z</time>
      </trkpt>
      <trkpt lat="46.15067" lon="6.77173">
        <ele>1482.4000244141</ele>
        <time>2026-07-04T13:15:51.000Z</time>
      </trkpt>
      <trkpt lat="46.15068" lon="6.77174">
        <ele>1482.4000244141</ele>
        <time>2026-07-04T13:16:00.000Z</time>
      </trkpt>
      <trkpt lat="46.15069" lon="6.77174">
        <ele>1482.4000244141</ele>
        <time>2026-07-04T13:16:10.000Z</time>
      </trkpt>
      <trkpt lat="46.1507" lon="6.77173">
        <ele>1482.4000244141</ele>
        <time>2026-07-04T13:16:18.000Z</time>
      </trkpt>
      <trkpt lat="46.1507" lon="6.77173">
        <ele>1482.4000244141</ele>
        <time>2026-07-04T13:16:19.000Z</time>
      </trkpt>
      <trkpt lat="46.1507" lon="6.77172">
        <ele>1482.4000244141</ele>
        <time>2026-07-04T13:16:24.000Z</time>
      </trkpt>
      <trkpt lat="46.1507" lon="6.77171">
        <ele>1482.4000244141</ele>
        <time>2026-07-04T13:16:28.000Z</time>
      </trkpt>
      <trkpt lat="46.1507" lon="6.77172">
        <ele>1482.4000244141</ele>
        <time>2026-07-04T13:16:30.000Z</time>
      </trkpt>
      <trkpt lat="46.15069" lon="6.7717">
        <ele>1482.8000488281</ele>
        <time>2026-07-04T13:16:37.000Z</time>
      </trkpt>
      <trkpt lat="46.15067" lon="6.77169">
        <ele>1482.8000488281</ele>
        <time>2026-07-04T13:16:44.000Z</time>
      </trkpt>
      <trkpt lat="46.15067" lon="6.77168">
        <ele>1482.8000488281</ele>
        <time>2026-07-04T13:16:48.000Z</time>
      </trkpt>
      <trkpt lat="46.15067" lon="6.77168">
        <ele>1482.8000488281</ele>
        <time>2026-07-04T13:16:49.000Z</time>
      </trkpt>
      <trkpt lat="46.15068" lon="6.77169">
        <ele>1482.8000488281</ele>
        <time>2026-07-04T13:16:55.000Z</time>
      </trkpt>
      <trkpt lat="46.1507" lon="6.77165">
        <ele>1482.4000244141</ele>
        <time>2026-07-04T13:17:03.000Z</time>
      </trkpt>
      <trkpt lat="46.15067" lon="6.77162">
        <ele>1482.1999511719</ele>
        <time>2026-07-04T13:17:06.000Z</time>
      </trkpt>
      <trkpt lat="46.15067" lon="6.7716">
        <ele>1482</ele>
        <time>2026-07-04T13:17:07.000Z</time>
      </trkpt>
      <trkpt lat="46.15066" lon="6.77159">
        <ele>1481.8000488281</ele>
        <time>2026-07-04T13:17:08.000Z</time>
      </trkpt>
      <trkpt lat="46.15066" lon="6.77157">
        <ele>1481.8000488281</ele>
        <time>2026-07-04T13:17:09.000Z</time>
      </trkpt>
      <trkpt lat="46.15065" lon="6.77155">
        <ele>1481.4000244141</ele>
        <time>2026-07-04T13:17:10.000Z</time>
      </trkpt>
      <trkpt lat="46.15064" lon="6.77151">
        <ele>1480.5999755859</ele>
        <time>2026-07-04T13:17:16.000Z</time>
      </trkpt>
      <trkpt lat="46.15066" lon="6.77151">
        <ele>1480.8000488281</ele>
        <time>2026-07-04T13:17:20.000Z</time>
      </trkpt>
      <trkpt lat="46.15066" lon="6.7715">
        <ele>1480.8000488281</ele>
        <time>2026-07-04T13:17:21.000Z</time>
      </trkpt>
      <trkpt lat="46.15068" lon="6.77151">
        <ele>1481</ele>
        <time>2026-07-04T13:17:24.000Z</time>
      </trkpt>
      <trkpt lat="46.15065" lon="6.77146">
        <ele>1480.5999755859</ele>
        <time>2026-07-04T13:17:32.000Z</time>
      </trkpt>
      <trkpt lat="46.15065" lon="6.77144">
        <ele>1480.4000244141</ele>
        <time>2026-07-04T13:17:34.000Z</time>
      </trkpt>
      <trkpt lat="46.15064" lon="6.77139">
        <ele>1479.4000244141</ele>
        <time>2026-07-04T13:17:39.000Z</time>
      </trkpt>
      <trkpt lat="46.15065" lon="6.77138">
        <ele>1479.1999511719</ele>
        <time>2026-07-04T13:17:40.000Z</time>
      </trkpt>
      <trkpt lat="46.15065" lon="6.77133">
        <ele>1478.5999755859</ele>
        <time>2026-07-04T13:17:43.000Z</time>
      </trkpt>
      <trkpt lat="46.15065" lon="6.77128">
        <ele>1478</ele>
        <time>2026-07-04T13:17:47.000Z</time>
      </trkpt>
      <trkpt lat="46.15065" lon="6.7712">
        <ele>1477</ele>
        <time>2026-07-04T13:17:52.000Z</time>
      </trkpt>
      <trkpt lat="46.15065" lon="6.77114">
        <ele>1476.4000244141</ele>
        <time>2026-07-04T13:17:56.000Z</time>
      </trkpt>
      <trkpt lat="46.15062" lon="6.7711">
        <ele>1476</ele>
        <time>2026-07-04T13:18:00.000Z</time>
      </trkpt>
      <trkpt lat="46.15059" lon="6.77105">
        <ele>1475.1999511719</ele>
        <time>2026-07-04T13:18:04.000Z</time>
      </trkpt>
      <trkpt lat="46.15058" lon="6.77102">
        <ele>1474.8000488281</ele>
        <time>2026-07-04T13:18:06.000Z</time>
      </trkpt>
      <trkpt lat="46.15056" lon="6.77095">
        <ele>1473.5999755859</ele>
        <time>2026-07-04T13:18:11.000Z</time>
      </trkpt>
      <trkpt lat="46.15056" lon="6.77094">
        <ele>1473.4000244141</ele>
        <time>2026-07-04T13:18:12.000Z</time>
      </trkpt>
      <trkpt lat="46.15054" lon="6.77088">
        <ele>1472.5999755859</ele>
        <time>2026-07-04T13:18:16.000Z</time>
      </trkpt>
      <trkpt lat="46.15053" lon="6.77078">
        <ele>1471.8000488281</ele>
        <time>2026-07-04T13:18:22.000Z</time>
      </trkpt>
      <trkpt lat="46.15052" lon="6.77075">
        <ele>1471.4000244141</ele>
        <time>2026-07-04T13:18:24.000Z</time>
      </trkpt>
      <trkpt lat="46.1505" lon="6.77066">
        <ele>1470.4000244141</ele>
        <time>2026-07-04T13:18:29.000Z</time>
      </trkpt>
      <trkpt lat="46.15049" lon="6.77064">
        <ele>1470</ele>
        <time>2026-07-04T13:18:31.000Z</time>
      </trkpt>
      <trkpt lat="46.15049" lon="6.77054">
        <ele>1469.4000244141</ele>
        <time>2026-07-04T13:18:38.000Z</time>
      </trkpt>
      <trkpt lat="46.15049" lon="6.7705">
        <ele>1469</ele>
        <time>2026-07-04T13:18:40.000Z</time>
      </trkpt>
      <trkpt lat="46.15049" lon="6.77041">
        <ele>1468.1999511719</ele>
        <time>2026-07-04T13:18:45.000Z</time>
      </trkpt>
      <trkpt lat="46.15048" lon="6.77032">
        <ele>1467.8000488281</ele>
        <time>2026-07-04T13:18:49.000Z</time>
      </trkpt>
      <trkpt lat="46.15047" lon="6.77025">
        <ele>1467.1999511719</ele>
        <time>2026-07-04T13:18:53.000Z</time>
      </trkpt>
      <trkpt lat="46.15047" lon="6.77016">
        <ele>1466.4000244141</ele>
        <time>2026-07-04T13:18:59.000Z</time>
      </trkpt>
      <trkpt lat="46.15047" lon="6.77011">
        <ele>1466</ele>
        <time>2026-07-04T13:19:02.000Z</time>
      </trkpt>
      <trkpt lat="46.15046" lon="6.77">
        <ele>1465.5999755859</ele>
        <time>2026-07-04T13:19:08.000Z</time>
      </trkpt>
      <trkpt lat="46.15047" lon="6.76988">
        <ele>1465</ele>
        <time>2026-07-04T13:19:15.000Z</time>
      </trkpt>
      <trkpt lat="46.15047" lon="6.76984">
        <ele>1464.8000488281</ele>
        <time>2026-07-04T13:19:17.000Z</time>
      </trkpt>
      <trkpt lat="46.15046" lon="6.76978">
        <ele>1464.1999511719</ele>
        <time>2026-07-04T13:19:26.000Z</time>
      </trkpt>
      <trkpt lat="46.15044" lon="6.76978">
        <ele>1464.1999511719</ele>
        <time>2026-07-04T13:19:35.000Z</time>
      </trkpt>
      <trkpt lat="46.15043" lon="6.76977">
        <ele>1464.1999511719</ele>
        <time>2026-07-04T13:19:36.000Z</time>
      </trkpt>
      <trkpt lat="46.15044" lon="6.76978">
        <ele>1464.1999511719</ele>
        <time>2026-07-04T13:19:46.000Z</time>
      </trkpt>
      <trkpt lat="46.15042" lon="6.76968">
        <ele>1464.1999511719</ele>
        <time>2026-07-04T13:19:55.000Z</time>
      </trkpt>
      <trkpt lat="46.15041" lon="6.76962">
        <ele>1463.8000488281</ele>
        <time>2026-07-04T13:19:59.000Z</time>
      </trkpt>
      <trkpt lat="46.15041" lon="6.76956">
        <ele>1463.4000244141</ele>
        <time>2026-07-04T13:20:02.000Z</time>
      </trkpt>
      <trkpt lat="46.15041" lon="6.76949">
        <ele>1463</ele>
        <time>2026-07-04T13:20:06.000Z</time>
      </trkpt>
      <trkpt lat="46.15041" lon="6.76946">
        <ele>1462.8000488281</ele>
        <time>2026-07-04T13:20:08.000Z</time>
      </trkpt>
      <trkpt lat="46.15041" lon="6.76941">
        <ele>1462</ele>
        <time>2026-07-04T13:20:12.000Z</time>
      </trkpt>
      <trkpt lat="46.15042" lon="6.76937">
        <ele>1461.5999755859</ele>
        <time>2026-07-04T13:20:15.000Z</time>
      </trkpt>
      <trkpt lat="46.15044" lon="6.76932">
        <ele>1461.1999511719</ele>
        <time>2026-07-04T13:20:19.000Z</time>
      </trkpt>
      <trkpt lat="46.15045" lon="6.76928">
        <ele>1461</ele>
        <time>2026-07-04T13:20:21.000Z</time>
      </trkpt>
      <trkpt lat="46.15046" lon="6.76922">
        <ele>1460.5999755859</ele>
        <time>2026-07-04T13:20:25.000Z</time>
      </trkpt>
      <trkpt lat="46.15046" lon="6.76913">
        <ele>1459.8000488281</ele>
        <time>2026-07-04T13:20:31.000Z</time>
      </trkpt>
      <trkpt lat="46.15046" lon="6.76908">
        <ele>1459.5999755859</ele>
        <time>2026-07-04T13:20:33.000Z</time>
      </trkpt>
      <trkpt lat="46.15046" lon="6.76899">
        <ele>1458.4000244141</ele>
        <time>2026-07-04T13:20:40.000Z</time>
      </trkpt>
      <trkpt lat="46.15047" lon="6.76895">
        <ele>1458</ele>
        <time>2026-07-04T13:20:42.000Z</time>
      </trkpt>
      <trkpt lat="46.15049" lon="6.76888">
        <ele>1457.4000244141</ele>
        <time>2026-07-04T13:20:48.000Z</time>
      </trkpt>
      <trkpt lat="46.1505" lon="6.76888">
        <ele>1457</ele>
        <time>2026-07-04T13:20:51.000Z</time>
      </trkpt>
      <trkpt lat="46.15052" lon="6.76887">
        <ele>1457</ele>
        <time>2026-07-04T13:21:01.000Z</time>
      </trkpt>
      <trkpt lat="46.15052" lon="6.76887">
        <ele>1457</ele>
        <time>2026-07-04T13:21:02.000Z</time>
      </trkpt>
      <trkpt lat="46.15051" lon="6.76886">
        <ele>1457.4000244141</ele>
        <time>2026-07-04T13:21:14.000Z</time>
      </trkpt>
      <trkpt lat="46.15054" lon="6.76891">
        <ele>1457.1999511719</ele>
        <time>2026-07-04T13:21:24.000Z</time>
      </trkpt>
      <trkpt lat="46.15056" lon="6.76894">
        <ele>1457.1999511719</ele>
        <time>2026-07-04T13:21:36.000Z</time>
      </trkpt>
      <trkpt lat="46.15058" lon="6.7689">
        <ele>1457</ele>
        <time>2026-07-04T13:21:45.000Z</time>
      </trkpt>
      <trkpt lat="46.15054" lon="6.76881">
        <ele>1456.8000488281</ele>
        <time>2026-07-04T13:21:54.000Z</time>
      </trkpt>
      <trkpt lat="46.15053" lon="6.76877">
        <ele>1456.1999511719</ele>
        <time>2026-07-04T13:21:58.000Z</time>
      </trkpt>
      <trkpt lat="46.15051" lon="6.76874">
        <ele>1456.1999511719</ele>
        <time>2026-07-04T13:22:03.000Z</time>
      </trkpt>
      <trkpt lat="46.15053" lon="6.76866">
        <ele>1455.1999511719</ele>
        <time>2026-07-04T13:22:10.000Z</time>
      </trkpt>
      <trkpt lat="46.15053" lon="6.76865">
        <ele>1455</ele>
        <time>2026-07-04T13:22:11.000Z</time>
      </trkpt>
      <trkpt lat="46.15056" lon="6.76858">
        <ele>1454</ele>
        <time>2026-07-04T13:22:16.000Z</time>
      </trkpt>
      <trkpt lat="46.15061" lon="6.76846">
        <ele>1453</ele>
        <time>2026-07-04T13:22:23.000Z</time>
      </trkpt>
      <trkpt lat="46.15063" lon="6.76841">
        <ele>1452</ele>
        <time>2026-07-04T13:22:27.000Z</time>
      </trkpt>
      <trkpt lat="46.15065" lon="6.76832">
        <ele>1450.8000488281</ele>
        <time>2026-07-04T13:22:32.000Z</time>
      </trkpt>
      <trkpt lat="46.15067" lon="6.76824">
        <ele>1449.8000488281</ele>
        <time>2026-07-04T13:22:37.000Z</time>
      </trkpt>
      <trkpt lat="46.15068" lon="6.76819">
        <ele>1449</ele>
        <time>2026-07-04T13:22:41.000Z</time>
      </trkpt>
      <trkpt lat="46.15069" lon="6.76818">
        <ele>1448.5999755859</ele>
        <time>2026-07-04T13:22:42.000Z</time>
      </trkpt>
      <trkpt lat="46.15071" lon="6.76809">
        <ele>1447.5999755859</ele>
        <time>2026-07-04T13:22:47.000Z</time>
      </trkpt>
      <trkpt lat="46.15073" lon="6.76806">
        <ele>1447</ele>
        <time>2026-07-04T13:22:50.000Z</time>
      </trkpt>
      <trkpt lat="46.15075" lon="6.76804">
        <ele>1446.5999755859</ele>
        <time>2026-07-04T13:22:53.000Z</time>
      </trkpt>
      <trkpt lat="46.15079" lon="6.76801">
        <ele>1445.4000244141</ele>
        <time>2026-07-04T13:22:58.000Z</time>
      </trkpt>
      <trkpt lat="46.15082" lon="6.76799">
        <ele>1445.1999511719</ele>
        <time>2026-07-04T13:22:59.000Z</time>
      </trkpt>
      <trkpt lat="46.15085" lon="6.76795">
        <ele>1444.4000244141</ele>
        <time>2026-07-04T13:23:03.000Z</time>
      </trkpt>
      <trkpt lat="46.15089" lon="6.76788">
        <ele>1443.4000244141</ele>
        <time>2026-07-04T13:23:08.000Z</time>
      </trkpt>
      <trkpt lat="46.15089" lon="6.76778">
        <ele>1442.4000244141</ele>
        <time>2026-07-04T13:23:14.000Z</time>
      </trkpt>
      <trkpt lat="46.15089" lon="6.76774">
        <ele>1442</ele>
        <time>2026-07-04T13:23:16.000Z</time>
      </trkpt>
      <trkpt lat="46.15089" lon="6.76766">
        <ele>1441.1999511719</ele>
        <time>2026-07-04T13:23:20.000Z</time>
      </trkpt>
      <trkpt lat="46.15089" lon="6.76759">
        <ele>1440.1999511719</ele>
        <time>2026-07-04T13:23:24.000Z</time>
      </trkpt>
      <trkpt lat="46.15089" lon="6.76757">
        <ele>1440</ele>
        <time>2026-07-04T13:23:25.000Z</time>
      </trkpt>
      <trkpt lat="46.15086" lon="6.76746">
        <ele>1439</ele>
        <time>2026-07-04T13:23:31.000Z</time>
      </trkpt>
      <trkpt lat="46.15087" lon="6.76742">
        <ele>1438.5999755859</ele>
        <time>2026-07-04T13:23:33.000Z</time>
      </trkpt>
      <trkpt lat="46.15086" lon="6.76737">
        <ele>1437.8000488281</ele>
        <time>2026-07-04T13:23:36.000Z</time>
      </trkpt>
      <trkpt lat="46.15083" lon="6.76726">
        <ele>1436.8000488281</ele>
        <time>2026-07-04T13:23:42.000Z</time>
      </trkpt>
      <trkpt lat="46.15083" lon="6.76719">
        <ele>1435.5999755859</ele>
        <time>2026-07-04T13:23:46.000Z</time>
      </trkpt>
      <trkpt lat="46.15084" lon="6.76714">
        <ele>1435</ele>
        <time>2026-07-04T13:23:49.000Z</time>
      </trkpt>
      <trkpt lat="46.15085" lon="6.76711">
        <ele>1434.4000244141</ele>
        <time>2026-07-04T13:23:52.000Z</time>
      </trkpt>
      <trkpt lat="46.15086" lon="6.76711">
        <ele>1434.1999511719</ele>
        <time>2026-07-04T13:23:55.000Z</time>
      </trkpt>
      <trkpt lat="46.15086" lon="6.76713">
        <ele>1434.1999511719</ele>
        <time>2026-07-04T13:24:02.000Z</time>
      </trkpt>
      <trkpt lat="46.15085" lon="6.76713">
        <ele>1434.1999511719</ele>
        <time>2026-07-04T13:24:05.000Z</time>
      </trkpt>
      <trkpt lat="46.15082" lon="6.76716">
        <ele>1434.1999511719</ele>
        <time>2026-07-04T13:24:12.000Z</time>
      </trkpt>
      <trkpt lat="46.1508" lon="6.76711">
        <ele>1433.8000488281</ele>
        <time>2026-07-04T13:24:16.000Z</time>
      </trkpt>
      <trkpt lat="46.15078" lon="6.76707">
        <ele>1433.4000244141</ele>
        <time>2026-07-04T13:24:18.000Z</time>
      </trkpt>
      <trkpt lat="46.15077" lon="6.767">
        <ele>1432.1999511719</ele>
        <time>2026-07-04T13:24:22.000Z</time>
      </trkpt>
      <trkpt lat="46.15077" lon="6.76697">
        <ele>1431.5999755859</ele>
        <time>2026-07-04T13:24:24.000Z</time>
      </trkpt>
      <trkpt lat="46.15076" lon="6.76694">
        <ele>1430.8000488281</ele>
        <time>2026-07-04T13:24:26.000Z</time>
      </trkpt>
      <trkpt lat="46.15074" lon="6.76688">
        <ele>1429.4000244141</ele>
        <time>2026-07-04T13:24:30.000Z</time>
      </trkpt>
      <trkpt lat="46.15073" lon="6.76686">
        <ele>1429.1999511719</ele>
        <time>2026-07-04T13:24:31.000Z</time>
      </trkpt>
      <trkpt lat="46.15071" lon="6.76683">
        <ele>1428.1999511719</ele>
        <time>2026-07-04T13:24:34.000Z</time>
      </trkpt>
      <trkpt lat="46.1507" lon="6.76677">
        <ele>1427</ele>
        <time>2026-07-04T13:24:38.000Z</time>
      </trkpt>
      <trkpt lat="46.15069" lon="6.76675">
        <ele>1426.8000488281</ele>
        <time>2026-07-04T13:24:39.000Z</time>
      </trkpt>
      <trkpt lat="46.15069" lon="6.7667">
        <ele>1425.8000488281</ele>
        <time>2026-07-04T13:24:42.000Z</time>
      </trkpt>
      <trkpt lat="46.1507" lon="6.76663">
        <ele>1425.1999511719</ele>
        <time>2026-07-04T13:24:46.000Z</time>
      </trkpt>
      <trkpt lat="46.1507" lon="6.76659">
        <ele>1424.8000488281</ele>
        <time>2026-07-04T13:24:48.000Z</time>
      </trkpt>
      <trkpt lat="46.1507" lon="6.76646">
        <ele>1423.8000488281</ele>
        <time>2026-07-04T13:24:55.000Z</time>
      </trkpt>
      <trkpt lat="46.1507" lon="6.76645">
        <ele>1423.8000488281</ele>
        <time>2026-07-04T13:24:56.000Z</time>
      </trkpt>
      <trkpt lat="46.15068" lon="6.76633">
        <ele>1422.8000488281</ele>
        <time>2026-07-04T13:25:02.000Z</time>
      </trkpt>
      <trkpt lat="46.15067" lon="6.76622">
        <ele>1421.5999755859</ele>
        <time>2026-07-04T13:25:08.000Z</time>
      </trkpt>
      <trkpt lat="46.15068" lon="6.76618">
        <ele>1421.1999511719</ele>
        <time>2026-07-04T13:25:11.000Z</time>
      </trkpt>
      <trkpt lat="46.15066" lon="6.7661">
        <ele>1420.4000244141</ele>
        <time>2026-07-04T13:25:15.000Z</time>
      </trkpt>
      <trkpt lat="46.15064" lon="6.76605">
        <ele>1419.4000244141</ele>
        <time>2026-07-04T13:25:19.000Z</time>
      </trkpt>
      <trkpt lat="46.15064" lon="6.76604">
        <ele>1419</ele>
        <time>2026-07-04T13:25:20.000Z</time>
      </trkpt>
      <trkpt lat="46.15063" lon="6.76602">
        <ele>1418.4000244141</ele>
        <time>2026-07-04T13:25:23.000Z</time>
      </trkpt>
      <trkpt lat="46.15064" lon="6.76599">
        <ele>1418</ele>
        <time>2026-07-04T13:25:24.000Z</time>
      </trkpt>
      <trkpt lat="46.15065" lon="6.76593">
        <ele>1417.1999511719</ele>
        <time>2026-07-04T13:25:27.000Z</time>
      </trkpt>
      <trkpt lat="46.15062" lon="6.76587">
        <ele>1416</ele>
        <time>2026-07-04T13:25:35.000Z</time>
      </trkpt>
      <trkpt lat="46.15058" lon="6.76583">
        <ele>1415</ele>
        <time>2026-07-04T13:25:38.000Z</time>
      </trkpt>
      <trkpt lat="46.15055" lon="6.76578">
        <ele>1413.8000488281</ele>
        <time>2026-07-04T13:25:42.000Z</time>
      </trkpt>
      <trkpt lat="46.15054" lon="6.76576">
        <ele>1413.1999511719</ele>
        <time>2026-07-04T13:25:44.000Z</time>
      </trkpt>
      <trkpt lat="46.15052" lon="6.76571">
        <ele>1412.5999755859</ele>
        <time>2026-07-04T13:25:48.000Z</time>
      </trkpt>
      <trkpt lat="46.1505" lon="6.76567">
        <ele>1411.4000244141</ele>
        <time>2026-07-04T13:25:51.000Z</time>
      </trkpt>
      <trkpt lat="46.15049" lon="6.76566">
        <ele>1411.1999511719</ele>
        <time>2026-07-04T13:25:52.000Z</time>
      </trkpt>
      <trkpt lat="46.15047" lon="6.76562">
        <ele>1410.1999511719</ele>
        <time>2026-07-04T13:25:55.000Z</time>
      </trkpt>
      <trkpt lat="46.15044" lon="6.76555">
        <ele>1409.1999511719</ele>
        <time>2026-07-04T13:26:00.000Z</time>
      </trkpt>
      <trkpt lat="46.15042" lon="6.76548">
        <ele>1407.8000488281</ele>
        <time>2026-07-04T13:26:05.000Z</time>
      </trkpt>
      <trkpt lat="46.1504" lon="6.76542">
        <ele>1406.8000488281</ele>
        <time>2026-07-04T13:26:09.000Z</time>
      </trkpt>
      <trkpt lat="46.15038" lon="6.76542">
        <ele>1406.4000244141</ele>
        <time>2026-07-04T13:26:14.000Z</time>
      </trkpt>
      <trkpt lat="46.15038" lon="6.76543">
        <ele>1406.4000244141</ele>
        <time>2026-07-04T13:26:15.000Z</time>
      </trkpt>
      <trkpt lat="46.15031" lon="6.76545">
        <ele>1405.5999755859</ele>
        <time>2026-07-04T13:26:23.000Z</time>
      </trkpt>
      <trkpt lat="46.1503" lon="6.76545">
        <ele>1405.5999755859</ele>
        <time>2026-07-04T13:26:30.000Z</time>
      </trkpt>
      <trkpt lat="46.15031" lon="6.76545">
        <ele>1405.4000244141</ele>
        <time>2026-07-04T13:26:44.000Z</time>
      </trkpt>
      <trkpt lat="46.15032" lon="6.76546">
        <ele>1404.8000488281</ele>
        <time>2026-07-04T13:26:51.000Z</time>
      </trkpt>
      <trkpt lat="46.15032" lon="6.76546">
        <ele>1404.8000488281</ele>
        <time>2026-07-04T13:26:53.000Z</time>
      </trkpt>
      <trkpt lat="46.15031" lon="6.76544">
        <ele>1405.1999511719</ele>
        <time>2026-07-04T13:27:06.000Z</time>
      </trkpt>
      <trkpt lat="46.15035" lon="6.76537">
        <ele>1405.1999511719</ele>
        <time>2026-07-04T13:27:12.000Z</time>
      </trkpt>
      <trkpt lat="46.15034" lon="6.76533">
        <ele>1405.1999511719</ele>
        <time>2026-07-04T13:27:20.000Z</time>
      </trkpt>
      <trkpt lat="46.15032" lon="6.76531">
        <ele>1404.8000488281</ele>
        <time>2026-07-04T13:27:32.000Z</time>
      </trkpt>
      <trkpt lat="46.15032" lon="6.7653">
        <ele>1404.5999755859</ele>
        <time>2026-07-04T13:27:34.000Z</time>
      </trkpt>
      <trkpt lat="46.15028" lon="6.76523">
        <ele>1404.1999511719</ele>
        <time>2026-07-04T13:27:39.000Z</time>
      </trkpt>
      <trkpt lat="46.15028" lon="6.7652">
        <ele>1403.8000488281</ele>
        <time>2026-07-04T13:27:42.000Z</time>
      </trkpt>
      <trkpt lat="46.15028" lon="6.7652">
        <ele>1403.8000488281</ele>
        <time>2026-07-04T13:27:43.000Z</time>
      </trkpt>
      <trkpt lat="46.15027" lon="6.76519">
        <ele>1403.5999755859</ele>
        <time>2026-07-04T13:27:44.000Z</time>
      </trkpt>
      <trkpt lat="46.15028" lon="6.76519">
        <ele>1403.5999755859</ele>
        <time>2026-07-04T13:27:46.000Z</time>
      </trkpt>
      <trkpt lat="46.15028" lon="6.76517">
        <ele>1403.5999755859</ele>
        <time>2026-07-04T13:27:47.000Z</time>
      </trkpt>
      <trkpt lat="46.15028" lon="6.76516">
        <ele>1403.5999755859</ele>
        <time>2026-07-04T13:27:49.000Z</time>
      </trkpt>
      <trkpt lat="46.1503" lon="6.76517">
        <ele>1403.5999755859</ele>
        <time>2026-07-04T13:27:52.000Z</time>
      </trkpt>
      <trkpt lat="46.15031" lon="6.76517">
        <ele>1403.8000488281</ele>
        <time>2026-07-04T13:27:54.000Z</time>
      </trkpt>
      <trkpt lat="46.15031" lon="6.76517">
        <ele>1403.8000488281</ele>
        <time>2026-07-04T13:27:55.000Z</time>
      </trkpt>
      <trkpt lat="46.15032" lon="6.76516">
        <ele>1403.8000488281</ele>
        <time>2026-07-04T13:27:56.000Z</time>
      </trkpt>
      <trkpt lat="46.15032" lon="6.76516">
        <ele>1403.8000488281</ele>
        <time>2026-07-04T13:27:57.000Z</time>
      </trkpt>
      <trkpt lat="46.15031" lon="6.76517">
        <ele>1403.5999755859</ele>
        <time>2026-07-04T13:28:04.000Z</time>
      </trkpt>
      <trkpt lat="46.15031" lon="6.76517">
        <ele>1403.8000488281</ele>
        <time>2026-07-04T13:28:05.000Z</time>
      </trkpt>
      <trkpt lat="46.15032" lon="6.76518">
        <ele>1403.5999755859</ele>
        <time>2026-07-04T13:28:09.000Z</time>
      </trkpt>
      <trkpt lat="46.15032" lon="6.76518">
        <ele>1403.5999755859</ele>
        <time>2026-07-04T13:28:11.000Z</time>
      </trkpt>
      <trkpt lat="46.15031" lon="6.76517">
        <ele>1403.5999755859</ele>
        <time>2026-07-04T13:28:13.000Z</time>
      </trkpt>
      <trkpt lat="46.1503" lon="6.76516">
        <ele>1403.5999755859</ele>
        <time>2026-07-04T13:28:14.000Z</time>
      </trkpt>
      <trkpt lat="46.1503" lon="6.76514">
        <ele>1403.5999755859</ele>
        <time>2026-07-04T13:28:15.000Z</time>
      </trkpt>
      <trkpt lat="46.1503" lon="6.76513">
        <ele>1403.4000244141</ele>
        <time>2026-07-04T13:28:16.000Z</time>
      </trkpt>
      <trkpt lat="46.15028" lon="6.76498">
        <ele>1403</ele>
        <time>2026-07-04T13:28:24.000Z</time>
      </trkpt>
      <trkpt lat="46.15026" lon="6.76493">
        <ele>1403.1999511719</ele>
        <time>2026-07-04T13:28:28.000Z</time>
      </trkpt>
      <trkpt lat="46.15026" lon="6.76495">
        <ele>1403.1999511719</ele>
        <time>2026-07-04T13:28:32.000Z</time>
      </trkpt>
      <trkpt lat="46.15025" lon="6.76495">
        <ele>1403.4000244141</ele>
        <time>2026-07-04T13:28:45.000Z</time>
      </trkpt>
      <trkpt lat="46.15022" lon="6.76499">
        <ele>1403.4000244141</ele>
        <time>2026-07-04T13:28:53.000Z</time>
      </trkpt>
      <trkpt lat="46.15026" lon="6.76495">
        <ele>1403.4000244141</ele>
        <time>2026-07-04T13:29:08.000Z</time>
      </trkpt>
      <trkpt lat="46.15024" lon="6.76496">
        <ele>1403.1999511719</ele>
        <time>2026-07-04T13:29:19.000Z</time>
      </trkpt>
      <trkpt lat="46.15023" lon="6.76494">
        <ele>1403.4000244141</ele>
        <time>2026-07-04T13:29:30.000Z</time>
      </trkpt>
      <trkpt lat="46.15023" lon="6.76494">
        <ele>1403.4000244141</ele>
        <time>2026-07-04T13:29:34.000Z</time>
      </trkpt>
      <trkpt lat="46.15019" lon="6.76493">
        <ele>1403.5999755859</ele>
        <time>2026-07-04T13:29:39.000Z</time>
      </trkpt>
      <trkpt lat="46.1501" lon="6.76493">
        <ele>1403</ele>
        <time>2026-07-04T13:29:45.000Z</time>
      </trkpt>
      <trkpt lat="46.15007" lon="6.76493">
        <ele>1402.4000244141</ele>
        <time>2026-07-04T13:29:48.000Z</time>
      </trkpt>
      <trkpt lat="46.15003" lon="6.76488">
        <ele>1401.5999755859</ele>
        <time>2026-07-04T13:29:53.000Z</time>
      </trkpt>
      <trkpt lat="46.15002" lon="6.76487">
        <ele>1401.4000244141</ele>
        <time>2026-07-04T13:29:54.000Z</time>
      </trkpt>
      <trkpt lat="46.14999" lon="6.76476">
        <ele>1400.8000488281</ele>
        <time>2026-07-04T13:30:02.000Z</time>
      </trkpt>
      <trkpt lat="46.14995" lon="6.76464">
        <ele>1401</ele>
        <time>2026-07-04T13:30:11.000Z</time>
      </trkpt>
      <trkpt lat="46.14994" lon="6.76463">
        <ele>1401</ele>
        <time>2026-07-04T13:30:12.000Z</time>
      </trkpt>
      <trkpt lat="46.14991" lon="6.76464">
        <ele>1400.8000488281</ele>
        <time>2026-07-04T13:30:16.000Z</time>
      </trkpt>
      <trkpt lat="46.1499" lon="6.76466">
        <ele>1400.8000488281</ele>
        <time>2026-07-04T13:30:20.000Z</time>
      </trkpt>
      <trkpt lat="46.1499" lon="6.76465">
        <ele>1400.8000488281</ele>
        <time>2026-07-04T13:30:22.000Z</time>
      </trkpt>
      <trkpt lat="46.14991" lon="6.76459">
        <ele>1400.4000244141</ele>
        <time>2026-07-04T13:30:26.000Z</time>
      </trkpt>
      <trkpt lat="46.14991" lon="6.76459">
        <ele>1400.4000244141</ele>
        <time>2026-07-04T13:30:27.000Z</time>
      </trkpt>
      <trkpt lat="46.14991" lon="6.76458">
        <ele>1400.1999511719</ele>
        <time>2026-07-04T13:30:34.000Z</time>
      </trkpt>
      <trkpt lat="46.14991" lon="6.76456">
        <ele>1400.1999511719</ele>
        <time>2026-07-04T13:30:45.000Z</time>
      </trkpt>
      <trkpt lat="46.1499" lon="6.76457">
        <ele>1400.1999511719</ele>
        <time>2026-07-04T13:30:50.000Z</time>
      </trkpt>
      <trkpt lat="46.1499" lon="6.76457">
        <ele>1400</ele>
        <time>2026-07-04T13:30:56.000Z</time>
      </trkpt>
      <trkpt lat="46.1499" lon="6.76456">
        <ele>1400</ele>
        <time>2026-07-04T13:31:01.000Z</time>
      </trkpt>
      <trkpt lat="46.1499" lon="6.76459">
        <ele>1400</ele>
        <time>2026-07-04T13:31:10.000Z</time>
      </trkpt>
      <trkpt lat="46.14991" lon="6.7646">
        <ele>1400</ele>
        <time>2026-07-04T13:31:21.000Z</time>
      </trkpt>
      <trkpt lat="46.14991" lon="6.76458">
        <ele>1399.8000488281</ele>
        <time>2026-07-04T13:31:34.000Z</time>
      </trkpt>
      <trkpt lat="46.14988" lon="6.76452">
        <ele>1400</ele>
        <time>2026-07-04T13:31:43.000Z</time>
      </trkpt>
      <trkpt lat="46.14986" lon="6.76451">
        <ele>1400</ele>
        <time>2026-07-04T13:31:51.000Z</time>
      </trkpt>
      <trkpt lat="46.14985" lon="6.76453">
        <ele>1400</ele>
        <time>2026-07-04T13:31:56.000Z</time>
      </trkpt>
      <trkpt lat="46.14984" lon="6.76454">
        <ele>1400</ele>
        <time>2026-07-04T13:31:59.000Z</time>
      </trkpt>
      <trkpt lat="46.14984" lon="6.76454">
        <ele>1399.8000488281</ele>
        <time>2026-07-04T13:32:13.000Z</time>
      </trkpt>
      <trkpt lat="46.14982" lon="6.76458">
        <ele>1399.8000488281</ele>
        <time>2026-07-04T13:32:22.000Z</time>
      </trkpt>
      <trkpt lat="46.14982" lon="6.76458">
        <ele>1399.8000488281</ele>
        <time>2026-07-04T13:32:23.000Z</time>
      </trkpt>
      <trkpt lat="46.14983" lon="6.76458">
        <ele>1399.5999755859</ele>
        <time>2026-07-04T13:32:30.000Z</time>
      </trkpt>
      <trkpt lat="46.14983" lon="6.76458">
        <ele>1399.5999755859</ele>
        <time>2026-07-04T13:32:31.000Z</time>
      </trkpt>
      <trkpt lat="46.14983" lon="6.76459">
        <ele>1399.5999755859</ele>
        <time>2026-07-04T13:32:33.000Z</time>
      </trkpt>
      <trkpt lat="46.14984" lon="6.76458">
        <ele>1399.8000488281</ele>
        <time>2026-07-04T13:32:37.000Z</time>
      </trkpt>
      <trkpt lat="46.14984" lon="6.76458">
        <ele>1399.8000488281</ele>
        <time>2026-07-04T13:32:42.000Z</time>
      </trkpt>
      <trkpt lat="46.14983" lon="6.76458">
        <ele>1399.8000488281</ele>
        <time>2026-07-04T13:32:51.000Z</time>
      </trkpt>
      <trkpt lat="46.14984" lon="6.76458">
        <ele>1399.5999755859</ele>
        <time>2026-07-04T13:33:00.000Z</time>
      </trkpt>
      <trkpt lat="46.14983" lon="6.76459">
        <ele>1399.1999511719</ele>
        <time>2026-07-04T13:33:03.000Z</time>
      </trkpt>
      <trkpt lat="46.14983" lon="6.7646">
        <ele>1399.4000244141</ele>
        <time>2026-07-04T13:33:11.000Z</time>
      </trkpt>
      <trkpt lat="46.14983" lon="6.76458">
        <ele>1399.4000244141</ele>
        <time>2026-07-04T13:33:19.000Z</time>
      </trkpt>
      <trkpt lat="46.14983" lon="6.76457">
        <ele>1399.5999755859</ele>
        <time>2026-07-04T13:33:22.000Z</time>
      </trkpt>
      <trkpt lat="46.14984" lon="6.76457">
        <ele>1399.5999755859</ele>
        <time>2026-07-04T13:33:23.000Z</time>
      </trkpt>
      <trkpt lat="46.14985" lon="6.76456">
        <ele>1399.5999755859</ele>
        <time>2026-07-04T13:33:32.000Z</time>
      </trkpt>
      <trkpt lat="46.14985" lon="6.76455">
        <ele>1399.5999755859</ele>
        <time>2026-07-04T13:33:33.000Z</time>
      </trkpt>
      <trkpt lat="46.14985" lon="6.76459">
        <ele>1399.5999755859</ele>
        <time>2026-07-04T13:33:50.000Z</time>
      </trkpt>
      <trkpt lat="46.14984" lon="6.76458">
        <ele>1399.4000244141</ele>
        <time>2026-07-04T13:33:59.000Z</time>
      </trkpt>
      <trkpt lat="46.14984" lon="6.76458">
        <ele>1399.5999755859</ele>
        <time>2026-07-04T13:34:09.000Z</time>
      </trkpt>
      <trkpt lat="46.14984" lon="6.76458">
        <ele>1399.4000244141</ele>
        <time>2026-07-04T13:34:11.000Z</time>
      </trkpt>
      <trkpt lat="46.14985" lon="6.76459">
        <ele>1399.4000244141</ele>
        <time>2026-07-04T13:34:18.000Z</time>
      </trkpt>
      <trkpt lat="46.14985" lon="6.76458">
        <ele>1399.4000244141</ele>
        <time>2026-07-04T13:34:23.000Z</time>
      </trkpt>
      <trkpt lat="46.14986" lon="6.76458">
        <ele>1399.4000244141</ele>
        <time>2026-07-04T13:34:24.000Z</time>
      </trkpt>
      <trkpt lat="46.14987" lon="6.76458">
        <ele>1399.4000244141</ele>
        <time>2026-07-04T13:34:36.000Z</time>
      </trkpt>
      <trkpt lat="46.14985" lon="6.76459">
        <ele>1399.4000244141</ele>
        <time>2026-07-04T13:34:49.000Z</time>
      </trkpt>
      <trkpt lat="46.14985" lon="6.76458">
        <ele>1399.4000244141</ele>
        <time>2026-07-04T13:34:55.000Z</time>
      </trkpt>
      <trkpt lat="46.14985" lon="6.76457">
        <ele>1399.5999755859</ele>
        <time>2026-07-04T13:35:01.000Z</time>
      </trkpt>
      <trkpt lat="46.14983" lon="6.76458">
        <ele>1399.8000488281</ele>
        <time>2026-07-04T13:35:16.000Z</time>
      </trkpt>
      <trkpt lat="46.14983" lon="6.76458">
        <ele>1400</ele>
        <time>2026-07-04T13:35:25.000Z</time>
      </trkpt>
      <trkpt lat="46.14984" lon="6.76457">
        <ele>1400.1999511719</ele>
        <time>2026-07-04T13:35:32.000Z</time>
      </trkpt>
      <trkpt lat="46.14984" lon="6.76456">
        <ele>1400.4000244141</ele>
        <time>2026-07-04T13:35:38.000Z</time>
      </trkpt>
      <trkpt lat="46.14983" lon="6.76458">
        <ele>1400.1999511719</ele>
        <time>2026-07-04T13:35:52.000Z</time>
      </trkpt>
      <trkpt lat="46.14985" lon="6.76457">
        <ele>1400.1999511719</ele>
        <time>2026-07-04T13:36:02.000Z</time>
      </trkpt>
      <trkpt lat="46.14983" lon="6.76457">
        <ele>1400.1999511719</ele>
        <time>2026-07-04T13:36:14.000Z</time>
      </trkpt>
      <trkpt lat="46.14984" lon="6.76457">
        <ele>1400.1999511719</ele>
        <time>2026-07-04T13:36:23.000Z</time>
      </trkpt>
      <trkpt lat="46.14984" lon="6.76457">
        <ele>1400.1999511719</ele>
        <time>2026-07-04T13:36:37.000Z</time>
      </trkpt>
      <trkpt lat="46.14984" lon="6.76458">
        <ele>1400</ele>
        <time>2026-07-04T13:36:43.000Z</time>
      </trkpt>
      <trkpt lat="46.14985" lon="6.76457">
        <ele>1400.1999511719</ele>
        <time>2026-07-04T13:36:55.000Z</time>
      </trkpt>
      <trkpt lat="46.14984" lon="6.76455">
        <ele>1400.5999755859</ele>
        <time>2026-07-04T13:37:05.000Z</time>
      </trkpt>
      <trkpt lat="46.14984" lon="6.76455">
        <ele>1400.5999755859</ele>
        <time>2026-07-04T13:37:13.000Z</time>
      </trkpt>
      <trkpt lat="46.14984" lon="6.76456">
        <ele>1400.4000244141</ele>
        <time>2026-07-04T13:37:17.000Z</time>
      </trkpt>
      <trkpt lat="46.14984" lon="6.76457">
        <ele>1400.5999755859</ele>
        <time>2026-07-04T13:37:26.000Z</time>
      </trkpt>
      <trkpt lat="46.14984" lon="6.76457">
        <ele>1400.8000488281</ele>
        <time>2026-07-04T13:37:41.000Z</time>
      </trkpt>
      <trkpt lat="46.14984" lon="6.76458">
        <ele>1400.8000488281</ele>
        <time>2026-07-04T13:37:56.000Z</time>
      </trkpt>
      <trkpt lat="46.14984" lon="6.7646">
        <ele>1400.8000488281</ele>
        <time>2026-07-04T13:38:10.000Z</time>
      </trkpt>
      <trkpt lat="46.14985" lon="6.76459">
        <ele>1400.5999755859</ele>
        <time>2026-07-04T13:38:21.000Z</time>
      </trkpt>
      <trkpt lat="46.14984" lon="6.76457">
        <ele>1400.8000488281</ele>
        <time>2026-07-04T13:38:30.000Z</time>
      </trkpt>
      <trkpt lat="46.14984" lon="6.76457">
        <ele>1400.8000488281</ele>
        <time>2026-07-04T13:38:33.000Z</time>
      </trkpt>
      <trkpt lat="46.14984" lon="6.76457">
        <ele>1400.5999755859</ele>
        <time>2026-07-04T13:38:38.000Z</time>
      </trkpt>
      <trkpt lat="46.14984" lon="6.76457">
        <ele>1400.5999755859</ele>
        <time>2026-07-04T13:38:39.000Z</time>
      </trkpt>
      <trkpt lat="46.14984" lon="6.76457">
        <ele>1400.5999755859</ele>
        <time>2026-07-04T13:38:40.000Z</time>
      </trkpt>
      <trkpt lat="46.14984" lon="6.76457">
        <ele>1401</ele>
        <time>2026-07-04T13:38:54.000Z</time>
      </trkpt>
      <trkpt lat="46.14984" lon="6.76459">
        <ele>1401</ele>
        <time>2026-07-04T13:39:10.000Z</time>
      </trkpt>
      <trkpt lat="46.14984" lon="6.76458">
        <ele>1401</ele>
        <time>2026-07-04T13:39:20.000Z</time>
      </trkpt>
      <trkpt lat="46.14984" lon="6.76459">
        <ele>1401</ele>
        <time>2026-07-04T13:39:28.000Z</time>
      </trkpt>
      <trkpt lat="46.14981" lon="6.7646">
        <ele>1401</ele>
        <time>2026-07-04T13:39:40.000Z</time>
      </trkpt>
      <trkpt lat="46.14981" lon="6.7646">
        <ele>1401</ele>
        <time>2026-07-04T13:39:41.000Z</time>
      </trkpt>
      <trkpt lat="46.14982" lon="6.7646">
        <ele>1401</ele>
        <time>2026-07-04T13:39:54.000Z</time>
      </trkpt>
      <trkpt lat="46.14984" lon="6.76458">
        <ele>1400.8000488281</ele>
        <time>2026-07-04T13:40:06.000Z</time>
      </trkpt>
      <trkpt lat="46.14983" lon="6.76457">
        <ele>1400.8000488281</ele>
        <time>2026-07-04T13:40:18.000Z</time>
      </trkpt>
      <trkpt lat="46.14983" lon="6.76458">
        <ele>1401</ele>
        <time>2026-07-04T13:40:21.000Z</time>
      </trkpt>
      <trkpt lat="46.14984" lon="6.7646">
        <ele>1401</ele>
        <time>2026-07-04T13:40:33.000Z</time>
      </trkpt>
      <trkpt lat="46.14985" lon="6.76459">
        <ele>1401</ele>
        <time>2026-07-04T13:40:44.000Z</time>
      </trkpt>
      <trkpt lat="46.14983" lon="6.76458">
        <ele>1401.1999511719</ele>
        <time>2026-07-04T13:40:58.000Z</time>
      </trkpt>
      <trkpt lat="46.14983" lon="6.76459">
        <ele>1401.1999511719</ele>
        <time>2026-07-04T13:41:11.000Z</time>
      </trkpt>
      <trkpt lat="46.14984" lon="6.76455">
        <ele>1401.1999511719</ele>
        <time>2026-07-04T13:41:24.000Z</time>
      </trkpt>
      <trkpt lat="46.14984" lon="6.76458">
        <ele>1401.4000244141</ele>
        <time>2026-07-04T13:41:34.000Z</time>
      </trkpt>
      <trkpt lat="46.14983" lon="6.76458">
        <ele>1401.4000244141</ele>
        <time>2026-07-04T13:41:37.000Z</time>
      </trkpt>
      <trkpt lat="46.14983" lon="6.76457">
        <ele>1401.1999511719</ele>
        <time>2026-07-04T13:41:49.000Z</time>
      </trkpt>
      <trkpt lat="46.14983" lon="6.76458">
        <ele>1401.4000244141</ele>
        <time>2026-07-04T13:42:00.000Z</time>
      </trkpt>
      <trkpt lat="46.14982" lon="6.76458">
        <ele>1401.1999511719</ele>
        <time>2026-07-04T13:42:12.000Z</time>
      </trkpt>
      <trkpt lat="46.14982" lon="6.76457">
        <ele>1401.1999511719</ele>
        <time>2026-07-04T13:42:26.000Z</time>
      </trkpt>
      <trkpt lat="46.14982" lon="6.76457">
        <ele>1401.4000244141</ele>
        <time>2026-07-04T13:42:40.000Z</time>
      </trkpt>
      <trkpt lat="46.14983" lon="6.76458">
        <ele>1401.1999511719</ele>
        <time>2026-07-04T13:42:54.000Z</time>
      </trkpt>
      <trkpt lat="46.14984" lon="6.76457">
        <ele>1401.1999511719</ele>
        <time>2026-07-04T13:43:10.000Z</time>
      </trkpt>
      <trkpt lat="46.14984" lon="6.76458">
        <ele>1401.1999511719</ele>
        <time>2026-07-04T13:43:24.000Z</time>
      </trkpt>
      <trkpt lat="46.14983" lon="6.76456">
        <ele>1401.1999511719</ele>
        <time>2026-07-04T13:43:32.000Z</time>
      </trkpt>
      <trkpt lat="46.14983" lon="6.76457">
        <ele>1401.4000244141</ele>
        <time>2026-07-04T13:43:39.000Z</time>
      </trkpt>
      <trkpt lat="46.14984" lon="6.76457">
        <ele>1401.1999511719</ele>
        <time>2026-07-04T13:43:52.000Z</time>
      </trkpt>
      <trkpt lat="46.14984" lon="6.76457">
        <ele>1401.4000244141</ele>
        <time>2026-07-04T13:44:15.000Z</time>
      </trkpt>
      <trkpt lat="46.14985" lon="6.76457">
        <ele>1401.4000244141</ele>
        <time>2026-07-04T13:44:25.000Z</time>
      </trkpt>
      <trkpt lat="46.14985" lon="6.76458">
        <ele>1401.5999755859</ele>
        <time>2026-07-04T13:44:50.000Z</time>
      </trkpt>
      <trkpt lat="46.14985" lon="6.76458">
        <ele>1401.5999755859</ele>
        <time>2026-07-04T13:45:16.000Z</time>
      </trkpt>
      <trkpt lat="46.14985" lon="6.76458">
        <ele>1401.8000488281</ele>
        <time>2026-07-04T13:45:39.000Z</time>
      </trkpt>
      <trkpt lat="46.14985" lon="6.76457">
        <ele>1402</ele>
        <time>2026-07-04T13:46:07.000Z</time>
      </trkpt>
      <trkpt lat="46.14984" lon="6.76454">
        <ele>1402</ele>
        <time>2026-07-04T13:46:30.000Z</time>
      </trkpt>
      <trkpt lat="46.14984" lon="6.76456">
        <ele>1402.1999511719</ele>
        <time>2026-07-04T13:46:45.000Z</time>
      </trkpt>
      <trkpt lat="46.14983" lon="6.76454">
        <ele>1402.1999511719</ele>
        <time>2026-07-04T13:46:56.000Z</time>
      </trkpt>
      <trkpt lat="46.14983" lon="6.76454">
        <ele>1402.1999511719</ele>
        <time>2026-07-04T13:46:57.000Z</time>
      </trkpt>
      <trkpt lat="46.14983" lon="6.76454">
        <ele>1402</ele>
        <time>2026-07-04T13:47:01.000Z</time>
      </trkpt>
      <trkpt lat="46.14982" lon="6.76455">
        <ele>1402</ele>
        <time>2026-07-04T13:47:10.000Z</time>
      </trkpt>
      <trkpt lat="46.14982" lon="6.76455">
        <ele>1402</ele>
        <time>2026-07-04T13:47:20.000Z</time>
      </trkpt>
      <trkpt lat="46.14982" lon="6.76457">
        <ele>1402</ele>
        <time>2026-07-04T13:47:25.000Z</time>
      </trkpt>
      <trkpt lat="46.14982" lon="6.76456">
        <ele>1401.8000488281</ele>
        <time>2026-07-04T13:47:36.000Z</time>
      </trkpt>
      <trkpt lat="46.14982" lon="6.76456">
        <ele>1402</ele>
        <time>2026-07-04T13:47:38.000Z</time>
      </trkpt>
      <trkpt lat="46.14982" lon="6.76456">
        <ele>1402</ele>
        <time>2026-07-04T13:47:40.000Z</time>
      </trkpt>
      <trkpt lat="46.14982" lon="6.76456">
        <ele>1402</ele>
        <time>2026-07-04T13:47:43.000Z</time>
      </trkpt>
      <trkpt lat="46.14982" lon="6.76457">
        <ele>1402</ele>
        <time>2026-07-04T13:47:46.000Z</time>
      </trkpt>
      <trkpt lat="46.14983" lon="6.76456">
        <ele>1402</ele>
        <time>2026-07-04T13:47:53.000Z</time>
      </trkpt>
      <trkpt lat="46.14983" lon="6.76455">
        <ele>1402</ele>
        <time>2026-07-04T13:48:08.000Z</time>
      </trkpt>
      <trkpt lat="46.14983" lon="6.76456">
        <ele>1402</ele>
        <time>2026-07-04T13:48:24.000Z</time>
      </trkpt>
      <trkpt lat="46.14982" lon="6.76455">
        <ele>1402</ele>
        <time>2026-07-04T13:48:36.000Z</time>
      </trkpt>
      <trkpt lat="46.14984" lon="6.76455">
        <ele>1402</ele>
        <time>2026-07-04T13:48:43.000Z</time>
      </trkpt>
      <trkpt lat="46.14984" lon="6.76455">
        <ele>1402</ele>
        <time>2026-07-04T13:48:47.000Z</time>
      </trkpt>
      <trkpt lat="46.14984" lon="6.76455">
        <ele>1402</ele>
        <time>2026-07-04T13:48:51.000Z</time>
      </trkpt>
      <trkpt lat="46.14985" lon="6.76458">
        <ele>1402</ele>
        <time>2026-07-04T13:49:03.000Z</time>
      </trkpt>
      <trkpt lat="46.14984" lon="6.76458">
        <ele>1402</ele>
        <time>2026-07-04T13:49:05.000Z</time>
      </trkpt>
      <trkpt lat="46.14984" lon="6.76458">
        <ele>1402</ele>
        <time>2026-07-04T13:49:07.000Z</time>
      </trkpt>
      <trkpt lat="46.14985" lon="6.76457">
        <ele>1402</ele>
        <time>2026-07-04T13:49:18.000Z</time>
      </trkpt>
      <trkpt lat="46.14984" lon="6.7646">
        <ele>1402</ele>
        <time>2026-07-04T13:49:30.000Z</time>
      </trkpt>
      <trkpt lat="46.14984" lon="6.7646">
        <ele>1402.4000244141</ele>
        <time>2026-07-04T13:49:38.000Z</time>
      </trkpt>
      <trkpt lat="46.14984" lon="6.7646">
        <ele>1402.4000244141</ele>
        <time>2026-07-04T13:49:42.000Z</time>
      </trkpt>
      <trkpt lat="46.14984" lon="6.76457">
        <ele>1402.4000244141</ele>
        <time>2026-07-04T13:49:50.000Z</time>
      </trkpt>
      <trkpt lat="46.14984" lon="6.76457">
        <ele>1402.4000244141</ele>
        <time>2026-07-04T13:49:53.000Z</time>
      </trkpt>
      <trkpt lat="46.14984" lon="6.76457">
        <ele>1402.4000244141</ele>
        <time>2026-07-04T13:49:55.000Z</time>
      </trkpt>
      <trkpt lat="46.14984" lon="6.76457">
        <ele>1402.1999511719</ele>
        <time>2026-07-04T13:49:59.000Z</time>
      </trkpt>
      <trkpt lat="46.14983" lon="6.76457">
        <ele>1402.1999511719</ele>
        <time>2026-07-04T13:50:04.000Z</time>
      </trkpt>
      <trkpt lat="46.14982" lon="6.76455">
        <ele>1402.4000244141</ele>
        <time>2026-07-04T13:50:14.000Z</time>
      </trkpt>
      <trkpt lat="46.14985" lon="6.76449">
        <ele>1402.4000244141</ele>
        <time>2026-07-04T13:50:21.000Z</time>
      </trkpt>
      <trkpt lat="46.14989" lon="6.7645">
        <ele>1402.8000488281</ele>
        <time>2026-07-04T13:50:27.000Z</time>
      </trkpt>
      <trkpt lat="46.14991" lon="6.76448">
        <ele>1402.4000244141</ele>
        <time>2026-07-04T13:50:33.000Z</time>
      </trkpt>
      <trkpt lat="46.14991" lon="6.76447">
        <ele>1402.4000244141</ele>
        <time>2026-07-04T13:50:34.000Z</time>
      </trkpt>
      <trkpt lat="46.14991" lon="6.76445">
        <ele>1402.4000244141</ele>
        <time>2026-07-04T13:50:36.000Z</time>
      </trkpt>
      <trkpt lat="46.14985" lon="6.76455">
        <ele>1402.4000244141</ele>
        <time>2026-07-04T13:51:15.000Z</time>
      </trkpt>
      <trkpt lat="46.14983" lon="6.76452">
        <ele>1402.4000244141</ele>
        <time>2026-07-04T13:51:21.000Z</time>
      </trkpt>
      <trkpt lat="46.1498" lon="6.76456">
        <ele>1402.4000244141</ele>
        <time>2026-07-04T13:51:27.000Z</time>
      </trkpt>
      <trkpt lat="46.14981" lon="6.76459">
        <ele>1402.1999511719</ele>
        <time>2026-07-04T13:51:32.000Z</time>
      </trkpt>
      <trkpt lat="46.14981" lon="6.76459">
        <ele>1402.1999511719</ele>
        <time>2026-07-04T13:51:34.000Z</time>
      </trkpt>
      <trkpt lat="46.14982" lon="6.76458">
        <ele>1402.1999511719</ele>
        <time>2026-07-04T13:51:37.000Z</time>
      </trkpt>
      <trkpt lat="46.14983" lon="6.76458">
        <ele>1402</ele>
        <time>2026-07-04T13:51:42.000Z</time>
      </trkpt>
      <trkpt lat="46.14983" lon="6.76457">
        <ele>1402.1999511719</ele>
        <time>2026-07-04T13:51:49.000Z</time>
      </trkpt>
      <trkpt lat="46.14983" lon="6.76459">
        <ele>1402</ele>
        <time>2026-07-04T13:51:56.000Z</time>
      </trkpt>
      <trkpt lat="46.14983" lon="6.76459">
        <ele>1402.1999511719</ele>
        <time>2026-07-04T13:52:02.000Z</time>
      </trkpt>
      <trkpt lat="46.14982" lon="6.76458">
        <ele>1402.1999511719</ele>
        <time>2026-07-04T13:52:12.000Z</time>
      </trkpt>
      <trkpt lat="46.14983" lon="6.76457">
        <ele>1402.1999511719</ele>
        <time>2026-07-04T13:52:22.000Z</time>
      </trkpt>
      <trkpt lat="46.14984" lon="6.76456">
        <ele>1402</ele>
        <time>2026-07-04T13:52:35.000Z</time>
      </trkpt>
      <trkpt lat="46.14984" lon="6.76457">
        <ele>1402</ele>
        <time>2026-07-04T13:52:41.000Z</time>
      </trkpt>
      <trkpt lat="46.14984" lon="6.76459">
        <ele>1402.1999511719</ele>
        <time>2026-07-04T13:52:46.000Z</time>
      </trkpt>
      <trkpt lat="46.14986" lon="6.76465">
        <ele>1402</ele>
        <time>2026-07-04T13:52:55.000Z</time>
      </trkpt>
      <trkpt lat="46.14988" lon="6.76466">
        <ele>1402</ele>
        <time>2026-07-04T13:52:58.000Z</time>
      </trkpt>
      <trkpt lat="46.14989" lon="6.76467">
        <ele>1402.1999511719</ele>
        <time>2026-07-04T13:52:59.000Z</time>
      </trkpt>
      <trkpt lat="46.14991" lon="6.76466">
        <ele>1402.5999755859</ele>
        <time>2026-07-04T13:53:02.000Z</time>
      </trkpt>
      <trkpt lat="46.14992" lon="6.76465">
        <ele>1402.5999755859</ele>
        <time>2026-07-04T13:53:09.000Z</time>
      </trkpt>
      <trkpt lat="46.14992" lon="6.76465">
        <ele>1402.4000244141</ele>
        <time>2026-07-04T13:53:19.000Z</time>
      </trkpt>
      <trkpt lat="46.14992" lon="6.76465">
        <ele>1402.4000244141</ele>
        <time>2026-07-04T13:53:22.000Z</time>
      </trkpt>
      <trkpt lat="46.1499" lon="6.76465">
        <ele>1402.1999511719</ele>
        <time>2026-07-04T13:53:33.000Z</time>
      </trkpt>
      <trkpt lat="46.14989" lon="6.76467">
        <ele>1402</ele>
        <time>2026-07-04T13:53:41.000Z</time>
      </trkpt>
      <trkpt lat="46.14988" lon="6.76468">
        <ele>1402.1999511719</ele>
        <time>2026-07-04T13:53:44.000Z</time>
      </trkpt>
      <trkpt lat="46.14987" lon="6.7647">
        <ele>1402.1999511719</ele>
        <time>2026-07-04T13:53:54.000Z</time>
      </trkpt>
      <trkpt lat="46.14987" lon="6.76472">
        <ele>1402</ele>
        <time>2026-07-04T13:53:58.000Z</time>
      </trkpt>
      <trkpt lat="46.1499" lon="6.76468">
        <ele>1401.8000488281</ele>
        <time>2026-07-04T13:54:11.000Z</time>
      </trkpt>
      <trkpt lat="46.14988" lon="6.76462">
        <ele>1401.8000488281</ele>
        <time>2026-07-04T13:54:20.000Z</time>
      </trkpt>
      <trkpt lat="46.14987" lon="6.76461">
        <ele>1401.4000244141</ele>
        <time>2026-07-04T13:54:24.000Z</time>
      </trkpt>
      <trkpt lat="46.14987" lon="6.76461">
        <ele>1401.1999511719</ele>
        <time>2026-07-04T13:54:27.000Z</time>
      </trkpt>
      <trkpt lat="46.14987" lon="6.76461">
        <ele>1401</ele>
        <time>2026-07-04T13:54:30.000Z</time>
      </trkpt>
      <trkpt lat="46.14986" lon="6.76463">
        <ele>1401</ele>
        <time>2026-07-04T13:54:37.000Z</time>
      </trkpt>
      <trkpt lat="46.14985" lon="6.76465">
        <ele>1401</ele>
        <time>2026-07-04T13:54:40.000Z</time>
      </trkpt>
      <trkpt lat="46.14977" lon="6.76472">
        <ele>1400.1999511719</ele>
        <time>2026-07-04T13:54:49.000Z</time>
      </trkpt>
      <trkpt lat="46.14975" lon="6.76478">
        <ele>1399.8000488281</ele>
        <time>2026-07-04T13:54:53.000Z</time>
      </trkpt>
      <trkpt lat="46.14972" lon="6.76483">
        <ele>1399.5999755859</ele>
        <time>2026-07-04T13:54:57.000Z</time>
      </trkpt>
      <trkpt lat="46.14971" lon="6.76484">
        <ele>1399.4000244141</ele>
        <time>2026-07-04T13:54:58.000Z</time>
      </trkpt>
      <trkpt lat="46.1497" lon="6.76486">
        <ele>1399.1999511719</ele>
        <time>2026-07-04T13:55:00.000Z</time>
      </trkpt>
      <trkpt lat="46.14965" lon="6.76495">
        <ele>1398.4000244141</ele>
        <time>2026-07-04T13:55:06.000Z</time>
      </trkpt>
      <trkpt lat="46.14964" lon="6.76498">
        <ele>1398</ele>
        <time>2026-07-04T13:55:08.000Z</time>
      </trkpt>
      <trkpt lat="46.14962" lon="6.76505">
        <ele>1396.8000488281</ele>
        <time>2026-07-04T13:55:14.000Z</time>
      </trkpt>
      <trkpt lat="46.14962" lon="6.76506">
        <ele>1396.8000488281</ele>
        <time>2026-07-04T13:55:15.000Z</time>
      </trkpt>
      <trkpt lat="46.14955" lon="6.76518">
        <ele>1396</ele>
        <time>2026-07-04T13:55:24.000Z</time>
      </trkpt>
      <trkpt lat="46.14954" lon="6.76518">
        <ele>1395.8000488281</ele>
        <time>2026-07-04T13:55:25.000Z</time>
      </trkpt>
      <trkpt lat="46.14953" lon="6.76519">
        <ele>1395.8000488281</ele>
        <time>2026-07-04T13:55:26.000Z</time>
      </trkpt>
      <trkpt lat="46.14945" lon="6.76525">
        <ele>1394.8000488281</ele>
        <time>2026-07-04T13:55:33.000Z</time>
      </trkpt>
      <trkpt lat="46.14943" lon="6.76526">
        <ele>1394.5999755859</ele>
        <time>2026-07-04T13:55:35.000Z</time>
      </trkpt>
      <trkpt lat="46.14933" lon="6.76528">
        <ele>1394</ele>
        <time>2026-07-04T13:55:44.000Z</time>
      </trkpt>
      <trkpt lat="46.14925" lon="6.76531">
        <ele>1393.8000488281</ele>
        <time>2026-07-04T13:55:52.000Z</time>
      </trkpt>
      <trkpt lat="46.14913" lon="6.76535">
        <ele>1393.5999755859</ele>
        <time>2026-07-04T13:56:02.000Z</time>
      </trkpt>
      <trkpt lat="46.14903" lon="6.76544">
        <ele>1393.5999755859</ele>
        <time>2026-07-04T13:56:11.000Z</time>
      </trkpt>
      <trkpt lat="46.14896" lon="6.7655">
        <ele>1393.5999755859</ele>
        <time>2026-07-04T13:56:19.000Z</time>
      </trkpt>
      <trkpt lat="46.14889" lon="6.76556">
        <ele>1393.5999755859</ele>
        <time>2026-07-04T13:56:27.000Z</time>
      </trkpt>
      <trkpt lat="46.14889" lon="6.76556">
        <ele>1393.5999755859</ele>
        <time>2026-07-04T13:56:29.000Z</time>
      </trkpt>
      <trkpt lat="46.14888" lon="6.76559">
        <ele>1393.4000244141</ele>
        <time>2026-07-04T13:56:35.000Z</time>
      </trkpt>
      <trkpt lat="46.14888" lon="6.76559">
        <ele>1393.5999755859</ele>
        <time>2026-07-04T13:56:37.000Z</time>
      </trkpt>
      <trkpt lat="46.14888" lon="6.76558">
        <ele>1393.8000488281</ele>
        <time>2026-07-04T13:56:45.000Z</time>
      </trkpt>
      <trkpt lat="46.14886" lon="6.76559">
        <ele>1393.8000488281</ele>
        <time>2026-07-04T13:56:55.000Z</time>
      </trkpt>
      <trkpt lat="46.14886" lon="6.7656">
        <ele>1394</ele>
        <time>2026-07-04T13:57:03.000Z</time>
      </trkpt>
      <trkpt lat="46.14886" lon="6.7656">
        <ele>1394</ele>
        <time>2026-07-04T13:57:06.000Z</time>
      </trkpt>
      <trkpt lat="46.14887" lon="6.76559">
        <ele>1393.8000488281</ele>
        <time>2026-07-04T13:57:08.000Z</time>
      </trkpt>
      <trkpt lat="46.14888" lon="6.76558">
        <ele>1393.8000488281</ele>
        <time>2026-07-04T13:57:11.000Z</time>
      </trkpt>
      <trkpt lat="46.1489" lon="6.76556">
        <ele>1393.8000488281</ele>
        <time>2026-07-04T13:57:20.000Z</time>
      </trkpt>
      <trkpt lat="46.14888" lon="6.76555">
        <ele>1394.1999511719</ele>
        <time>2026-07-04T13:57:26.000Z</time>
      </trkpt>
      <trkpt lat="46.14889" lon="6.76555">
        <ele>1394.4000244141</ele>
        <time>2026-07-04T13:57:27.000Z</time>
      </trkpt>
      <trkpt lat="46.14888" lon="6.76557">
        <ele>1393.8000488281</ele>
        <time>2026-07-04T13:57:38.000Z</time>
      </trkpt>
      <trkpt lat="46.14889" lon="6.76557">
        <ele>1393.8000488281</ele>
        <time>2026-07-04T13:57:42.000Z</time>
      </trkpt>
      <trkpt lat="46.14888" lon="6.76557">
        <ele>1393.8000488281</ele>
        <time>2026-07-04T13:57:45.000Z</time>
      </trkpt>
      <trkpt lat="46.14887" lon="6.76555">
        <ele>1394</ele>
        <time>2026-07-04T13:57:48.000Z</time>
      </trkpt>
      <trkpt lat="46.14886" lon="6.76554">
        <ele>1394</ele>
        <time>2026-07-04T13:57:50.000Z</time>
      </trkpt>
      <trkpt lat="46.14886" lon="6.76554">
        <ele>1394</ele>
        <time>2026-07-04T13:57:54.000Z</time>
      </trkpt>
      <trkpt lat="46.14886" lon="6.76555">
        <ele>1393.8000488281</ele>
        <time>2026-07-04T13:57:55.000Z</time>
      </trkpt>
      <trkpt lat="46.14887" lon="6.76556">
        <ele>1394</ele>
        <time>2026-07-04T13:58:02.000Z</time>
      </trkpt>
      <trkpt lat="46.14887" lon="6.76557">
        <ele>1394</ele>
        <time>2026-07-04T13:58:03.000Z</time>
      </trkpt>
      <trkpt lat="46.14888" lon="6.76557">
        <ele>1394</ele>
        <time>2026-07-04T13:58:07.000Z</time>
      </trkpt>
      <trkpt lat="46.14887" lon="6.76558">
        <ele>1394.1999511719</ele>
        <time>2026-07-04T13:58:12.000Z</time>
      </trkpt>
      <trkpt lat="46.14885" lon="6.76556">
        <ele>1394.1999511719</ele>
        <time>2026-07-04T13:58:26.000Z</time>
      </trkpt>
      <trkpt lat="46.14886" lon="6.76553">
        <ele>1393.8000488281</ele>
        <time>2026-07-04T13:58:38.000Z</time>
      </trkpt>
      <trkpt lat="46.1488" lon="6.76552">
        <ele>1393.5999755859</ele>
        <time>2026-07-04T13:58:44.000Z</time>
      </trkpt>
      <trkpt lat="46.1488" lon="6.76552">
        <ele>1393.4000244141</ele>
        <time>2026-07-04T13:58:45.000Z</time>
      </trkpt>
      <trkpt lat="46.14875" lon="6.76551">
        <ele>1392.5999755859</ele>
        <time>2026-07-04T13:58:49.000Z</time>
      </trkpt>
      <trkpt lat="46.14873" lon="6.76552">
        <ele>1392.1999511719</ele>
        <time>2026-07-04T13:58:52.000Z</time>
      </trkpt>
      <trkpt lat="46.14872" lon="6.76553">
        <ele>1392</ele>
        <time>2026-07-04T13:58:54.000Z</time>
      </trkpt>
      <trkpt lat="46.1487" lon="6.76554">
        <ele>1391.8000488281</ele>
        <time>2026-07-04T13:58:55.000Z</time>
      </trkpt>
      <trkpt lat="46.14865" lon="6.76555">
        <ele>1391.4000244141</ele>
        <time>2026-07-04T13:58:58.000Z</time>
      </trkpt>
      <trkpt lat="46.14863" lon="6.76556">
        <ele>1391.1999511719</ele>
        <time>2026-07-04T13:59:00.000Z</time>
      </trkpt>
      <trkpt lat="46.14861" lon="6.76556">
        <ele>1390.4000244141</ele>
        <time>2026-07-04T13:59:04.000Z</time>
      </trkpt>
      <trkpt lat="46.14861" lon="6.76556">
        <ele>1390.1999511719</ele>
        <time>2026-07-04T13:59:06.000Z</time>
      </trkpt>
      <trkpt lat="46.14851" lon="6.76558">
        <ele>1389.1999511719</ele>
        <time>2026-07-04T13:59:16.000Z</time>
      </trkpt>
      <trkpt lat="46.14839" lon="6.76562">
        <ele>1388.4000244141</ele>
        <time>2026-07-04T13:59:24.000Z</time>
      </trkpt>
      <trkpt lat="46.14832" lon="6.76562">
        <ele>1388.1999511719</ele>
        <time>2026-07-04T13:59:29.000Z</time>
      </trkpt>
      <trkpt lat="46.14825" lon="6.76561">
        <ele>1388</ele>
        <time>2026-07-04T13:59:33.000Z</time>
      </trkpt>
      <trkpt lat="46.14817" lon="6.76558">
        <ele>1387.5999755859</ele>
        <time>2026-07-04T13:59:40.000Z</time>
      </trkpt>
      <trkpt lat="46.14815" lon="6.76556">
        <ele>1387.1999511719</ele>
        <time>2026-07-04T13:59:42.000Z</time>
      </trkpt>
      <trkpt lat="46.14815" lon="6.76551">
        <ele>1386.1999511719</ele>
        <time>2026-07-04T13:59:48.000Z</time>
      </trkpt>
      <trkpt lat="46.14815" lon="6.76551">
        <ele>1386</ele>
        <time>2026-07-04T13:59:49.000Z</time>
      </trkpt>
      <trkpt lat="46.14817" lon="6.76546">
        <ele>1384.5999755859</ele>
        <time>2026-07-04T13:59:54.000Z</time>
      </trkpt>
      <trkpt lat="46.14819" lon="6.76543">
        <ele>1383.5999755859</ele>
        <time>2026-07-04T13:59:58.000Z</time>
      </trkpt>
      <trkpt lat="46.14819" lon="6.76541">
        <ele>1383.1999511719</ele>
        <time>2026-07-04T14:00:00.000Z</time>
      </trkpt>
      <trkpt lat="46.14819" lon="6.76538">
        <ele>1382.4000244141</ele>
        <time>2026-07-04T14:00:03.000Z</time>
      </trkpt>
      <trkpt lat="46.14817" lon="6.76536">
        <ele>1381.4000244141</ele>
        <time>2026-07-04T14:00:07.000Z</time>
      </trkpt>
      <trkpt lat="46.14816" lon="6.76535">
        <ele>1380.8000488281</ele>
        <time>2026-07-04T14:00:09.000Z</time>
      </trkpt>
      <trkpt lat="46.14814" lon="6.76535">
        <ele>1380.4000244141</ele>
        <time>2026-07-04T14:00:10.000Z</time>
      </trkpt>
      <trkpt lat="46.14811" lon="6.76533">
        <ele>1379.4000244141</ele>
        <time>2026-07-04T14:00:12.000Z</time>
      </trkpt>
      <trkpt lat="46.1481" lon="6.76532">
        <ele>1379.1999511719</ele>
        <time>2026-07-04T14:00:13.000Z</time>
      </trkpt>
      <trkpt lat="46.14806" lon="6.76529">
        <ele>1378.4000244141</ele>
        <time>2026-07-04T14:00:16.000Z</time>
      </trkpt>
      <trkpt lat="46.14804" lon="6.76527">
        <ele>1378.1999511719</ele>
        <time>2026-07-04T14:00:17.000Z</time>
      </trkpt>
      <trkpt lat="46.14803" lon="6.76526">
        <ele>1378</ele>
        <time>2026-07-04T14:00:19.000Z</time>
      </trkpt>
      <trkpt lat="46.14799" lon="6.76525">
        <ele>1377</ele>
        <time>2026-07-04T14:00:23.000Z</time>
      </trkpt>
      <trkpt lat="46.14799" lon="6.76525">
        <ele>1376.8000488281</ele>
        <time>2026-07-04T14:00:24.000Z</time>
      </trkpt>
      <trkpt lat="46.14797" lon="6.76523">
        <ele>1376.1999511719</ele>
        <time>2026-07-04T14:00:26.000Z</time>
      </trkpt>
      <trkpt lat="46.14796" lon="6.76522">
        <ele>1375.8000488281</ele>
        <time>2026-07-04T14:00:28.000Z</time>
      </trkpt>
      <trkpt lat="46.14796" lon="6.76517">
        <ele>1375</ele>
        <time>2026-07-04T14:00:33.000Z</time>
      </trkpt>
      <trkpt lat="46.14796" lon="6.76515">
        <ele>1374.5999755859</ele>
        <time>2026-07-04T14:00:35.000Z</time>
      </trkpt>
      <trkpt lat="46.14797" lon="6.76513">
        <ele>1374</ele>
        <time>2026-07-04T14:00:38.000Z</time>
      </trkpt>
      <trkpt lat="46.14797" lon="6.76511">
        <ele>1373.5999755859</ele>
        <time>2026-07-04T14:00:40.000Z</time>
      </trkpt>
      <trkpt lat="46.14796" lon="6.76509">
        <ele>1372.8000488281</ele>
        <time>2026-07-04T14:00:45.000Z</time>
      </trkpt>
      <trkpt lat="46.14796" lon="6.76509">
        <ele>1372.5999755859</ele>
        <time>2026-07-04T14:00:47.000Z</time>
      </trkpt>
      <trkpt lat="46.14794" lon="6.76507">
        <ele>1371.4000244141</ele>
        <time>2026-07-04T14:00:56.000Z</time>
      </trkpt>
      <trkpt lat="46.14795" lon="6.76506">
        <ele>1371.1999511719</ele>
        <time>2026-07-04T14:00:58.000Z</time>
      </trkpt>
      <trkpt lat="46.14793" lon="6.76503">
        <ele>1370.4000244141</ele>
        <time>2026-07-04T14:01:03.000Z</time>
      </trkpt>
      <trkpt lat="46.14791" lon="6.76498">
        <ele>1369.8000488281</ele>
        <time>2026-07-04T14:01:08.000Z</time>
      </trkpt>
      <trkpt lat="46.14791" lon="6.76495">
        <ele>1369.1999511719</ele>
        <time>2026-07-04T14:01:11.000Z</time>
      </trkpt>
      <trkpt lat="46.14792" lon="6.76494">
        <ele>1368.1999511719</ele>
        <time>2026-07-04T14:01:16.000Z</time>
      </trkpt>
      <trkpt lat="46.14792" lon="6.76494">
        <ele>1368</ele>
        <time>2026-07-04T14:01:17.000Z</time>
      </trkpt>
      <trkpt lat="46.14791" lon="6.76494">
        <ele>1367.5999755859</ele>
        <time>2026-07-04T14:01:19.000Z</time>
      </trkpt>
      <trkpt lat="46.14791" lon="6.76493">
        <ele>1367</ele>
        <time>2026-07-04T14:01:22.000Z</time>
      </trkpt>
      <trkpt lat="46.1479" lon="6.76491">
        <ele>1366.4000244141</ele>
        <time>2026-07-04T14:01:24.000Z</time>
      </trkpt>
      <trkpt lat="46.14789" lon="6.76491">
        <ele>1365.8000488281</ele>
        <time>2026-07-04T14:01:26.000Z</time>
      </trkpt>
      <trkpt lat="46.14787" lon="6.7649">
        <ele>1364.8000488281</ele>
        <time>2026-07-04T14:01:30.000Z</time>
      </trkpt>
      <trkpt lat="46.14781" lon="6.7649">
        <ele>1363.8000488281</ele>
        <time>2026-07-04T14:01:34.000Z</time>
      </trkpt>
      <trkpt lat="46.14776" lon="6.76492">
        <ele>1362.8000488281</ele>
        <time>2026-07-04T14:01:39.000Z</time>
      </trkpt>
      <trkpt lat="46.14776" lon="6.76492">
        <ele>1362.5999755859</ele>
        <time>2026-07-04T14:01:40.000Z</time>
      </trkpt>
      <trkpt lat="46.14769" lon="6.76496">
        <ele>1361.5999755859</ele>
        <time>2026-07-04T14:01:48.000Z</time>
      </trkpt>
      <trkpt lat="46.14766" lon="6.76496">
        <ele>1361.4000244141</ele>
        <time>2026-07-04T14:01:50.000Z</time>
      </trkpt>
      <trkpt lat="46.14757" lon="6.76494">
        <ele>1360.5999755859</ele>
        <time>2026-07-04T14:01:59.000Z</time>
      </trkpt>
      <trkpt lat="46.14755" lon="6.76493">
        <ele>1360.4000244141</ele>
        <time>2026-07-04T14:02:00.000Z</time>
      </trkpt>
      <trkpt lat="46.1475" lon="6.76493">
        <ele>1360</ele>
        <time>2026-07-04T14:02:05.000Z</time>
      </trkpt>
      <trkpt lat="46.14741" lon="6.76496">
        <ele>1360</ele>
        <time>2026-07-04T14:02:11.000Z</time>
      </trkpt>
      <trkpt lat="46.14733" lon="6.76495">
        <ele>1360.1999511719</ele>
        <time>2026-07-04T14:02:20.000Z</time>
      </trkpt>
      <trkpt lat="46.1473" lon="6.76497">
        <ele>1359.8000488281</ele>
        <time>2026-07-04T14:02:27.000Z</time>
      </trkpt>
      <trkpt lat="46.14728" lon="6.76496">
        <ele>1359.4000244141</ele>
        <time>2026-07-04T14:02:32.000Z</time>
      </trkpt>
      <trkpt lat="46.14717" lon="6.76495">
        <ele>1359</ele>
        <time>2026-07-04T14:02:40.000Z</time>
      </trkpt>
      <trkpt lat="46.14721" lon="6.76486">
        <ele>1359</ele>
        <time>2026-07-04T14:02:50.000Z</time>
      </trkpt>
      <trkpt lat="46.1472" lon="6.76489">
        <ele>1358.8000488281</ele>
        <time>2026-07-04T14:02:58.000Z</time>
      </trkpt>
      <trkpt lat="46.14716" lon="6.76496">
        <ele>1358.8000488281</ele>
        <time>2026-07-04T14:03:09.000Z</time>
      </trkpt>
      <trkpt lat="46.14715" lon="6.76498">
        <ele>1358.8000488281</ele>
        <time>2026-07-04T14:03:13.000Z</time>
      </trkpt>
      <trkpt lat="46.14714" lon="6.76498">
        <ele>1359.1999511719</ele>
        <time>2026-07-04T14:03:18.000Z</time>
      </trkpt>
      <trkpt lat="46.14713" lon="6.76491">
        <ele>1358.5999755859</ele>
        <time>2026-07-04T14:03:29.000Z</time>
      </trkpt>
      <trkpt lat="46.14713" lon="6.76492">
        <ele>1358.4000244141</ele>
        <time>2026-07-04T14:03:32.000Z</time>
      </trkpt>
      <trkpt lat="46.14709" lon="6.76495">
        <ele>1357.8000488281</ele>
        <time>2026-07-04T14:03:37.000Z</time>
      </trkpt>
      <trkpt lat="46.14707" lon="6.76495">
        <ele>1357.5999755859</ele>
        <time>2026-07-04T14:03:38.000Z</time>
      </trkpt>
      <trkpt lat="46.14705" lon="6.76495">
        <ele>1357.1999511719</ele>
        <time>2026-07-04T14:03:41.000Z</time>
      </trkpt>
      <trkpt lat="46.14701" lon="6.76496">
        <ele>1356</ele>
        <time>2026-07-04T14:03:45.000Z</time>
      </trkpt>
      <trkpt lat="46.14696" lon="6.76497">
        <ele>1355</ele>
        <time>2026-07-04T14:03:49.000Z</time>
      </trkpt>
      <trkpt lat="46.14696" lon="6.76497">
        <ele>1355</ele>
        <time>2026-07-04T14:03:50.000Z</time>
      </trkpt>
      <trkpt lat="46.14693" lon="6.76496">
        <ele>1353.8000488281</ele>
        <time>2026-07-04T14:03:54.000Z</time>
      </trkpt>
      <trkpt lat="46.14691" lon="6.76495">
        <ele>1352.5999755859</ele>
        <time>2026-07-04T14:03:58.000Z</time>
      </trkpt>
      <trkpt lat="46.14691" lon="6.76495">
        <ele>1352.4000244141</ele>
        <time>2026-07-04T14:03:59.000Z</time>
      </trkpt>
      <trkpt lat="46.14687" lon="6.76494">
        <ele>1351.4000244141</ele>
        <time>2026-07-04T14:04:03.000Z</time>
      </trkpt>
      <trkpt lat="46.14688" lon="6.76491">
        <ele>1350.4000244141</ele>
        <time>2026-07-04T14:04:07.000Z</time>
      </trkpt>
      <trkpt lat="46.14691" lon="6.76484">
        <ele>1349.1999511719</ele>
        <time>2026-07-04T14:04:12.000Z</time>
      </trkpt>
      <trkpt lat="46.14691" lon="6.76479">
        <ele>1348.4000244141</ele>
        <time>2026-07-04T14:04:15.000Z</time>
      </trkpt>
      <trkpt lat="46.14691" lon="6.76478">
        <ele>1348</ele>
        <time>2026-07-04T14:04:16.000Z</time>
      </trkpt>
      <trkpt lat="46.14686" lon="6.76478">
        <ele>1346.8000488281</ele>
        <time>2026-07-04T14:04:21.000Z</time>
      </trkpt>
      <trkpt lat="46.14685" lon="6.76478">
        <ele>1346.4000244141</ele>
        <time>2026-07-04T14:04:23.000Z</time>
      </trkpt>
      <trkpt lat="46.1468" lon="6.7648">
        <ele>1345.5999755859</ele>
        <time>2026-07-04T14:04:27.000Z</time>
      </trkpt>
      <trkpt lat="46.14678" lon="6.76478">
        <ele>1344.5999755859</ele>
        <time>2026-07-04T14:04:31.000Z</time>
      </trkpt>
      <trkpt lat="46.14678" lon="6.76477">
        <ele>1344.1999511719</ele>
        <time>2026-07-04T14:04:32.000Z</time>
      </trkpt>
      <trkpt lat="46.14678" lon="6.76476">
        <ele>1343.8000488281</ele>
        <time>2026-07-04T14:04:34.000Z</time>
      </trkpt>
      <trkpt lat="46.14678" lon="6.76475">
        <ele>1343.4000244141</ele>
        <time>2026-07-04T14:04:36.000Z</time>
      </trkpt>
      <trkpt lat="46.14676" lon="6.76472">
        <ele>1342.4000244141</ele>
        <time>2026-07-04T14:04:40.000Z</time>
      </trkpt>
      <trkpt lat="46.14674" lon="6.76471">
        <ele>1341.1999511719</ele>
        <time>2026-07-04T14:04:46.000Z</time>
      </trkpt>
      <trkpt lat="46.14673" lon="6.76468">
        <ele>1340.1999511719</ele>
        <time>2026-07-04T14:04:50.000Z</time>
      </trkpt>
      <trkpt lat="46.14672" lon="6.76466">
        <ele>1339.5999755859</ele>
        <time>2026-07-04T14:04:53.000Z</time>
      </trkpt>
      <trkpt lat="46.14671" lon="6.76464">
        <ele>1339.1999511719</ele>
        <time>2026-07-04T14:04:55.000Z</time>
      </trkpt>
      <trkpt lat="46.1467" lon="6.76459">
        <ele>1338</ele>
        <time>2026-07-04T14:04:59.000Z</time>
      </trkpt>
      <trkpt lat="46.1467" lon="6.76451">
        <ele>1336.8000488281</ele>
        <time>2026-07-04T14:05:04.000Z</time>
      </trkpt>
      <trkpt lat="46.14672" lon="6.76447">
        <ele>1335.8000488281</ele>
        <time>2026-07-04T14:05:08.000Z</time>
      </trkpt>
      <trkpt lat="46.14673" lon="6.76444">
        <ele>1334.8000488281</ele>
        <time>2026-07-04T14:05:12.000Z</time>
      </trkpt>
      <trkpt lat="46.14673" lon="6.76442">
        <ele>1334.1999511719</ele>
        <time>2026-07-04T14:05:14.000Z</time>
      </trkpt>
      <trkpt lat="46.14672" lon="6.7644">
        <ele>1333.8000488281</ele>
        <time>2026-07-04T14:05:16.000Z</time>
      </trkpt>
      <trkpt lat="46.14672" lon="6.76436">
        <ele>1332.5999755859</ele>
        <time>2026-07-04T14:05:21.000Z</time>
      </trkpt>
      <trkpt lat="46.14672" lon="6.76434">
        <ele>1332</ele>
        <time>2026-07-04T14:05:24.000Z</time>
      </trkpt>
      <trkpt lat="46.14672" lon="6.76432">
        <ele>1331.5999755859</ele>
        <time>2026-07-04T14:05:26.000Z</time>
      </trkpt>
      <trkpt lat="46.14671" lon="6.76428">
        <ele>1330.4000244141</ele>
        <time>2026-07-04T14:05:31.000Z</time>
      </trkpt>
      <trkpt lat="46.14672" lon="6.76425">
        <ele>1329.4000244141</ele>
        <time>2026-07-04T14:05:34.000Z</time>
      </trkpt>
      <trkpt lat="46.14672" lon="6.76424">
        <ele>1329</ele>
        <time>2026-07-04T14:05:35.000Z</time>
      </trkpt>
      <trkpt lat="46.14672" lon="6.7642">
        <ele>1327.5999755859</ele>
        <time>2026-07-04T14:05:39.000Z</time>
      </trkpt>
      <trkpt lat="46.14672" lon="6.76415">
        <ele>1326.4000244141</ele>
        <time>2026-07-04T14:05:43.000Z</time>
      </trkpt>
      <trkpt lat="46.14672" lon="6.76413">
        <ele>1326.1999511719</ele>
        <time>2026-07-04T14:05:44.000Z</time>
      </trkpt>
      <trkpt lat="46.14673" lon="6.76407">
        <ele>1325.1999511719</ele>
        <time>2026-07-04T14:05:48.000Z</time>
      </trkpt>
      <trkpt lat="46.14674" lon="6.76402">
        <ele>1324.1999511719</ele>
        <time>2026-07-04T14:05:52.000Z</time>
      </trkpt>
      <trkpt lat="46.14675" lon="6.76394">
        <ele>1322.8000488281</ele>
        <time>2026-07-04T14:05:57.000Z</time>
      </trkpt>
      <trkpt lat="46.14676" lon="6.7639">
        <ele>1322</ele>
        <time>2026-07-04T14:06:01.000Z</time>
      </trkpt>
      <trkpt lat="46.14676" lon="6.76388">
        <ele>1321.8000488281</ele>
        <time>2026-07-04T14:06:02.000Z</time>
      </trkpt>
      <trkpt lat="46.14677" lon="6.76382">
        <ele>1320.4000244141</ele>
        <time>2026-07-04T14:06:06.000Z</time>
      </trkpt>
      <trkpt lat="46.14679" lon="6.76379">
        <ele>1319.8000488281</ele>
        <time>2026-07-04T14:06:10.000Z</time>
      </trkpt>
      <trkpt lat="46.14681" lon="6.76377">
        <ele>1319.4000244141</ele>
        <time>2026-07-04T14:06:13.000Z</time>
      </trkpt>
      <trkpt lat="46.14682" lon="6.76371">
        <ele>1318.4000244141</ele>
        <time>2026-07-04T14:06:17.000Z</time>
      </trkpt>
      <trkpt lat="46.14681" lon="6.76367">
        <ele>1317.4000244141</ele>
        <time>2026-07-04T14:06:20.000Z</time>
      </trkpt>
      <trkpt lat="46.14681" lon="6.76365">
        <ele>1317.1999511719</ele>
        <time>2026-07-04T14:06:21.000Z</time>
      </trkpt>
      <trkpt lat="46.14678" lon="6.76363">
        <ele>1316.1999511719</ele>
        <time>2026-07-04T14:06:26.000Z</time>
      </trkpt>
      <trkpt lat="46.14678" lon="6.76357">
        <ele>1315.4000244141</ele>
        <time>2026-07-04T14:06:29.000Z</time>
      </trkpt>
      <trkpt lat="46.14678" lon="6.76356">
        <ele>1315</ele>
        <time>2026-07-04T14:06:30.000Z</time>
      </trkpt>
      <trkpt lat="46.14679" lon="6.76349">
        <ele>1314.1999511719</ele>
        <time>2026-07-04T14:06:35.000Z</time>
      </trkpt>
      <trkpt lat="46.1468" lon="6.76347">
        <ele>1314</ele>
        <time>2026-07-04T14:06:37.000Z</time>
      </trkpt>
      <trkpt lat="46.1468" lon="6.76347">
        <ele>1314</ele>
        <time>2026-07-04T14:06:38.000Z</time>
      </trkpt>
      <trkpt lat="46.14683" lon="6.76338">
        <ele>1313.4000244141</ele>
        <time>2026-07-04T14:06:45.000Z</time>
      </trkpt>
      <trkpt lat="46.14683" lon="6.76332">
        <ele>1312.8000488281</ele>
        <time>2026-07-04T14:06:51.000Z</time>
      </trkpt>
      <trkpt lat="46.14682" lon="6.76329">
        <ele>1312.5999755859</ele>
        <time>2026-07-04T14:06:54.000Z</time>
      </trkpt>
      <trkpt lat="46.14682" lon="6.76329">
        <ele>1312.4000244141</ele>
        <time>2026-07-04T14:06:55.000Z</time>
      </trkpt>
      <trkpt lat="46.14682" lon="6.7633">
        <ele>1312</ele>
        <time>2026-07-04T14:07:01.000Z</time>
      </trkpt>
      <trkpt lat="46.14683" lon="6.76329">
        <ele>1312.4000244141</ele>
        <time>2026-07-04T14:07:04.000Z</time>
      </trkpt>
      <trkpt lat="46.14684" lon="6.7633">
        <ele>1312.4000244141</ele>
        <time>2026-07-04T14:07:11.000Z</time>
      </trkpt>
      <trkpt lat="46.14684" lon="6.76331">
        <ele>1312.4000244141</ele>
        <time>2026-07-04T14:07:13.000Z</time>
      </trkpt>
      <trkpt lat="46.14687" lon="6.76339">
        <ele>1312.4000244141</ele>
        <time>2026-07-04T14:07:24.000Z</time>
      </trkpt>
      <trkpt lat="46.14687" lon="6.76333">
        <ele>1312</ele>
        <time>2026-07-04T14:07:35.000Z</time>
      </trkpt>
      <trkpt lat="46.14685" lon="6.76331">
        <ele>1311.8000488281</ele>
        <time>2026-07-04T14:07:37.000Z</time>
      </trkpt>
      <trkpt lat="46.14684" lon="6.76327">
        <ele>1311.8000488281</ele>
        <time>2026-07-04T14:07:46.000Z</time>
      </trkpt>
      <trkpt lat="46.14687" lon="6.76331">
        <ele>1311.5999755859</ele>
        <time>2026-07-04T14:07:55.000Z</time>
      </trkpt>
      <trkpt lat="46.14688" lon="6.76332">
        <ele>1311.5999755859</ele>
        <time>2026-07-04T14:07:56.000Z</time>
      </trkpt>
      <trkpt lat="46.14688" lon="6.76332">
        <ele>1311.5999755859</ele>
        <time>2026-07-04T14:07:57.000Z</time>
      </trkpt>
      <trkpt lat="46.14687" lon="6.7633">
        <ele>1311.8000488281</ele>
        <time>2026-07-04T14:08:06.000Z</time>
      </trkpt>
      <trkpt lat="46.14687" lon="6.7633">
        <ele>1311.8000488281</ele>
        <time>2026-07-04T14:08:07.000Z</time>
      </trkpt>
      <trkpt lat="46.14687" lon="6.76329">
        <ele>1311.8000488281</ele>
        <time>2026-07-04T14:08:08.000Z</time>
      </trkpt>
      <trkpt lat="46.14686" lon="6.76327">
        <ele>1312</ele>
        <time>2026-07-04T14:08:12.000Z</time>
      </trkpt>
      <trkpt lat="46.14686" lon="6.76328">
        <ele>1311.1999511719</ele>
        <time>2026-07-04T14:08:20.000Z</time>
      </trkpt>
      <trkpt lat="46.14689" lon="6.76317">
        <ele>1311.1999511719</ele>
        <time>2026-07-04T14:08:29.000Z</time>
      </trkpt>
      <trkpt lat="46.14689" lon="6.76314">
        <ele>1311</ele>
        <time>2026-07-04T14:08:30.000Z</time>
      </trkpt>
      <trkpt lat="46.1469" lon="6.76313">
        <ele>1310.8000488281</ele>
        <time>2026-07-04T14:08:31.000Z</time>
      </trkpt>
      <trkpt lat="46.14695" lon="6.763">
        <ele>1309.5999755859</ele>
        <time>2026-07-04T14:08:40.000Z</time>
      </trkpt>
      <trkpt lat="46.14695" lon="6.76299">
        <ele>1309.4000244141</ele>
        <time>2026-07-04T14:08:41.000Z</time>
      </trkpt>
      <trkpt lat="46.14696" lon="6.76288">
        <ele>1309.1999511719</ele>
        <time>2026-07-04T14:08:47.000Z</time>
      </trkpt>
      <trkpt lat="46.14696" lon="6.76286">
        <ele>1309</ele>
        <time>2026-07-04T14:08:48.000Z</time>
      </trkpt>
      <trkpt lat="46.14696" lon="6.76284">
        <ele>1308.8000488281</ele>
        <time>2026-07-04T14:08:49.000Z</time>
      </trkpt>
      <trkpt lat="46.14696" lon="6.76282">
        <ele>1308.4000244141</ele>
        <time>2026-07-04T14:08:50.000Z</time>
      </trkpt>
      <trkpt lat="46.14697" lon="6.76275">
        <ele>1307.1999511719</ele>
        <time>2026-07-04T14:08:55.000Z</time>
      </trkpt>
      <trkpt lat="46.14697" lon="6.76274">
        <ele>1307</ele>
        <time>2026-07-04T14:08:56.000Z</time>
      </trkpt>
      <trkpt lat="46.14698" lon="6.76264">
        <ele>1306.4000244141</ele>
        <time>2026-07-04T14:09:01.000Z</time>
      </trkpt>
      <trkpt lat="46.14699" lon="6.76261">
        <ele>1306.1999511719</ele>
        <time>2026-07-04T14:09:03.000Z</time>
      </trkpt>
      <trkpt lat="46.14699" lon="6.76256">
        <ele>1305.1999511719</ele>
        <time>2026-07-04T14:09:08.000Z</time>
      </trkpt>
      <trkpt lat="46.14698" lon="6.76256">
        <ele>1305.1999511719</ele>
        <time>2026-07-04T14:09:09.000Z</time>
      </trkpt>
      <trkpt lat="46.14699" lon="6.76248">
        <ele>1304</ele>
        <time>2026-07-04T14:09:16.000Z</time>
      </trkpt>
      <trkpt lat="46.14699" lon="6.76244">
        <ele>1303.8000488281</ele>
        <time>2026-07-04T14:09:17.000Z</time>
      </trkpt>
      <trkpt lat="46.14699" lon="6.76236">
        <ele>1303</ele>
        <time>2026-07-04T14:09:21.000Z</time>
      </trkpt>
      <trkpt lat="46.14699" lon="6.76229">
        <ele>1302.4000244141</ele>
        <time>2026-07-04T14:09:25.000Z</time>
      </trkpt>
      <trkpt lat="46.14699" lon="6.76222">
        <ele>1301.8000488281</ele>
        <time>2026-07-04T14:09:29.000Z</time>
      </trkpt>
      <trkpt lat="46.14699" lon="6.76213">
        <ele>1300.8000488281</ele>
        <time>2026-07-04T14:09:35.000Z</time>
      </trkpt>
      <trkpt lat="46.14699" lon="6.76206">
        <ele>1300</ele>
        <time>2026-07-04T14:09:39.000Z</time>
      </trkpt>
      <trkpt lat="46.14698" lon="6.76202">
        <ele>1299.5999755859</ele>
        <time>2026-07-04T14:09:42.000Z</time>
      </trkpt>
      <trkpt lat="46.14697" lon="6.76194">
        <ele>1299.1999511719</ele>
        <time>2026-07-04T14:09:45.000Z</time>
      </trkpt>
      <trkpt lat="46.14697" lon="6.7619">
        <ele>1298.4000244141</ele>
        <time>2026-07-04T14:09:48.000Z</time>
      </trkpt>
      <trkpt lat="46.14694" lon="6.76183">
        <ele>1297.4000244141</ele>
        <time>2026-07-04T14:09:54.000Z</time>
      </trkpt>
      <trkpt lat="46.14693" lon="6.76179">
        <ele>1296.8000488281</ele>
        <time>2026-07-04T14:09:57.000Z</time>
      </trkpt>
      <trkpt lat="46.14692" lon="6.76175">
        <ele>1296.1999511719</ele>
        <time>2026-07-04T14:10:00.000Z</time>
      </trkpt>
      <trkpt lat="46.1469" lon="6.76167">
        <ele>1295.4000244141</ele>
        <time>2026-07-04T14:10:05.000Z</time>
      </trkpt>
      <trkpt lat="46.14689" lon="6.7616">
        <ele>1295</ele>
        <time>2026-07-04T14:10:07.000Z</time>
      </trkpt>
      <trkpt lat="46.14688" lon="6.76155">
        <ele>1294.1999511719</ele>
        <time>2026-07-04T14:10:11.000Z</time>
      </trkpt>
      <trkpt lat="46.14687" lon="6.76154">
        <ele>1293.8000488281</ele>
        <time>2026-07-04T14:10:13.000Z</time>
      </trkpt>
      <trkpt lat="46.14688" lon="6.76146">
        <ele>1293.1999511719</ele>
        <time>2026-07-04T14:10:18.000Z</time>
      </trkpt>
      <trkpt lat="46.14689" lon="6.76139">
        <ele>1292.8000488281</ele>
        <time>2026-07-04T14:10:21.000Z</time>
      </trkpt>
      <trkpt lat="46.14689" lon="6.76129">
        <ele>1291.5999755859</ele>
        <time>2026-07-04T14:10:27.000Z</time>
      </trkpt>
      <trkpt lat="46.14691" lon="6.76118">
        <ele>1290.8000488281</ele>
        <time>2026-07-04T14:10:32.000Z</time>
      </trkpt>
      <trkpt lat="46.14691" lon="6.76117">
        <ele>1290.5999755859</ele>
        <time>2026-07-04T14:10:33.000Z</time>
      </trkpt>
      <trkpt lat="46.1469" lon="6.76109">
        <ele>1289.4000244141</ele>
        <time>2026-07-04T14:10:39.000Z</time>
      </trkpt>
      <trkpt lat="46.14689" lon="6.76105">
        <ele>1288.8000488281</ele>
        <time>2026-07-04T14:10:41.000Z</time>
      </trkpt>
      <trkpt lat="46.14687" lon="6.76101">
        <ele>1288.1999511719</ele>
        <time>2026-07-04T14:10:44.000Z</time>
      </trkpt>
      <trkpt lat="46.14683" lon="6.76096">
        <ele>1287.4000244141</ele>
        <time>2026-07-04T14:10:49.000Z</time>
      </trkpt>
      <trkpt lat="46.14679" lon="6.76093">
        <ele>1287</ele>
        <time>2026-07-04T14:10:51.000Z</time>
      </trkpt>
      <trkpt lat="46.14673" lon="6.76091">
        <ele>1286</ele>
        <time>2026-07-04T14:10:56.000Z</time>
      </trkpt>
      <trkpt lat="46.14667" lon="6.76087">
        <ele>1284.8000488281</ele>
        <time>2026-07-04T14:11:01.000Z</time>
      </trkpt>
      <trkpt lat="46.14663" lon="6.76083">
        <ele>1284</ele>
        <time>2026-07-04T14:11:05.000Z</time>
      </trkpt>
      <trkpt lat="46.14662" lon="6.76082">
        <ele>1283.8000488281</ele>
        <time>2026-07-04T14:11:06.000Z</time>
      </trkpt>
      <trkpt lat="46.14657" lon="6.76073">
        <ele>1282.8000488281</ele>
        <time>2026-07-04T14:11:12.000Z</time>
      </trkpt>
      <trkpt lat="46.14657" lon="6.76073">
        <ele>1282.5999755859</ele>
        <time>2026-07-04T14:11:13.000Z</time>
      </trkpt>
      <trkpt lat="46.14658" lon="6.76057">
        <ele>1281.5999755859</ele>
        <time>2026-07-04T14:11:20.000Z</time>
      </trkpt>
      <trkpt lat="46.1466" lon="6.76048">
        <ele>1280.5999755859</ele>
        <time>2026-07-04T14:11:26.000Z</time>
      </trkpt>
      <trkpt lat="46.14662" lon="6.76048">
        <ele>1280.1999511719</ele>
        <time>2026-07-04T14:11:27.000Z</time>
      </trkpt>
      <trkpt lat="46.14663" lon="6.76047">
        <ele>1280</ele>
        <time>2026-07-04T14:11:28.000Z</time>
      </trkpt>
      <trkpt lat="46.14666" lon="6.76043">
        <ele>1279.4000244141</ele>
        <time>2026-07-04T14:11:31.000Z</time>
      </trkpt>
      <trkpt lat="46.14671" lon="6.76039">
        <ele>1279</ele>
        <time>2026-07-04T14:11:35.000Z</time>
      </trkpt>
      <trkpt lat="46.14677" lon="6.76034">
        <ele>1278.4000244141</ele>
        <time>2026-07-04T14:11:39.000Z</time>
      </trkpt>
      <trkpt lat="46.1468" lon="6.76033">
        <ele>1277.8000488281</ele>
        <time>2026-07-04T14:11:42.000Z</time>
      </trkpt>
      <trkpt lat="46.1468" lon="6.76034">
        <ele>1277.1999511719</ele>
        <time>2026-07-04T14:11:44.000Z</time>
      </trkpt>
      <trkpt lat="46.14683" lon="6.76035">
        <ele>1276</ele>
        <time>2026-07-04T14:11:47.000Z</time>
      </trkpt>
      <trkpt lat="46.14688" lon="6.76037">
        <ele>1275</ele>
        <time>2026-07-04T14:11:51.000Z</time>
      </trkpt>
      <trkpt lat="46.14689" lon="6.76037">
        <ele>1274.8000488281</ele>
        <time>2026-07-04T14:11:52.000Z</time>
      </trkpt>
      <trkpt lat="46.14694" lon="6.76037">
        <ele>1273.8000488281</ele>
        <time>2026-07-04T14:11:56.000Z</time>
      </trkpt>
      <trkpt lat="46.14699" lon="6.76036">
        <ele>1272.4000244141</ele>
        <time>2026-07-04T14:12:00.000Z</time>
      </trkpt>
      <trkpt lat="46.14701" lon="6.76035">
        <ele>1271.8000488281</ele>
        <time>2026-07-04T14:12:02.000Z</time>
      </trkpt>
      <trkpt lat="46.14703" lon="6.76034">
        <ele>1271.4000244141</ele>
        <time>2026-07-04T14:12:04.000Z</time>
      </trkpt>
      <trkpt lat="46.1471" lon="6.76029">
        <ele>1270.5999755859</ele>
        <time>2026-07-04T14:12:10.000Z</time>
      </trkpt>
      <trkpt lat="46.14711" lon="6.76028">
        <ele>1270.4000244141</ele>
        <time>2026-07-04T14:12:11.000Z</time>
      </trkpt>
      <trkpt lat="46.14714" lon="6.7602">
        <ele>1269.4000244141</ele>
        <time>2026-07-04T14:12:17.000Z</time>
      </trkpt>
      <trkpt lat="46.14716" lon="6.76017">
        <ele>1268.5999755859</ele>
        <time>2026-07-04T14:12:19.000Z</time>
      </trkpt>
      <trkpt lat="46.14719" lon="6.7601">
        <ele>1268.1999511719</ele>
        <time>2026-07-04T14:12:23.000Z</time>
      </trkpt>
      <trkpt lat="46.14723" lon="6.76003">
        <ele>1267.1999511719</ele>
        <time>2026-07-04T14:12:28.000Z</time>
      </trkpt>
      <trkpt lat="46.14724" lon="6.76">
        <ele>1266.8000488281</ele>
        <time>2026-07-04T14:12:30.000Z</time>
      </trkpt>
      <trkpt lat="46.14726" lon="6.75996">
        <ele>1266.1999511719</ele>
        <time>2026-07-04T14:12:33.000Z</time>
      </trkpt>
      <trkpt lat="46.14732" lon="6.75984">
        <ele>1265.4000244141</ele>
        <time>2026-07-04T14:12:41.000Z</time>
      </trkpt>
      <trkpt lat="46.14735" lon="6.7598">
        <ele>1265</ele>
        <time>2026-07-04T14:12:44.000Z</time>
      </trkpt>
      <trkpt lat="46.14738" lon="6.75975">
        <ele>1264.8000488281</ele>
        <time>2026-07-04T14:12:49.000Z</time>
      </trkpt>
      <trkpt lat="46.14742" lon="6.75965">
        <ele>1264</ele>
        <time>2026-07-04T14:12:55.000Z</time>
      </trkpt>
      <trkpt lat="46.14745" lon="6.75959">
        <ele>1263.4000244141</ele>
        <time>2026-07-04T14:12:59.000Z</time>
      </trkpt>
      <trkpt lat="46.14754" lon="6.75947">
        <ele>1263.5999755859</ele>
        <time>2026-07-04T14:13:08.000Z</time>
      </trkpt>
      <trkpt lat="46.14757" lon="6.75947">
        <ele>1262.8000488281</ele>
        <time>2026-07-04T14:13:12.000Z</time>
      </trkpt>
      <trkpt lat="46.14759" lon="6.75945">
        <ele>1262</ele>
        <time>2026-07-04T14:13:14.000Z</time>
      </trkpt>
      <trkpt lat="46.1476" lon="6.75943">
        <ele>1261.4000244141</ele>
        <time>2026-07-04T14:13:16.000Z</time>
      </trkpt>
      <trkpt lat="46.14764" lon="6.75939">
        <ele>1260.1999511719</ele>
        <time>2026-07-04T14:13:20.000Z</time>
      </trkpt>
      <trkpt lat="46.14765" lon="6.75938">
        <ele>1259.8000488281</ele>
        <time>2026-07-04T14:13:22.000Z</time>
      </trkpt>
      <trkpt lat="46.14768" lon="6.75934">
        <ele>1259.1999511719</ele>
        <time>2026-07-04T14:13:24.000Z</time>
      </trkpt>
      <trkpt lat="46.1477" lon="6.75929">
        <ele>1258</ele>
        <time>2026-07-04T14:13:28.000Z</time>
      </trkpt>
      <trkpt lat="46.14772" lon="6.75926">
        <ele>1257.5999755859</ele>
        <time>2026-07-04T14:13:30.000Z</time>
      </trkpt>
      <trkpt lat="46.14773" lon="6.75924">
        <ele>1257</ele>
        <time>2026-07-04T14:13:33.000Z</time>
      </trkpt>
      <trkpt lat="46.14776" lon="6.7592">
        <ele>1255.8000488281</ele>
        <time>2026-07-04T14:13:37.000Z</time>
      </trkpt>
      <trkpt lat="46.1478" lon="6.75916">
        <ele>1254.5999755859</ele>
        <time>2026-07-04T14:13:41.000Z</time>
      </trkpt>
      <trkpt lat="46.14783" lon="6.75911">
        <ele>1253.1999511719</ele>
        <time>2026-07-04T14:13:45.000Z</time>
      </trkpt>
      <trkpt lat="46.14787" lon="6.75907">
        <ele>1252.1999511719</ele>
        <time>2026-07-04T14:13:48.000Z</time>
      </trkpt>
      <trkpt lat="46.1479" lon="6.75905">
        <ele>1251</ele>
        <time>2026-07-04T14:13:51.000Z</time>
      </trkpt>
      <trkpt lat="46.14791" lon="6.75904">
        <ele>1250.1999511719</ele>
        <time>2026-07-04T14:13:53.000Z</time>
      </trkpt>
      <trkpt lat="46.14791" lon="6.75904">
        <ele>1250</ele>
        <time>2026-07-04T14:13:54.000Z</time>
      </trkpt>
      <trkpt lat="46.14796" lon="6.75902">
        <ele>1248.8000488281</ele>
        <time>2026-07-04T14:13:58.000Z</time>
      </trkpt>
      <trkpt lat="46.14798" lon="6.75902">
        <ele>1248.1999511719</ele>
        <time>2026-07-04T14:14:00.000Z</time>
      </trkpt>
      <trkpt lat="46.148" lon="6.75903">
        <ele>1247.5999755859</ele>
        <time>2026-07-04T14:14:02.000Z</time>
      </trkpt>
      <trkpt lat="46.14804" lon="6.7591">
        <ele>1246.5999755859</ele>
        <time>2026-07-04T14:14:07.000Z</time>
      </trkpt>
      <trkpt lat="46.14804" lon="6.75911">
        <ele>1246.4000244141</ele>
        <time>2026-07-04T14:14:08.000Z</time>
      </trkpt>
      <trkpt lat="46.14805" lon="6.7592">
        <ele>1245.4000244141</ele>
        <time>2026-07-04T14:14:13.000Z</time>
      </trkpt>
      <trkpt lat="46.14805" lon="6.75923">
        <ele>1245</ele>
        <time>2026-07-04T14:14:15.000Z</time>
      </trkpt>
      <trkpt lat="46.14811" lon="6.75936">
        <ele>1244.8000488281</ele>
        <time>2026-07-04T14:14:23.000Z</time>
      </trkpt>
      <trkpt lat="46.14821" lon="6.75944">
        <ele>1245.4000244141</ele>
        <time>2026-07-04T14:14:32.000Z</time>
      </trkpt>
      <trkpt lat="46.14826" lon="6.75943">
        <ele>1245.1999511719</ele>
        <time>2026-07-04T14:14:39.000Z</time>
      </trkpt>
      <trkpt lat="46.14827" lon="6.75942">
        <ele>1244.5999755859</ele>
        <time>2026-07-04T14:14:47.000Z</time>
      </trkpt>
      <trkpt lat="46.14828" lon="6.75941">
        <ele>1244.4000244141</ele>
        <time>2026-07-04T14:14:49.000Z</time>
      </trkpt>
      <trkpt lat="46.14829" lon="6.75937">
        <ele>1244.8000488281</ele>
        <time>2026-07-04T14:14:55.000Z</time>
      </trkpt>
      <trkpt lat="46.1483" lon="6.75934">
        <ele>1244.8000488281</ele>
        <time>2026-07-04T14:15:04.000Z</time>
      </trkpt>
      <trkpt lat="46.14838" lon="6.75929">
        <ele>1244.1999511719</ele>
        <time>2026-07-04T14:15:11.000Z</time>
      </trkpt>
      <trkpt lat="46.14842" lon="6.75928">
        <ele>1244</ele>
        <time>2026-07-04T14:15:14.000Z</time>
      </trkpt>
      <trkpt lat="46.14852" lon="6.75921">
        <ele>1243.4000244141</ele>
        <time>2026-07-04T14:15:23.000Z</time>
      </trkpt>
      <trkpt lat="46.14855" lon="6.75919">
        <ele>1243.1999511719</ele>
        <time>2026-07-04T14:15:26.000Z</time>
      </trkpt>
      <trkpt lat="46.14862" lon="6.75913">
        <ele>1242.4000244141</ele>
        <time>2026-07-04T14:15:33.000Z</time>
      </trkpt>
      <trkpt lat="46.14863" lon="6.75912">
        <ele>1242.1999511719</ele>
        <time>2026-07-04T14:15:34.000Z</time>
      </trkpt>
      <trkpt lat="46.14869" lon="6.7591">
        <ele>1241.4000244141</ele>
        <time>2026-07-04T14:15:39.000Z</time>
      </trkpt>
      <trkpt lat="46.1487" lon="6.7591">
        <ele>1241.1999511719</ele>
        <time>2026-07-04T14:15:40.000Z</time>
      </trkpt>
      <trkpt lat="46.14871" lon="6.75909">
        <ele>1240.8000488281</ele>
        <time>2026-07-04T14:15:41.000Z</time>
      </trkpt>
      <trkpt lat="46.14875" lon="6.75908">
        <ele>1240.1999511719</ele>
        <time>2026-07-04T14:15:44.000Z</time>
      </trkpt>
      <trkpt lat="46.14881" lon="6.7591">
        <ele>1239.1999511719</ele>
        <time>2026-07-04T14:15:50.000Z</time>
      </trkpt>
      <trkpt lat="46.14882" lon="6.7591">
        <ele>1238.8000488281</ele>
        <time>2026-07-04T14:15:51.000Z</time>
      </trkpt>
      <trkpt lat="46.14889" lon="6.75913">
        <ele>1237.8000488281</ele>
        <time>2026-07-04T14:15:58.000Z</time>
      </trkpt>
      <trkpt lat="46.14893" lon="6.75916">
        <ele>1236.8000488281</ele>
        <time>2026-07-04T14:16:03.000Z</time>
      </trkpt>
      <trkpt lat="46.14894" lon="6.75917">
        <ele>1236.5999755859</ele>
        <time>2026-07-04T14:16:04.000Z</time>
      </trkpt>
      <trkpt lat="46.149" lon="6.75923">
        <ele>1235.4000244141</ele>
        <time>2026-07-04T14:16:11.000Z</time>
      </trkpt>
      <trkpt lat="46.14903" lon="6.75925">
        <ele>1235</ele>
        <time>2026-07-04T14:16:14.000Z</time>
      </trkpt>
      <trkpt lat="46.14907" lon="6.75925">
        <ele>1234.4000244141</ele>
        <time>2026-07-04T14:16:18.000Z</time>
      </trkpt>
      <trkpt lat="46.14914" lon="6.75921">
        <ele>1233.5999755859</ele>
        <time>2026-07-04T14:16:24.000Z</time>
      </trkpt>
      <trkpt lat="46.14917" lon="6.7592">
        <ele>1233.1999511719</ele>
        <time>2026-07-04T14:16:26.000Z</time>
      </trkpt>
      <trkpt lat="46.14922" lon="6.75913">
        <ele>1232.4000244141</ele>
        <time>2026-07-04T14:16:31.000Z</time>
      </trkpt>
      <trkpt lat="46.14923" lon="6.75911">
        <ele>1232</ele>
        <time>2026-07-04T14:16:32.000Z</time>
      </trkpt>
      <trkpt lat="46.14924" lon="6.7591">
        <ele>1232</ele>
        <time>2026-07-04T14:16:33.000Z</time>
      </trkpt>
      <trkpt lat="46.14925" lon="6.75908">
        <ele>1231.8000488281</ele>
        <time>2026-07-04T14:16:34.000Z</time>
      </trkpt>
      <trkpt lat="46.14927" lon="6.75906">
        <ele>1231.4000244141</ele>
        <time>2026-07-04T14:16:36.000Z</time>
      </trkpt>
      <trkpt lat="46.14929" lon="6.759">
        <ele>1231</ele>
        <time>2026-07-04T14:16:40.000Z</time>
      </trkpt>
      <trkpt lat="46.14929" lon="6.759">
        <ele>1230.8000488281</ele>
        <time>2026-07-04T14:16:41.000Z</time>
      </trkpt>
      <trkpt lat="46.14932" lon="6.75895">
        <ele>1230.1999511719</ele>
        <time>2026-07-04T14:16:44.000Z</time>
      </trkpt>
      <trkpt lat="46.14933" lon="6.75892">
        <ele>1230</ele>
        <time>2026-07-04T14:16:46.000Z</time>
      </trkpt>
      <trkpt lat="46.14935" lon="6.75888">
        <ele>1229.4000244141</ele>
        <time>2026-07-04T14:16:49.000Z</time>
      </trkpt>
      <trkpt lat="46.14935" lon="6.75887">
        <ele>1229.1999511719</ele>
        <time>2026-07-04T14:16:51.000Z</time>
      </trkpt>
      <trkpt lat="46.14937" lon="6.75883">
        <ele>1229</ele>
        <time>2026-07-04T14:16:52.000Z</time>
      </trkpt>
      <trkpt lat="46.14941" lon="6.75874">
        <ele>1227.5999755859</ele>
        <time>2026-07-04T14:17:00.000Z</time>
      </trkpt>
      <trkpt lat="46.14942" lon="6.75871">
        <ele>1227.1999511719</ele>
        <time>2026-07-04T14:17:03.000Z</time>
      </trkpt>
      <trkpt lat="46.14945" lon="6.75864">
        <ele>1226.5999755859</ele>
        <time>2026-07-04T14:17:07.000Z</time>
      </trkpt>
      <trkpt lat="46.14948" lon="6.7585">
        <ele>1225.8000488281</ele>
        <time>2026-07-04T14:17:13.000Z</time>
      </trkpt>
      <trkpt lat="46.14948" lon="6.75847">
        <ele>1225.4000244141</ele>
        <time>2026-07-04T14:17:15.000Z</time>
      </trkpt>
      <trkpt lat="46.14952" lon="6.75832">
        <ele>1224.8000488281</ele>
        <time>2026-07-04T14:17:24.000Z</time>
      </trkpt>
      <trkpt lat="46.14952" lon="6.75827">
        <ele>1224.4000244141</ele>
        <time>2026-07-04T14:17:27.000Z</time>
      </trkpt>
      <trkpt lat="46.14952" lon="6.75819">
        <ele>1223.4000244141</ele>
        <time>2026-07-04T14:17:33.000Z</time>
      </trkpt>
      <trkpt lat="46.14952" lon="6.75817">
        <ele>1223.1999511719</ele>
        <time>2026-07-04T14:17:34.000Z</time>
      </trkpt>
      <trkpt lat="46.14951" lon="6.75803">
        <ele>1222</ele>
        <time>2026-07-04T14:17:40.000Z</time>
      </trkpt>
      <trkpt lat="46.1495" lon="6.75794">
        <ele>1221.1999511719</ele>
        <time>2026-07-04T14:17:45.000Z</time>
      </trkpt>
      <trkpt lat="46.1495" lon="6.75794">
        <ele>1221</ele>
        <time>2026-07-04T14:17:46.000Z</time>
      </trkpt>
      <trkpt lat="46.14949" lon="6.75783">
        <ele>1220.4000244141</ele>
        <time>2026-07-04T14:17:53.000Z</time>
      </trkpt>
      <trkpt lat="46.14949" lon="6.75776">
        <ele>1220</ele>
        <time>2026-07-04T14:17:56.000Z</time>
      </trkpt>
      <trkpt lat="46.1495" lon="6.75764">
        <ele>1218.8000488281</ele>
        <time>2026-07-04T14:18:01.000Z</time>
      </trkpt>
      <trkpt lat="46.1495" lon="6.75758">
        <ele>1218.1999511719</ele>
        <time>2026-07-04T14:18:04.000Z</time>
      </trkpt>
      <trkpt lat="46.14949" lon="6.75753">
        <ele>1217.5999755859</ele>
        <time>2026-07-04T14:18:07.000Z</time>
      </trkpt>
      <trkpt lat="46.14948" lon="6.7574">
        <ele>1217</ele>
        <time>2026-07-04T14:18:14.000Z</time>
      </trkpt>
      <trkpt lat="46.14947" lon="6.75735">
        <ele>1216.4000244141</ele>
        <time>2026-07-04T14:18:17.000Z</time>
      </trkpt>
      <trkpt lat="46.14947" lon="6.75727">
        <ele>1215.4000244141</ele>
        <time>2026-07-04T14:18:21.000Z</time>
      </trkpt>
      <trkpt lat="46.14947" lon="6.75721">
        <ele>1214.8000488281</ele>
        <time>2026-07-04T14:18:24.000Z</time>
      </trkpt>
      <trkpt lat="46.14946" lon="6.75717">
        <ele>1214.4000244141</ele>
        <time>2026-07-04T14:18:27.000Z</time>
      </trkpt>
      <trkpt lat="46.14946" lon="6.75701">
        <ele>1213.1999511719</ele>
        <time>2026-07-04T14:18:34.000Z</time>
      </trkpt>
      <trkpt lat="46.14946" lon="6.75699">
        <ele>1213.1999511719</ele>
        <time>2026-07-04T14:18:35.000Z</time>
      </trkpt>
      <trkpt lat="46.14945" lon="6.75693">
        <ele>1212.8000488281</ele>
        <time>2026-07-04T14:18:39.000Z</time>
      </trkpt>
      <trkpt lat="46.14945" lon="6.75687">
        <ele>1212</ele>
        <time>2026-07-04T14:18:42.000Z</time>
      </trkpt>
      <trkpt lat="46.14945" lon="6.75684">
        <ele>1211.8000488281</ele>
        <time>2026-07-04T14:18:44.000Z</time>
      </trkpt>
      <trkpt lat="46.14944" lon="6.75673">
        <ele>1211</ele>
        <time>2026-07-04T14:18:49.000Z</time>
      </trkpt>
      <trkpt lat="46.14944" lon="6.75667">
        <ele>1210.8000488281</ele>
        <time>2026-07-04T14:18:52.000Z</time>
      </trkpt>
      <trkpt lat="46.14944" lon="6.75656">
        <ele>1210</ele>
        <time>2026-07-04T14:18:58.000Z</time>
      </trkpt>
      <trkpt lat="46.14944" lon="6.75654">
        <ele>1209.5999755859</ele>
        <time>2026-07-04T14:18:59.000Z</time>
      </trkpt>
      <trkpt lat="46.14944" lon="6.75649">
        <ele>1209</ele>
        <time>2026-07-04T14:19:02.000Z</time>
      </trkpt>
      <trkpt lat="46.14943" lon="6.75646">
        <ele>1208.5999755859</ele>
        <time>2026-07-04T14:19:04.000Z</time>
      </trkpt>
      <trkpt lat="46.14943" lon="6.75634">
        <ele>1207.5999755859</ele>
        <time>2026-07-04T14:19:10.000Z</time>
      </trkpt>
      <trkpt lat="46.14942" lon="6.75626">
        <ele>1207</ele>
        <time>2026-07-04T14:19:15.000Z</time>
      </trkpt>
      <trkpt lat="46.14941" lon="6.75617">
        <ele>1206.4000244141</ele>
        <time>2026-07-04T14:19:19.000Z</time>
      </trkpt>
      <trkpt lat="46.14941" lon="6.75612">
        <ele>1205.8000488281</ele>
        <time>2026-07-04T14:19:22.000Z</time>
      </trkpt>
      <trkpt lat="46.1494" lon="6.75606">
        <ele>1205.4000244141</ele>
        <time>2026-07-04T14:19:25.000Z</time>
      </trkpt>
      <trkpt lat="46.14941" lon="6.75598">
        <ele>1204.8000488281</ele>
        <time>2026-07-04T14:19:30.000Z</time>
      </trkpt>
      <trkpt lat="46.14941" lon="6.75592">
        <ele>1204.4000244141</ele>
        <time>2026-07-04T14:19:34.000Z</time>
      </trkpt>
      <trkpt lat="46.1494" lon="6.75583">
        <ele>1203.8000488281</ele>
        <time>2026-07-04T14:19:38.000Z</time>
      </trkpt>
      <trkpt lat="46.1494" lon="6.75577">
        <ele>1203.1999511719</ele>
        <time>2026-07-04T14:19:43.000Z</time>
      </trkpt>
      <trkpt lat="46.1494" lon="6.75568">
        <ele>1203</ele>
        <time>2026-07-04T14:19:48.000Z</time>
      </trkpt>
      <trkpt lat="46.14939" lon="6.75553">
        <ele>1202</ele>
        <time>2026-07-04T14:19:55.000Z</time>
      </trkpt>
      <trkpt lat="46.14939" lon="6.7555">
        <ele>1201.5999755859</ele>
        <time>2026-07-04T14:19:57.000Z</time>
      </trkpt>
      <trkpt lat="46.14938" lon="6.75541">
        <ele>1201</ele>
        <time>2026-07-04T14:20:02.000Z</time>
      </trkpt>
      <trkpt lat="46.14938" lon="6.75534">
        <ele>1200.5999755859</ele>
        <time>2026-07-04T14:20:06.000Z</time>
      </trkpt>
      <trkpt lat="46.14938" lon="6.75521">
        <ele>1199.8000488281</ele>
        <time>2026-07-04T14:20:13.000Z</time>
      </trkpt>
      <trkpt lat="46.14936" lon="6.75503">
        <ele>1198.8000488281</ele>
        <time>2026-07-04T14:20:23.000Z</time>
      </trkpt>
      <trkpt lat="46.14936" lon="6.75495">
        <ele>1197.8000488281</ele>
        <time>2026-07-04T14:20:28.000Z</time>
      </trkpt>
      <trkpt lat="46.14936" lon="6.7549">
        <ele>1197.4000244141</ele>
        <time>2026-07-04T14:20:30.000Z</time>
      </trkpt>
      <trkpt lat="46.14935" lon="6.75476">
        <ele>1196.8000488281</ele>
        <time>2026-07-04T14:20:37.000Z</time>
      </trkpt>
      <trkpt lat="46.14935" lon="6.75471">
        <ele>1196.4000244141</ele>
        <time>2026-07-04T14:20:40.000Z</time>
      </trkpt>
      <trkpt lat="46.14935" lon="6.75465">
        <ele>1195.8000488281</ele>
        <time>2026-07-04T14:20:44.000Z</time>
      </trkpt>
      <trkpt lat="46.14935" lon="6.75456">
        <ele>1194.8000488281</ele>
        <time>2026-07-04T14:20:48.000Z</time>
      </trkpt>
      <trkpt lat="46.14935" lon="6.75455">
        <ele>1194.5999755859</ele>
        <time>2026-07-04T14:20:49.000Z</time>
      </trkpt>
      <trkpt lat="46.14934" lon="6.75438">
        <ele>1194.1999511719</ele>
        <time>2026-07-04T14:20:58.000Z</time>
      </trkpt>
      <trkpt lat="46.14935" lon="6.75427">
        <ele>1193.5999755859</ele>
        <time>2026-07-04T14:21:04.000Z</time>
      </trkpt>
      <trkpt lat="46.14936" lon="6.75416">
        <ele>1192.8000488281</ele>
        <time>2026-07-04T14:21:10.000Z</time>
      </trkpt>
      <trkpt lat="46.14938" lon="6.75408">
        <ele>1192.4000244141</ele>
        <time>2026-07-04T14:21:14.000Z</time>
      </trkpt>
      <trkpt lat="46.14941" lon="6.75398">
        <ele>1191.4000244141</ele>
        <time>2026-07-04T14:21:20.000Z</time>
      </trkpt>
      <trkpt lat="46.14942" lon="6.75396">
        <ele>1191.1999511719</ele>
        <time>2026-07-04T14:21:21.000Z</time>
      </trkpt>
      <trkpt lat="46.14945" lon="6.7538">
        <ele>1190.4000244141</ele>
        <time>2026-07-04T14:21:31.000Z</time>
      </trkpt>
      <trkpt lat="46.14945" lon="6.75376">
        <ele>1190.1999511719</ele>
        <time>2026-07-04T14:21:32.000Z</time>
      </trkpt>
      <trkpt lat="46.14947" lon="6.75368">
        <ele>1189.5999755859</ele>
        <time>2026-07-04T14:21:38.000Z</time>
      </trkpt>
      <trkpt lat="46.14948" lon="6.75361">
        <ele>1189.4000244141</ele>
        <time>2026-07-04T14:21:40.000Z</time>
      </trkpt>
      <trkpt lat="46.14948" lon="6.75356">
        <ele>1189.4000244141</ele>
        <time>2026-07-04T14:21:44.000Z</time>
      </trkpt>
      <trkpt lat="46.1495" lon="6.75344">
        <ele>1188.8000488281</ele>
        <time>2026-07-04T14:21:50.000Z</time>
      </trkpt>
      <trkpt lat="46.1495" lon="6.75336">
        <ele>1188.1999511719</ele>
        <time>2026-07-04T14:21:53.000Z</time>
      </trkpt>
      <trkpt lat="46.14951" lon="6.75327">
        <ele>1187.5999755859</ele>
        <time>2026-07-04T14:21:58.000Z</time>
      </trkpt>
      <trkpt lat="46.14952" lon="6.7532">
        <ele>1187.1999511719</ele>
        <time>2026-07-04T14:22:02.000Z</time>
      </trkpt>
      <trkpt lat="46.14953" lon="6.75309">
        <ele>1186.4000244141</ele>
        <time>2026-07-04T14:22:08.000Z</time>
      </trkpt>
      <trkpt lat="46.14954" lon="6.75306">
        <ele>1186.1999511719</ele>
        <time>2026-07-04T14:22:10.000Z</time>
      </trkpt>
      <trkpt lat="46.14956" lon="6.75291">
        <ele>1185.1999511719</ele>
        <time>2026-07-04T14:22:18.000Z</time>
      </trkpt>
      <trkpt lat="46.14958" lon="6.75286">
        <ele>1185</ele>
        <time>2026-07-04T14:22:21.000Z</time>
      </trkpt>
      <trkpt lat="46.1496" lon="6.75276">
        <ele>1184.5999755859</ele>
        <time>2026-07-04T14:22:28.000Z</time>
      </trkpt>
      <trkpt lat="46.14961" lon="6.75261">
        <ele>1184</ele>
        <time>2026-07-04T14:22:35.000Z</time>
      </trkpt>
      <trkpt lat="46.14961" lon="6.75256">
        <ele>1183.5999755859</ele>
        <time>2026-07-04T14:22:37.000Z</time>
      </trkpt>
      <trkpt lat="46.14963" lon="6.75246">
        <ele>1183</ele>
        <time>2026-07-04T14:22:42.000Z</time>
      </trkpt>
      <trkpt lat="46.14965" lon="6.75238">
        <ele>1182.1999511719</ele>
        <time>2026-07-04T14:22:47.000Z</time>
      </trkpt>
      <trkpt lat="46.14967" lon="6.75234">
        <ele>1182</ele>
        <time>2026-07-04T14:22:49.000Z</time>
      </trkpt>
      <trkpt lat="46.14968" lon="6.7523">
        <ele>1181.4000244141</ele>
        <time>2026-07-04T14:22:53.000Z</time>
      </trkpt>
      <trkpt lat="46.14969" lon="6.75227">
        <ele>1180.8000488281</ele>
        <time>2026-07-04T14:22:56.000Z</time>
      </trkpt>
      <trkpt lat="46.14971" lon="6.75225">
        <ele>1180.4000244141</ele>
        <time>2026-07-04T14:23:00.000Z</time>
      </trkpt>
      <trkpt lat="46.14972" lon="6.75225">
        <ele>1180.4000244141</ele>
        <time>2026-07-04T14:23:01.000Z</time>
      </trkpt>
    </trkseg>
  </trk>
</gpx>